# Wetter Temperatur Luftdruck Luftfeuchtigkeit Sichtweite Windgeschwindigkeit Windrichtung Zeit
1 Clouds 19 1014 52 14484 3.32 205 21:58 02.04.2020
2 Clear 18 1015 46 16093 3.32 205 21:37 02.04.2020
3 Clouds 18 1015 63 16093 3.6 260 21:18 02.04.2020
4 Clouds 18 1015 52 16093 1.32 175 20:44 02.04.2020
5 Clouds 18 1015 52 16093 1.32 175 20:25 02.04.2020
6 Clouds 17 1015 52 16093 1.32 175 19:57 02.04.2020
7 Clouds 17 1015 59 16093 1.32 175 19:39 02.04.2020
8 Clouds 17 1015 59 16093 1.32 175 19:20 02.04.2020
9 Clouds 16 1014 59 14484 1.5 100 18:55 02.04.2020
10 Clouds 16 1014 59 14484 1.5 100 18:36 02.04.2020
11 Clouds 16 1014 59 14484 1.5 100 18:18 02.04.2020
12 Clouds 15 1014 63 14484 1.43 116 17:43 02.04.2020
13 Clouds 14 1014 63 14484 1.43 116 17:24 02.04.2020
14 Clouds 14 1013 63 16093 1.43 116 16:58 02.04.2020
15 Clouds 14 1013 63 16093 1.43 116 16:40 02.04.2020
16 Clouds 14 1013 63 16093 1.43 116 16:22 02.04.2020
17 Clouds 14 1013 63 16093 1.43 116 15:57 02.04.2020
18 Clouds 14 1013 63 16093 1.43 116 15:39 02.04.2020
19 Clouds 14 1013 63 16093 1.5 0 15:19 02.04.2020
20 Clouds 14 1013 63 16093 1.5 0 14:57 02.04.2020
21 Clouds 14 1013 63 16093 1.5 0 14:38 02.04.2020
22 Clouds 14 1013 63 16093 1.5 0 14:18 02.04.2020
23 Clouds 14 1013 67 16093 1.5 0 13:55 02.04.2020
24 Clouds 14 1013 67 16093 1.5 0 13:37 02.04.2020
25 Clouds 14 1013 67 16093 1.5 0 13:18 02.04.2020
26 Clouds 14 1013 63 16093 2.6 120 12:45 02.04.2020
27 Clouds 14 1013 63 16093 2.6 120 12:19 02.04.2020
28 Clouds 14 1013 67 16093 1.5 0 11:58 02.04.2020
29 Clouds 14 1013 67 16093 1.5 0 11:58 02.04.2020
30 Clouds 14 1013 67 16093 1.5 0 11:58 02.04.2020
31 Clouds 14 1013 67 16093 1.5 0 11:39 02.04.2020
32 Clouds 14 1013 67 16093 1.5 0 11:20 02.04.2020
33 Clouds 14 1013 67 16093 1.5 0 10:57 02.04.2020
34 Clouds 14 1013 67 16093 2.6 120 10:38 02.04.2020
35 Clouds 14 1013 67 16093 2.6 120 10:20 02.04.2020
36 Clouds 14 1013 67 16093 2.6 120 09:59 02.04.2020
37 Clouds 14 1013 72 14484 2.1 0 09:41 02.04.2020
38 Clouds 14 1013 72 14484 2.1 0 09:21 02.04.2020
39 Clouds 14 1013 77 16093 2.6 130 08:47 02.04.2020
40 Clouds 14 1013 77 16093 2.6 130 08:28 02.04.2020
41 Clouds 14 1012 77 16093 2.1 120 07:59 02.04.2020
42 Clear 14 1012 77 16093 2.47 170 07:40 02.04.2020
43 Clear 14 1012 77 16093 2.47 170 07:19 02.04.2020
44 Clear 14 1012 77 16093 2.47 170 06:25 02.04.2020
45 Clear 15 1011 77 16093 1.5 250 05:46 02.04.2020
46 Clear 16 1011 68 16093 2.8 185 04:58 02.04.2020
47 Clear 20 1010 56 16093 4.09 218 02:26 02.04.2020
48 Clear 20 1010 53 16093 1.5 0 01:27 02.04.2020
49 Clear 21 1010 53 16093 3.1 260 00:41 02.04.2020
50 Clear 21 1010 53 16093 3.1 260 00:20 02.04.2020
51 Clear 21 1011 53 16093 4.37 214 23:40 01.04.2020
52 Clear 21 1011 53 16093 4.37 214 23:19 01.04.2020
53 Clear 21 1011 53 14484 3.1 260 22:57 01.04.2020
54 Clear 21 1011 53 14484 3.1 260 22:57 01.04.2020
55 Clear 21 1011 53 14484 3.1 260 22:38 01.04.2020
56 Clear 21 1011 53 14484 3.1 260 22:20 01.04.2020
57 Clear 21 1011 43 16093 1.5 0 21:41 01.04.2020
58 Clear 20 1011 43 16093 1.5 0 21:19 01.04.2020
59 Clear 20 1011 43 16093 1.5 0 20:57 01.04.2020
60 Clear 20 1012 49 14484 1.5 0 20:39 01.04.2020
61 Clear 19 1012 49 14484 1.5 0 20:20 01.04.2020
62 Clear 19 1012 49 14484 1.5 0 19:59 01.04.2020
63 Clear 19 1012 56 11265 2.11 199 19:40 01.04.2020
64 Clear 18 1012 56 11265 2.11 199 19:20 01.04.2020
65 Haze 17 1012 68 9656 2.11 199 18:44 01.04.2020
66 Haze 17 1012 68 9656 2.11 199 18:25 01.04.2020
67 Haze 16 1012 72 9656 0.27 216 17:58 01.04.2020
68 Haze 15 1012 72 9656 0.27 216 17:38 01.04.2020
69 Haze 14 1011 77 8047 0.27 216 17:19 01.04.2020
70 Haze 14 1011 77 9656 0.27 216 16:59 01.04.2020
71 Haze 13 1011 77 9656 0.27 216 16:39 01.04.2020
72 Clouds 13 1011 87 12874 2.6 130 16:21 01.04.2020
73 Clear 12 1011 76 16093 1.5 110 15:58 01.04.2020
74 Mist 13 1011 87 9656 1.5 0 15:38 01.04.2020
75 Mist 13 1011 87 9656 1.5 0 15:19 01.04.2020
76 Mist 13 1011 87 8047 2.1 140 14:56 01.04.2020
77 Clouds 13 1011 93 16093 1.31 186 14:38 01.04.2020
78 Mist 13 1011 87 8047 2.1 140 14:19 01.04.2020
79 Mist 13 1011 87 9656 3.1 130 13:57 01.04.2020
80 Clouds 13 1010 77 12874 1.26 193 13:37 01.04.2020
81 Clear 13 1011 72 16093 1.26 193 13:18 01.04.2020
82 Clear 14 1011 72 16093 1.26 193 12:43 01.04.2020
83 Clear 14 1011 72 16093 1.26 193 12:24 01.04.2020
84 Clear 14 1011 72 16093 0.53 178 11:59 01.04.2020
85 Clear 14 1012 72 16093 0.53 178 11:40 01.04.2020
86 Clear 14 1011 67 16093 0.53 178 11:21 01.04.2020
87 Clear 14 1012 67 16093 0.53 178 10:56 01.04.2020
88 Clear 14 1012 67 16093 0.53 178 10:37 01.04.2020
89 Clear 15 1012 67 16093 0.53 178 10:18 01.04.2020
90 Clear 15 1012 67 16093 0.53 178 09:54 01.04.2020
91 Clear 15 1012 67 16093 0.53 178 09:36 01.04.2020
92 Clear 15 1012 67 16093 1.49 193 09:18 01.04.2020
93 Clear 16 1012 67 16093 1.76 186 08:40 01.04.2020
94 Clear 16 1012 67 16093 1.76 186 08:18 01.04.2020
95 Clear 16 1013 59 16093 1.76 186 07:43 01.04.2020
96 Clear 16 1013 59 16093 1.76 186 07:20 01.04.2020
97 Clear 17 1012 55 16093 1.76 186 06:48 01.04.2020
98 Clear 17 1012 55 16093 1.76 186 06:24 01.04.2020
99 Clear 17 1012 42 16093 1.5 270 05:56 01.04.2020
100 Clear 19 1012 40 16093 1.77 249 04:32 01.04.2020
101 Clear 20 1013 35 16093 2.1 0 03:30 01.04.2020
102 Clear 21 1013 35 16093 2.1 0 02:49 01.04.2020
103 Clear 22 1013 35 16093 2.1 0 01:59 01.04.2020
104 Clear 23 1014 33 16093 3.1 260 01:39 01.04.2020
105 Clear 23 1014 33 16093 3.1 260 01:18 01.04.2020
106 Clear 23 1014 36 16093 3.32 240 00:46 01.04.2020
107 Clear 23 1014 36 16093 2.93 246 00:21 01.04.2020
108 Clear 23 1014 38 16093 2.1 250 23:48 31.03.2020
109 Clear 23 1014 38 16093 2.1 250 23:27 31.03.2020
110 Clear 23 1015 41 16093 1.5 250 22:59 31.03.2020
111 Clear 23 1015 41 16093 1.5 250 22:37 31.03.2020
112 Clear 23 1015 41 16093 1.5 250 22:19 31.03.2020
113 Clear 22 1016 33 16093 1.5 0 21:57 31.03.2020
114 Clear 22 1016 33 16093 1.5 0 21:39 31.03.2020
115 Clear 21 1016 33 16093 1.5 0 21:20 31.03.2020
116 -273 0 0 0 0 0 20:55 31.03.2020
117 Clear 21 1017 33 16093 1.5 0 20:36 31.03.2020
118 Clear 21 1017 33 16093 1.5 0 20:36 31.03.2020
119 Clouds 20 1017 40 16093 1.5 30 20:18 31.03.2020
120 Clear 19 1017 46 14484 1.48 263 19:42 31.03.2020
121 Clear 19 1017 46 14484 1.48 263 19:24 31.03.2020
122 Clear 18 1018 59 14484 1.48 263 18:59 31.03.2020
123 Clear 17 1018 59 14484 1.48 263 18:41 31.03.2020
124 Clear 16 1018 59 14484 1.14 335 18:19 31.03.2020
125 Clear 15 1018 63 14484 1.14 335 17:55 31.03.2020
126 Clear 15 1018 63 14484 1.14 335 17:37 31.03.2020
127 Clear 15 1018 63 14484 1.14 335 17:37 31.03.2020
128 Clear 13 1018 63 14484 1.14 335 17:19 31.03.2020
129 Clear 12 1018 71 16093 1.5 110 16:41 31.03.2020
130 Clear 12 1018 71 16093 1.5 110 16:20 31.03.2020
131 Clear 11 1018 71 16093 1.14 335 15:58 31.03.2020
132 Clear 11 1018 71 16093 1.14 335 15:40 31.03.2020
133 Clear 11 1018 71 16093 0.68 359 15:22 31.03.2020
134 Clear 12 1018 71 16093 0.68 359 14:58 31.03.2020
135 Clear 12 1018 71 16093 0.68 359 14:40 31.03.2020
136 Clear 12 1018 71 16093 0.68 359 14:21 31.03.2020
137 Clear 11 1019 71 16093 0.83 6 13:54 31.03.2020
138 Clear 12 1019 71 16093 0.83 6 13:36 31.03.2020
139 Clear 12 1019 71 16093 0.83 6 13:18 31.03.2020
140 Clear 12 1019 71 16093 0.83 6 12:42 31.03.2020
141 Clear 12 1019 71 16093 0.28 152 12:20 31.03.2020
142 Clear 12 1020 71 16093 0.28 152 11:55 31.03.2020
143 Clear 12 1020 71 16093 0.28 152 11:36 31.03.2020
144 Clear 12 1020 71 16093 0.28 152 11:18 31.03.2020
145 Clear 12 1020 72 16093 0.28 152 10:55 31.03.2020
146 Clear 12 1020 72 16093 0.28 152 10:37 31.03.2020
147 Clear 12 1020 72 16093 0.28 152 10:18 31.03.2020
148 Clear 12 1021 72 16093 0.28 152 09:43 31.03.2020
149 Clear 12 1021 72 16093 0.19 181 09:24 31.03.2020
150 Clear 13 1021 72 16093 0.19 181 08:57 31.03.2020
151 Clear 13 1022 67 16093 0.19 181 08:39 31.03.2020
152 Clear 13 1022 67 16093 0.19 181 08:19 31.03.2020
153 Clear 13 1022 63 16093 0.19 181 07:56 31.03.2020
154 Clear 13 1022 63 16093 0.19 181 07:38 31.03.2020
155 Clear 14 1022 63 16093 0.19 181 07:19 31.03.2020
156 Clear 14 1022 67 16093 0.19 181 06:51 31.03.2020
157 Clear 14 1022 67 16093 0.19 181 06:30 31.03.2020
158 Clear 15 1021 59 16093 2.1 250 05:40 31.03.2020
159 Clear 18 1021 52 16093 3.6 260 03:43 31.03.2020
160 Clear 20 1021 46 16093 2.1 250 02:26 31.03.2020
161 Clear 21 1021 43 16093 2.1 0 01:46 31.03.2020
162 Clear 21 1021 40 16093 3.6 260 00:52 31.03.2020
163 Clear 21 1021 40 16093 3.6 260 00:25 31.03.2020
164 Clear 21 1021 40 16093 3.6 260 23:59 30.03.2020
165 Clear 21 1022 31 16093 1.5 0 23:38 30.03.2020
166 Clear 21 1022 31 16093 1.5 0 23:19 30.03.2020
167 Clear 21 1023 37 16093 2.6 258 22:56 30.03.2020
168 Clear 20 1023 37 16093 2.6 258 22:37 30.03.2020
169 Clear 20 1023 37 16093 2.6 258 22:37 30.03.2020
170 Clear 20 1023 37 16093 2.6 258 22:18 30.03.2020
171 Clear 20 1024 37 16093 1.5 70 21:55 30.03.2020
172 Clear 19 1024 37 16093 1.5 70 21:37 30.03.2020
173 -273 0 0 0 0 0 21:18 30.03.2020
174 Clear 18 1024 49 16093 1.34 210 20:55 30.03.2020
175 Clear 18 1024 49 16093 1.34 210 20:36 30.03.2020
176 Clear 17 1024 49 16093 1.34 210 20:18 30.03.2020
177 Clear 17 1024 52 16093 1.34 210 19:40 30.03.2020
178 Clear 16 1024 52 16093 1.34 210 19:22 30.03.2020
179 Clear 16 1024 55 16093 1.5 0 18:57 30.03.2020
180 Clear 15 1024 55 16093 1.5 0 18:39 30.03.2020
181 Clear 14 1024 55 16093 1.5 0 18:20 30.03.2020
182 Clear 14 1023 67 14484 1.68 65 17:57 30.03.2020
183 Clear 13 1023 67 14484 1.68 65 17:38 30.03.2020
184 Clear 12 1023 67 14484 1.68 65 17:19 30.03.2020
185 Clear 11 1022 71 14484 1.68 65 16:56 30.03.2020
186 Clear 10 1022 71 14484 1.68 65 16:38 30.03.2020
187 Clear 9 1022 71 14484 1.68 65 16:19 30.03.2020
188 Clear 9 1022 71 16093 1.68 65 15:54 30.03.2020
189 Clear 9 1022 71 16093 1.68 65 15:36 30.03.2020
190 Clear 8 1022 71 16093 1.39 73 15:18 30.03.2020
191 Clear 9 1022 71 16093 1.39 73 14:54 30.03.2020
192 Clear 9 1022 71 16093 1.39 73 14:36 30.03.2020
193 Clear 9 1022 71 16093 1.63 92 14:18 30.03.2020
194 Clear 9 1021 71 16093 1.63 92 13:43 30.03.2020
195 Clear 9 1021 71 16093 1.63 92 13:21 30.03.2020
196 Clear 9 1021 71 16093 1.63 92 12:58 30.03.2020
197 Clear 10 1021 67 16093 1.63 92 12:40 30.03.2020
198 Clear 10 1021 67 16093 1.31 73 12:19 30.03.2020
199 Clear 10 1021 71 16093 1.31 73 11:56 30.03.2020
200 Clear 10 1021 71 16093 1.31 73 11:38 30.03.2020
201 Clear 11 1021 71 16093 1.31 73 11:20 30.03.2020
202 Clear 11 1021 71 16093 1.31 73 10:40 30.03.2020
203 Clear 11 1021 71 16093 1.31 73 10:22 30.03.2020
204 Clear 11 1021 71 16093 1.31 73 09:56 30.03.2020
205 Clear 11 1020 71 14484 1.31 73 09:38 30.03.2020
206 Clear 11 1020 71 14484 2.23 269 09:19 30.03.2020
207 Clear 12 1019 71 16093 2.23 269 08:42 30.03.2020
208 Clear 12 1019 71 16093 2.23 269 08:22 30.03.2020
209 Clear 12 1019 67 16093 2.23 269 07:50 30.03.2020
210 Clear 12 1019 67 16093 2.23 269 07:31 30.03.2020
211 Clear 13 1019 67 16093 2.23 269 06:57 30.03.2020
212 Clear 13 1019 67 16093 2.23 269 06:33 30.03.2020
213 Clear 13 1019 63 16093 2.1 250 05:54 30.03.2020
214 Clear 14 1019 63 16093 2.1 250 05:33 30.03.2020
215 Clear 14 1018 59 16093 3.6 260 04:24 30.03.2020
216 Clear 15 1017 52 16093 5.1 260 03:44 30.03.2020
217 Clear 17 1017 48 16093 4.1 250 02:42 30.03.2020
218 Clouds 17 1018 42 16093 2.1 250 01:48 30.03.2020
219 Clear 18 1018 45 16093 4.1 260 00:55 30.03.2020
220 Clear 18 1018 45 16093 4.1 260 00:24 30.03.2020
221 Clear 18 1019 42 16093 2.6 250 23:43 29.03.2020
222 Clear 18 1019 42 16093 2.6 250 23:24 29.03.2020
223 Clear 17 1019 42 16093 2.6 250 22:59 29.03.2020
224 Clouds 17 1019 42 16093 4.1 260 22:39 29.03.2020
225 Clouds 17 1019 42 16093 4.1 260 22:19 29.03.2020
226 Clouds 17 1019 42 16093 4.1 260 21:58 29.03.2020
227 Clear 17 1020 45 16093 1.5 0 21:37 29.03.2020
228 Clear 17 1020 45 16093 1.5 0 21:18 29.03.2020
229 Clouds 17 1020 52 14484 2.32 206 20:55 29.03.2020
230 Clouds 17 1020 52 14484 2.32 206 20:55 29.03.2020
231 Clouds 16 1020 52 14484 2.32 206 20:37 29.03.2020
232 Clouds 16 1020 52 14484 2.32 206 20:37 29.03.2020
233 Clouds 16 1020 52 14484 2.32 206 20:18 29.03.2020
234 Clouds 15 1020 59 14484 2.1 0 19:55 29.03.2020
235 Clouds 15 1020 59 14484 2.1 0 19:37 29.03.2020
236 Clouds 15 1020 59 14484 2.1 0 19:18 29.03.2020
237 Clouds 14 1020 59 14484 1.5 70 18:55 29.03.2020
238 Clouds 14 1020 59 14484 1.5 70 18:36 29.03.2020
239 Clouds 13 1020 59 14484 1.5 70 18:18 29.03.2020
240 Clouds 12 1019 67 12874 2.1 90 17:42 29.03.2020
241 Clouds 11 1019 71 14484 0.74 129 17:24 29.03.2020
242 Clouds 10 1019 66 14484 1.5 60 16:59 29.03.2020
243 Clouds 9 1019 76 16093 1.5 70 16:41 29.03.2020
244 Clouds 8 1019 71 14484 0.74 129 16:21 29.03.2020
245 Clouds 8 1019 81 16093 2.6 70 15:59 29.03.2020
246 Clouds 8 1019 81 16093 2.6 70 15:59 29.03.2020
247 Clouds 8 1018 76 16093 0.74 129 15:40 29.03.2020
248 Clouds 8 1018 81 16093 2.6 80 15:21 29.03.2020
249 Clouds 8 1018 75 16093 0.95 212 14:57 29.03.2020
250 Clear 8 1018 81 16093 0.95 212 14:38 29.03.2020
251 Clear 8 1018 81 16093 0.95 212 14:19 29.03.2020
252 Clear 8 1018 71 16093 0.69 184 13:56 29.03.2020
253 Clear 8 1018 71 16093 0.69 184 13:37 29.03.2020
254 Clear 9 1018 71 16093 0.69 184 13:19 29.03.2020
255 Clear 9 1018 76 16093 0.69 184 12:55 29.03.2020
256 Clear 9 1018 76 16093 0.69 184 12:37 29.03.2020
257 Clear 9 1018 76 16093 0.79 243 12:18 29.03.2020
258 Clear 9 1018 76 16093 0.79 243 12:18 29.03.2020
259 Clear 9 1019 76 14484 0.79 243 11:39 29.03.2020
260 Clear 10 1019 76 14484 0.79 243 11:21 29.03.2020
261 Clear 10 1019 76 14484 0.79 243 10:59 29.03.2020
262 Clear 10 1019 76 12874 0.79 243 10:37 29.03.2020
263 Clear 10 1019 76 12874 0.79 243 10:18 29.03.2020
264 Clear 11 1019 71 14484 0.79 243 09:39 29.03.2020
265 Clear 11 1019 71 14484 2.29 253 09:19 29.03.2020
266 Clear 11 1019 71 14484 2.05 255 08:53 29.03.2020
267 Clear 11 1019 71 14484 2.05 255 08:28 29.03.2020
268 Clear 11 1019 71 14484 2.05 255 08:28 29.03.2020
269 Clear 11 1019 67 16093 2.05 255 07:58 29.03.2020
270 Clear 11 1019 67 16093 2.05 255 07:58 29.03.2020
271 Clear 12 1019 67 16093 2.05 255 07:40 29.03.2020
272 Clear 12 1019 67 16093 2.05 255 07:20 29.03.2020
273 Clear 13 1019 59 16093 3.1 260 04:59 29.03.2020
274 Clear 15 1019 42 16093 2.6 250 03:55 29.03.2020
275 Clear 15 1019 42 16093 2.6 250 03:26 29.03.2020
276 Clear 16 1019 45 16093 1.5 250 01:51 29.03.2020
277 Clear 17 1019 45 16093 1.5 250 01:23 29.03.2020
278 Clear 17 1019 42 16093 3.1 260 00:55 29.03.2020
279 Clear 17 1019 42 16093 3.1 260 00:32 29.03.2020
280 Clear 17 1020 42 16093 2.6 0 23:43 28.03.2020
281 Clear 18 1020 42 16093 2.6 0 23:24 28.03.2020
282 Clouds 18 1020 45 16093 1.5 280 22:59 28.03.2020
283 Clouds 18 1020 45 16093 1.5 280 22:39 28.03.2020
284 Clouds 18 1020 45 16093 1.5 280 22:20 28.03.2020
285 Clear 17 1021 39 16093 3.5 217 21:55 28.03.2020
286 Clear 17 1021 39 16093 3.5 217 21:37 28.03.2020
287 Clear 17 1021 39 16093 3.5 217 21:18 28.03.2020
288 Clouds 17 1022 42 16093 3.5 217 20:42 28.03.2020
289 Clouds 16 1022 42 16093 3.5 217 20:23 28.03.2020
290 Clouds 16 1022 42 16093 1.64 153 19:57 28.03.2020
291 Clear 16 1023 42 16093 1.64 153 19:39 28.03.2020
292 Clear 15 1023 42 16093 1.64 153 19:20 28.03.2020
293 Clear 15 1022 48 16093 1.64 153 18:58 28.03.2020
294 Clear 15 1022 48 16093 1.64 153 18:39 28.03.2020
295 Clear 14 1022 48 16093 1.64 153 18:19 28.03.2020
296 Clouds 13 1022 50 16093 2.1 80 17:39 28.03.2020
297 Clouds 12 1022 50 16093 2.1 80 17:21 28.03.2020
298 Clear 11 1021 54 16093 1.5 0 16:55 28.03.2020
299 Clear 11 1021 54 16093 1.5 0 16:37 28.03.2020
300 Clear 10 1021 54 16093 1.5 0 16:18 28.03.2020
301 Clouds 9 1021 58 16093 1.7 103 15:39 28.03.2020
302 Clouds 8 1021 58 16093 1.7 103 15:19 28.03.2020
303 Clouds 8 1021 75 16093 2.1 230 14:56 28.03.2020
304 Clouds 8 1021 71 16093 1.7 103 14:38 28.03.2020
305 Clouds 8 1021 71 16093 1.35 133 14:20 28.03.2020
306 Clouds 8 1021 54 16093 2.1 90 13:41 28.03.2020
307 Clouds 8 1021 54 16093 1.5 0 13:22 28.03.2020
308 Clouds 8 1021 54 16093 2.1 100 12:40 28.03.2020
309 Clouds 9 1021 58 16093 1.5 0 12:22 28.03.2020
310 Clouds 9 1021 58 16093 1.5 0 12:22 28.03.2020
311 Clear 9 1022 71 16093 1.6 123 11:43 28.03.2020
312 Clear 8 1022 71 16093 1.53 139 11:23 28.03.2020
313 Clear 8 1021 58 16093 1.5 60 10:58 28.03.2020
314 Clear 9 1021 58 16093 1.5 60 10:38 28.03.2020
315 Clear 9 1021 58 16093 1.5 60 10:18 28.03.2020
316 Clear 9 1022 76 16093 1.53 139 09:43 28.03.2020
317 Clear 9 1022 76 16093 1.53 139 09:24 28.03.2020
318 Clear 10 1021 67 14484 1.5 70 08:57 28.03.2020
319 Clear 10 1021 67 14484 1.5 70 08:39 28.03.2020
320 Clear 10 1021 67 14484 1.5 70 08:39 28.03.2020
321 Clear 10 1021 67 14484 1.5 70 08:20 28.03.2020
322 Clear 10 1022 71 16093 1.5 196 07:44 28.03.2020
323 Clear 11 1021 67 16093 1.5 196 06:59 28.03.2020
324 Clear 11 1021 67 16093 1.5 196 06:36 28.03.2020
325 Clear 12 1021 62 16093 1.5 196 05:43 28.03.2020
326 Clear 12 1021 62 16093 1.5 196 05:21 28.03.2020
327 Clear 12 1020 55 16093 4.47 254 04:41 28.03.2020
328 Clouds 13 1020 50 16093 2.6 290 03:54 28.03.2020
329 Clear 15 1019 36 16093 2.6 250 02:25 28.03.2020
330 Clear 16 1019 31 16093 3.6 260 01:41 28.03.2020
331 Clear 16 1019 31 16093 3.6 260 01:18 28.03.2020
332 Clear 17 1018 31 16093 2.1 240 00:45 28.03.2020
333 Clear 17 1019 31 16093 3.6 260 23:59 27.03.2020
334 Clear 17 1019 31 16093 3.6 260 23:41 27.03.2020
335 Clear 17 1019 31 16093 3.6 260 23:22 27.03.2020
336 Clear 17 1019 34 16093 1.5 0 22:56 27.03.2020
337 Clear 17 1019 34 16093 1.5 0 22:38 27.03.2020
338 Clear 17 1019 34 16093 1.5 0 22:20 27.03.2020
339 Clear 17 1019 30 16093 2.1 250 21:55 27.03.2020
340 Clear 17 1019 30 16093 2.1 250 21:37 27.03.2020
341 Clear 16 1019 30 16093 2.1 250 21:19 27.03.2020
342 Clear 16 1019 24 16093 4.39 244 20:42 27.03.2020
343 Clear 15 1019 24 16093 1.23 290 20:21 27.03.2020
344 Clear 15 1019 26 16093 4.1 300 19:59 27.03.2020
345 Clear 15 1019 27 16093 1.5 0 19:40 27.03.2020
346 Clear 15 1020 29 16093 3.1 0 19:22 27.03.2020
347 Clear 14 1019 29 16093 3.1 300 18:56 27.03.2020
348 Clear 14 1019 29 16093 3.1 300 18:38 27.03.2020
349 Clear 14 1019 30 16093 4.1 320 18:19 27.03.2020
350 Clear 12 1018 35 16093 2.6 280 17:40 27.03.2020
351 Clear 12 1018 35 16093 2.6 280 17:20 27.03.2020
352 Clear 12 1018 35 16093 2.6 280 17:20 27.03.2020
353 Clear 11 1018 45 16093 1.5 0 16:54 27.03.2020
354 Clear 10 1018 45 16093 1.5 0 16:36 27.03.2020
355 Clear 10 1018 45 16093 1.5 0 16:36 27.03.2020
356 Clear 9 1018 45 16093 1.5 0 16:18 27.03.2020
357 Clear 8 1017 43 16093 1.98 345 15:41 27.03.2020
358 Clear 9 1017 43 16093 1.98 345 15:23 27.03.2020
359 Clear 8 1016 43 16093 1.98 345 14:46 27.03.2020
360 Clear 8 1016 43 16093 1.98 345 14:25 27.03.2020
361 Clear 8 1016 43 16093 2.57 344 13:57 27.03.2020
362 Clear 8 1016 43 16093 2.57 344 13:38 27.03.2020
363 Clear 8 1016 43 16093 2.29 348 13:19 27.03.2020
364 Clear 8 1016 43 16093 2.1 300 12:57 27.03.2020
365 Clear 8 1016 43 16093 2.1 300 12:38 27.03.2020
366 Clear 8 1016 43 16093 2.1 300 12:18 27.03.2020
367 Clouds 8 1016 43 16093 2.29 348 11:41 27.03.2020
368 Clouds 8 1016 43 16093 2.29 348 11:23 27.03.2020
369 Clear 8 1016 53 16093 1.27 336 10:55 27.03.2020
370 Clear 8 1016 53 16093 1.27 336 10:37 27.03.2020
371 Clear 9 1016 53 16093 1.27 336 10:18 27.03.2020
372 Clouds 9 1016 57 16093 1.27 336 09:56 27.03.2020
373 Clouds 9 1016 57 16093 1.27 336 09:37 27.03.2020
374 Clouds 8 1016 57 16093 1.27 336 09:18 27.03.2020
375 Clouds 9 1016 54 16093 1.5 270 08:56 27.03.2020
376 Clouds 9 1016 54 16093 1.5 270 08:37 27.03.2020
377 Clouds 9 1016 54 16093 1.5 270 08:19 27.03.2020
378 Clear 9 1016 54 16093 3.66 261 07:50 27.03.2020
379 Clear 9 1016 54 16093 3.66 261 07:23 27.03.2020
380 Clouds 10 1016 47 16093 3.66 261 06:53 27.03.2020
381 Clouds 10 1016 47 16093 3.66 261 06:35 27.03.2020
382 Clear 11 1015 44 16093 2.6 0 04:24 27.03.2020
383 Clear 13 1015 47 16093 9.3 260 02:32 27.03.2020
384 Clear 15 1014 36 16093 4.1 270 01:23 27.03.2020
385 Clear 15 1014 38 16093 7.2 270 00:50 27.03.2020
386 Clear 15 1014 38 16093 7.2 270 00:24 27.03.2020
387 Clear 15 1015 29 16093 3.1 250 23:44 26.03.2020
388 Clear 15 1015 29 16093 3.1 250 23:23 26.03.2020
389 Clear 16 1015 33 16093 2.1 0 22:59 26.03.2020
390 Clear 16 1015 33 16093 2.1 0 22:59 26.03.2020
391 Clear 16 1015 33 16093 2.1 0 22:38 26.03.2020
392 Clear 16 1015 33 16093 2.1 0 22:20 26.03.2020
393 Clear 16 1015 33 16093 2.1 0 21:57 26.03.2020
394 Clear 16 1016 32 16093 4.1 260 21:39 26.03.2020
395 Clear 16 1016 32 16093 4.1 260 21:20 26.03.2020
396 Clear 15 1016 29 16093 7.15 252 20:58 26.03.2020
397 Clear 15 1017 35 16093 5.1 230 20:38 26.03.2020
398 Clear 15 1017 35 16093 5.1 230 20:38 26.03.2020
399 Clear 15 1017 35 16093 5.1 230 20:20 26.03.2020
400 Clear 15 1017 35 16093 5.1 230 20:20 26.03.2020
401 Clear 15 1017 31 16093 2.1 160 19:56 26.03.2020
402 Clear 14 1017 33 16093 2.29 248 19:37 26.03.2020
403 Clear 14 1017 33 16093 2.29 248 19:19 26.03.2020
404 Clear 14 1017 38 16093 2.29 248 18:55 26.03.2020
405 Clear 13 1017 38 16093 2.29 248 18:36 26.03.2020
406 Clear 13 1017 38 16093 2.29 248 18:18 26.03.2020
407 Clear 12 1017 50 16093 2.29 248 17:42 26.03.2020
408 Clear 11 1017 50 16093 1.99 309 17:19 26.03.2020
409 Clear 10 1017 57 16093 1.99 309 16:45 26.03.2020
410 Clear 10 1017 57 16093 1.99 309 16:27 26.03.2020
411 Clear 9 1017 57 16093 1.99 309 15:59 26.03.2020
412 Clear 8 1016 61 16093 1.99 309 15:40 26.03.2020
413 Clear 6 1016 61 16093 1.99 309 15:22 26.03.2020
414 Clear 7 1016 66 16093 1.99 309 14:58 26.03.2020
415 Clear 6 1016 66 16093 1.99 309 14:39 26.03.2020
416 Clear 7 1016 66 16093 2.74 279 14:19 26.03.2020
417 Clear 6 1016 61 11265 2.74 279 13:44 26.03.2020
418 Clear 7 1016 61 11265 2.63 282 13:24 26.03.2020
419 Clear 7 1016 61 16093 2.63 282 12:58 26.03.2020
420 Clear 8 1016 61 16093 2.63 282 12:38 26.03.2020
421 Clear 7 1016 61 16093 2.63 282 12:20 26.03.2020
422 Clear 8 1016 57 16093 2.63 282 11:45 26.03.2020
423 Clear 8 1016 57 16093 2.63 282 11:22 26.03.2020
424 Clear 8 1016 57 16093 2.63 282 11:22 26.03.2020
425 Clear 9 1016 54 16093 4.14 275 10:56 26.03.2020
426 Clear 9 1016 54 16093 4.14 275 10:38 26.03.2020
427 Clear 9 1016 54 16093 4.14 275 10:19 26.03.2020
428 Clear 9 1016 54 16093 4.14 275 09:44 26.03.2020
429 Clear 9 1016 54 16093 4.14 275 09:20 26.03.2020
430 Clouds 10 1016 54 16093 1.5 260 08:56 26.03.2020
431 Clouds 10 1016 54 16093 1.5 260 08:37 26.03.2020
432 Clouds 10 1016 54 16093 1.5 260 08:19 26.03.2020
433 Clouds 11 1016 54 16093 1.5 270 07:44 26.03.2020
434 Clouds 11 1016 54 16093 1.5 270 07:22 26.03.2020
435 Clouds 11 1016 54 16093 2.1 260 06:56 26.03.2020
436 Clouds 12 1016 51 16093 1.5 260 05:59 26.03.2020
437 Clouds 12 1016 51 16093 1.5 260 05:22 26.03.2020
438 Clouds 13 1015 55 16093 3.1 260 03:45 26.03.2020
439 Clouds 14 1015 51 16093 2.6 250 02:56 26.03.2020
440 Clouds 16 1016 55 16093 6.7 260 01:50 26.03.2020
441 Clear 16 1016 48 16093 2.6 0 00:55 26.03.2020
442 Clear 16 1016 48 16093 2.6 0 00:22 26.03.2020
443 Clear 17 1016 48 16093 3.6 250 23:41 25.03.2020
444 Clear 17 1016 48 16093 3.6 250 23:22 25.03.2020
445 Clouds 17 1017 48 16093 1.5 0 22:42 25.03.2020
446 Clouds 16 1017 48 16093 1.5 0 22:22 25.03.2020
447 Clear 17 1018 45 16093 2.1 240 21:57 25.03.2020
448 Clear 17 1018 45 16093 2.1 240 21:38 25.03.2020
449 Clouds 17 1018 51 16093 5.7 260 21:20 25.03.2020
450 Clouds 16 1019 55 16093 4.6 240 20:56 25.03.2020
451 Clouds 16 1019 55 16093 4.6 240 20:37 25.03.2020
452 Clouds 16 1019 55 16093 3.6 270 20:18 25.03.2020
453 Clouds 16 1019 55 16093 4.6 240 20:18 25.03.2020
454 Clouds 15 1019 55 16093 3.6 270 19:43 25.03.2020
455 Clouds 15 1019 55 16093 3.6 270 19:23 25.03.2020
456 Clouds 15 1020 62 16093 3.1 270 18:59 25.03.2020
457 Clouds 15 1020 62 16093 3.1 270 18:40 25.03.2020
458 Clouds 15 1020 62 16093 3.1 270 18:22 25.03.2020
459 Clouds 14 1019 58 16093 2.75 230 17:57 25.03.2020
460 Clouds 14 1019 58 16093 2.94 236 17:39 25.03.2020
461 Clouds 13 1019 58 16093 1.19 259 17:21 25.03.2020
462 Clouds 13 1019 62 16093 1.19 259 16:55 25.03.2020
463 Clouds 13 1019 62 16093 1.19 259 16:36 25.03.2020
464 Clouds 12 1019 62 16093 0.66 255 16:18 25.03.2020
465 Clouds 12 1019 67 16093 1.19 259 15:41 25.03.2020
466 Clouds 11 1019 67 16093 0.66 255 15:20 25.03.2020
467 Clouds 11 1018 67 16093 0.66 255 14:56 25.03.2020
468 Clouds 11 1018 67 16093 1.19 259 14:37 25.03.2020
469 Clouds 11 1018 67 16093 1.34 239 14:19 25.03.2020
470 Clouds 11 1018 62 16093 1.17 223 13:42 25.03.2020
471 Clouds 11 1018 62 16093 1.34 239 13:22 25.03.2020
472 Clouds 11 1018 62 16093 1.17 223 12:38 25.03.2020
473 Clouds 11 1018 62 16093 1.34 239 12:20 25.03.2020
474 Clouds 11 1019 58 16093 1.17 223 11:57 25.03.2020
475 Clouds 11 1019 58 16093 1.17 223 11:39 25.03.2020
476 Clouds 11 1019 58 16093 2.53 245 11:20 25.03.2020
477 Clouds 12 1019 58 16093 2.53 245 10:57 25.03.2020
478 Clouds 12 1019 58 16093 2.53 245 10:39 25.03.2020
479 Clouds 12 1019 58 16093 2.53 245 10:18 25.03.2020
480 Clouds 12 1020 58 16093 2.53 245 09:43 25.03.2020
481 Clouds 12 1020 58 16093 2.53 245 09:25 25.03.2020
482 Clouds 11 1020 58 16093 2.53 245 08:58 25.03.2020
483 Clouds 12 1020 58 16093 2.53 245 08:39 25.03.2020
484 Clouds 12 1020 58 16093 2.8 250 08:20 25.03.2020
485 Clouds 12 1020 58 16093 2.99 247 07:55 25.03.2020
486 Clouds 12 1020 58 16093 2.99 247 07:36 25.03.2020
487 Clouds 12 1020 58 16093 2.99 247 07:18 25.03.2020
488 Clouds 12 1020 58 16093 2.99 247 06:41 25.03.2020
489 Clouds 12 1020 58 16093 2.99 247 06:22 25.03.2020
490 Clear 12 1020 58 16093 1.5 250 05:47 25.03.2020
491 Clear 13 1020 55 16093 2.6 250 04:42 25.03.2020
492 Clear 13 1020 55 16093 2.6 250 03:57 25.03.2020
493 Clear 13 1020 55 16093 2.6 260 03:32 25.03.2020
494 Clear 16 1019 48 16093 2.6 240 01:40 25.03.2020
495 Clear 17 1020 52 16093 3.1 0 00:50 25.03.2020
496 Clear 17 1020 52 16093 3.1 0 00:27 25.03.2020
497 Clouds 17 1020 52 16093 2.6 250 23:57 24.03.2020
498 Clouds 17 1020 52 16093 2.6 250 23:37 24.03.2020
499 Clouds 17 1020 52 16093 2.6 250 23:19 24.03.2020
500 Clouds 17 1021 52 16093 3.1 260 22:54 24.03.2020
501 Clouds 17 1021 52 16093 3.1 260 22:36 24.03.2020
502 Clouds 17 1021 52 16093 3.1 260 22:18 24.03.2020
503 Clouds 17 1022 59 16093 4.1 190 21:42 24.03.2020
504 Clouds 16 1022 59 16093 4.1 190 21:19 24.03.2020
505 Clouds 16 1022 59 16093 4.1 260 20:59 24.03.2020
506 Clouds 16 1022 59 16093 4.33 231 20:40 24.03.2020
507 Clouds 16 1022 59 16093 1.86 221 20:22 24.03.2020
508 Clouds 15 1022 59 16093 1.5 30 19:48 24.03.2020
509 Clouds 15 1022 59 16093 1.5 30 19:22 24.03.2020
510 Clouds 15 1022 72 14484 1.5 0 18:59 24.03.2020
511 Clouds 15 1022 72 14484 1.5 0 18:39 24.03.2020
512 Clouds 15 1022 72 14484 1.5 0 18:20 24.03.2020
513 Rain 14 1022 71 11265 1.5 80 17:58 24.03.2020
514 Rain 13 1022 71 11265 1.5 80 17:40 24.03.2020
515 Rain 13 1022 71 11265 1.5 80 17:40 24.03.2020
516 Rain 13 1022 71 11265 1.5 80 17:22 24.03.2020
517 Rain 12 1022 76 12874 2.6 110 16:57 24.03.2020
518 Rain 12 1022 76 14484 0.42 149 16:38 24.03.2020
519 Rain 11 1022 71 16093 0.42 149 16:20 24.03.2020
520 Rain 11 1022 87 6437 0.42 149 15:43 24.03.2020
521 Clouds 10 1022 76 12874 2.1 80 15:25 24.03.2020
522 Clouds 10 1021 81 16093 0.42 149 14:57 24.03.2020
523 Clouds 10 1021 81 16093 0.42 149 14:37 24.03.2020
524 Clouds 10 1021 76 16093 1.33 234 14:18 24.03.2020
525 Clear 10 1021 81 16093 1.33 234 13:41 24.03.2020
526 Clear 10 1021 81 16093 1.31 218 13:22 24.03.2020
527 Clouds 10 1021 81 16093 1.31 218 12:47 24.03.2020
528 Clouds 10 1021 81 16093 1.31 218 12:28 24.03.2020
529 Clear 10 1022 76 16093 1.5 20 11:58 24.03.2020
530 Clear 10 1022 76 16093 1.5 20 11:38 24.03.2020
531 Clear 10 1022 76 16093 1.5 20 11:18 24.03.2020
532 Clouds 10 1022 87 16093 0.93 209 10:42 24.03.2020
533 Clear 10 1022 76 16093 0.93 209 10:19 24.03.2020
534 Clouds 10 1022 76 16093 0.93 209 09:57 24.03.2020
535 Clouds 10 1022 76 16093 0.93 209 09:39 24.03.2020
536 Clear 11 1022 76 16093 0.93 209 09:20 24.03.2020
537 Clouds 11 1022 100 14484 1.5 340 08:38 24.03.2020
538 Clouds 11 1022 76 16093 2.87 221 08:20 24.03.2020
539 Clouds 11 1022 93 16093 1.5 320 07:47 24.03.2020
540 Clear 11 1022 71 16093 2.87 221 07:24 24.03.2020
541 Clear 12 1022 76 16093 2.87 221 06:52 24.03.2020
542 Clear 12 1022 72 16093 2.87 221 06:25 24.03.2020
543 Clouds 13 1022 67 16093 5.7 280 04:57 24.03.2020
544 Clear 13 1021 71 16093 3.1 290 03:48 24.03.2020
545 Clouds 14 1021 59 16093 2.6 250 03:18 24.03.2020
546 Clear 15 1021 51 16093 4.1 270 01:47 24.03.2020
547 Clouds 16 1021 58 16093 2.6 130 00:48 24.03.2020
548 Clouds 16 1020 48 16093 5.45 246 00:25 24.03.2020
549 Clouds 17 1020 55 16093 5.7 240 23:45 23.03.2020
550 Clear 17 1021 45 16093 2.6 260 23:26 23.03.2020
551 Clouds 17 1021 59 16093 6.2 250 22:56 23.03.2020
552 Clouds 17 1021 59 16093 6.2 250 22:56 23.03.2020
553 Clouds 17 1020 58 16093 4.1 240 22:37 23.03.2020
554 Clouds 17 1021 48 16093 1.5 0 22:19 23.03.2020
555 Clouds 17 1021 48 16093 4.1 250 21:44 23.03.2020
556 Clouds 17 1021 48 16093 1.5 250 21:21 23.03.2020
557 Rain 16 1022 59 16093 4.1 210 20:58 23.03.2020
558 Rain 16 1021 48 16093 2.1 250 20:40 23.03.2020
559 Rain 16 1021 48 16093 2.1 250 20:22 23.03.2020
560 Clouds 16 1021 58 16093 2.1 130 19:54 23.03.2020
561 Clouds 16 1021 48 16093 2.1 0 19:36 23.03.2020
562 Clouds 15 1021 48 16093 2.1 0 19:18 23.03.2020
563 Clouds 15 1020 71 16093 1.5 0 18:42 23.03.2020
564 Clear 15 1021 59 16093 1.5 250 18:23 23.03.2020
565 Clouds 14 1021 67 16093 4.1 260 17:56 23.03.2020
566 Clouds 14 1021 71 16093 4.1 290 17:38 23.03.2020
567 Rain 13 1020 72 16093 1.5 290 17:19 23.03.2020
568 Rain 13 1019 100 16093 5.7 260 16:43 23.03.2020
569 Rain 12 1020 82 16093 3.72 247 16:25 23.03.2020
570 Rain 12 1019 100 16093 5.1 270 15:44 23.03.2020
571 Rain 11 1019 71 16093 2.1 290 15:21 23.03.2020
572 Rain 11 1018 87 16093 3.72 247 14:57 23.03.2020
573 Rain 12 1018 100 12874 4.1 270 14:37 23.03.2020
574 Rain 12 1018 87 16093 4.06 246 14:18 23.03.2020
575 Rain 12 1018 87 16093 4.06 246 14:18 23.03.2020
576 Rain 12 1017 87 16093 2.1 140 13:54 23.03.2020
577 Rain 12 1017 87 16093 2.1 140 13:54 23.03.2020
578 Rain 12 1017 100 12874 3.6 230 13:36 23.03.2020
579 Rain 12 1017 87 11265 3.72 243 13:18 23.03.2020
580 Rain 12 1017 82 12874 1.5 240 12:41 23.03.2020
581 Rain 12 1017 87 14484 3.72 243 12:22 23.03.2020
582 Rain 12 1017 77 16093 4.1 240 11:55 23.03.2020
583 Rain 12 1017 87 12874 2.6 150 11:37 23.03.2020
584 Rain 12 1017 93 16093 2.6 110 11:18 23.03.2020
585 Rain 13 1018 87 16093 0.77 87 10:40 23.03.2020
586 Rain 13 1018 87 16093 0.77 87 10:40 23.03.2020
587 Rain 13 1018 82 16093 0.77 87 10:22 23.03.2020
588 Rain 13 1018 82 16093 0.77 87 09:59 23.03.2020
589 Rain 13 1018 87 16093 3.6 230 09:40 23.03.2020
590 Rain 13 1017 100 8047 0.77 87 09:19 23.03.2020
591 Rain 13 1017 87 11265 0.77 87 08:38 23.03.2020
592 Rain 13 1017 87 4828 2.1 90 08:20 23.03.2020
593 Rain 13 1018 87 8047 4.1 230 07:51 23.03.2020
594 Rain 13 1017 87 4023 2.1 60 07:33 23.03.2020
595 Rain 13 1018 87 6437 4.1 260 06:55 23.03.2020
596 Rain 13 1017 87 4828 1.5 0 06:34 23.03.2020
597 Rain 13 1017 87 3219 4.1 100 05:44 23.03.2020
598 Rain 13 1017 77 4828 2.6 80 03:54 23.03.2020
599 Rain 13 1018 87 4828 3.6 90 02:45 23.03.2020
600 Rain 14 1018 87 4828 3.1 190 01:50 23.03.2020
601 Rain 16 1018 67 9656 3.1 150 00:50 23.03.2020
602 Rain 16 1018 52 16093 4.6 160 00:29 23.03.2020
603 Clouds 18 1018 37 16093 4.6 260 23:44 22.03.2020
604 Rain 18 1018 43 16093 1.97 182 23:24 22.03.2020
605 Clouds 18 1018 39 16093 3.6 220 22:42 22.03.2020
606 Clouds 19 1018 37 16093 4.46 212 22:22 22.03.2020
607 Clouds 19 1019 48 16093 4.1 180 21:55 22.03.2020
608 Clear 19 1019 39 16093 4.6 230 21:36 22.03.2020
609 Clouds 19 1019 40 16093 4.46 212 21:18 22.03.2020
610 Clear 19 1020 45 16093 1.5 0 20:45 22.03.2020
611 Clear 19 1020 37 16093 4.02 204 20:25 22.03.2020
612 Clear 18 1020 45 16093 3.6 130 19:58 22.03.2020
613 Clear 18 1020 48 16093 3.45 102 19:39 22.03.2020
614 Clear 18 1020 42 16093 2.1 110 19:20 22.03.2020
615 Clouds 17 1020 48 16093 2.6 70 18:59 22.03.2020
616 Clear 17 1021 54 16093 2.6 120 18:41 22.03.2020
617 Clear 16 1021 48 16093 2.1 140 18:22 22.03.2020
618 Clouds 15 1021 59 16093 2.6 70 17:58 22.03.2020
619 Clear 14 1021 71 16093 4.1 120 17:38 22.03.2020
620 Clear 14 1020 59 16093 2.1 0 17:20 22.03.2020
621 Clouds 13 1021 63 16093 3.6 100 16:57 22.03.2020
622 Clear 12 1021 76 14484 3.1 70 16:39 22.03.2020
623 Clear 11 1021 67 16093 0.72 155 16:21 22.03.2020
624 Clear 10 1020 76 16093 1.5 60 15:44 22.03.2020
625 Clear 9 1020 71 16093 0.72 155 15:26 22.03.2020
626 Clouds 8 1021 76 16093 0.72 155 14:46 22.03.2020
627 Clear 9 1020 76 16093 1.14 113 14:19 22.03.2020
628 Clear 9 1020 81 16093 1.14 113 13:55 22.03.2020
629 Clouds 9 1020 81 16093 1.14 113 13:37 22.03.2020
630 Clear 9 1020 71 16093 0.94 130 13:18 22.03.2020
631 Clouds 9 1020 76 16093 1.5 40 12:43 22.03.2020
632 Clear 9 1020 76 16093 0.94 130 12:20 22.03.2020
633 Clouds 9 1020 76 16093 2.1 70 11:56 22.03.2020
634 Clear 10 1020 81 16093 0.94 130 11:37 22.03.2020
635 Clear 10 1020 71 16093 1.09 179 11:19 22.03.2020
636 Clear 10 1020 81 16093 1.09 179 10:43 22.03.2020
637 Clouds 10 1021 76 16093 1.09 179 10:23 22.03.2020
638 Clear 10 1021 93 16093 1.5 40 09:48 22.03.2020
639 Clear 10 1021 71 16093 1.09 179 09:29 22.03.2020
640 Clear 11 1021 71 16093 1.09 179 08:55 22.03.2020
641 Clouds 11 1021 93 16093 1.09 179 08:36 22.03.2020
642 Clear 11 1021 71 16093 1.17 185 08:18 22.03.2020
643 Clouds 11 1021 87 16093 1.48 198 07:48 22.03.2020
644 Clear 12 1021 67 16093 1.48 198 07:18 22.03.2020
645 Clouds 13 1021 67 16093 1.5 340 05:54 22.03.2020
646 Clouds 14 1021 67 16093 3.1 270 04:50 22.03.2020
647 Clouds 15 1020 77 16093 3.6 250 02:43 22.03.2020
648 Clouds 17 1019 52 16093 3.6 280 01:20 22.03.2020
649 Clouds 18 1019 45 16093 4.6 240 00:35 22.03.2020
650 Clouds 18 1019 55 16093 6.2 260 23:58 21.03.2020
651 Clouds 18 1019 45 16093 4.1 210 23:40 21.03.2020
652 Clear 18 1019 45 16093 1.5 0 23:18 21.03.2020
653 Clouds 18 1019 45 16093 3.1 220 22:38 21.03.2020
654 Clouds 18 1020 48 16093 3.8 214 22:20 21.03.2020
655 Clouds 18 1020 48 16093 3.8 214 21:59 21.03.2020
656 Clear 18 1020 55 16093 3.8 214 21:40 21.03.2020
657 Clouds 18 1021 48 16093 2.1 250 21:22 21.03.2020
658 Clouds 17 1021 52 16093 6.2 260 20:56 21.03.2020
659 Clouds 17 1021 58 16093 3.1 260 20:38 21.03.2020
660 Clouds 17 1021 48 16093 1.5 170 20:18 21.03.2020
661 Clouds 17 1021 67 16093 1.5 200 19:43 21.03.2020
662 Clear 16 1021 55 16093 3.19 219 19:23 21.03.2020
663 Clouds 16 1022 67 16093 3.19 219 18:55 21.03.2020
664 Clouds 16 1021 71 16093 2.6 180 18:37 21.03.2020
665 Clear 15 1021 55 16093 3.19 219 18:19 21.03.2020
666 Clouds 15 1021 59 16093 1.5 0 17:55 21.03.2020
667 Clear 14 1021 71 14484 3.19 219 17:37 21.03.2020
668 Clouds 14 1021 63 16093 0.31 193 17:18 21.03.2020
669 Clear 12 1021 87 12874 0.31 193 16:40 21.03.2020
670 Clouds 11 1021 71 16093 0.31 193 16:19 21.03.2020
671 Clouds 11 1021 71 16093 0.31 193 15:55 21.03.2020
672 Clear 10 1020 81 16093 1.5 20 15:37 21.03.2020
673 Clouds 10 1021 82 16093 0.31 193 15:18 21.03.2020
674 Clouds 10 1020 76 16093 0.31 193 14:54 21.03.2020
675 Clouds 10 1020 81 16093 2.1 10 14:36 21.03.2020
676 Clouds 10 1020 71 16093 2.5 294 14:18 21.03.2020
677 Clouds 10 1020 81 16093 2.5 294 13:56 21.03.2020
678 Clear 10 1019 87 16093 2.1 30 13:38 21.03.2020
679 Clouds 11 1019 76 16093 1.38 293 13:19 21.03.2020
680 Clear 11 1019 81 16093 1.38 293 12:39 21.03.2020
681 Clouds 11 1020 71 16093 1.38 293 12:19 21.03.2020
682 Rain 11 1019 87 16093 1.5 350 11:58 21.03.2020
683 Rain 11 1020 76 16093 1.38 293 11:38 21.03.2020
684 Rain 12 1020 76 16093 1.61 202 11:19 21.03.2020
685 Clouds 12 1020 67 16093 2.6 270 10:57 21.03.2020
686 Clouds 12 1020 81 16093 1.61 202 10:39 21.03.2020
687 -273 0 0 0 0 0 10:20 21.03.2020
688 Clouds 12 1020 76 16093 2.6 150 09:57 21.03.2020
689 Clear 12 1020 87 16093 1.61 202 09:37 21.03.2020
690 Clear 12 1020 87 16093 1.61 202 09:37 21.03.2020
691 Clouds 12 1021 76 16093 1.61 202 09:19 21.03.2020
692 Clouds 12 1021 67 16093 1.61 202 08:55 21.03.2020
693 Clouds 12 1021 76 16093 1.61 202 08:37 21.03.2020
694 Clear 12 1021 72 16093 1.5 260 08:18 21.03.2020
695 Clouds 12 1021 87 16093 1.5 290 07:32 21.03.2020
696 Clouds 12 1021 67 16093 4.6 260 06:49 21.03.2020
697 Clouds 12 1021 71 16093 3.1 270 06:29 21.03.2020
698 Clouds 13 1021 72 16093 4.1 270 05:50 21.03.2020
699 Clear 13 1020 63 16093 2.52 223 05:23 21.03.2020
700 Clouds 14 1020 67 16093 2.1 310 03:38 21.03.2020
701 Clouds 15 1020 58 16093 3.1 290 02:36 21.03.2020
702 Clear 16 1020 54 16093 2.6 0 01:42 21.03.2020
703 Clouds 16 1020 48 16093 3.17 207 01:21 21.03.2020
704 Clouds 16 1020 51 16093 3.1 220 00:38 21.03.2020
705 Clouds 16 1021 55 16093 2.6 110 00:20 21.03.2020
706 Clouds 16 1021 47 16093 3.6 220 23:41 20.03.2020
707 Clouds 16 1021 48 16093 3.58 195 23:20 20.03.2020
708 Clouds 16 1021 44 16093 3.58 195 22:44 20.03.2020
709 Clouds 16 1022 48 16093 3.58 195 22:24 20.03.2020
710 Clouds 16 1023 51 16093 4.1 170 21:58 20.03.2020
711 Clouds 16 1023 48 16093 1.5 0 21:39 20.03.2020
712 Clouds 16 1023 48 16093 1.5 0 21:20 20.03.2020
713 Clouds 16 1023 48 16093 1.5 0 20:58 20.03.2020
714 Clouds 16 1023 44 16093 3.1 70 20:40 20.03.2020
715 Clouds 16 1023 48 16093 1.5 0 20:19 20.03.2020
716 Clouds 16 1023 54 16093 1.5 0 19:47 20.03.2020
717 Clouds 15 1023 52 16093 2.6 0 19:20 20.03.2020
718 Clouds 15 1023 59 16093 4.1 100 18:57 20.03.2020
719 Clouds 15 1023 66 16093 2.1 0 18:38 20.03.2020
720 Clouds 14 1023 55 16093 1.5 130 18:20 20.03.2020
721 Clouds 14 1023 62 16093 3.1 80 17:56 20.03.2020
722 Clouds 13 1023 66 16093 3.1 140 17:37 20.03.2020
723 Clear 13 1023 67 16093 2.6 90 17:18 20.03.2020
724 Clear 12 1022 81 16093 3.1 80 16:41 20.03.2020
725 Clouds 11 1022 71 16093 3.61 89 16:21 20.03.2020
726 Clear 10 1022 87 16093 2.1 90 15:55 20.03.2020
727 Clear 10 1022 93 16093 2.6 50 15:37 20.03.2020
728 Clouds 9 1022 71 16093 2.1 90 15:18 20.03.2020
729 Clouds 9 1021 81 16093 3.61 89 14:42 20.03.2020
730 Clear 10 1021 71 16093 1.5 0 14:21 20.03.2020
731 Rain 10 1022 87 12874 2.1 60 13:49 20.03.2020
732 Rain 10 1022 87 12874 2.1 60 13:49 20.03.2020
733 Rain 10 1022 81 16093 2.1 80 13:25 20.03.2020
734 Clouds 10 1022 81 16093 3.1 80 12:59 20.03.2020
735 Clouds 10 1021 100 16093 2.6 50 12:38 20.03.2020
736 Clouds 10 1022 71 16093 2.1 90 12:20 20.03.2020
737 Clouds 10 1021 81 16093 2.6 120 11:40 20.03.2020
738 Clouds 10 1022 71 16093 2.1 0 11:21 20.03.2020
739 Rain 10 1022 76 16093 3.1 70 10:57 20.03.2020
740 Rain 10 1022 100 16093 2.1 50 10:38 20.03.2020
741 Rain 10 1022 66 16093 2.6 100 10:18 20.03.2020
742 Rain 10 1021 87 8047 2.2 68 09:46 20.03.2020
743 Rain 10 1022 87 16093 2.6 70 09:21 20.03.2020
744 Rain 10 1022 87 16093 3.1 60 08:58 20.03.2020
745 Rain 10 1022 87 16093 2.2 68 08:39 20.03.2020
746 Rain 11 1022 87 9656 2.6 90 08:19 20.03.2020
747 Rain 11 1022 81 16093 2.1 10 07:45 20.03.2020
748 Rain 11 1022 81 16093 4.1 80 07:26 20.03.2020
749 Rain 11 1022 81 16093 2.1 0 06:47 20.03.2020
750 Rain 11 1021 76 16093 4.1 130 06:29 20.03.2020
751 Rain 12 1021 67 16093 1.5 100 04:49 20.03.2020
752 Rain 12 1019 58 16093 1.47 237 03:18 20.03.2020
753 Rain 14 1019 87 6437 1.5 290 01:51 20.03.2020
754 Rain 14 1019 50 16093 5.1 120 00:46 20.03.2020
755 Rain 14 1019 48 16093 4.38 236 00:25 20.03.2020
756 Rain 14 1019 42 16093 4.38 236 23:44 19.03.2020
757 Rain 14 1019 42 16093 4.38 236 23:25 19.03.2020
758 Rain 14 1019 48 16093 4.6 240 22:56 19.03.2020
759 Rain 14 1019 45 16093 2.1 250 22:37 19.03.2020
760 Rain 14 1019 45 16093 2.1 250 22:18 19.03.2020
761 Drizzle 14 1019 87 14484 4.1 330 21:41 19.03.2020
762 Rain 14 1019 48 16093 2.1 0 21:20 19.03.2020
763 Rain 13 1020 67 14484 5.7 250 20:58 19.03.2020
764 Rain 13 1019 71 16093 1.5 0 20:39 19.03.2020
765 Rain 13 1019 59 16093 1.5 280 20:20 19.03.2020
766 Rain 13 1019 48 14484 5.1 250 19:55 19.03.2020
767 Rain 13 1018 62 16093 2.1 280 19:37 19.03.2020
768 Rain 13 1018 62 16093 2.1 280 19:19 19.03.2020
769 Rain 12 1019 71 8047 1.5 200 18:42 19.03.2020
770 Rain 13 1018 62 16093 3.17 238 18:22 19.03.2020
771 Rain 13 1018 62 16093 3.17 238 18:22 19.03.2020
772 Rain 12 1018 62 16093 3.1 230 17:58 19.03.2020
773 Clouds 12 1018 71 16093 3.1 110 17:40 19.03.2020
774 Clouds 12 1017 62 16093 1.5 120 17:19 19.03.2020
775 Clouds 11 1017 87 16093 2.63 245 16:43 19.03.2020
776 Clear 11 1016 71 14484 1.5 100 16:23 19.03.2020
777 Clouds 10 1015 76 16093 2.63 245 15:46 19.03.2020
778 Clouds 9 1015 76 16093 2.63 245 15:27 19.03.2020
779 Rain 9 1015 76 16093 2.63 245 14:58 19.03.2020
780 Rain 9 1015 87 16093 2.63 245 14:40 19.03.2020
781 Rain 10 1015 71 16093 1.79 235 14:19 19.03.2020
782 Rain 10 1014 76 16093 1.79 235 13:40 19.03.2020
783 Rain 10 1014 76 16093 1.79 235 13:40 19.03.2020
784 Rain 10 1014 71 16093 2.51 198 13:19 19.03.2020
785 Clouds 10 1014 66 16093 2.51 198 12:56 19.03.2020
786 Clouds 10 1013 75 16093 2.51 198 12:37 19.03.2020
787 Clouds 10 1014 71 16093 2.51 198 12:19 19.03.2020
788 Clouds 10 1013 75 16093 2.51 198 11:42 19.03.2020
789 Clouds 10 1013 71 16093 2.51 198 11:23 19.03.2020
790 Clouds 10 1013 71 16093 2.6 140 10:57 19.03.2020
791 Clouds 10 1013 71 16093 2.6 140 10:37 19.03.2020
792 Clear 10 1013 66 16093 2.58 156 10:18 19.03.2020
793 Clouds 10 1013 66 16093 4.1 250 09:44 19.03.2020
794 Clouds 10 1013 66 16093 4.1 250 09:26 19.03.2020
795 Clear 10 1012 70 16093 2.58 156 08:58 19.03.2020
796 Clouds 10 1012 81 16093 2.58 156 08:40 19.03.2020
797 Clear 11 1012 66 16093 2.51 221 08:19 19.03.2020
798 Clouds 11 1012 81 16093 1.5 80 07:44 19.03.2020
799 Clear 11 1011 71 16093 2.51 221 07:23 19.03.2020
800 Clear 11 1010 66 16093 2.51 221 06:32 19.03.2020
801 Clouds 12 1010 71 16093 2.6 210 05:47 19.03.2020
802 Clouds 12 1009 57 16093 2.1 240 04:53 19.03.2020
803 Clouds 12 1009 62 16093 2.6 170 04:34 19.03.2020
804 Clouds 14 1007 38 16093 7.2 260 02:34 19.03.2020
805 Clouds 16 1007 39 16093 8.7 260 00:58 19.03.2020
806 Clear 16 1007 34 16093 4.1 270 00:22 19.03.2020
807 Clear 16 1008 34 16093 2.6 250 23:48 18.03.2020
808 Clear 16 1008 34 16093 2.6 250 23:29 18.03.2020
809 Clouds 16 1008 48 16093 6.7 250 22:56 18.03.2020
810 Clouds 16 1008 50 16093 4.1 180 22:38 18.03.2020
811 Clear 15 1008 34 16093 3.38 216 22:20 18.03.2020
812 Clouds 15 1008 25 16093 3.38 216 21:42 18.03.2020
813 Clear 15 1009 29 16093 3.38 216 21:21 18.03.2020
814 Clear 15 1009 41 16093 2.1 0 20:58 18.03.2020
815 Clear 14 1009 25 16093 2.1 0 20:40 18.03.2020
816 Clear 14 1009 38 16093 1.97 254 20:20 18.03.2020
817 Clear 13 1009 47 16093 1.5 0 19:56 18.03.2020
818 Clear 13 1009 66 16093 3.6 180 19:38 18.03.2020
819 Clear 13 1009 44 16093 2.27 255 19:19 18.03.2020
820 Clear 13 1009 44 16093 2.27 255 19:19 18.03.2020
821 Clear 12 1009 53 16093 2.1 180 18:41 18.03.2020
822 Clear 11 1010 54 16093 2.27 255 18:20 18.03.2020
823 Clouds 11 1010 54 16093 1.5 20 17:58 18.03.2020
824 Clear 10 1009 57 16093 2.27 255 17:40 18.03.2020
825 Clear 9 1009 53 16093 1.75 309 17:21 18.03.2020
826 Clouds 9 1010 57 16093 1.5 0 16:58 18.03.2020
827 Clear 8 1009 65 16093 1.5 290 16:39 18.03.2020
828 Clear 8 1008 57 16093 1.5 0 16:20 18.03.2020
829 Clear 7 1008 70 16093 1.75 309 15:45 18.03.2020
830 Clear 7 1008 66 16093 1.75 309 15:20 18.03.2020
831 Clear 6 1007 52 16093 2.1 10 14:45 18.03.2020
832 Clear 6 1009 66 16093 1.34 359 14:22 18.03.2020
833 Clear 6 1009 75 16093 2.1 350 13:59 18.03.2020
834 Clear 6 1009 56 16093 2.1 30 13:37 18.03.2020
835 Clear 6 1010 66 16093 1.61 23 13:19 18.03.2020
836 Clear 5 1009 56 16093 2.1 50 12:41 18.03.2020
837 Clear 5 1011 66 16093 1.61 23 12:20 18.03.2020
838 Clear 5 1011 75 16093 2.1 40 11:41 18.03.2020
839 Clear 6 1012 61 16093 1.59 246 11:21 18.03.2020
840 Clouds 6 1012 70 16093 2.1 50 10:58 18.03.2020
841 Clouds 6 1012 70 16093 2.1 50 10:39 18.03.2020
842 Clear 6 1013 66 16093 1.5 20 10:20 18.03.2020
843 Clear 6 1013 66 16093 1.5 20 10:20 18.03.2020
844 Clear 6 1013 66 16093 1.5 20 09:59 18.03.2020
845 Clear 6 1012 65 16093 2.1 40 09:39 18.03.2020
846 Clear 7 1013 62 16093 1.59 246 09:21 18.03.2020
847 Clouds 7 1013 65 16093 1.5 40 08:40 18.03.2020
848 Clear 7 1014 71 16093 2.45 242 08:21 18.03.2020
849 Clear 7 1013 52 16093 2.45 242 07:49 18.03.2020
850 Clear 8 1014 66 16093 2.45 242 07:31 18.03.2020
851 Clouds 8 1014 58 16093 3.1 320 06:55 18.03.2020
852 Clear 8 1014 62 16093 2.45 242 06:37 18.03.2020
853 Clear 9 1013 61 16093 2.1 330 05:37 18.03.2020
854 Clear 10 1013 54 16093 1.5 270 04:32 18.03.2020
855 Clear 12 1013 50 16093 1.5 260 03:21 18.03.2020
856 Rain 13 1012 50 16093 3.6 270 02:36 18.03.2020
857 Clouds 13 1013 50 16093 4.6 270 01:43 18.03.2020
858 Rain 14 1013 50 16093 5.1 280 00:45 18.03.2020
859 Rain 14 1014 42 16093 2.6 260 00:21 18.03.2020
860 Rain 14 1013 36 16093 2.1 250 23:42 17.03.2020
861 Rain 14 1014 41 16093 2.1 0 23:21 17.03.2020
862 Clouds 13 1014 34 16093 4.1 230 22:46 17.03.2020
863 Clouds 13 1015 50 16093 2.1 0 22:28 17.03.2020
864 Clouds 14 1015 58 16093 2.1 350 21:57 17.03.2020
865 Clouds 14 1015 34 16093 4.1 250 21:36 17.03.2020
866 Clouds 13 1016 50 16093 1.5 290 21:18 17.03.2020
867 Rain 13 1015 34 16093 3.1 0 20:38 17.03.2020
868 Rain 13 1016 41 16093 0.95 206 20:19 17.03.2020
869 Clouds 12 1016 37 16093 1.5 210 19:42 17.03.2020
870 Clouds 12 1017 50 16093 1.5 0 19:21 17.03.2020
871 Clouds 12 1017 58 16093 3.1 130 18:59 17.03.2020
872 Clouds 12 1016 50 16093 2.6 230 18:40 17.03.2020
873 Clouds 11 1017 58 16093 0.95 206 18:22 17.03.2020
874 Rain 11 1017 62 16093 3.1 110 17:59 17.03.2020
875 Rain 10 1016 37 16093 1.5 0 17:39 17.03.2020
876 Rain 10 1017 71 16093 1.06 314 17:19 17.03.2020
877 Rain 9 1015 61 16093 1.06 314 16:43 17.03.2020
878 Rain 8 1016 66 16093 1.06 314 16:19 17.03.2020
879 Clouds 7 1016 86 16093 1.06 314 15:56 17.03.2020
880 Clear 7 1015 81 16093 1.06 314 15:38 17.03.2020
881 Clear 6 1015 75 16093 1.5 360 15:18 17.03.2020
882 Rain 6 1015 81 16093 1.06 314 14:41 17.03.2020
883 Rain 6 1015 76 16093 1.65 254 14:18 17.03.2020
884 Rain 7 1015 93 1609 1.65 254 13:41 17.03.2020
885 Rain 7 1015 81 16093 1.99 268 13:22 17.03.2020
886 Fog 7 1014 93 805 2.32 262 12:48 17.03.2020
887 Clear 7 1015 81 16093 1.99 268 12:26 17.03.2020
888 Rain 7 1015 76 16093 2.1 10 11:59 17.03.2020
889 Rain 7 1015 93 8047 1.5 290 11:40 17.03.2020
890 Rain 8 1015 87 16093 2.78 258 11:22 17.03.2020
891 Clouds 8 1014 100 16093 3.6 270 10:56 17.03.2020
892 Clouds 8 1014 100 16093 3.6 270 10:37 17.03.2020
893 Rain 8 1015 81 16093 2.78 258 10:18 17.03.2020
894 Rain 9 1014 93 16093 2.6 280 09:46 17.03.2020
895 Rain 9 1015 81 16093 2.78 258 09:20 17.03.2020
896 Rain 9 1015 81 16093 2.78 258 08:59 17.03.2020
897 Rain 9 1014 100 4828 3.6 270 08:41 17.03.2020
898 Rain 9 1015 76 16093 3.73 271 08:20 17.03.2020
899 Rain 9 1015 71 16093 3.1 310 07:49 17.03.2020
900 Rain 9 1015 76 16093 3.73 271 07:21 17.03.2020
901 Rain 10 1015 66 16093 3.6 280 06:52 17.03.2020
902 Rain 10 1015 87 16093 3.1 290 06:25 17.03.2020
903 Rain 10 1014 93 6437 2.1 90 05:34 17.03.2020
904 Rain 11 1014 87 9656 4.97 247 03:36 17.03.2020
905 Rain 12 1014 87 4828 4.97 247 02:31 17.03.2020
906 Rain 12 1014 82 2816 6.99 181 01:39 17.03.2020
907 Rain 13 1014 71 8047 4.1 170 00:54 17.03.2020
908 Rain 13 1014 55 16093 2.6 0 00:19 17.03.2020
909 Rain 14 1015 58 16093 4.1 200 23:43 16.03.2020
910 Rain 14 1014 51 16093 3.1 0 23:22 16.03.2020
911 Clouds 14 1015 62 16093 6.2 190 22:38 16.03.2020
912 Clouds 14 1014 45 16093 2.6 0 22:20 16.03.2020
913 Rain 14 1015 55 16093 5.7 170 21:55 16.03.2020
914 Rain 14 1014 81 16093 4.6 170 21:36 16.03.2020
915 Rain 14 1016 48 16093 2.6 0 21:18 16.03.2020
916 Rain 14 1016 54 16093 2.1 0 20:42 16.03.2020
917 Rain 14 1016 55 14484 3.1 0 20:24 16.03.2020
918 Clouds 14 1016 66 16093 8.7 130 19:56 16.03.2020
919 Rain 14 1017 63 16093 5.1 160 19:37 16.03.2020
920 Rain 14 1017 67 16093 5.1 110 19:18 16.03.2020
921 Clouds 14 1017 62 16093 5.1 120 18:41 16.03.2020
922 Clouds 14 1017 55 16093 3.1 100 18:20 16.03.2020
923 Clouds 13 1018 62 16093 4.37 156 17:46 16.03.2020
924 Clouds 13 1017 63 16093 2.1 0 17:26 16.03.2020
925 Clouds 12 1017 71 12874 3.6 110 16:58 16.03.2020
926 Clouds 12 1018 76 16093 2.1 100 16:40 16.03.2020
927 Clouds 12 1017 67 16093 1.5 90 16:22 16.03.2020
928 Clouds 11 1017 76 16093 1.5 90 15:43 16.03.2020
929 Clouds 11 1017 62 16093 1.5 100 15:25 16.03.2020
930 Clouds 11 1017 81 16093 1.5 60 14:48 16.03.2020
931 Clouds 11 1017 62 16093 2.1 90 14:25 16.03.2020
932 Rain 11 1017 81 16093 1.38 174 13:55 16.03.2020
933 Rain 11 1017 81 16093 1.38 174 13:37 16.03.2020
934 Clouds 11 1017 71 16093 1.59 152 13:18 16.03.2020
935 Clouds 11 1017 81 16093 1.59 152 12:42 16.03.2020
936 Clear 11 1018 66 16093 1.59 152 12:23 16.03.2020
937 Clouds 11 1018 76 16093 1.59 152 11:45 16.03.2020
938 Clouds 11 1018 66 16093 1.59 152 11:26 16.03.2020
939 Clouds 11 1018 71 16093 1.5 110 10:55 16.03.2020
940 Clouds 11 1019 66 16093 1.86 170 10:37 16.03.2020
941 Clouds 11 1019 67 16093 1.86 170 10:18 16.03.2020
942 Clouds 11 1019 66 16093 1.86 170 09:40 16.03.2020
943 Clouds 11 1019 58 16093 1.86 170 09:20 16.03.2020
944 Clouds 12 1019 66 16093 1.86 170 08:47 16.03.2020
945 Clouds 12 1019 58 16093 2.16 206 08:24 16.03.2020
946 Clouds 12 1019 71 16093 2.16 206 07:45 16.03.2020
947 Clouds 12 1020 62 16093 2.16 206 07:21 16.03.2020
948 Clouds 12 1020 54 16093 1.5 250 06:51 16.03.2020
949 Clouds 12 1020 54 16093 2.16 206 06:23 16.03.2020
950 Clouds 13 1020 54 16093 2.6 250 04:54 16.03.2020
951 Clouds 14 1019 62 16093 4.1 260 02:40 16.03.2020
952 Clouds 16 1020 47 16093 3.6 130 00:52 16.03.2020
953 Clouds 16 1019 45 16093 2.6 270 00:32 16.03.2020
954 Clouds 16 1019 51 16093 4.6 230 23:46 15.03.2020
955 Clouds 16 1020 45 16093 2.6 250 23:20 15.03.2020
956 Clouds 16 1020 51 16093 3.6 260 22:42 15.03.2020
957 Clouds 16 1020 45 16093 1.5 0 22:22 15.03.2020
958 Clouds 16 1020 45 16093 5.1 210 21:56 15.03.2020
959 Clouds 16 1020 51 16093 4.1 270 21:37 15.03.2020
960 Clouds 16 1021 48 16093 2.6 0 21:18 15.03.2020
961 Clouds 15 1020 58 16093 4.1 240 20:42 15.03.2020
962 Clouds 15 1021 55 16093 3.1 270 20:20 15.03.2020
963 Clouds 15 1021 58 16093 5.1 210 19:58 15.03.2020
964 Clouds 15 1021 66 16093 4.1 270 19:39 15.03.2020
965 Clouds 14 1021 55 16093 0.9 226 19:19 15.03.2020
966 Clouds 14 1020 62 16093 2.1 0 18:55 15.03.2020
967 Clouds 14 1021 76 16093 4.6 270 18:37 15.03.2020
968 Clouds 14 1021 63 16093 0.9 226 18:19 15.03.2020
969 Clouds 13 1020 93 16093 2.1 320 17:41 15.03.2020
970 Rain 12 1020 82 16093 0.67 224 17:21 15.03.2020
971 Clouds 12 1020 71 16093 0.67 224 16:58 15.03.2020
972 Rain 12 1020 100 2414 3.6 290 16:40 15.03.2020
973 Clouds 11 1020 82 16093 0.67 224 16:21 15.03.2020
974 Rain 11 1019 81 16093 0.67 224 15:48 15.03.2020
975 Rain 11 1019 81 16093 0.67 224 15:30 15.03.2020
976 Rain 11 1019 81 16093 0.67 224 14:58 15.03.2020
977 Rain 11 1019 82 16093 1.5 0 14:38 15.03.2020
978 Rain 11 1019 82 16093 1.5 0 14:19 15.03.2020
979 Rain 11 1019 82 16093 3.6 290 13:55 15.03.2020
980 Rain 11 1019 87 11265 0.93 177 13:37 15.03.2020
981 Rain 11 1019 87 16093 0.74 13 13:18 15.03.2020
982 Rain 11 1019 87 16093 0.74 13 13:18 15.03.2020
983 Rain 11 1019 82 14484 0.74 13 12:40 15.03.2020
984 Rain 11 1019 87 8047 1.5 220 12:21 15.03.2020
985 Rain 11 1019 76 16093 2.1 280 11:44 15.03.2020
986 Rain 12 1019 82 16093 1.5 90 11:25 15.03.2020
987 Drizzle 12 1020 82 16093 6.2 290 10:59 15.03.2020
988 Rain 12 1020 93 2816 2.6 240 10:40 15.03.2020
989 Rain 12 1019 81 11265 1.5 270 10:21 15.03.2020
990 Rain 12 1019 87 12874 3.6 130 09:59 15.03.2020
991 Rain 12 1020 100 16093 2.6 290 09:38 15.03.2020
992 Clouds 12 1020 82 16093 1.86 349 09:19 15.03.2020
993 Rain 12 1020 100 16093 3.1 260 08:41 15.03.2020
994 Rain 12 1020 82 16093 1.5 80 08:19 15.03.2020
995 Clouds 12 1020 82 16093 1.52 298 07:48 15.03.2020
996 Clouds 13 1020 82 16093 1.52 298 07:22 15.03.2020
997 Clouds 13 1020 87 16093 1.5 270 06:44 15.03.2020
998 Rain 13 1020 93 16093 1.52 298 05:48 15.03.2020
999 Rain 13 1020 67 16093 2.1 267 04:57 15.03.2020
1000 Rain 13 1020 87 16093 2.1 160 04:38 15.03.2020
1001 Rain 13 1020 77 16093 2.1 267 04:20 15.03.2020
1002 Rain 13 1020 72 16093 2.1 267 03:19 15.03.2020
1003 Clouds 13 1020 67 16093 2.1 267 02:23 15.03.2020
1004 Rain 14 1019 82 16093 1.5 250 00:59 15.03.2020
1005 Rain 14 1020 82 6437 2.1 280 00:41 15.03.2020
1006 Rain 14 1020 87 6437 1.5 0 00:19 15.03.2020
1007 Rain 14 1019 82 4023 2.51 217 23:40 14.03.2020
1008 Clouds 14 1020 72 16093 2.1 0 23:20 14.03.2020
1009 Rain 14 1020 77 16093 6.2 230 22:56 14.03.2020
1010 Rain 14 1020 77 16093 2.75 229 22:38 14.03.2020
1011 Rain 14 1020 77 11265 3.1 270 22:20 14.03.2020
1012 Rain 14 1019 87 16093 3.1 130 21:56 14.03.2020
1013 Rain 14 1020 87 4828 2.1 250 21:36 14.03.2020
1014 Rain 14 1020 82 2414 2.75 229 21:18 14.03.2020
1015 Rain 14 1020 87 4023 4.1 250 21:18 14.03.2020
1016 Rain 14 1020 82 2414 2.75 229 20:58 14.03.2020
1017 Rain 14 1020 77 16093 1.5 40 20:39 14.03.2020
1018 Rain 14 1020 82 4828 0.58 134 20:18 14.03.2020
1019 Rain 14 1020 82 12874 0.58 134 19:42 14.03.2020
1020 Rain 14 1020 87 6437 0.58 134 19:24 14.03.2020
1021 Rain 13 1020 82 4828 1.5 0 18:41 14.03.2020
1022 Rain 13 1020 77 6437 1.5 100 18:22 14.03.2020
1023 Rain 13 1020 82 16093 0.58 134 17:56 14.03.2020
1024 Rain 13 1020 82 16093 0.58 134 17:37 14.03.2020
1025 Rain 13 1020 82 16093 0.63 228 17:19 14.03.2020
1026 Rain 12 1019 87 16093 3.6 130 16:40 14.03.2020
1027 Rain 12 1019 82 16093 1.5 90 16:22 14.03.2020
1028 Rain 12 1018 81 16093 3.6 130 15:54 14.03.2020
1029 Rain 12 1018 82 16093 2.1 220 15:26 14.03.2020
1030 Rain 12 1018 87 16093 1.5 110 14:55 14.03.2020
1031 Rain 12 1018 82 12874 0.63 228 14:36 14.03.2020
1032 Rain 12 1018 82 16093 1.5 130 14:18 14.03.2020
1033 Rain 12 1018 100 4023 0.66 145 13:42 14.03.2020
1034 Rain 12 1017 82 16093 0.78 217 13:23 14.03.2020
1035 Clouds 12 1017 93 16093 1.5 260 12:47 14.03.2020
1036 Rain 12 1017 87 16093 3.6 120 12:27 14.03.2020
1037 Rain 12 1017 87 16093 3.6 120 12:27 14.03.2020
1038 Rain 12 1017 76 16093 1.5 130 11:57 14.03.2020
1039 Rain 12 1017 93 6437 1.5 190 11:38 14.03.2020
1040 Rain 12 1017 87 8047 2.1 130 11:20 14.03.2020
1041 Rain 12 1018 82 16093 2.61 177 11:20 14.03.2020
1042 Rain 12 1018 81 16093 2.1 100 10:45 14.03.2020
1043 Rain 12 1018 82 8047 2.61 177 10:27 14.03.2020
1044 Rain 12 1018 82 16093 2.6 140 09:57 14.03.2020
1045 Rain 12 1018 87 16093 1.5 80 09:39 14.03.2020
1046 Rain 12 1018 82 16093 2.61 177 09:19 14.03.2020
1047 Rain 12 1018 82 16093 2.61 177 08:45 14.03.2020
1048 Rain 12 1018 82 16093 1.86 158 08:22 14.03.2020
1049 Rain 12 1018 93 16093 1.81 180 07:39 14.03.2020
1050 Rain 12 1018 93 16093 1.81 180 07:39 14.03.2020
1051 Rain 12 1018 77 14484 2.6 180 07:20 14.03.2020
1052 Clouds 12 1017 87 14484 1.81 180 06:41 14.03.2020
1053 Clouds 12 1017 87 16093 2.1 180 05:56 14.03.2020
1054 Rain 12 1016 82 16093 2.6 240 04:51 14.03.2020
1055 Rain 13 1015 82 16093 3.1 250 03:25 14.03.2020
1056 Rain 13 1015 82 12874 2.14 191 02:35 14.03.2020
1057 Rain 13 1014 87 6437 1.5 90 01:27 14.03.2020
1058 Rain 13 1014 82 2414 2.18 196 00:20 14.03.2020
1059 Rain 13 1014 77 4023 2.18 196 23:38 13.03.2020
1060 Rain 13 1014 82 3219 2.1 0 23:18 13.03.2020
1061 Rain 13 1013 93 4023 3.1 170 22:41 13.03.2020
1062 Rain 13 1014 82 16093 1.5 0 22:20 13.03.2020
1063 Rain 13 1013 87 9656 3.6 160 21:40 13.03.2020
1064 Rain 13 1014 82 11265 2.87 186 21:18 13.03.2020
1065 Rain 12 1014 93 9656 2.6 170 20:41 13.03.2020
1066 Rain 12 1014 82 16093 1.73 162 20:22 13.03.2020
1067 Rain 12 1013 76 11265 2.6 70 19:55 13.03.2020
1068 Rain 12 1013 93 2816 2.6 180 19:36 13.03.2020
1069 Rain 12 1013 82 6437 2.16 136 19:18 13.03.2020
1070 Rain 12 1013 82 11265 2.16 136 18:40 13.03.2020
1071 Rain 12 1012 93 3219 2.16 136 18:22 13.03.2020
1072 Rain 12 1012 87 16093 2.16 136 17:42 13.03.2020
1073 Rain 12 1013 100 16093 1.5 80 17:21 13.03.2020
1074 Rain 11 1012 87 14484 2.1 0 16:56 13.03.2020
1075 Rain 11 1012 100 16093 2.1 70 16:38 13.03.2020
1076 Rain 11 1012 87 8047 2.34 138 16:20 13.03.2020
1077 Rain 11 1011 87 8047 2.34 138 15:43 13.03.2020
1078 Rain 11 1011 93 3219 1.5 310 15:22 13.03.2020
1079 Rain 11 1011 87 9656 2.34 138 14:58 13.03.2020
1080 Rain 11 1011 100 8047 2.34 138 14:40 13.03.2020
1081 Rain 11 1011 100 8047 0.68 213 14:21 13.03.2020
1082 Rain 11 1011 82 9656 0.68 213 13:42 13.03.2020
1083 Rain 11 1011 87 4828 2.6 40 13:24 13.03.2020
1084 Rain 11 1010 87 6437 2.1 60 12:59 13.03.2020
1085 Rain 11 1010 82 9656 1.5 60 12:38 13.03.2020
1086 Rain 11 1010 82 9656 1.5 60 12:38 13.03.2020
1087 Rain 11 1010 93 8047 1.2 318 12:19 13.03.2020
1088 Rain 11 1010 87 9656 2.1 0 11:56 13.03.2020
1089 Rain 11 1010 87 8047 1.5 280 11:36 13.03.2020
1090 Rain 11 1010 87 8047 1.5 280 11:36 13.03.2020
1091 Rain 11 1010 87 6437 0.61 85 11:18 13.03.2020
1092 Rain 11 1011 100 9656 0.61 85 10:46 13.03.2020
1093 Rain 11 1011 93 11265 0.61 85 10:26 13.03.2020
1094 Rain 11 1010 82 16093 2.1 350 09:48 13.03.2020
1095 Rain 11 1010 87 6437 0.61 85 09:30 13.03.2020
1096 Rain 11 1010 71 16093 2.1 50 08:59 13.03.2020
1097 Rain 11 1010 71 16093 0.61 85 08:41 13.03.2020
1098 Rain 11 1011 71 16093 1.6 280 08:22 13.03.2020
1099 Rain 11 1011 93 16093 1.6 280 07:44 13.03.2020
1100 Rain 12 1010 76 16093 1.6 280 07:25 13.03.2020
1101 Rain 12 1010 93 6437 2.1 310 06:46 13.03.2020
1102 Rain 12 1010 71 16093 1.6 280 06:23 13.03.2020
1103 Rain 12 1010 93 16093 1.6 280 05:46 13.03.2020
1104 Rain 12 1011 93 16093 3.27 221 04:57 13.03.2020
1105 Rain 12 1009 82 16093 3.27 221 04:26 13.03.2020
1106 Rain 12 1010 87 4828 3.1 320 02:58 13.03.2020
1107 Rain 12 1007 71 11265 8.7 20 01:41 13.03.2020
1108 Rain 12 1009 82 16093 2.28 6 01:18 13.03.2020
1109 Rain 12 1009 93 16093 2.6 0 00:43 13.03.2020
1110 Rain 12 1009 87 6437 1.5 0 00:20 13.03.2020
1111 Rain 12 1010 82 4828 4.67 244 23:45 12.03.2020
1112 Rain 12 1010 87 4828 2.1 0 23:26 12.03.2020
1113 Rain 12 1010 71 4828 5.1 330 22:55 12.03.2020
1114 Rain 12 1009 82 4828 2.6 260 22:37 12.03.2020
1115 Rain 12 1010 87 4828 4.6 310 22:18 12.03.2020
1116 Rain 13 1011 82 4023 1.5 0 21:42 12.03.2020
1117 Rain 13 1012 87 2414 1.5 0 21:24 12.03.2020
1118 Rain 14 1011 82 6437 1.5 0 20:55 12.03.2020
1119 Rain 14 1011 82 2414 1.5 280 20:36 12.03.2020
1120 Rain 14 1011 93 3219 1.5 350 20:18 12.03.2020
1121 Rain 15 1011 77 4023 2.66 263 19:39 12.03.2020
1122 Rain 15 1011 82 6437 2.6 100 19:19 12.03.2020
1123 Rain 15 1010 87 3219 2.1 260 18:43 12.03.2020
1124 Rain 15 1012 77 16093 3.1 120 18:23 12.03.2020
1125 Rain 15 1011 77 16093 4.6 100 17:56 12.03.2020
1126 Drizzle 15 1011 76 14484 4.1 100 17:37 12.03.2020
1127 Rain 14 1011 82 16093 1.5 0 17:18 12.03.2020
1128 Clouds 14 1011 71 16093 1.38 225 16:43 12.03.2020
1129 Clear 13 1010 82 14484 1.38 225 16:24 12.03.2020
1130 Clear 13 1009 76 16093 3.6 120 15:59 12.03.2020
1131 Clear 13 1009 76 16093 4.1 340 15:39 12.03.2020
1132 Clear 12 1009 82 16093 1.38 225 15:21 12.03.2020
1133 Clear 12 1009 81 16093 1.38 225 14:39 12.03.2020
1134 Clear 12 1009 82 16093 1.11 252 14:19 12.03.2020
1135 Clear 12 1009 76 16093 2.1 60 13:41 12.03.2020
1136 Clear 12 1010 82 16093 1.14 226 13:22 12.03.2020
1137 Clouds 12 1010 87 16093 1.5 260 12:55 12.03.2020
1138 Clouds 12 1010 87 16093 1.5 260 12:55 12.03.2020
1139 Clear 12 1011 71 16093 1.5 30 12:37 12.03.2020
1140 Clear 12 1011 87 16093 1.14 226 12:18 12.03.2020
1141 Clouds 12 1012 82 16093 1.14 226 11:56 12.03.2020
1142 Clear 12 1012 71 16093 1.14 226 11:37 12.03.2020
1143 Clear 12 1012 82 14484 1.3 215 11:19 12.03.2020
1144 Clear 12 1012 82 14484 1.3 215 11:19 12.03.2020
1145 Clouds 13 1013 82 16093 2.1 280 10:57 12.03.2020
1146 Clouds 13 1013 82 16093 2.1 280 10:57 12.03.2020
1147 Clear 13 1013 71 16093 1.3 215 10:39 12.03.2020
1148 -273 0 0 0 0 0 10:21 12.03.2020
1149 Clear 13 1014 71 16093 2.6 40 09:43 12.03.2020
1150 Clouds 13 1014 82 16093 1.3 215 09:25 12.03.2020
1151 Clouds 14 1014 62 16093 2.1 40 08:41 12.03.2020
1152 Clear 14 1014 77 16093 1.36 233 08:20 12.03.2020
1153 Clouds 14 1014 76 16093 1.68 221 07:53 12.03.2020
1154 Clouds 14 1014 72 16093 1.68 221 07:23 12.03.2020
1155 Clouds 14 1015 82 16093 3.1 260 06:52 12.03.2020
1156 Clouds 15 1015 63 16093 2.1 270 05:43 12.03.2020
1157 Clear 15 1014 72 16093 3.04 250 05:21 12.03.2020
1158 Clear 18 1014 59 16093 4.6 250 02:38 12.03.2020
1159 Clear 19 1014 53 16093 2.1 260 01:31 12.03.2020
1160 Clouds 20 1014 42 16093 3.1 0 00:45 12.03.2020
1161 Clear 20 1014 49 16093 3.44 209 00:26 12.03.2020
1162 Clouds 20 1014 46 16093 2.6 300 23:47 11.03.2020
1163 Clear 20 1015 53 16093 3.1 250 23:24 11.03.2020
1164 Clouds 20 1016 82 16093 5.1 280 22:48 11.03.2020
1165 Clouds 20 1016 82 16093 5.1 280 22:30 11.03.2020
1166 Clouds 20 1016 82 16093 5.1 280 22:30 11.03.2020
1167 Clouds 20 1015 53 16093 2.8 208 21:59 11.03.2020
1168 Clear 20 1016 42 16093 2.8 208 21:41 11.03.2020
1169 Clouds 20 1016 72 16093 4.6 280 21:22 11.03.2020
1170 Clouds 20 1017 64 16093 5.1 260 20:58 11.03.2020
1171 Clouds 20 1017 49 16093 2.8 208 20:39 11.03.2020
1172 Clouds 19 1017 53 16093 1.5 0 20:20 11.03.2020
1173 Clouds 18 1017 56 16093 2.27 158 19:44 11.03.2020
1174 Clouds 18 1018 72 16093 3.1 210 19:26 11.03.2020
1175 Clouds 18 1018 60 16093 2.27 158 18:59 11.03.2020
1176 Clouds 17 1018 67 16093 2.1 0 18:40 11.03.2020
1177 Clouds 17 1018 68 16093 1.5 0 18:22 11.03.2020
1178 Clouds 17 1018 72 14484 3.1 140 17:58 11.03.2020
1179 Clouds 16 1018 72 16093 2.6 0 17:39 11.03.2020
1180 Clouds 16 1018 77 16093 3.6 110 17:20 11.03.2020
1181 Clouds 15 1017 82 16093 2.1 80 16:47 11.03.2020
1182 Clear 14 1017 77 16093 1.5 90 16:23 11.03.2020
1183 Clear 14 1017 77 16093 1.5 90 15:59 11.03.2020
1184 Clouds 14 1017 82 16093 1.3 97 15:40 11.03.2020
1185 Clouds 14 1017 77 16093 1.3 97 15:22 11.03.2020
1186 Clouds 14 1017 87 16093 4.1 160 14:42 11.03.2020
1187 Clouds 14 1017 77 16093 1.34 55 14:22 11.03.2020
1188 Clouds 14 1017 93 16093 2.1 140 13:56 11.03.2020
1189 Rain 14 1017 93 16093 3.1 130 13:37 11.03.2020
1190 Clouds 14 1017 77 16093 1.34 55 13:19 11.03.2020
1191 Clouds 14 1017 77 16093 1.95 64 12:40 11.03.2020
1192 Clouds 14 1017 77 16093 1.95 64 12:20 11.03.2020
1193 Clouds 14 1017 77 16093 3.1 140 11:56 11.03.2020
1194 Clouds 14 1017 93 16093 2.6 160 11:37 11.03.2020
1195 Clouds 15 1017 82 16093 1.5 0 11:19 11.03.2020
1196 Clouds 15 1017 93 16093 0.92 26 10:43 11.03.2020
1197 Clouds 15 1017 82 16093 1.5 70 10:19 11.03.2020
1198 Clouds 15 1017 93 16093 0.92 26 09:43 11.03.2020
1199 Clouds 15 1017 82 16093 0.92 26 09:25 11.03.2020
1200 Rain 15 1017 93 16093 2.6 130 08:58 11.03.2020
1201 Clouds 15 1017 82 16093 1.5 180 08:40 11.03.2020
1202 Clouds 15 1017 87 16093 2.1 120 08:19 11.03.2020
1203 Clouds 15 1017 87 16093 2.1 120 07:44 11.03.2020
1204 Clouds 15 1018 87 16093 2.6 150 07:19 11.03.2020
1205 Clouds 15 1017 82 16093 1.3 96 06:46 11.03.2020
1206 Clouds 15 1017 87 16093 2.1 100 05:41 11.03.2020
1207 Rain 16 1016 82 16093 2.6 130 04:52 11.03.2020
1208 Rain 17 1015 72 16093 1.5 0 02:30 11.03.2020
1209 Rain 17 1016 77 16093 3.6 160 01:43 11.03.2020
1210 Rain 17 1016 100 16093 4.17 197 00:49 11.03.2020
1211 Rain 17 1015 82 16093 3.6 180 00:21 11.03.2020
1212 Rain 18 1015 82 4828 1.5 0 23:45 10.03.2020
1213 Rain 17 1015 88 14484 4.1 160 23:22 10.03.2020
1214 Rain 17 1015 88 8047 5.1 140 22:55 10.03.2020
1215 Rain 17 1015 82 14484 1.5 0 22:36 10.03.2020
1216 Rain 17 1015 93 4828 4.1 100 22:18 10.03.2020
1217 Rain 17 1015 72 16093 6.7 150 21:55 10.03.2020
1218 Rain 17 1016 88 4828 4.1 110 21:37 10.03.2020
1219 Rain 17 1016 82 8047 4.1 110 21:18 10.03.2020
1220 Rain 17 1017 77 2816 3.6 90 20:41 10.03.2020
1221 Rain 17 1017 100 8047 5.7 100 20:19 10.03.2020
1222 Rain 17 1017 72 6437 3.1 0 19:57 10.03.2020
1223 Rain 16 1017 82 12874 4.6 110 19:39 10.03.2020
1224 Rain 16 1017 63 16093 4.1 80 19:21 10.03.2020
1225 Rain 16 1017 63 16093 4.1 80 19:21 10.03.2020
1226 Rain 16 1017 72 12874 4.6 60 18:54 10.03.2020
1227 Rain 15 1018 82 16093 5.1 70 18:36 10.03.2020
1228 Rain 15 1017 68 16093 3.6 80 18:18 10.03.2020
1229 Rain 15 1018 93 8047 4.1 80 17:41 10.03.2020
1230 Rain 14 1017 77 16093 3.6 70 17:22 10.03.2020
1231 Rain 14 1016 82 16093 7.2 120 16:40 10.03.2020
1232 Rain 14 1016 93 16093 4.1 70 16:20 10.03.2020
1233 Rain 13 1016 87 11265 5.7 130 15:58 10.03.2020
1234 Rain 13 1016 82 4828 4.1 80 15:58 10.03.2020
1235 Rain 13 1016 82 4828 4.1 80 15:40 10.03.2020
1236 Rain 13 1016 87 9656 4.6 80 15:19 10.03.2020
1237 Rain 13 1016 93 8047 3.6 80 14:57 10.03.2020
1238 Rain 13 1016 93 4023 5.7 80 14:39 10.03.2020
1239 Rain 13 1016 82 11265 4.1 90 14:18 10.03.2020
1240 Rain 13 1016 77 9656 4.1 90 13:43 10.03.2020
1241 Rain 13 1016 82 14484 6.2 100 13:25 10.03.2020
1242 Rain 13 1016 82 16093 1.77 148 12:55 10.03.2020
1243 Rain 13 1015 72 16093 2.1 90 12:37 10.03.2020
1244 Rain 13 1015 72 16093 2.1 90 12:18 10.03.2020
1245 Rain 13 1017 100 8047 3.6 80 11:42 10.03.2020
1246 Rain 13 1016 77 16093 1.5 20 11:24 10.03.2020
1247 Rain 13 1016 77 16093 1.5 20 11:24 10.03.2020
1248 Rain 13 1015 77 16093 3.1 50 10:56 10.03.2020
1249 Rain 13 1017 82 16093 3.6 60 10:38 10.03.2020
1250 Rain 13 1017 77 14484 2.21 73 10:19 10.03.2020
1251 Drizzle 14 1018 82 16093 2.1 90 09:45 10.03.2020
1252 Rain 14 1018 82 8047 1.5 0 09:20 10.03.2020
1253 Drizzle 14 1018 71 16093 3.1 70 08:58 10.03.2020
1254 Drizzle 14 1018 71 16093 3.1 70 08:40 10.03.2020
1255 Rain 15 1018 77 16093 3.2 111 08:20 10.03.2020
1256 Rain 15 1019 54 16093 2.6 350 07:42 10.03.2020
1257 Clouds 15 1019 59 16093 3.2 111 07:23 10.03.2020
1258 Clouds 15 1017 44 16093 3.2 111 06:38 10.03.2020
1259 Clouds 16 1016 67 16093 6.7 110 05:55 10.03.2020
1260 Clouds 16 1019 44 16093 4.1 280 05:35 10.03.2020
1261 Clear 17 1016 34 16093 6.2 140 04:31 10.03.2020
1262 Clear 18 1016 45 16093 5.98 169 03:19 10.03.2020
1263 Clear 20 1017 28 16093 3.1 240 01:36 10.03.2020
1264 Clouds 20 1015 55 16093 2.6 280 00:51 10.03.2020
1265 Clear 21 1016 28 16093 2.1 70 00:29 10.03.2020
1266 Clouds 21 1016 37 16093 3.6 250 23:55 09.03.2020
1267 Clear 21 1016 25 16093 1.84 203 23:36 09.03.2020
1268 Clear 21 1016 25 16093 0.64 115 23:18 09.03.2020
1269 Clear 20 1017 28 16093 0.64 115 22:38 09.03.2020
1270 Clear 20 1017 26 16093 0.64 115 22:20 09.03.2020
1271 Clear 20 1018 29 16093 2.6 0 21:45 09.03.2020
1272 Clear 19 1018 28 16093 0.64 115 21:22 09.03.2020
1273 Clouds 18 1018 30 16093 0.64 115 20:59 09.03.2020
1274 Clear 18 1019 33 16093 1.5 60 20:41 09.03.2020
1275 Clouds 17 1019 39 16093 2.55 86 20:23 09.03.2020
1276 Clouds 17 1019 39 16093 2.1 30 19:59 09.03.2020
1277 Clear 16 1019 38 16093 2.1 210 19:41 09.03.2020
1278 Clouds 16 1020 42 16093 1.5 0 19:20 09.03.2020
1279 Clouds 15 1020 45 16093 2.1 30 18:57 09.03.2020
1280 Clear 15 1019 50 16093 1.5 130 18:38 09.03.2020
1281 Clouds 14 1019 44 16093 2.1 0 18:18 09.03.2020
1282 Clear 13 1019 54 16093 2.6 130 17:56 09.03.2020
1283 Clear 13 1019 54 16093 2.6 130 17:37 09.03.2020
1284 Clear 13 1019 47 16093 1.5 0 17:19 09.03.2020
1285 Clouds 12 1019 54 16093 2.6 0 16:56 09.03.2020
1286 Clear 11 1019 57 16093 2.6 80 16:38 09.03.2020
1287 Clear 11 1019 58 16093 1.97 71 16:20 09.03.2020
1288 Clear 10 1019 70 16093 1.97 71 15:57 09.03.2020
1289 Clear 10 1019 57 16093 3.6 80 15:38 09.03.2020
1290 Clear 9 1018 58 16093 1.97 71 15:19 09.03.2020
1291 Clear 9 1019 57 16093 2.6 40 14:41 09.03.2020
1292 Clear 9 1019 62 16093 1.5 10 14:23 09.03.2020
1293 Clear 9 1019 70 16093 2.1 50 13:59 09.03.2020
1294 Clear 9 1019 70 16093 2.1 50 13:40 09.03.2020
1295 Clear 9 1019 70 16093 2.1 50 13:40 09.03.2020
1296 Clear 9 1018 66 16093 1.5 30 13:21 09.03.2020
1297 Clear 9 1018 70 16093 2.6 40 12:59 09.03.2020
1298 Clear 9 1018 70 16093 2.6 40 12:40 09.03.2020
1299 Clouds 9 1019 71 16093 0.93 40 12:20 09.03.2020
1300 Clear 9 1019 70 16093 0.93 40 11:41 09.03.2020
1301 Clear 9 1019 62 16093 1.5 20 11:21 09.03.2020
1302 Clear 9 1019 61 16093 2.1 60 10:58 09.03.2020
1303 Clear 9 1019 61 16093 2.1 60 10:40 09.03.2020
1304 Clear 9 1019 61 16093 2.1 60 10:40 09.03.2020
1305 Clear 9 1019 62 16093 0.67 235 10:19 09.03.2020
1306 Clear 10 1019 66 16093 0.67 235 09:44 09.03.2020
1307 Clear 10 1019 71 16093 0.67 235 09:24 09.03.2020
1308 Clear 10 1019 66 16093 0.67 235 08:59 09.03.2020
1309 Clear 10 1019 66 16093 0.67 235 08:39 09.03.2020
1310 Clear 10 1019 71 16093 0.66 166 08:21 09.03.2020
1311 Clear 11 1019 71 16093 1.46 188 07:40 09.03.2020
1312 Clear 11 1019 67 16093 1.46 188 07:21 09.03.2020
1313 Clear 11 1019 71 16093 2.1 260 06:43 09.03.2020
1314 Clear 11 1018 62 16093 1.46 188 06:23 09.03.2020
1315 Clear 12 1018 71 16093 2.6 270 05:47 09.03.2020
1316 Clear 12 1018 62 16093 3.13 228 05:20 09.03.2020
1317 Clear 12 1018 66 16093 3.6 280 04:40 09.03.2020
1318 Clear 13 1018 59 16093 1.5 270 04:21 09.03.2020
1319 Clouds 14 1017 47 16093 4.6 240 02:58 09.03.2020
1320 Clear 16 1016 45 16093 1.5 0 01:26 09.03.2020
1321 Clouds 17 1016 41 16093 4.6 230 00:38 09.03.2020
1322 Clear 17 1016 39 16093 2.1 0 00:20 09.03.2020
1323 Clouds 17 1015 41 16093 4.1 220 23:47 08.03.2020
1324 Clouds 17 1016 48 16093 4.6 220 23:21 08.03.2020
1325 Clouds 17 1016 36 16093 3.6 250 22:56 08.03.2020
1326 Clouds 17 1016 36 16093 3.6 250 22:38 08.03.2020
1327 Clouds 17 1017 48 16093 2.1 0 22:18 08.03.2020
1328 Clouds 17 1016 38 16093 3.1 240 21:54 08.03.2020
1329 Clouds 17 1016 38 16093 3.1 240 21:54 08.03.2020
1330 Clouds 17 1016 38 16093 3.1 240 21:36 08.03.2020
1331 Clouds 17 1017 45 16093 1.5 250 21:18 08.03.2020
1332 Clouds 17 1017 45 16093 1.5 250 21:18 08.03.2020
1333 Clouds 16 1017 44 16093 2.1 0 20:39 08.03.2020
1334 Clouds 16 1017 45 16093 2.1 70 20:21 08.03.2020
1335 Clear 15 1016 47 16093 5.7 250 19:56 08.03.2020
1336 Clouds 15 1017 47 16093 1.07 197 19:37 08.03.2020
1337 Clear 15 1017 52 16093 2.1 0 19:18 08.03.2020
1338 Clouds 14 1017 66 16093 1.5 170 18:41 08.03.2020
1339 Clouds 14 1017 59 16093 1.07 197 18:23 08.03.2020
1340 Clouds 14 1017 59 16093 1.07 197 17:56 08.03.2020
1341 Clouds 13 1017 76 16093 2.1 220 17:38 08.03.2020
1342 Clear 12 1017 71 16093 1.5 350 17:18 08.03.2020
1343 Clouds 11 1016 81 16093 0.94 243 16:45 08.03.2020
1344 Clear 10 1016 76 16093 0.94 243 16:27 08.03.2020
1345 Rain 10 1016 76 16093 0.94 243 15:56 08.03.2020
1346 Rain 10 1016 76 16093 0.94 243 15:56 08.03.2020
1347 Clear 9 1015 81 16093 0.94 243 15:38 08.03.2020
1348 Clear 9 1015 81 16093 0.94 243 15:19 08.03.2020
1349 Clouds 9 1015 76 16093 1.5 80 14:40 08.03.2020
1350 Clouds 10 1015 76 16093 0.67 212 14:21 08.03.2020
1351 Clouds 10 1015 81 16093 1.5 250 13:57 08.03.2020
1352 Clouds 10 1015 87 16093 0.67 212 13:38 08.03.2020
1353 Clouds 10 1015 76 16093 0.67 212 13:19 08.03.2020
1354 Clouds 10 1015 76 16093 1.6 249 12:41 08.03.2020
1355 Clouds 10 1015 87 16093 1.6 249 12:21 08.03.2020
1356 Clouds 11 1015 76 16093 1.6 249 11:55 08.03.2020
1357 Rain 11 1015 87 16093 1.6 249 11:37 08.03.2020
1358 Clear 11 1016 81 16093 0.94 245 11:19 08.03.2020
1359 Rain 11 1015 76 16093 0.94 245 10:41 08.03.2020
1360 Rain 11 1015 71 12874 1.5 260 10:23 08.03.2020
1361 Rain 11 1015 81 16093 1.5 290 09:43 08.03.2020
1362 Rain 12 1016 81 9656 2.1 260 09:24 08.03.2020
1363 Rain 12 1016 76 11265 3.6 250 08:54 08.03.2020
1364 Clouds 12 1016 67 16093 0.94 245 08:36 08.03.2020
1365 Clouds 12 1016 67 16093 2.44 242 08:18 08.03.2020
1366 Clouds 12 1016 81 16093 4.1 270 07:41 08.03.2020
1367 Clouds 12 1016 71 16093 1.5 220 07:22 08.03.2020
1368 Clouds 12 1016 71 16093 2.6 320 06:42 08.03.2020
1369 Clouds 12 1016 67 16093 2.1 270 06:22 08.03.2020
1370 Clouds 12 1016 67 16093 3.6 300 05:28 08.03.2020
1371 Clouds 13 1015 71 16093 3.6 160 03:51 08.03.2020
1372 Clouds 14 1015 63 16093 5.7 260 02:29 08.03.2020
1373 Clouds 15 1015 59 16093 5.7 250 01:23 08.03.2020
1374 Clouds 16 1014 58 16093 6.2 260 00:49 08.03.2020
1375 Clouds 16 1015 59 16093 5.7 250 00:26 08.03.2020
1376 Clouds 16 1014 51 16093 5.1 260 23:44 07.03.2020
1377 Clouds 16 1015 55 16093 7.7 260 23:23 07.03.2020
1378 Clouds 17 1015 52 16093 2.6 250 22:54 07.03.2020
1379 Clouds 16 1014 48 16093 4.1 240 22:36 07.03.2020
1380 Clouds 17 1015 52 16093 3.56 208 22:18 07.03.2020
1381 Clouds 16 1015 47 16093 1.5 0 21:42 07.03.2020
1382 Clouds 16 1016 48 16093 3.56 208 21:19 07.03.2020
1383 Clouds 16 1016 55 16093 5.1 120 20:39 07.03.2020
1384 Clouds 15 1016 52 16093 2.19 164 20:19 07.03.2020
1385 Clouds 15 1017 59 16093 2.1 0 19:41 07.03.2020
1386 Clouds 14 1017 59 16093 2.19 164 19:22 07.03.2020
1387 Clouds 14 1018 67 16093 2.1 190 18:47 07.03.2020
1388 Clouds 14 1017 59 16093 2.19 164 18:29 07.03.2020
1389 Clouds 13 1017 82 16093 3.6 240 17:59 07.03.2020
1390 Clouds 13 1017 82 16093 3.6 240 17:41 07.03.2020
1391 Clouds 13 1017 67 16093 2.1 220 17:19 07.03.2020
1392 Clouds 13 1017 59 16093 2.1 250 16:56 07.03.2020
1393 Clouds 12 1017 59 16093 2.1 250 16:38 07.03.2020
1394 Clouds 12 1016 62 16093 2.29 190 16:19 07.03.2020
1395 Clouds 12 1016 76 16093 3.1 180 15:41 07.03.2020
1396 Clouds 12 1016 62 16093 2.29 190 15:22 07.03.2020
1397 Clouds 12 1015 76 16093 2.1 160 14:59 07.03.2020
1398 Clouds 12 1015 76 16093 2.1 160 14:41 07.03.2020
1399 Clouds 12 1015 76 16093 2.1 170 14:23 07.03.2020
1400 Clouds 12 1015 93 16093 2.6 220 13:43 07.03.2020
1401 Clouds 12 1015 76 16093 2.1 190 13:22 07.03.2020
1402 Clouds 12 1016 67 16093 1.5 130 12:59 07.03.2020
1403 Clouds 12 1016 67 16093 1.5 130 12:39 07.03.2020
1404 Clouds 12 1016 67 16093 2.4 185 12:19 07.03.2020
1405 Clouds 13 1015 93 12874 2.6 230 11:55 07.03.2020
1406 Clouds 13 1015 93 12874 2.6 230 11:36 07.03.2020
1407 Clouds 13 1016 63 16093 2.51 189 11:18 07.03.2020
1408 Clouds 13 1016 71 16093 2.6 170 10:39 07.03.2020
1409 Clouds 13 1016 63 16093 2.51 189 10:19 07.03.2020
1410 Mist 13 1016 100 6437 2.51 189 09:41 07.03.2020
1411 Clouds 13 1016 63 16093 1.5 270 09:20 07.03.2020
1412 Clouds 13 1016 87 12874 1.5 140 08:59 07.03.2020
1413 Clouds 13 1016 87 12874 1.5 140 08:41 07.03.2020
1414 Clouds 13 1016 72 16093 2.78 180 08:20 07.03.2020
1415 Clouds 13 1016 81 16093 2.6 170 07:47 07.03.2020
1416 Clouds 13 1017 67 16093 2.78 180 07:22 07.03.2020
1417 Clouds 13 1017 82 12874 2.6 280 06:54 07.03.2020
1418 Clouds 13 1016 71 16093 2.1 260 06:29 07.03.2020
1419 Mist 13 1016 93 8047 3.6 270 06:29 07.03.2020
1420 Clouds 13 1016 71 16093 2.1 260 05:46 07.03.2020
1421 Clouds 14 1015 67 16093 1.5 260 04:34 07.03.2020
1422 Clouds 16 1015 67 14484 2.6 0 02:46 07.03.2020
1423 Clouds 16 1015 72 16093 5.1 260 02:24 07.03.2020
1424 Clear 19 1014 59 14484 2.1 250 01:23 07.03.2020
1425 Clear 20 1014 46 16093 5.1 270 00:38 07.03.2020
1426 Clear 20 1015 63 11265 4.01 211 00:19 07.03.2020
1427 Haze 20 1015 72 9656 4.01 211 23:43 06.03.2020
1428 Haze 20 1015 63 9656 2.6 250 23:25 06.03.2020
1429 Clouds 21 1016 67 11265 7.2 250 22:47 06.03.2020
1430 -273 0 0 0 0 0 22:21 06.03.2020
1431 Clear 21 1016 49 14484 4.6 260 21:54 06.03.2020
1432 Clear 20 1016 49 14484 4.6 260 21:36 06.03.2020
1433 Haze 20 1017 53 8047 3.22 205 21:18 06.03.2020
1434 Haze 19 1017 63 6437 3.22 205 20:37 06.03.2020
1435 Haze 19 1017 63 6437 1.67 184 20:19 06.03.2020
1436 Haze 18 1018 67 8047 2.1 250 19:44 06.03.2020
1437 Haze 18 1017 72 4828 1.67 184 19:26 06.03.2020
1438 Haze 17 1018 82 4828 1.67 184 18:44 06.03.2020
1439 Haze 16 1018 82 4828 1.67 184 18:21 06.03.2020
1440 Mist 15 1018 93 4023 1.67 184 17:58 06.03.2020
1441 Haze 15 1017 82 4828 1.67 184 17:40 06.03.2020
1442 Haze 14 1017 87 3219 0.96 186 17:21 06.03.2020
1443 Clear 14 1018 51 16093 0.96 186 16:58 06.03.2020
1444 Haze 14 1017 82 3219 0.96 186 16:40 06.03.2020
1445 Haze 13 1017 82 3219 0.96 186 16:19 06.03.2020
1446 Haze 13 1016 82 6437 0.96 186 15:44 06.03.2020
1447 Fog 13 1017 93 805 0.96 186 15:24 06.03.2020
1448 Clear 13 1016 44 16093 2.1 50 14:45 06.03.2020
1449 Clear 13 1016 82 11265 0.99 219 14:25 06.03.2020
1450 Clear 13 1016 47 16093 2.1 70 13:59 06.03.2020
1451 Clear 13 1016 47 16093 2.1 70 13:41 06.03.2020
1452 Clear 13 1016 82 12874 0.67 196 13:21 06.03.2020
1453 Clear 13 1016 44 16093 1.5 50 12:56 06.03.2020
1454 Clear 13 1016 44 16093 1.5 50 12:37 06.03.2020
1455 Clear 13 1016 82 12874 0.67 196 12:18 06.03.2020
1456 Clouds 13 1017 93 11265 0.67 196 11:56 06.03.2020
1457 Clear 13 1017 47 16093 0.67 196 11:38 06.03.2020
1458 Clear 13 1017 82 12874 1.39 179 11:19 06.03.2020
1459 Clear 13 1017 82 12874 1.39 179 10:38 06.03.2020
1460 Clear 13 1017 82 12874 1.39 179 10:20 06.03.2020
1461 Clear 14 1017 77 12874 1.39 179 09:54 06.03.2020
1462 Clear 14 1017 77 12874 1.39 179 09:36 06.03.2020
1463 Clear 14 1017 77 12874 1.39 179 09:18 06.03.2020
1464 Clear 14 1018 51 16093 2.6 40 08:42 06.03.2020
1465 Clear 14 1018 51 16093 2.6 40 08:42 06.03.2020
1466 Clear 14 1018 77 14484 0.24 243 08:24 06.03.2020
1467 Clear 14 1018 48 16093 1.5 80 07:47 06.03.2020
1468 Clear 15 1018 72 12874 0.24 243 07:26 06.03.2020
1469 Clear 15 1017 72 12874 0.24 243 06:56 06.03.2020
1470 Clear 15 1017 72 12874 0.24 243 06:38 06.03.2020
1471 Clear 16 1018 45 16093 0.24 243 05:42 06.03.2020
1472 Clear 16 1017 72 14484 2.35 258 05:22 06.03.2020
1473 Clear 17 1018 48 16093 2.1 280 04:55 06.03.2020
1474 Clear 22 1017 27 16093 5.1 270 01:59 06.03.2020
1475 Clear 23 1017 27 16093 5.1 270 01:39 06.03.2020
1476 Clear 23 1017 49 16093 2.6 270 01:19 06.03.2020
1477 Clear 24 1017 46 16093 2.6 260 00:32 06.03.2020
1478 Clear 24 1018 16 16093 2.99 261 23:56 05.03.2020
1479 Clear 24 1018 16 16093 2.99 261 23:38 05.03.2020
1480 Clear 24 1018 46 14484 2.1 260 23:19 05.03.2020
1481 Clear 24 1019 20 16093 2.1 0 22:40 05.03.2020
1482 Clear 23 1019 49 14484 1.5 0 22:21 05.03.2020
1483 Clear 23 1020 20 16093 2.6 0 21:57 05.03.2020
1484 Clear 23 1020 20 16093 2.6 0 21:38 05.03.2020
1485 Clear 23 1020 46 12874 1.5 0 21:20 05.03.2020
1486 Clear 22 1021 19 16093 2.1 110 20:57 05.03.2020
1487 Clear 22 1021 19 16093 2.1 110 20:39 05.03.2020
1488 Clear 20 1021 46 11265 1.2 226 20:19 05.03.2020
1489 Clear 20 1021 25 16093 1.2 226 19:58 05.03.2020
1490 Clear 19 1021 25 16093 1.2 226 19:39 05.03.2020
1491 Haze 19 1022 63 6437 2.1 240 19:18 05.03.2020
1492 Clear 18 1022 39 16093 1.5 160 18:55 05.03.2020
1493 Clear 17 1022 39 16093 1.5 160 18:36 05.03.2020
1494 Haze 16 1021 67 8047 1.2 226 18:18 05.03.2020
1495 Mist 15 1022 93 8047 1.2 226 17:42 05.03.2020
1496 Mist 15 1022 93 8047 1.2 226 17:42 05.03.2020
1497 Haze 14 1022 77 4828 1.5 280 17:22 05.03.2020
1498 Haze 13 1021 82 6437 0.78 241 16:58 05.03.2020
1499 Haze 13 1021 82 6437 0.78 241 16:40 05.03.2020
1500 Haze 12 1021 82 4828 0.78 241 16:21 05.03.2020
1501 Clear 12 1021 66 16093 2.6 60 15:45 05.03.2020
1502 Haze 12 1021 82 8047 0.78 241 15:24 05.03.2020
1503 Mist 12 1021 82 6437 0.78 241 14:59 05.03.2020
1504 Mist 12 1021 82 6437 0.78 241 14:41 05.03.2020
1505 Haze 12 1021 77 8047 0.94 245 14:21 05.03.2020
1506 Clear 12 1021 87 16093 2.1 60 13:57 05.03.2020
1507 Clear 12 1021 87 16093 2.1 60 13:38 05.03.2020
1508 Haze 12 1021 77 9656 1.25 245 13:20 05.03.2020
1509 Clear 12 1020 71 16093 2.1 90 12:42 05.03.2020
1510 Clouds 11 1021 82 11265 1.25 245 12:21 05.03.2020
1511 Clouds 11 1021 81 16093 1.25 245 11:57 05.03.2020
1512 Clouds 12 1021 81 16093 1.25 245 11:37 05.03.2020
1513 Clouds 12 1021 81 16093 1.25 245 11:37 05.03.2020
1514 Haze 12 1021 77 9656 1.1 241 11:19 05.03.2020
1515 Clear 12 1021 76 16093 2.1 330 10:58 05.03.2020
1516 Clear 12 1021 76 16093 2.1 330 10:40 05.03.2020
1517 Clouds 12 1022 82 16093 1.1 241 10:21 05.03.2020
1518 Clouds 12 1022 82 16093 1.1 241 09:49 05.03.2020
1519 Clouds 12 1021 77 12874 1.1 241 09:28 05.03.2020
1520 Clouds 12 1021 82 12874 1.1 241 08:59 05.03.2020
1521 Clouds 12 1022 87 16093 1.1 241 08:41 05.03.2020
1522 Clouds 12 1021 82 12874 1.21 231 08:22 05.03.2020
1523 Clouds 13 1022 87 16093 2.1 240 07:42 05.03.2020
1524 Clouds 13 1022 87 16093 2.1 240 07:42 05.03.2020
1525 Clouds 13 1021 82 16093 4.1 240 07:21 05.03.2020
1526 Clear 13 1021 71 16093 2.1 70 06:44 05.03.2020
1527 Clear 13 1021 71 16093 2.1 70 06:44 05.03.2020
1528 Clear 13 1021 77 16093 1.45 201 06:20 05.03.2020
1529 Clear 13 1021 71 16093 1.45 201 05:36 05.03.2020
1530 Clear 14 1020 72 16093 2.32 213 04:24 05.03.2020
1531 Clear 14 1020 63 16093 3.1 260 03:58 05.03.2020
1532 Clear 16 1019 55 16093 4.6 250 02:41 05.03.2020
1533 Clear 18 1019 56 14484 2.6 260 01:28 05.03.2020
1534 Clear 19 1019 46 16093 5.1 240 00:56 05.03.2020
1535 Clear 20 1019 26 16093 5.7 250 23:58 04.03.2020
1536 Clear 20 1019 26 16093 5.7 250 23:58 04.03.2020
1537 Clear 20 1019 26 16093 5.7 250 23:40 04.03.2020
1538 Clear 21 1019 49 16093 2.1 0 23:21 04.03.2020
1539 Clear 21 1019 30 16093 4.1 260 22:56 04.03.2020
1540 Clear 21 1019 30 16093 4.1 260 22:37 04.03.2020
1541 Clear 21 1019 38 16093 3.59 219 22:19 04.03.2020
1542 Clear 21 1020 26 16093 2.6 0 21:56 04.03.2020
1543 Clear 21 1020 26 16093 2.6 0 21:37 04.03.2020
1544 Clear 21 1021 52 16093 1.5 0 21:18 04.03.2020
1545 Clear 20 1021 32 16093 2.6 0 20:40 04.03.2020
1546 Clear 20 1021 52 14484 1.71 207 20:22 04.03.2020
1547 Clear 19 1021 31 16093 1.71 207 19:58 04.03.2020
1548 Clear 19 1021 31 16093 1.71 207 19:58 04.03.2020
1549 Clear 19 1021 31 16093 1.71 207 19:39 04.03.2020
1550 Clouds 18 1021 59 11265 1.71 207 19:21 04.03.2020
1551 Clouds 17 1021 63 11265 1.71 207 18:42 04.03.2020
1552 Haze 16 1021 77 9656 1.71 207 18:24 04.03.2020
1553 Mist 16 1021 77 9656 2.6 70 17:59 04.03.2020
1554 Mist 15 1021 77 9656 2.6 70 17:39 04.03.2020
1555 Haze 14 1020 72 8047 0.81 227 17:20 04.03.2020
1556 Haze 13 1020 72 8047 0.81 227 16:57 04.03.2020
1557 Haze 12 1020 82 9656 1.5 0 16:38 04.03.2020
1558 Mist 12 1020 82 9656 3.1 100 16:19 04.03.2020
1559 Clear 10 1019 40 16093 0.81 227 15:46 04.03.2020
1560 Clouds 10 1019 93 11265 0.81 227 15:27 04.03.2020
1561 Clear 10 1018 40 16093 2.1 30 14:59 04.03.2020
1562 Clear 10 1018 40 16093 2.1 30 14:41 04.03.2020
1563 Clear 10 1018 57 16093 1.25 104 14:21 04.03.2020
1564 Clear 10 1018 35 16093 2.6 50 13:58 04.03.2020
1565 Clear 10 1018 35 16093 2.6 50 13:39 04.03.2020
1566 Clouds 11 1017 87 12874 1.5 30 13:21 04.03.2020
1567 Clouds 11 1017 87 12874 0.29 121 12:56 04.03.2020
1568 Clouds 11 1017 87 12874 0.29 121 12:38 04.03.2020
1569 Clouds 11 1017 81 14484 1.5 120 12:19 04.03.2020
1570 Clear 11 1017 35 16093 1.5 60 11:54 04.03.2020
1571 Clouds 12 1017 77 14484 2.1 120 11:36 04.03.2020
1572 Clear 11 1017 82 12874 2 175 11:18 04.03.2020
1573 Clouds 12 1017 82 14484 1.5 340 10:41 04.03.2020
1574 Clear 12 1017 77 11265 2 175 10:22 04.03.2020
1575 Clouds 13 1017 87 11265 1.5 60 09:44 04.03.2020
1576 Clear 13 1017 72 11265 2 175 09:23 04.03.2020
1577 Clear 13 1017 30 16093 1.5 80 08:59 04.03.2020
1578 Clear 13 1017 30 16093 1.5 80 08:40 04.03.2020
1579 Clear 13 1016 72 11265 1.44 191 08:22 04.03.2020
1580 Clear 14 1016 30 16093 2.6 20 07:44 04.03.2020
1581 Clear 14 1016 77 12874 1.44 191 07:25 04.03.2020
1582 Clear 15 1016 26 16093 1.44 191 06:49 04.03.2020
1583 Clear 15 1015 67 14484 1.44 191 06:26 04.03.2020
1584 Clear 15 1016 27 16093 1.5 280 05:55 04.03.2020
1585 -273 0 0 0 0 0 05:00 04.03.2020
1586 Clear 16 1015 24 16093 3.1 290 05:00 04.03.2020
1587 Clear 16 1015 24 16093 3.1 290 04:59 04.03.2020
1588 Clear 17 1015 19 16093 3.6 280 03:50 04.03.2020
1589 Clear 18 1013 42 16093 1.5 250 03:31 04.03.2020
1590 Clear 20 1014 11 16093 3.6 240 02:58 04.03.2020
1591 Clear 20 1012 33 16093 1.5 250 02:25 04.03.2020
1592 Clear 22 1013 10 16093 3.6 270 01:56 04.03.2020
1593 Clear 23 1012 31 16093 3.58 228 01:31 04.03.2020
1594 Clear 24 1012 49 16093 4.1 200 00:41 04.03.2020
1595 Clear 24 1012 15 16093 2.1 0 00:19 04.03.2020
1596 Clear 25 1012 14 16093 3.74 237 23:41 03.03.2020
1597 Clear 25 1012 14 16093 3.19 256 23:22 03.03.2020
1598 Clear 25 1013 11 16093 2.1 260 22:55 03.03.2020
1599 Clear 25 1013 11 16093 2.1 260 22:37 03.03.2020
1600 Clear 25 1013 13 16093 3.19 256 22:18 03.03.2020
1601 Clear 25 1014 11 16093 4.6 300 21:41 03.03.2020
1602 Clear 24 1014 13 16093 3.19 256 21:22 03.03.2020
1603 Clear 24 1015 10 16093 4.6 240 20:58 03.03.2020
1604 Clear 24 1015 10 16093 4.6 240 20:39 03.03.2020
1605 Clear 23 1014 11 16093 1.5 0 20:18 03.03.2020
1606 Clear 22 1015 9 16093 1.14 238 19:56 03.03.2020
1607 Clear 22 1015 9 16093 1.27 227 19:37 03.03.2020
1608 Clear 22 1015 9 16093 1.27 227 19:37 03.03.2020
1609 Clear 22 1014 12 16093 2.1 120 19:18 03.03.2020
1610 Clear 21 1014 15 16093 2.1 220 18:56 03.03.2020
1611 Clear 21 1014 15 16093 2.1 220 18:56 03.03.2020
1612 Clear 21 1014 15 16093 2.1 220 18:38 03.03.2020
1613 Clear 20 1014 15 16093 1.27 227 18:19 03.03.2020
1614 Clear 19 1014 17 16093 1.5 0 17:54 03.03.2020
1615 Clear 18 1014 17 16093 1.5 0 17:36 03.03.2020
1616 Clear 18 1014 17 16093 1.5 0 17:36 03.03.2020
1617 Clear 17 1013 18 16093 1.5 90 17:18 03.03.2020
1618 Clear 15 1014 34 16093 1.68 32 16:39 03.03.2020
1619 Clear 14 1013 28 16093 1.68 32 16:21 03.03.2020
1620 Clear 14 1014 19 16093 1.68 32 15:59 03.03.2020
1621 Clear 14 1014 19 16093 1.68 32 15:59 03.03.2020
1622 Clear 13 1014 19 16093 1.68 32 15:41 03.03.2020
1623 Clear 13 1013 22 16093 1.68 32 15:20 03.03.2020
1624 Clear 13 1013 19 16093 3.1 20 14:54 03.03.2020
1625 Clear 14 1013 19 16093 3.1 20 14:36 03.03.2020
1626 Clear 14 1012 18 16093 1.44 18 14:18 03.03.2020
1627 Clear 14 1013 19 16093 2.1 100 13:42 03.03.2020
1628 Clear 14 1012 24 16093 1.44 18 13:24 03.03.2020
1629 Clear 14 1012 17 16093 2.1 340 12:55 03.03.2020
1630 Clear 14 1012 17 16093 2.1 340 12:37 03.03.2020
1631 Clear 14 1012 19 16093 1.44 18 12:18 03.03.2020
1632 Clear 15 1012 13 16093 2.1 200 11:38 03.03.2020
1633 Clear 15 1013 17 16093 1.84 346 11:20 03.03.2020
1634 Clear 15 1012 11 16093 3.6 130 10:57 03.03.2020
1635 Clear 15 1012 11 16093 3.6 130 10:39 03.03.2020
1636 Clear 15 1012 12 16093 1.5 0 10:19 03.03.2020
1637 Clear 15 1013 14 16093 1.84 346 09:59 03.03.2020
1638 Clear 14 1013 14 16093 1.84 346 09:40 03.03.2020
1639 Clear 15 1012 9 16093 3.1 20 09:19 03.03.2020
1640 Clear 15 1013 14 16093 1.5 350 08:41 03.03.2020
1641 Clear 15 1012 15 16093 3.1 360 08:22 03.03.2020
1642 Clear 15 1013 16 16093 1.46 9 07:55 03.03.2020
1643 Clear 15 1013 16 16093 1.46 9 07:37 03.03.2020
1644 Clear 15 1013 18 16093 1.5 0 07:18 03.03.2020
1645 Clear 15 1013 18 16093 1.5 90 06:40 03.03.2020
1646 Clear 15 1012 20 16093 2.1 340 06:20 03.03.2020
1647 Clear 16 1013 21 16093 4.6 320 05:42 03.03.2020
1648 Clear 16 1012 16 16093 3.1 20 04:51 03.03.2020
1649 Clear 19 1010 13 16093 2.6 0 02:38 03.03.2020
1650 Clear 20 1010 15 16093 2.6 0 01:29 03.03.2020
1651 Clear 20 1010 19 16093 7.2 10 00:42 03.03.2020
1652 Clouds 20 1010 15 16093 2.6 0 00:23 03.03.2020
1653 Clear 20 1011 17 16093 3.1 330 23:50 02.03.2020
1654 Clear 20 1011 17 16093 2.6 0 23:23 02.03.2020
1655 Clear 19 1011 21 16093 3.1 220 22:58 02.03.2020
1656 Clear 19 1011 21 16093 3.1 220 22:38 02.03.2020
1657 Clear 19 1011 15 16093 0.74 258 22:20 02.03.2020
1658 Clear 19 1012 19 16093 2.1 0 21:56 02.03.2020
1659 Clear 19 1012 19 16093 2.1 0 21:38 02.03.2020
1660 Haze 19 1013 20 2414 2.6 0 21:20 02.03.2020
1661 Clear 18 1012 27 16093 7.7 360 20:56 02.03.2020
1662 Clear 18 1012 26 16093 6.7 100 20:38 02.03.2020
1663 Clear 17 1013 19 16093 2.6 0 20:19 02.03.2020
1664 Clear 17 1012 30 16093 4.6 210 19:54 02.03.2020
1665 Clear 16 1012 30 16093 4.6 210 19:36 02.03.2020
1666 Clear 16 1013 29 16093 1.31 175 19:18 02.03.2020
1667 Clouds 15 1012 50 16093 4.6 220 18:43 02.03.2020
1668 Clear 15 1013 41 16093 1.31 175 18:19 02.03.2020
1669 Clear 14 1013 36 16093 3.6 70 17:57 02.03.2020
1670 Clear 13 1013 36 16093 3.6 70 17:39 02.03.2020
1671 Clear 12 1012 62 16093 1.28 273 17:21 02.03.2020
1672 Clear 11 1012 66 16093 1.5 0 16:54 02.03.2020
1673 Clear 10 1012 66 16093 1.5 0 16:36 02.03.2020
1674 Clear 9 1011 76 16093 1.28 273 16:18 02.03.2020
1675 Clear 9 1011 81 16093 1.28 273 15:42 02.03.2020
1676 Clear 8 1011 76 16093 1.28 273 15:20 02.03.2020
1677 Clear 8 1010 81 16093 2.1 40 14:41 02.03.2020
1678 Clear 8 1011 76 16093 2.17 49 14:20 02.03.2020
1679 Clear 8 1010 87 16093 2.6 10 13:59 02.03.2020
1680 Clear 8 1010 87 16093 2.6 10 13:38 02.03.2020
1681 Clear 8 1011 71 16093 1.74 44 13:18 02.03.2020
1682 Clear 9 1009 81 16093 1.74 44 12:44 02.03.2020
1683 Clear 9 1011 66 16093 1.5 10 12:20 02.03.2020
1684 Clouds 9 1010 93 16093 2.6 350 11:56 02.03.2020
1685 Clouds 9 1010 93 16093 2.6 350 11:37 02.03.2020
1686 Clear 9 1012 66 16093 2.21 128 11:18 02.03.2020
1687 Clear 9 1012 93 16093 2.21 128 10:54 02.03.2020
1688 Clear 9 1012 93 16093 2.21 128 10:36 02.03.2020
1689 Clouds 9 1013 66 16093 1.5 100 10:18 02.03.2020
1690 Clouds 10 1012 87 16093 2.21 128 09:42 02.03.2020
1691 Clouds 10 1013 62 16093 1.5 30 09:24 02.03.2020
1692 Rain 10 1012 93 16093 3.1 70 08:47 02.03.2020
1693 Rain 10 1013 71 16093 0.05 66 08:22 02.03.2020
1694 Rain 10 1013 87 16093 1.39 267 07:43 02.03.2020
1695 Rain 10 1014 71 16093 1.5 70 07:20 02.03.2020
1696 Rain 10 1013 62 16093 3.6 110 06:45 02.03.2020
1697 Rain 10 1013 81 16093 2.6 100 05:55 02.03.2020
1698 Rain 10 1013 50 16093 3.88 221 04:26 02.03.2020
1699 Rain 11 1013 50 16093 3.88 221 03:23 02.03.2020
1700 Rain 11 1013 61 16093 3.6 270 02:49 02.03.2020
1701 Clouds 12 1012 47 16093 5.1 180 01:52 02.03.2020
1702 Clouds 13 1014 47 16093 4.6 250 01:31 02.03.2020
1703 Clouds 14 1013 48 16093 1.5 0 00:24 02.03.2020
1704 Clouds 14 1013 62 14484 4.6 250 23:59 01.03.2020
1705 Clouds 14 1013 62 14484 4.6 250 23:41 01.03.2020
1706 Clouds 14 1014 44 16093 2.1 0 23:20 01.03.2020
1707 Clouds 14 1013 58 16093 5.7 240 22:43 01.03.2020
1708 Clouds 14 1014 41 12874 3.1 250 22:21 01.03.2020
1709 Clouds 14 1014 41 12874 3.1 250 22:21 01.03.2020
1710 Clouds 14 1014 87 14484 7.2 230 21:57 01.03.2020
1711 Clouds 14 1014 87 14484 7.2 230 21:39 01.03.2020
1712 Clouds 14 1015 51 12874 3.1 260 21:20 01.03.2020
1713 Clouds 14 1015 66 16093 7.2 200 20:44 01.03.2020
1714 Clouds 14 1015 48 16093 2.6 250 20:26 01.03.2020
1715 Clouds 14 1015 62 16093 6.2 200 19:59 01.03.2020
1716 Clouds 14 1015 62 16093 6.2 200 19:40 01.03.2020
1717 Clouds 14 1015 55 16093 1.5 250 19:21 01.03.2020
1718 Clouds 14 1016 55 16093 1.5 240 18:56 01.03.2020
1719 Clouds 14 1016 62 16093 3.6 240 18:38 01.03.2020
1720 Clouds 13 1016 59 16093 1.5 0 18:18 01.03.2020
1721 Clouds 13 1015 59 14484 4.33 173 17:55 01.03.2020
1722 Clouds 13 1016 62 16093 4.1 260 17:36 01.03.2020
1723 Clouds 13 1015 63 12874 3.86 173 17:18 01.03.2020
1724 Clouds 12 1015 67 12874 3.86 173 16:40 01.03.2020
1725 Clouds 12 1015 67 12874 3.86 173 16:20 01.03.2020
1726 Clouds 11 1015 71 12874 3.86 173 15:59 01.03.2020
1727 Clouds 11 1015 71 12874 3.86 173 15:41 01.03.2020
1728 Clouds 11 1015 71 16093 3.86 173 15:23 01.03.2020
1729 Rain 12 1015 67 16093 3.86 173 14:58 01.03.2020
1730 Rain 12 1015 67 16093 3.86 173 14:40 01.03.2020
1731 Rain 12 1015 67 14484 2.36 164 14:22 01.03.2020
1732 Clouds 12 1015 71 16093 2.36 164 13:59 01.03.2020
1733 Clouds 12 1015 71 16093 2.36 164 13:41 01.03.2020
1734 Clouds 12 1015 63 16093 1.5 0 13:20 01.03.2020
1735 Clouds 12 1015 71 16093 2.49 149 12:57 01.03.2020
1736 Clouds 12 1015 71 16093 3.43 157 12:38 01.03.2020
1737 Clouds 12 1015 63 16093 2.6 100 12:20 01.03.2020
1738 Clouds 12 1016 76 16093 2.49 149 11:40 01.03.2020
1739 Clouds 12 1016 76 16093 2.49 149 11:40 01.03.2020
1740 Clouds 12 1016 59 16093 3.1 70 11:20 01.03.2020
1741 Clouds 12 1016 81 16093 3.87 163 10:57 01.03.2020
1742 Clouds 12 1016 81 16093 3.87 163 10:37 01.03.2020
1743 Clear 13 1016 59 16093 1.5 100 10:19 01.03.2020
1744 Clouds 13 1017 76 16093 3.63 171 09:46 01.03.2020
1745 Clouds 13 1017 63 16093 2.1 90 09:27 01.03.2020
1746 Clouds 13 1016 76 16093 4.1 120 08:57 01.03.2020
1747 Clouds 13 1016 76 16093 4.1 120 08:38 01.03.2020
1748 Clouds 13 1017 63 16093 3.1 100 08:18 01.03.2020
1749 Clouds 13 1017 87 14484 3.6 150 07:41 01.03.2020
1750 Clouds 13 1016 76 16093 6.7 120 07:23 01.03.2020
1751 Clouds 13 1017 59 16093 2.6 0 06:51 01.03.2020
1752 Clouds 13 1017 67 14484 1.5 120 06:29 01.03.2020
1753 Clouds 14 1016 67 16093 4.13 200 04:19 01.03.2020
1754 Clear 16 1015 56 16093 4.13 200 02:27 01.03.2020
1755 Clear 18 1016 42 16093 4.6 250 01:53 01.03.2020
1756 Clear 18 1016 56 16093 2.6 270 01:22 01.03.2020
1757 Clear 19 1016 32 11265 5.1 260 00:43 01.03.2020
1758 Clear 19 1015 52 16093 2.1 260 00:21 01.03.2020
1759 Clear 20 1016 20 16093 6.2 230 23:49 29.02.2020
1760 Clear 20 1016 20 16093 6.2 230 23:49 29.02.2020
1761 Clear 20 1016 40 16093 1.5 0 23:31 29.02.2020
1762 Clear 20 1016 15 16093 3.6 280 22:44 29.02.2020
1763 Clouds 20 1017 63 16093 4.6 180 22:24 29.02.2020
1764 Clouds 20 1018 20 16093 4.93 202 21:43 29.02.2020
1765 Clear 20 1018 43 16093 1.5 0 21:25 29.02.2020
1766 Clear 19 1018 27 16093 3.1 200 20:44 29.02.2020
1767 Clouds 19 1018 55 16093 1.5 0 20:22 29.02.2020
1768 Clear 18 1019 25 16093 2.57 179 19:58 29.02.2020
1769 Clear 18 1019 25 16093 2.57 179 19:39 29.02.2020
1770 Clear 17 1019 59 16093 3.1 130 19:21 29.02.2020
1771 Clear 17 1019 25 16093 2.57 179 18:44 29.02.2020
1772 Clear 17 1019 55 16093 1.5 0 18:25 29.02.2020
1773 Clear 16 1019 26 16093 2.57 179 17:58 29.02.2020
1774 Clear 16 1019 26 16093 2.57 179 17:40 29.02.2020
1775 Clear 15 1018 67 11265 1.5 100 17:21 29.02.2020
1776 Clear 14 1018 26 16093 2.1 80 16:57 29.02.2020
1777 Clear 13 1018 26 16093 2.1 80 16:39 29.02.2020
1778 Clear 12 1018 77 16093 2.6 110 16:18 29.02.2020
1779 Clear 12 1018 30 16093 2.1 20 15:42 29.02.2020
1780 Clear 12 1018 77 16093 2.6 100 15:24 29.02.2020
1781 Clear 12 1018 30 16093 1.09 104 14:56 29.02.2020
1782 Clear 12 1018 30 16093 1.09 104 14:38 29.02.2020
1783 Clear 12 1018 77 16093 1.43 217 14:20 29.02.2020
1784 Clear 13 1018 28 16093 1.43 217 13:42 29.02.2020
1785 Clear 13 1018 77 16093 0.93 215 13:23 29.02.2020
1786 Clear 13 1018 26 16093 0.93 215 12:54 29.02.2020
1787 Clear 13 1018 26 16093 0.93 215 12:36 29.02.2020
1788 Clear 13 1018 77 16093 0.93 215 12:18 29.02.2020
1789 Haze 14 1018 22 8047 1.5 250 11:43 29.02.2020
1790 Clear 14 1018 77 16093 1.5 130 11:24 29.02.2020
1791 Clear 14 1018 19 16093 3.1 50 10:50 29.02.2020
1792 Clear 14 1019 63 16093 1.69 212 10:29 29.02.2020
1793 Clouds 14 1019 19 16093 3.6 30 09:51 29.02.2020
1794 Clear 14 1019 72 16093 3.1 110 09:27 29.02.2020
1795 Clear 15 1020 18 16093 2.1 10 08:58 29.02.2020
1796 Clear 15 1020 18 16093 2.1 10 08:38 29.02.2020
1797 Clear 15 1019 67 16093 2.6 100 08:19 29.02.2020
1798 Clouds 15 1020 18 16093 3.1 350 07:46 29.02.2020
1799 Clear 16 1020 63 16093 2.6 140 07:21 29.02.2020
1800 Clear 16 1020 20 16093 3.6 300 06:54 29.02.2020
1801 Clear 17 1020 59 16093 1.5 170 06:27 29.02.2020
1802 Clear 18 1020 16 16093 3.1 250 05:49 29.02.2020
1803 Clear 18 1019 28 16093 1.93 202 05:29 29.02.2020
1804 Clear 20 1019 10 16093 3.6 300 03:46 29.02.2020
1805 Clear 21 1018 16 16093 2.03 232 03:23 29.02.2020
1806 Clear 22 1019 11 16093 4.6 280 02:51 29.02.2020
1807 Clear 24 1019 9 16093 4.99 221 01:49 29.02.2020
1808 Clear 26 1018 8 16093 4.1 200 00:46 29.02.2020
1809 Clear 26 1017 13 16093 2.1 250 00:26 29.02.2020
1810 Clear 27 1019 6 16093 2.6 0 23:40 28.02.2020
1811 Clear 27 1017 7 16093 3.66 225 23:22 28.02.2020
1812 Clear 28 1020 8 16093 3.6 100 22:42 28.02.2020
1813 Clear 28 1018 8 16093 2.55 221 22:22 28.02.2020
1814 Clear 28 1019 7 16093 3.6 120 21:42 28.02.2020
1815 Clear 28 1019 9 16093 2.55 221 21:22 28.02.2020
1816 Clear 28 1019 9 16093 2.55 221 21:22 28.02.2020
1817 Clear 27 1021 9 16093 1.5 0 20:57 28.02.2020
1818 Clear 27 1021 9 16093 1.5 0 20:38 28.02.2020
1819 Clear 26 1020 9 16093 2.6 100 20:20 28.02.2020
1820 Clear 25 1022 12 16093 0.74 142 19:57 28.02.2020
1821 Clear 25 1022 12 16093 0.74 142 19:57 28.02.2020
1822 Clear 25 1022 12 16093 0.74 142 19:38 28.02.2020
1823 Clear 24 1020 13 16093 1.5 0 19:20 28.02.2020
1824 Clear 23 1022 14 16093 0.74 142 18:46 28.02.2020
1825 Clear 22 1020 18 16093 0.74 142 18:25 28.02.2020
1826 Clear 20 1022 19 16093 0.74 142 17:57 28.02.2020
1827 Clear 19 1022 19 16093 0.74 142 17:38 28.02.2020
1828 Clear 18 1020 19 16093 1.58 42 17:20 28.02.2020
1829 Clear 16 1021 15 16093 3.1 360 16:41 28.02.2020
1830 Clear 15 1020 22 16093 2.1 0 16:20 28.02.2020
1831 Clear 15 1021 21 16093 2.6 360 15:57 28.02.2020
1832 Clear 15 1021 21 16093 2.6 360 15:38 28.02.2020
1833 Clear 15 1019 24 16093 1.5 30 15:19 28.02.2020
1834 Clear 16 1021 21 16093 1.58 42 14:55 28.02.2020
1835 Clear 15 1021 21 16093 1.58 42 14:37 28.02.2020
1836 Clear 16 1019 24 16093 1.5 20 14:18 28.02.2020
1837 Clear 16 1020 21 16093 2.6 40 13:41 28.02.2020
1838 Clear 16 1019 22 16093 1.5 10 13:20 28.02.2020
1839 Clear 16 1019 22 16093 1.5 10 13:20 28.02.2020
1840 Clear 16 1020 20 16093 1.29 58 12:56 28.02.2020
1841 Clear 16 1020 20 16093 1.29 58 12:37 28.02.2020
1842 Clear 16 1019 21 16093 1.5 0 12:18 28.02.2020
1843 Clouds 17 1020 18 16093 2.1 10 11:41 28.02.2020
1844 Clear 17 1019 21 16093 0.75 35 11:22 28.02.2020
1845 Clear 17 1021 18 16093 1.5 60 10:55 28.02.2020
1846 Clear 18 1021 18 16093 1.5 60 10:36 28.02.2020
1847 Clear 18 1020 22 16093 2.1 10 10:18 28.02.2020
1848 Clear 18 1022 23 16093 0.75 35 09:42 28.02.2020
1849 Clear 18 1020 22 16093 0.75 35 09:20 28.02.2020
1850 Clear 18 1021 23 16093 0.75 35 08:54 28.02.2020
1851 Clear 18 1021 23 16093 0.75 35 08:36 28.02.2020
1852 Clear 18 1020 13 16093 1.5 10 08:18 28.02.2020
1853 Clear 18 1021 20 16093 0.88 37 07:38 28.02.2020
1854 Clear 18 1020 30 16093 0.88 37 07:19 28.02.2020
1855 Clear 19 1022 20 16093 1.5 310 06:41 28.02.2020
1856 Clear 19 1022 20 16093 0.88 37 05:37 28.02.2020
1857 Clear 20 1020 12 16093 1.22 230 04:32 28.02.2020
1858 Clear 20 1021 15 16093 1.5 360 03:39 28.02.2020
1859 Clear 23 1021 13 16093 2.6 320 02:43 28.02.2020
1860 Clear 23 1020 12 16093 1.5 0 02:20 28.02.2020
1861 Clear 26 1021 9 16093 2.1 0 00:36 28.02.2020
1862 Clear 27 1019 18 14484 1.5 0 23:58 27.02.2020
1863 Clear 27 1019 18 14484 1.5 0 23:38 27.02.2020
1864 Clear 27 1019 10 16093 1.23 88 23:18 27.02.2020
1865 Clear 27 1022 10 16093 1.23 88 22:40 27.02.2020
1866 Clear 27 1020 11 16093 1.23 88 22:22 27.02.2020
1867 Clear 27 1021 9 16093 3.6 270 21:56 27.02.2020
1868 Clear 27 1021 9 16093 3.6 270 21:37 27.02.2020
1869 Clear 27 1021 14 16093 1.23 88 21:18 27.02.2020
1870 Clear 26 1021 12 16093 1.5 0 20:54 27.02.2020
1871 Clear 26 1021 12 16093 1.5 0 20:36 27.02.2020
1872 Clear 26 1021 12 16093 1.5 0 20:18 27.02.2020
1873 Clear 25 1023 13 16093 0.56 143 19:42 27.02.2020
1874 Clear 24 1021 14 16093 0.56 143 19:23 27.02.2020
1875 Clear 23 1023 13 16093 0.56 143 18:58 27.02.2020
1876 Clear 23 1023 13 16093 0.56 143 18:39 27.02.2020
1877 Clear 21 1021 18 16093 0.56 143 18:20 27.02.2020
1878 Clouds 20 1023 17 16093 0.56 143 17:56 27.02.2020
1879 Clouds 19 1023 17 16093 0.56 143 17:38 27.02.2020
1880 Clear 18 1022 22 16093 1.5 10 17:19 27.02.2020
1881 Clear 16 1023 22 16093 1.5 300 16:54 27.02.2020
1882 Clear 16 1023 22 16093 1.5 300 16:36 27.02.2020
1883 Haze 15 1022 29 9656 1.5 10 16:18 27.02.2020
1884 Clear 13 1022 24 16093 1.6 23 15:40 27.02.2020
1885 Clear 14 1021 30 16093 1.6 23 15:21 27.02.2020
1886 Clear 14 1021 30 16093 1.6 23 15:21 27.02.2020
1887 Clear 13 1022 26 16093 2.6 10 14:59 27.02.2020
1888 Clear 13 1022 26 16093 2.6 10 14:40 27.02.2020
1889 Clear 13 1021 26 16093 1.5 30 14:21 27.02.2020
1890 Clear 13 1023 22 16093 2.1 50 13:56 27.02.2020
1891 Clear 13 1023 22 16093 2.1 50 13:37 27.02.2020
1892 Clear 13 1021 29 16093 1.5 10 13:19 27.02.2020
1893 Clear 14 1023 24 16093 0.49 349 12:44 27.02.2020
1894 Clear 14 1022 25 16093 1.5 360 12:20 27.02.2020
1895 Clear 14 1023 26 16093 2.1 20 11:46 27.02.2020
1896 Clear 13 1022 14 16093 0.49 349 11:23 27.02.2020
1897 Clear 13 1023 22 16093 1.42 54 10:56 27.02.2020
1898 Clear 13 1023 22 16093 1.42 54 10:37 27.02.2020
1899 Clear 13 1022 44 16093 1.42 54 10:19 27.02.2020
1900 Clouds 14 1024 22 16093 2.6 340 09:41 27.02.2020
1901 Clear 14 1022 38 16093 1.42 54 09:23 27.02.2020
1902 Clear 15 1023 24 16093 2.6 340 08:55 27.02.2020
1903 Clear 15 1022 33 16093 1.42 54 08:37 27.02.2020
1904 Clear 15 1022 33 16093 0.16 13 08:18 27.02.2020
1905 Clear 16 1023 24 16093 2.6 320 07:41 27.02.2020
1906 Clear 16 1022 29 16093 0.16 13 07:20 27.02.2020
1907 Clear 17 1022 23 16093 0.16 13 06:21 27.02.2020
1908 Clear 17 1021 20 16093 1.83 312 05:19 27.02.2020
1909 Clear 20 1022 11 16093 1.5 310 02:58 27.02.2020
1910 Clear 24 1023 9 16093 3.1 260 01:32 27.02.2020
1911 Clear 24 1023 8 16093 1.5 230 00:41 27.02.2020
1912 Clear 25 1023 15 16093 3.1 290 23:56 26.02.2020
1913 Clear 25 1023 8 16093 2.1 250 23:37 26.02.2020
1914 Clear 25 1023 10 16093 1.5 270 23:18 26.02.2020
1915 Clear 25 1024 10 16093 3.6 280 22:55 26.02.2020
1916 Clear 25 1024 10 16093 3.6 280 22:37 26.02.2020
1917 Clear 25 1023 9 16093 0.16 122 22:18 26.02.2020
1918 Clear 25 1025 8 16093 4.1 300 21:39 26.02.2020
1919 Clear 24 1025 11 16093 0.16 122 21:20 26.02.2020
1920 Clear 24 1026 9 16093 0.16 122 20:56 26.02.2020
1921 Clear 24 1026 9 16093 0.16 122 20:56 26.02.2020
1922 Clear 23 1026 9 16093 0.16 122 20:38 26.02.2020
1923 Clear 23 1026 10 14484 2.04 99 20:19 26.02.2020
1924 Clear 22 1027 10 16093 2.6 0 19:56 26.02.2020
1925 Clear 22 1027 10 16093 2.6 0 19:37 26.02.2020
1926 Clear 21 1026 11 16093 1.5 0 19:19 26.02.2020
1927 Clear 21 1027 13 16093 2.04 99 18:56 26.02.2020
1928 Clear 20 1027 13 16093 2.04 99 18:37 26.02.2020
1929 Clear 19 1026 14 16093 2.04 99 18:19 26.02.2020
1930 Clear 18 1027 14 16093 2.04 99 17:41 26.02.2020
1931 Clear 16 1026 36 16093 1.87 61 17:19 26.02.2020
1932 Clear 17 1026 36 16093 1.87 61 17:19 26.02.2020
1933 Clear 15 1027 22 16093 1.87 61 16:57 26.02.2020
1934 Clear 14 1027 22 16093 1.87 61 16:38 26.02.2020
1935 Clear 13 1026 46 16093 1.87 61 16:20 26.02.2020
1936 Clear 12 1026 23 16093 3.1 300 15:45 26.02.2020
1937 Clear 12 1026 23 16093 3.1 300 15:45 26.02.2020
1938 Clear 12 1026 23 16093 3.1 300 15:45 26.02.2020
1939 Clear 12 1025 46 16093 1.87 61 15:27 26.02.2020
1940 Clear 12 1026 20 16093 2.1 290 14:55 26.02.2020
1941 Clear 12 1026 20 16093 2.1 290 14:37 26.02.2020
1942 Clear 13 1025 37 16093 1.85 64 14:18 26.02.2020
1943 Clear 13 1025 23 16093 2.1 310 13:41 26.02.2020
1944 Clear 13 1025 43 16093 1.85 64 13:19 26.02.2020
1945 Clear 14 1025 25 16093 2.1 310 12:39 26.02.2020
1946 Clear 14 1024 47 16093 2.12 77 12:19 26.02.2020
1947 Clear 14 1025 26 16093 2.12 77 11:56 26.02.2020
1948 Clear 14 1025 26 16093 2.12 77 11:38 26.02.2020
1949 Clear 14 1025 41 16093 0.45 4 11:20 26.02.2020
1950 Clear 14 1025 26 16093 1.5 0 10:41 26.02.2020
1951 Clear 15 1025 41 16093 0.45 4 10:23 26.02.2020
1952 Clear 16 1025 28 16093 0.45 4 09:57 26.02.2020
1953 Clear 16 1024 38 16093 0.45 4 09:39 26.02.2020
1954 Clear 16 1024 38 16093 0.45 4 09:19 26.02.2020
1955 Clear 16 1025 24 16093 2.1 340 08:39 26.02.2020
1956 Smoke 16 1024 39 16093 1.5 20 08:19 26.02.2020
1957 Clear 17 1025 20 16093 1.24 60 07:51 26.02.2020
1958 Clear 17 1024 28 16093 1.24 60 07:30 26.02.2020
1959 Clear 18 1025 18 16093 2.6 360 06:58 26.02.2020
1960 Clear 18 1025 18 16093 2.6 360 06:39 26.02.2020
1961 Clear 18 1023 29 16093 1.24 60 06:18 26.02.2020
1962 Clear 18 1024 18 16093 1.5 340 05:47 26.02.2020
1963 Clear 19 1023 7 16093 3.1 320 04:58 26.02.2020
1964 Clear 22 1022 9 16093 1.5 330 02:56 26.02.2020
1965 Clear 25 1021 25 16093 3.1 280 01:56 26.02.2020
1966 Haze 25 1021 29 2816 3.6 300 01:24 26.02.2020
1967 Clear 25 1021 11 16093 3.1 280 00:38 26.02.2020
1968 Clear 26 1020 18 16093 2.6 280 00:19 26.02.2020
1969 Clear 26 1022 12 16093 2.38 232 23:41 25.02.2020
1970 Clear 26 1021 26 16093 1.75 278 23:21 25.02.2020
1971 Clear 26 1022 12 16093 2.1 0 22:56 25.02.2020
1972 Clear 26 1022 12 16093 2.1 0 22:36 25.02.2020
1973 Clear 26 1021 18 16093 1.75 278 22:18 25.02.2020
1974 Clear 25 1023 11 16093 2.6 300 21:38 25.02.2020
1975 Clear 25 1022 15 16093 1.75 278 21:20 25.02.2020
1976 Clear 25 1023 15 16093 2.6 290 20:57 25.02.2020
1977 Clear 24 1022 7 16093 2.05 284 20:38 25.02.2020
1978 Clear 24 1022 7 16093 2.05 284 20:38 25.02.2020
1979 Clear 24 1022 13 16093 0.56 263 20:19 25.02.2020
1980 Clear 23 1023 15 16093 3.6 260 19:54 25.02.2020
1981 Clear 23 1022 27 16093 0.56 263 19:36 25.02.2020
1982 Clear 22 1022 27 16093 0.56 263 19:18 25.02.2020
1983 Clear 21 1023 21 16093 2.6 280 18:40 25.02.2020
1984 Clear 20 1022 48 14484 0.56 263 18:21 25.02.2020
1985 Mist 19 1022 87 4828 2.1 200 17:56 25.02.2020
1986 Clear 18 1023 25 16093 0.56 263 17:37 25.02.2020
1987 Clear 16 1022 67 11265 1.43 21 17:19 25.02.2020
1988 Fog 14 1022 87 402 1.43 21 16:56 25.02.2020
1989 Fog 13 1022 87 402 1.43 21 16:38 25.02.2020
1990 Haze 11 1021 71 9656 1.43 21 16:20 25.02.2020
1991 Clear 11 1022 70 16093 2.6 90 15:55 25.02.2020
1992 Mist 11 1021 87 8047 1.43 21 15:36 25.02.2020
1993 Clear 11 1021 76 12874 1.43 21 15:18 25.02.2020
1994 Clear 11 1021 35 16093 3.1 10 14:40 25.02.2020
1995 Clear 11 1020 76 14484 0.21 341 14:19 25.02.2020
1996 Clear 11 1020 76 14484 0.21 341 14:19 25.02.2020
1997 Clear 11 1021 46 16093 2.1 350 13:59 25.02.2020
1998 Clear 11 1021 46 16093 2.1 350 13:41 25.02.2020
1999 Clear 10 1020 81 11265 0.55 27 13:21 25.02.2020
2000 Clear 11 1020 37 16093 0.55 27 12:59 25.02.2020
2001 Clear 11 1020 81 11265 0.55 27 12:39 25.02.2020
2002 Clear 11 1020 81 11265 0.55 27 12:20 25.02.2020
2003 Clear 11 1020 32 16093 3.1 10 11:56 25.02.2020
2004 Clear 11 1020 32 16093 3.1 10 11:38 25.02.2020
2005 Clear 11 1020 82 12874 0.26 24 11:18 25.02.2020
2006 Clear 11 1020 82 12874 0.26 24 11:18 25.02.2020
2007 Clear 11 1021 47 16093 0.26 24 10:56 25.02.2020
2008 Clear 11 1021 47 16093 0.26 24 10:38 25.02.2020
2009 Clear 11 1020 82 12874 0.26 24 10:19 25.02.2020
2010 Clear 12 1021 47 16093 2.1 60 09:40 25.02.2020
2011 Clear 12 1020 82 11265 0.26 24 09:19 25.02.2020
2012 Clear 12 1021 50 16093 1.5 60 08:43 25.02.2020
2013 Clear 12 1020 82 12874 0.43 164 08:24 25.02.2020
2014 Clear 13 1021 62 16093 2.6 60 07:50 25.02.2020
2015 -273 0 0 0 0 0 07:25 25.02.2020
2016 Clear 13 1021 67 16093 0.43 164 06:57 25.02.2020
2017 Clear 13 1020 77 14484 0.43 164 06:26 25.02.2020
2018 Clear 14 1020 77 16093 0.43 164 05:23 25.02.2020
2019 Clear 17 1019 52 16093 2.6 260 02:38 25.02.2020
2020 Clear 20 1019 59 16093 1.5 240 01:19 25.02.2020
2021 Clear 20 1019 35 16093 4.6 260 00:34 25.02.2020
2022 Clear 20 1020 33 16093 4.1 270 23:57 24.02.2020
2023 Clear 20 1020 33 16093 4.1 270 23:38 24.02.2020
2024 Clear 20 1020 55 16093 2.68 259 23:19 24.02.2020
2025 Haze 20 1021 55 1207 5.1 270 22:38 24.02.2020
2026 Haze 20 1021 55 1207 5.1 270 22:19 24.02.2020
2027 Clear 19 1021 40 16093 4.1 260 21:55 24.02.2020
2028 Clear 20 1021 40 16093 4.1 260 21:37 24.02.2020
2029 Clear 19 1022 43 14484 2.68 259 21:19 24.02.2020
2030 Clear 19 1022 52 16093 4.1 230 20:55 24.02.2020
2031 Clear 19 1022 52 16093 4.1 230 20:37 24.02.2020
2032 Clear 18 1023 45 14484 0.88 199 20:18 24.02.2020
2033 Clear 17 1023 67 11265 2.6 230 19:56 24.02.2020
2034 Clear 17 1023 67 11265 2.6 230 19:37 24.02.2020
2035 Clear 17 1023 62 16093 0.88 199 19:19 24.02.2020
2036 Haze 16 1023 71 9656 0.88 199 18:42 24.02.2020
2037 Clear 15 1024 55 11265 0.88 199 18:23 24.02.2020
2038 Haze 14 1023 76 8047 0.88 199 17:57 24.02.2020
2039 Haze 13 1023 76 8047 0.88 199 17:38 24.02.2020
2040 Clear 12 1024 67 11265 0.21 154 17:19 24.02.2020
2041 Clear 11 1023 81 16093 0.21 154 16:55 24.02.2020
2042 Clear 10 1023 81 16093 0.21 154 16:37 24.02.2020
2043 Clear 8 1024 76 14484 0.21 154 16:18 24.02.2020
2044 Clouds 8 1023 87 12874 2.1 50 15:56 24.02.2020
2045 Clouds 8 1023 87 12874 2.1 50 15:38 24.02.2020
2046 Clear 8 1024 76 12874 0.21 154 15:19 24.02.2020
2047 Clear 8 1023 87 16093 0.21 154 14:41 24.02.2020
2048 Clear 8 1023 76 12874 0.53 143 14:23 24.02.2020
2049 Clouds 8 1023 93 12874 1.5 20 13:59 24.02.2020
2050 Clouds 8 1023 93 12874 1.5 20 13:40 24.02.2020
2051 Clear 8 1023 81 16093 0.38 151 13:22 24.02.2020
2052 Mist 8 1023 100 9656 2.6 70 12:58 24.02.2020
2053 Mist 8 1023 100 9656 2.6 70 12:40 24.02.2020
2054 Clear 9 1024 76 16093 0.38 151 12:22 24.02.2020
2055 Clouds 9 1023 93 14484 2.6 50 11:49 24.02.2020
2056 Clear 9 1024 76 14484 0.38 151 11:31 24.02.2020
2057 Clear 9 1024 87 16093 0.79 219 10:52 24.02.2020
2058 Clear 9 1024 87 16093 0.79 219 10:32 24.02.2020
2059 Clear 9 1024 81 16093 0.79 219 09:58 24.02.2020
2060 Clear 10 1024 81 16093 0.79 219 09:39 24.02.2020
2061 Clear 10 1024 76 16093 0.79 219 09:19 24.02.2020
2062 Clear 10 1024 76 16093 0.79 219 09:19 24.02.2020
2063 Clouds 10 1024 81 16093 0.79 219 08:48 24.02.2020
2064 Clear 10 1024 71 16093 0.79 219 08:28 24.02.2020
2065 Clear 11 1024 81 16093 1.5 360 07:54 24.02.2020
2066 Clear 11 1024 71 16093 1.66 206 07:33 24.02.2020
2067 Clear 11 1024 87 16093 2.1 350 06:50 24.02.2020
2068 Clear 12 1024 71 16093 1.66 206 06:23 24.02.2020
2069 Clouds 12 1024 93 16093 2.1 310 05:44 24.02.2020
2070 Clear 12 1024 67 16093 2.47 223 05:24 24.02.2020
2071 Clouds 15 1023 62 16093 2.1 270 02:57 24.02.2020
2072 Clouds 17 1023 59 16093 3.52 195 01:55 24.02.2020
2073 Clear 17 1023 55 16093 3.52 195 01:30 24.02.2020
2074 Clear 17 1023 55 16093 4.84 221 01:29 24.02.2020
2075 Clouds 17 1023 59 16093 1.5 260 00:44 24.02.2020
2076 Clouds 18 1024 55 16093 5.1 260 00:20 24.02.2020
2077 Clouds 18 1024 62 16093 4.84 221 23:42 23.02.2020
2078 Clouds 18 1024 52 16093 2.22 210 23:23 23.02.2020
2079 Clouds 18 1024 59 16093 4.1 230 22:59 23.02.2020
2080 Clouds 17 1024 59 16093 4.1 230 22:41 23.02.2020
2081 Clouds 17 1024 52 16093 2.1 250 22:21 23.02.2020
2082 Clouds 17 1025 59 16093 1.5 0 21:54 23.02.2020
2083 Clouds 17 1025 59 16093 1.5 0 21:36 23.02.2020
2084 Clouds 17 1025 52 16093 2.22 210 21:18 23.02.2020
2085 Clouds 17 1026 63 16093 4.1 220 20:55 23.02.2020
2086 Clouds 17 1026 63 16093 4.1 220 20:36 23.02.2020
2087 Clouds 16 1026 48 16093 2.1 0 20:18 23.02.2020
2088 Clouds 15 1026 81 14484 1.79 156 19:41 23.02.2020
2089 Clouds 15 1026 59 16093 1.79 156 19:20 23.02.2020
2090 Clouds 15 1025 55 16093 1.79 156 18:59 23.02.2020
2091 Clouds 15 1026 55 16093 1.5 210 18:40 23.02.2020
2092 Clouds 14 1025 59 16093 1.79 156 18:20 23.02.2020
2093 Mist 14 1026 81 8047 1.79 156 17:58 23.02.2020
2094 Clouds 13 1025 87 14484 1.79 156 17:39 23.02.2020
2095 -273 0 0 0 0 0 17:21 23.02.2020
2096 Clouds 13 1025 71 16093 1.17 203 17:21 23.02.2020
2097 Mist 12 1024 100 8047 1.5 280 16:56 23.02.2020
2098 Clear 11 1024 76 14484 1.17 203 16:37 23.02.2020
2099 Clear 11 1024 76 14484 1.17 203 16:18 23.02.2020
2100 Mist 10 1024 93 8047 1.17 203 15:54 23.02.2020
2101 Clear 10 1023 76 16093 1.17 203 15:36 23.02.2020
2102 Clear 10 1023 76 16093 1.17 203 15:18 23.02.2020
2103 Mist 11 1023 93 9656 2.6 260 14:55 23.02.2020
2104 Mist 11 1023 93 9656 2.6 260 14:37 23.02.2020
2105 Clear 11 1022 76 16093 1.3 222 14:18 23.02.2020
2106 Clouds 11 1022 76 16093 1.3 222 13:42 23.02.2020
2107 Clear 11 1021 71 16093 1.35 211 13:22 23.02.2020
2108 Mist 11 1021 100 8047 3.1 270 12:59 23.02.2020
2109 Mist 11 1021 100 8047 3.1 270 12:39 23.02.2020
2110 Mist 11 1021 100 8047 3.1 270 12:39 23.02.2020
2111 Clear 12 1021 67 16093 1.35 211 12:20 23.02.2020
2112 Clouds 12 1021 76 16093 1.5 230 11:39 23.02.2020
2113 Clouds 12 1021 67 16093 1.91 209 11:20 23.02.2020
2114 Rain 12 1021 81 16093 1.91 209 10:58 23.02.2020
2115 Rain 12 1021 59 16093 1.91 209 10:40 23.02.2020
2116 Rain 12 1021 59 16093 1.91 209 10:21 23.02.2020
2117 Rain 12 1021 100 6437 2.1 260 09:56 23.02.2020
2118 Rain 12 1021 59 16093 1.91 209 09:38 23.02.2020
2119 Rain 12 1021 59 16093 1.91 209 09:18 23.02.2020
2120 Rain 12 1021 81 16093 1.91 209 08:45 23.02.2020
2121 Clouds 12 1021 63 16093 1.91 209 08:25 23.02.2020
2122 Clouds 12 1021 67 16093 2.1 260 07:45 23.02.2020
2123 Clouds 12 1020 76 16093 3.1 270 07:27 23.02.2020
2124 Clear 12 1020 63 16093 2.88 217 06:24 23.02.2020
2125 Rain 13 1019 67 16093 4.06 229 05:19 23.02.2020
2126 Rain 13 1019 63 16093 3.6 260 04:23 23.02.2020
2127 Rain 14 1018 66 16093 4.1 230 02:49 23.02.2020
2128 Rain 14 1017 58 16093 4.6 250 01:42 23.02.2020
2129 Rain 15 1017 51 16093 5.7 240 01:20 23.02.2020
2130 Rain 15 1017 62 16093 4.6 250 00:44 23.02.2020
2131 Rain 15 1016 52 16093 6.42 243 00:22 23.02.2020
2132 Rain 16 1017 67 16093 2.6 70 23:43 22.02.2020
2133 Thunderstorm 16 1017 55 16093 3.6 200 23:24 22.02.2020
2134 Thunderstorm 16 1017 63 16093 4.1 220 22:45 22.02.2020
2135 Rain 16 1016 48 16093 5.1 170 22:20 22.02.2020
2136 Rain 16 1017 67 4023 4.25 232 21:46 22.02.2020
2137 Rain 16 1017 48 16093 1.5 0 21:28 22.02.2020
2138 Rain 16 1017 58 16093 4.6 260 20:59 22.02.2020
2139 Rain 16 1017 58 16093 4.6 260 20:40 22.02.2020
2140 Rain 15 1017 52 16093 2.7 179 20:21 22.02.2020
2141 Rain 15 1018 63 16093 3.1 160 19:43 22.02.2020
2142 Rain 15 1017 52 16093 2.49 186 19:24 22.02.2020
2143 Clouds 15 1017 66 16093 5.1 230 18:58 22.02.2020
2144 Clouds 15 1017 66 16093 5.1 230 18:38 22.02.2020
2145 Clouds 15 1017 59 16093 2.49 186 18:20 22.02.2020
2146 Clouds 14 1017 76 16093 3.1 160 17:54 22.02.2020
2147 Clouds 14 1017 76 16093 3.1 160 17:36 22.02.2020
2148 Clouds 14 1017 67 16093 2.1 90 17:18 22.02.2020
2149 Clouds 13 1017 82 16093 2.1 130 16:54 22.02.2020
2150 Clouds 13 1017 82 16093 2.1 130 16:36 22.02.2020
2151 Clouds 12 1016 72 16093 1.5 80 16:18 22.02.2020
2152 Rain 12 1016 76 16093 2.1 170 15:42 22.02.2020
2153 Rain 12 1016 72 16093 2.2 197 15:22 22.02.2020
2154 Rain 12 1016 58 16093 2.2 197 14:43 22.02.2020
2155 Rain 12 1016 67 16093 2.6 100 14:22 22.02.2020
2156 Rain 12 1016 67 16093 1.5 0 13:56 22.02.2020
2157 Rain 12 1016 87 16093 2.6 170 13:38 22.02.2020
2158 Rain 13 1016 67 16093 2.1 130 13:18 22.02.2020
2159 Rain 13 1015 82 16093 5.7 120 12:41 22.02.2020
2160 Rain 13 1016 67 16093 1.5 0 12:23 22.02.2020
2161 Rain 13 1016 81 16093 4.1 280 11:46 22.02.2020
2162 Clouds 13 1016 67 16093 1.5 0 11:28 22.02.2020
2163 Clouds 14 1016 71 16093 5.7 150 10:57 22.02.2020
2164 Clouds 14 1016 87 16093 4.1 280 10:39 22.02.2020
2165 Clouds 14 1016 67 16093 2.1 0 10:19 22.02.2020
2166 Clouds 14 1016 72 16093 1.5 130 09:56 22.02.2020
2167 Clouds 14 1016 72 16093 1.5 130 09:38 22.02.2020
2168 Clouds 14 1016 72 16093 1.5 130 09:19 22.02.2020
2169 Clouds 14 1016 72 16093 2.1 0 08:46 22.02.2020
2170 Clouds 14 1016 72 16093 2.1 0 08:27 22.02.2020
2171 Clouds 14 1017 87 14484 4.1 290 07:45 22.02.2020
2172 Clouds 14 1017 72 16093 2.1 130 07:19 22.02.2020
2173 Clouds 14 1017 77 16093 2.1 110 06:47 22.02.2020
2174 Clouds 14 1017 77 16093 2.3 175 06:27 22.02.2020
2175 Rain 15 1017 68 11265 2.83 188 04:32 22.02.2020
2176 Thunderstorm 16 1015 82 12874 3.1 180 03:21 22.02.2020
2177 Clouds 18 1014 49 12874 2.83 188 02:28 22.02.2020
2178 Clouds 20 1014 72 12874 5.1 250 01:43 22.02.2020
2179 Clouds 21 1014 31 16093 1.5 0 01:24 22.02.2020
2180 Clouds 22 1015 21 16093 4.6 220 00:43 22.02.2020
2181 Clouds 22 1014 22 16093 1.5 0 00:24 22.02.2020
2182 Clouds 23 1015 17 16093 4.99 182 23:45 21.02.2020
2183 Clouds 23 1014 22 16093 2.64 197 23:21 21.02.2020
2184 Clear 24 1016 16 16093 5.1 110 22:45 21.02.2020
2185 Clouds 24 1015 21 16093 2.1 0 22:27 21.02.2020
2186 Clear 24 1016 14 16093 2.64 197 21:59 21.02.2020
2187 Clear 24 1016 14 16093 2.64 197 21:40 21.02.2020
2188 Clear 24 1016 21 16093 2.64 197 21:22 21.02.2020
2189 Clouds 23 1017 13 16093 3.1 120 20:48 21.02.2020
2190 Clear 23 1017 16 16093 2.1 130 20:29 21.02.2020
2191 Clouds 22 1018 13 16093 2.6 110 19:42 21.02.2020
2192 Clear 21 1017 20 16093 1.5 80 19:24 21.02.2020
2193 Clear 20 1018 18 16093 3.6 120 18:58 21.02.2020
2194 Clear 20 1018 18 16093 3.6 120 18:39 21.02.2020
2195 Clear 19 1017 18 16093 1.5 80 18:21 21.02.2020
2196 Clear 17 1018 18 16093 3.1 0 17:41 21.02.2020
2197 Clear 16 1017 36 16093 1.39 168 17:23 21.02.2020
2198 Clear 15 1017 25 16093 0.66 32 16:57 21.02.2020
2199 Clear 14 1017 25 16093 0.66 32 16:39 21.02.2020
2200 Clear 13 1016 47 16093 0.66 32 16:20 21.02.2020
2201 Clear 12 1017 26 16093 3.6 70 15:47 21.02.2020
2202 Clear 12 1016 44 16093 1.5 360 15:19 21.02.2020
2203 Clear 12 1017 26 16093 3.1 70 14:59 21.02.2020
2204 Clear 12 1017 26 16093 3.1 70 14:41 21.02.2020
2205 Clear 12 1015 47 16093 0.55 231 14:19 21.02.2020
2206 Clear 12 1017 28 16093 2.1 40 13:43 21.02.2020
2207 Clear 12 1016 41 16093 1.5 30 13:24 21.02.2020
2208 Clear 13 1017 26 16093 2.6 60 12:55 21.02.2020
2209 Clear 13 1016 45 16093 1.5 20 12:36 21.02.2020
2210 Clear 13 1016 45 16093 1.5 20 12:18 21.02.2020
2211 Clear 13 1016 45 16093 1.5 20 12:18 21.02.2020
2212 Clear 13 1017 25 16093 2.6 10 11:40 21.02.2020
2213 Clear 13 1017 62 14484 0.26 17 11:21 21.02.2020
2214 Clear 13 1018 25 16093 0.26 17 10:57 21.02.2020
2215 Clear 13 1018 25 16093 0.26 17 10:38 21.02.2020
2216 Clear 13 1017 63 12874 0.26 17 10:19 21.02.2020
2217 Clear 13 1018 27 16093 2.1 60 09:57 21.02.2020
2218 Clear 13 1018 27 16093 2.1 60 09:38 21.02.2020
2219 Clear 14 1017 63 12874 0.26 17 09:19 21.02.2020
2220 Clear 14 1019 29 16093 3.1 40 08:43 21.02.2020
2221 Clear 14 1018 72 12874 0.61 291 08:22 21.02.2020
2222 Clear 14 1019 37 16093 3.1 360 07:59 21.02.2020
2223 Clear 14 1019 37 16093 3.1 360 07:40 21.02.2020
2224 Clear 14 1018 59 12874 0.61 291 07:19 21.02.2020
2225 Clear 14 1019 37 16093 2.6 360 06:52 21.02.2020
2226 Clear 15 1017 59 12874 0.61 291 06:30 21.02.2020
2227 Clear 15 1018 31 16093 3.6 40 05:47 21.02.2020
2228 Clear 16 1018 29 16093 0.86 217 04:38 21.02.2020
2229 Clear 17 1017 52 14484 0.86 217 04:18 21.02.2020
2230 Clear 18 1017 32 16093 2.1 290 03:39 21.02.2020
2231 Clear 20 1016 43 14484 2.1 260 02:29 21.02.2020
2232 Clear 22 1016 38 14484 1.5 0 01:24 21.02.2020
2233 Clear 24 1017 16 16093 1.5 0 00:45 21.02.2020
2234 Clear 24 1016 18 16093 2.68 214 00:23 21.02.2020
2235 Clear 24 1017 15 16093 1.5 210 23:46 20.02.2020
2236 Clear 24 1017 15 16093 1.5 210 23:46 20.02.2020
2237 Clear 24 1017 15 16093 1.5 210 23:46 20.02.2020
2238 Clear 24 1017 15 16093 1.5 210 23:46 20.02.2020
2239 Clear 25 1017 15 16093 2.1 120 23:25 20.02.2020
2240 Clear 24 1018 15 16093 4.1 170 22:57 20.02.2020
2241 Clear 24 1018 21 16093 1.5 0 22:38 20.02.2020
2242 Clear 24 1018 21 16093 1.5 0 22:20 20.02.2020
2243 Clear 24 1018 21 16093 1.5 0 22:20 20.02.2020
2244 Clear 23 1019 22 16093 1.5 90 21:56 20.02.2020
2245 Clear 23 1019 22 16093 1.5 90 21:56 20.02.2020
2246 Clear 23 1019 22 16093 1.5 90 21:37 20.02.2020
2247 Clear 23 1019 22 16093 1.5 90 21:19 20.02.2020
2248 Clear 22 1019 25 16093 1.5 0 20:55 20.02.2020
2249 Clear 22 1019 25 16093 1.5 0 20:36 20.02.2020
2250 Clear 21 1019 25 16093 1.5 0 20:18 20.02.2020
2251 Clouds 20 1020 28 16093 2.1 250 19:57 20.02.2020
2252 Clouds 20 1020 28 16093 2.1 250 19:39 20.02.2020
2253 Clear 19 1020 35 12874 1.15 129 19:20 20.02.2020
2254 Clouds 18 1021 48 16093 1.15 129 18:39 20.02.2020
2255 Clear 18 1020 48 12874 1.15 129 18:39 20.02.2020
2256 Clear 17 1020 48 12874 1.15 129 18:20 20.02.2020
2257 Clear 16 1019 58 11265 1.15 129 17:55 20.02.2020
2258 Clear 15 1019 58 11265 1.15 129 17:36 20.02.2020
2259 Mist 13 1020 87 6437 1.06 35 17:18 20.02.2020
2260 Clear 12 1020 58 16093 2.1 120 16:55 20.02.2020
2261 Clear 10 1020 47 16093 2.1 10 16:37 20.02.2020
2262 Haze 10 1019 76 8047 1.5 20 16:18 20.02.2020
2263 Mist 9 1018 93 4828 1.06 35 15:41 20.02.2020
2264 Mist 9 1018 93 4828 1.06 35 15:21 20.02.2020
2265 Clear 9 1018 54 16093 1.06 35 14:57 20.02.2020
2266 Clear 10 1018 54 16093 1.06 35 14:39 20.02.2020
2267 Haze 10 1018 81 8047 0.54 257 14:20 20.02.2020
2268 Haze 10 1018 82 6437 0.54 257 13:46 20.02.2020
2269 Haze 10 1018 82 6437 0.54 257 13:20 20.02.2020
2270 Haze 10 1018 82 6437 0.87 295 12:59 20.02.2020
2271 Haze 10 1018 82 6437 0.87 295 12:40 20.02.2020
2272 Haze 10 1018 82 6437 0.87 295 12:19 20.02.2020
2273 Clear 10 1018 62 16093 2.1 20 11:57 20.02.2020
2274 Clear 10 1018 62 16093 2.1 20 11:39 20.02.2020
2275 Haze 10 1018 87 6437 0.73 270 11:19 20.02.2020
2276 Clear 10 1019 50 16093 2.6 40 10:42 20.02.2020
2277 Haze 11 1018 82 8047 0.73 270 10:22 20.02.2020
2278 Clouds 11 1019 82 12874 1.5 320 09:55 20.02.2020
2279 Clear 11 1019 54 16093 2.6 20 09:37 20.02.2020
2280 Clouds 11 1019 87 14484 0.73 270 09:19 20.02.2020
2281 Clouds 11 1019 76 16093 0.73 270 08:41 20.02.2020
2282 Haze 11 1019 87 6437 0.73 270 08:23 20.02.2020
2283 Clouds 12 1019 87 11265 0.91 195 07:47 20.02.2020
2284 Haze 12 1018 82 9656 0.91 195 07:27 20.02.2020
2285 Clouds 12 1019 62 16093 1.5 80 06:57 20.02.2020
2286 Clouds 12 1019 62 16093 1.5 80 06:37 20.02.2020
2287 Clouds 13 1018 82 16093 3.1 290 05:47 20.02.2020
2288 Clouds 13 1018 87 11265 2.1 240 05:20 20.02.2020
2289 Clear 14 1019 21 16093 1.5 270 04:47 20.02.2020
2290 Clouds 15 1017 67 16093 3.1 270 03:46 20.02.2020
2291 Clear 16 1016 63 12874 2.6 260 02:46 20.02.2020
2292 Clear 19 1016 59 12874 2.1 0 01:24 20.02.2020
2293 Clear 19 1016 42 14484 4.1 250 00:45 20.02.2020
2294 Clear 19 1016 56 12874 2.1 0 00:24 20.02.2020
2295 Clear 19 1017 42 11265 3.6 240 23:46 19.02.2020
2296 Haze 20 1017 52 9656 1.5 240 23:18 19.02.2020
2297 Clear 19 1018 42 16093 3.09 229 22:41 19.02.2020
2298 Haze 19 1017 56 8047 1.5 0 22:23 19.02.2020
2299 Haze 19 1018 59 8047 3.1 260 21:58 19.02.2020
2300 Haze 19 1018 48 8047 2.1 290 21:39 19.02.2020
2301 Haze 19 1018 49 6437 3.09 229 21:19 19.02.2020
2302 Haze 18 1018 59 6437 3.09 229 20:57 19.02.2020
2303 Haze 18 1018 59 6437 3.09 229 20:37 19.02.2020
2304 Haze 18 1018 49 6437 0.73 186 20:19 19.02.2020
2305 Haze 17 1019 67 4828 2.1 240 19:57 19.02.2020
2306 Haze 17 1019 67 4828 2.1 240 19:37 19.02.2020
2307 Haze 17 1019 52 6437 0.73 186 19:19 19.02.2020
2308 Haze 16 1018 59 6437 0.73 186 18:57 19.02.2020
2309 Haze 16 1018 59 6437 0.73 186 18:39 19.02.2020
2310 Haze 15 1018 59 6437 0.73 186 18:21 19.02.2020
2311 Haze 14 1018 59 4828 0.73 186 17:44 19.02.2020
2312 Haze 13 1018 63 6437 1.5 0 17:20 19.02.2020
2313 Mist 12 1018 100 1609 0.84 167 16:58 19.02.2020
2314 Mist 12 1018 100 1609 0.84 167 16:38 19.02.2020
2315 Clouds 11 1018 71 11265 0.84 167 16:18 19.02.2020
2316 Mist 11 1017 93 2012 1.5 50 15:43 19.02.2020
2317 Haze 11 1017 67 9656 0.84 167 15:25 19.02.2020
2318 Haze 11 1017 76 8047 1.5 350 14:59 19.02.2020
2319 Haze 11 1017 76 8047 1.5 350 14:40 19.02.2020
2320 Haze 12 1016 76 8047 1.5 350 14:21 19.02.2020
2321 Haze 12 1016 81 8047 2.1 40 13:42 19.02.2020
2322 Clouds 12 1016 63 12874 1.05 194 13:23 19.02.2020
2323 Haze 12 1016 76 9656 2.6 340 12:57 19.02.2020
2324 Clouds 12 1017 67 11265 1.05 194 12:37 19.02.2020
2325 Clouds 12 1017 67 11265 1.05 194 12:18 19.02.2020
2326 Clouds 12 1017 76 16093 1.05 194 11:39 19.02.2020
2327 Haze 12 1017 72 9656 1.39 188 11:20 19.02.2020
2328 Clouds 12 1017 77 14484 1.5 210 10:59 19.02.2020
2329 Clouds 12 1017 77 14484 1.5 210 10:38 19.02.2020
2330 Clouds 12 1017 77 16093 1.5 90 10:20 19.02.2020
2331 Clouds 12 1017 72 14484 1.39 188 09:59 19.02.2020
2332 Clouds 12 1017 72 14484 1.39 188 09:39 19.02.2020
2333 Clouds 13 1017 72 14484 1.39 188 09:19 19.02.2020
2334 Clouds 13 1017 72 14484 1.39 188 08:48 19.02.2020
2335 Clouds 13 1017 72 14484 1.41 169 08:24 19.02.2020
2336 Haze 13 1016 93 3219 2.1 80 07:57 19.02.2020
2337 Haze 13 1016 93 3219 2.1 80 07:38 19.02.2020
2338 Clouds 13 1017 77 11265 1.97 193 07:18 19.02.2020
2339 Mist 13 1016 87 9656 4.1 100 06:42 19.02.2020
2340 Haze 14 1015 77 9656 1.97 193 05:26 19.02.2020
2341 Clouds 15 1015 72 14484 1.79 218 03:52 19.02.2020
2342 Clear 16 1014 63 14484 4.6 260 02:36 19.02.2020
2343 Clear 18 1014 59 11265 4.25 244 01:41 19.02.2020
2344 Clear 19 1014 59 11265 4.25 244 01:22 19.02.2020
2345 Clear 19 1014 33 16093 4.6 260 00:39 19.02.2020
2346 Clear 20 1014 52 11265 4.2 240 00:19 19.02.2020
2347 Haze 20 1014 60 9656 2.1 260 23:40 18.02.2020
2348 Haze 20 1014 60 9656 2.1 260 23:20 18.02.2020
2349 Clear 20 1014 40 11265 1.5 0 22:55 18.02.2020
2350 Clear 20 1014 40 11265 1.5 0 22:37 18.02.2020
2351 Clear 20 1014 40 11265 1.5 0 22:19 18.02.2020
2352 Clear 20 1015 30 14484 2.6 0 21:54 18.02.2020
2353 Clear 20 1015 30 14484 2.6 0 21:36 18.02.2020
2354 Haze 20 1015 46 8047 1.5 260 21:18 18.02.2020
2355 Haze 19 1016 52 8047 1.55 243 20:54 18.02.2020
2356 Haze 19 1016 52 8047 1.55 243 20:36 18.02.2020
2357 Haze 18 1016 52 8047 1.52 227 20:18 18.02.2020
2358 Haze 17 1016 55 9656 1.52 227 19:42 18.02.2020
2359 Haze 16 1016 72 8047 1.5 100 19:19 18.02.2020
2360 Haze 16 1016 67 6437 1.52 227 18:56 18.02.2020
2361 Haze 15 1016 62 9656 1.52 227 18:38 18.02.2020
2362 Haze 14 1016 77 4828 1.52 227 18:18 18.02.2020
2363 Mist 13 1016 93 1609 1.52 227 17:41 18.02.2020
2364 Mist 12 1016 87 9656 2.1 100 17:20 18.02.2020
2365 Mist 12 1016 87 9656 2.1 100 17:19 18.02.2020
2366 Haze 11 1016 82 4828 1.15 172 16:40 18.02.2020
2367 Haze 11 1016 82 4828 1.15 172 16:22 18.02.2020
2368 Mist 10 1016 100 4828 2.1 20 15:56 18.02.2020
2369 Mist 10 1016 100 4828 2.1 20 15:37 18.02.2020
2370 Mist 10 1015 82 4828 2.6 0 15:18 18.02.2020
2371 Haze 11 1015 82 6437 1.5 0 14:56 18.02.2020
2372 Haze 11 1015 82 6437 1.5 0 14:56 18.02.2020
2373 Haze 10 1015 82 6437 1.5 0 14:37 18.02.2020
2374 Haze 10 1015 82 6437 1.24 178 14:19 18.02.2020
2375 Clear 10 1015 66 16093 1.24 178 13:41 18.02.2020
2376 Mist 11 1014 87 3219 1.5 90 13:21 18.02.2020
2377 Mist 11 1014 87 1609 1.5 0 12:55 18.02.2020
2378 Mist 11 1014 93 2012 1.5 90 12:37 18.02.2020
2379 Mist 11 1014 93 1609 1.01 220 12:19 18.02.2020
2380 Fog 11 1015 93 101 1.5 70 11:42 18.02.2020
2381 Fog 11 1015 93 101 1.5 70 11:42 18.02.2020
2382 Haze 11 1014 82 2012 1.01 220 11:24 18.02.2020
2383 Mist 11 1015 93 4828 2.6 90 10:55 18.02.2020
2384 Clear 11 1014 50 16093 0.59 259 10:37 18.02.2020
2385 Haze 11 1014 82 8047 0.59 259 10:18 18.02.2020
2386 Clear 12 1014 41 16093 1.5 30 09:55 18.02.2020
2387 Clear 12 1014 41 16093 1.5 30 09:36 18.02.2020
2388 Haze 12 1014 82 9656 0.59 259 09:18 18.02.2020
2389 Haze 12 1014 82 9656 0.59 259 08:42 18.02.2020
2390 Haze 12 1014 82 9656 0.87 216 08:20 18.02.2020
2391 Clear 12 1015 71 16093 0.87 216 07:56 18.02.2020
2392 Clear 12 1014 82 11265 0.87 216 07:31 18.02.2020
2393 Clear 12 1014 71 16093 0.87 216 06:57 18.02.2020
2394 Clear 12 1014 71 16093 0.87 216 06:39 18.02.2020
2395 Clear 13 1014 77 11265 0.87 216 06:19 18.02.2020
2396 Clear 13 1013 77 11265 0.87 216 05:33 18.02.2020
2397 Clear 14 1013 72 12874 1.81 262 04:26 18.02.2020
2398 Clear 16 1012 39 14484 3.6 270 02:59 18.02.2020
2399 Clear 18 1012 37 14484 4.6 270 01:59 18.02.2020
2400 Clear 20 1012 49 16093 1.5 0 00:56 18.02.2020
2401 Clear 20 1012 49 16093 1.5 0 00:22 18.02.2020
2402 Clear 20 1012 49 16093 1.5 250 23:56 17.02.2020
2403 Clear 20 1012 49 16093 1.5 250 23:37 17.02.2020
2404 Clear 20 1012 49 16093 1.5 250 23:19 17.02.2020
2405 Clear 20 1013 37 12874 3.6 280 22:41 17.02.2020
2406 Clear 20 1013 49 12874 2.19 234 22:21 17.02.2020
2407 Clear 19 1014 45 11265 2.19 234 21:59 17.02.2020
2408 Clear 19 1014 45 11265 2.19 234 21:38 17.02.2020
2409 Clear 19 1014 45 11265 2.19 234 21:18 17.02.2020
2410 Haze 18 1015 55 8047 2.19 234 20:42 17.02.2020
2411 Haze 18 1015 55 8047 1.06 204 20:21 17.02.2020
2412 Haze 17 1016 82 4828 1.14 186 19:58 17.02.2020
2413 Haze 17 1016 82 4828 1.14 186 19:40 17.02.2020
2414 Haze 16 1015 59 8047 1.14 186 19:20 17.02.2020
2415 Mist 15 1016 87 4828 2.6 130 18:38 17.02.2020
2416 Mist 14 1016 87 4023 2.6 140 18:20 17.02.2020
2417 Mist 13 1016 87 4023 2.1 110 17:58 17.02.2020
2418 Haze 12 1015 76 6437 1.14 186 17:38 17.02.2020
2419 Haze 11 1015 76 6437 0.49 187 17:19 17.02.2020
2420 Fog 10 1015 81 402 0.49 187 16:56 17.02.2020
2421 Haze 9 1015 76 8047 0.49 187 16:38 17.02.2020
2422 Haze 9 1015 76 8047 0.49 187 16:20 17.02.2020
2423 Haze 9 1015 76 9656 0.49 187 15:45 17.02.2020
2424 Clear 9 1015 76 11265 0.49 187 15:26 17.02.2020
2425 Fog 9 1015 93 201 0.49 187 14:56 17.02.2020
2426 Fog 9 1015 93 201 0.49 187 14:37 17.02.2020
2427 Mist 9 1015 87 8047 0.83 187 14:19 17.02.2020
2428 Fog 9 1015 93 402 0.83 187 13:41 17.02.2020
2429 Fog 9 1015 87 402 0.97 232 13:20 17.02.2020
2430 Fog 9 1015 87 805 2.1 100 12:59 17.02.2020
2431 Fog 9 1015 87 805 2.1 100 12:40 17.02.2020
2432 Mist 9 1015 87 1207 0.97 232 12:22 17.02.2020
2433 Clouds 9 1015 93 11265 0.97 232 11:47 17.02.2020
2434 Haze 10 1016 81 9656 0.97 232 11:27 17.02.2020
2435 Clear 10 1017 60 16093 9.3 290 10:58 17.02.2020
2436 Haze 10 1015 81 9656 1.23 161 10:39 17.02.2020
2437 Haze 10 1015 81 9656 1.23 161 10:20 17.02.2020
2438 Clear 10 1016 62 16093 2.1 50 09:58 17.02.2020
2439 Clear 10 1016 62 16093 2.1 50 09:39 17.02.2020
2440 Clear 10 1016 76 14484 1.23 161 09:19 17.02.2020
2441 Clear 10 1016 82 12874 1.23 161 08:56 17.02.2020
2442 Clear 11 1016 82 12874 1.23 161 08:38 17.02.2020
2443 Clear 11 1016 82 12874 0.95 234 08:19 17.02.2020
2444 Clear 11 1016 62 16093 0.95 234 07:40 17.02.2020
2445 Clear 11 1016 82 12874 0.95 234 07:22 17.02.2020
2446 Clear 12 1017 82 14484 0.95 234 06:49 17.02.2020
2447 Clear 12 1017 82 14484 0.95 234 06:30 17.02.2020
2448 Clear 13 1017 77 16093 0.95 234 05:40 17.02.2020
2449 Clear 13 1017 58 16093 2.6 280 04:40 17.02.2020
2450 Clear 15 1017 63 14484 1.91 213 03:18 17.02.2020
2451 Clear 18 1017 48 16093 2.6 0 01:36 17.02.2020
2452 Clear 19 1016 45 16093 4.15 223 00:41 17.02.2020
2453 Clear 19 1016 45 16093 4.15 223 00:19 17.02.2020
2454 Clear 20 1016 37 16093 2.6 260 23:52 16.02.2020
2455 Clear 20 1016 46 16093 1.5 0 23:29 16.02.2020
2456 Clear 20 1017 46 14484 2.54 220 22:57 16.02.2020
2457 Clear 20 1017 46 14484 2.54 220 22:38 16.02.2020
2458 Clear 20 1017 46 14484 2.54 220 22:20 16.02.2020
2459 Clear 20 1017 46 14484 2.54 220 22:20 16.02.2020
2460 Clear 20 1018 37 16093 2.54 220 21:56 16.02.2020
2461 Clear 20 1018 37 16093 2.54 220 21:56 16.02.2020
2462 Clear 20 1018 37 16093 2.54 220 21:38 16.02.2020
2463 Clear 20 1018 37 16093 2.54 220 21:19 16.02.2020
2464 Clear 19 1019 40 16093 2.54 220 20:56 16.02.2020
2465 Clear 19 1019 40 16093 2.54 220 20:38 16.02.2020
2466 Clear 18 1019 40 16093 1.09 175 20:20 16.02.2020
2467 Clear 17 1020 48 14484 1.09 175 19:57 16.02.2020
2468 Clear 17 1020 48 14484 1.09 175 19:37 16.02.2020
2469 Clear 16 1020 48 14484 1.09 175 19:18 16.02.2020
2470 Mist 15 1021 87 4828 1.09 175 18:42 16.02.2020
2471 Mist 14 1021 93 3219 2.1 210 18:23 16.02.2020
2472 Clear 14 1021 58 16093 1.09 175 17:55 16.02.2020
2473 Mist 13 1022 93 3219 1.5 120 17:36 16.02.2020
2474 Mist 11 1021 93 6437 2.1 70 17:18 16.02.2020
2475 Clouds 10 1021 100 12874 0.57 6 16:39 16.02.2020
2476 Haze 9 1021 81 4828 0.57 6 16:21 16.02.2020
2477 Haze 9 1021 81 4828 0.57 6 16:21 16.02.2020
2478 Mist 8 1021 93 6437 0.57 6 15:59 16.02.2020
2479 Mist 8 1021 93 6437 0.57 6 15:40 16.02.2020
2480 Mist 8 1021 93 4828 1.5 70 15:21 16.02.2020
2481 Mist 9 1021 81 4828 0.57 6 14:44 16.02.2020
2482 Mist 9 1021 87 2012 0.57 6 14:23 16.02.2020
2483 Mist 9 1021 87 1609 1.5 100 13:57 16.02.2020
2484 Mist 9 1021 87 1609 1.5 100 13:38 16.02.2020
2485 Mist 9 1021 81 4828 0.92 210 13:20 16.02.2020
2486 Clouds 9 1021 81 16093 0.92 210 12:39 16.02.2020
2487 Clouds 9 1021 81 16093 0.92 210 12:19 16.02.2020
2488 Clouds 9 1021 81 16093 0.92 210 11:40 16.02.2020
2489 Clouds 9 1021 87 16093 1.5 50 11:20 16.02.2020
2490 Clouds 9 1021 87 16093 0.63 3 10:58 16.02.2020
2491 Clouds 9 1021 87 16093 0.63 3 10:58 16.02.2020
2492 Clouds 9 1021 87 16093 0.63 3 10:58 16.02.2020
2493 Clouds 9 1021 87 16093 0.63 3 10:40 16.02.2020
2494 Mist 9 1021 87 9656 0.63 3 10:22 16.02.2020
2495 Clear 10 1021 54 16093 3.1 60 09:59 16.02.2020
2496 Haze 10 1021 82 6437 0.63 3 09:38 16.02.2020
2497 Haze 10 1021 82 6437 0.63 3 09:38 16.02.2020
2498 Haze 10 1021 82 6437 0.63 3 09:38 16.02.2020
2499 Haze 10 1021 82 6437 0.63 3 09:38 16.02.2020
2500 Haze 10 1021 82 6437 0.63 3 09:20 16.02.2020
2501 Clouds 10 1021 58 16093 2.1 30 08:57 16.02.2020
2502 Clouds 10 1021 58 16093 2.1 30 08:39 16.02.2020
2503 Haze 10 1021 82 9656 1.12 181 08:19 16.02.2020
2504 Clouds 11 1021 81 16093 1.12 181 07:42 16.02.2020
2505 Clear 11 1021 82 12874 1.12 181 06:58 16.02.2020
2506 Clear 12 1021 82 12874 1.12 181 06:29 16.02.2020
2507 Clear 13 1020 67 16093 2.61 240 04:37 16.02.2020
2508 Clear 15 1020 63 16093 2.61 240 03:22 16.02.2020
2509 Clear 17 1020 52 16093 3.6 270 01:58 16.02.2020
2510 Clear 18 1020 52 16093 3.6 270 01:39 16.02.2020
2511 Clear 18 1020 52 16093 3.6 270 01:20 16.02.2020
2512 Clear 18 1020 45 16093 2.1 0 00:51 16.02.2020
2513 Clear 19 1020 45 16093 2.1 0 00:28 16.02.2020
2514 Clear 19 1020 46 12874 1.5 250 23:44 15.02.2020
2515 Clear 19 1020 46 12874 1.5 250 23:25 15.02.2020
2516 Clear 19 1021 52 11265 2.38 232 22:59 15.02.2020
2517 Clear 19 1021 52 11265 2.38 232 22:40 15.02.2020
2518 Clear 19 1021 52 11265 2.38 232 22:21 15.02.2020
2519 Haze 19 1021 55 2816 4.1 260 21:56 15.02.2020
2520 Haze 19 1021 55 2816 4.1 260 21:37 15.02.2020
2521 Clear 19 1021 32 12874 2.38 232 21:19 15.02.2020
2522 Clear 18 1022 37 12874 2.38 232 20:39 15.02.2020
2523 Clear 18 1022 37 12874 2.38 232 20:39 15.02.2020
2524 Clear 17 1022 37 12874 0.82 232 20:21 15.02.2020
2525 Clear 17 1022 37 12874 1.14 202 20:21 15.02.2020
2526 Clear 17 1022 45 14484 1.14 202 19:44 15.02.2020
2527 Clear 16 1022 45 14484 1.14 202 19:22 15.02.2020
2528 Clear 15 1023 50 16093 2.1 130 18:44 15.02.2020
2529 Clear 14 1022 54 12874 1.14 202 18:23 15.02.2020
2530 Fog 13 1023 93 0 1.14 202 17:58 15.02.2020
2531 Fog 13 1023 93 0 1.14 202 17:58 15.02.2020
2532 Fog 12 1023 93 0 1.14 202 17:38 15.02.2020
2533 Haze 11 1022 66 9656 0.28 160 17:20 15.02.2020
2534 Fog 7 1021 100 0 0.28 160 16:43 15.02.2020
2535 Clear 7 1021 76 12874 0.28 160 16:25 15.02.2020
2536 Mist 7 1021 87 9656 2.6 100 15:59 15.02.2020
2537 Mist 7 1021 87 9656 2.6 100 15:41 15.02.2020
2538 Clear 7 1021 76 14484 0.28 160 15:22 15.02.2020
2539 Mist 7 1021 93 6437 0.28 160 14:45 15.02.2020
2540 Fog 7 1021 87 402 0.61 201 14:19 15.02.2020
2541 Clouds 7 1021 66 16093 0.61 201 13:56 15.02.2020
2542 Clouds 7 1021 66 16093 0.61 201 13:38 15.02.2020
2543 Mist 7 1021 81 4023 0.66 178 13:20 15.02.2020
2544 Clouds 8 1020 70 16093 2.1 90 12:42 15.02.2020
2545 Clear 8 1020 81 11265 0.66 178 12:24 15.02.2020
2546 Clouds 8 1021 87 12874 1.5 60 11:52 15.02.2020
2547 Clear 8 1020 76 11265 0.66 178 11:33 15.02.2020
2548 Clear 8 1021 76 12874 0.52 207 10:58 15.02.2020
2549 Clear 8 1021 76 12874 0.52 207 10:58 15.02.2020
2550 Clear 9 1021 76 12874 0.52 207 10:39 15.02.2020
2551 Clear 9 1021 76 12874 0.52 207 10:20 15.02.2020
2552 Clear 9 1020 57 16093 2.6 60 09:44 15.02.2020
2553 Clear 9 1020 76 11265 0.52 207 09:25 15.02.2020
2554 Clear 10 1020 82 12874 0.52 207 08:46 15.02.2020
2555 Clear 10 1020 82 12874 0.52 207 08:26 15.02.2020
2556 Clear 10 1020 54 16093 3.1 60 07:59 15.02.2020
2557 Clear 10 1020 54 16093 3.1 60 07:39 15.02.2020
2558 Clear 10 1020 82 16093 1.5 280 07:21 15.02.2020
2559 Clear 11 1020 76 14484 1.31 224 06:38 15.02.2020
2560 Clear 11 1020 76 14484 1.31 224 06:18 15.02.2020
2561 Clear 12 1020 41 16093 2.95 242 04:50 15.02.2020
2562 Clear 13 1018 67 16093 2.95 242 04:24 15.02.2020
2563 Clear 13 1018 67 16093 2.95 242 04:24 15.02.2020
2564 Clear 15 1017 52 16093 2.1 250 02:59 15.02.2020
2565 Clear 16 1017 52 16093 2.1 250 02:28 15.02.2020
2566 Clear 17 1017 39 16093 3.1 230 01:58 15.02.2020
2567 Clear 18 1017 48 16093 1.5 0 01:36 15.02.2020
2568 Clear 19 1017 42 16093 4.07 238 00:30 15.02.2020
2569 Clear 19 1017 37 16093 3.6 250 23:57 14.02.2020
2570 Clear 19 1017 37 16093 4.07 238 23:36 14.02.2020
2571 Clear 19 1017 37 16093 2.08 202 23:18 14.02.2020
2572 Clear 19 1018 24 16093 2.08 202 22:42 14.02.2020
2573 Clear 19 1017 49 16093 2.08 202 22:22 14.02.2020
2574 Clear 19 1018 45 12874 1.5 0 21:49 14.02.2020
2575 Clear 18 1018 45 12874 1.5 0 21:31 14.02.2020
2576 Clear 18 1019 39 16093 2.6 270 20:56 14.02.2020
2577 Clear 18 1019 45 14484 1.5 0 20:38 14.02.2020
2578 Clear 17 1019 45 14484 1.5 0 20:19 14.02.2020
2579 Clear 16 1019 51 16093 1.21 224 19:41 14.02.2020
2580 Clear 16 1019 51 16093 1.21 224 19:23 14.02.2020
2581 Clear 15 1019 51 16093 1.21 224 18:57 14.02.2020
2582 Clear 15 1019 51 16093 1.21 224 18:39 14.02.2020
2583 Clear 14 1019 51 16093 1.21 224 18:20 14.02.2020
2584 Clear 12 1018 54 16093 1.21 224 17:44 14.02.2020
2585 Clear 11 1018 54 16093 1.03 187 17:23 14.02.2020
2586 Clear 11 1018 54 16093 1.03 187 17:23 14.02.2020
2587 Clouds 9 1018 75 16093 1.03 187 16:59 14.02.2020
2588 Clouds 8 1018 75 16093 1.03 187 16:41 14.02.2020
2589 Clear 7 1018 76 14484 1.03 187 16:23 14.02.2020
2590 Clouds 7 1018 81 14484 1.03 187 15:56 14.02.2020
2591 Clouds 7 1018 81 14484 1.03 187 15:38 14.02.2020
2592 Clouds 7 1018 81 14484 1.03 187 15:20 14.02.2020
2593 Clouds 7 1017 87 14484 1.5 110 14:59 14.02.2020
2594 Clouds 7 1017 87 14484 1.5 110 14:40 14.02.2020
2595 Clouds 7 1017 81 14484 0.95 263 14:22 14.02.2020
2596 Clouds 7 1017 87 14484 0.95 263 13:56 14.02.2020
2597 Clouds 7 1017 87 14484 0.95 263 13:38 14.02.2020
2598 Clouds 8 1017 87 14484 1.04 256 13:19 14.02.2020
2599 Clear 8 1017 81 16093 1.04 256 12:56 14.02.2020
2600 Clear 8 1017 81 16093 1.04 256 12:38 14.02.2020
2601 Clear 8 1017 81 16093 1.04 256 12:19 14.02.2020
2602 Clear 8 1017 76 16093 1.04 256 11:55 14.02.2020
2603 Clear 8 1017 76 16093 1.04 256 11:37 14.02.2020
2604 Clear 8 1017 81 14484 0.42 241 11:19 14.02.2020
2605 Clear 9 1017 81 14484 0.42 241 10:41 14.02.2020
2606 Clear 9 1017 81 14484 0.42 241 10:22 14.02.2020
2607 Clear 9 1018 76 16093 0.42 241 09:45 14.02.2020
2608 Clear 9 1018 76 16093 0.42 241 09:24 14.02.2020
2609 Clear 10 1018 76 16093 0.42 241 08:58 14.02.2020
2610 Clear 10 1018 76 16093 0.42 241 08:39 14.02.2020
2611 Clear 10 1018 76 16093 1.21 207 08:21 14.02.2020
2612 Clear 10 1018 53 16093 1.21 207 07:50 14.02.2020
2613 Clear 10 1018 76 16093 1.21 207 07:29 14.02.2020
2614 Clear 11 1017 76 16093 1.21 207 06:41 14.02.2020
2615 Clear 11 1017 76 16093 1.21 207 06:41 14.02.2020
2616 Clear 12 1017 76 16093 1.21 207 06:21 14.02.2020
2617 Clear 12 1017 76 16093 1.21 207 06:21 14.02.2020
2618 Clear 12 1017 67 16093 1.21 207 05:38 14.02.2020
2619 Clear 14 1017 54 16093 3.1 260 03:50 14.02.2020
2620 Clear 15 1016 45 16093 2.1 0 02:58 14.02.2020
2621 Clear 16 1016 45 16093 2.1 0 02:18 14.02.2020
2622 Clear 18 1016 30 16093 2.6 270 00:59 14.02.2020
2623 Clear 18 1016 30 16093 2.6 270 00:32 14.02.2020
2624 Clear 19 1016 30 16093 1.5 0 23:59 13.02.2020
2625 Clear 19 1016 30 16093 1.5 0 23:41 13.02.2020
2626 Clear 19 1016 30 16093 1.5 0 23:19 13.02.2020
2627 Clear 19 1018 25 16093 2.02 227 22:41 13.02.2020
2628 Clear 19 1017 32 16093 2.02 227 22:20 13.02.2020
2629 Clear 19 1018 32 16093 1.5 0 21:59 13.02.2020
2630 Clear 19 1018 32 16093 1.5 0 21:40 13.02.2020
2631 Clear 18 1018 32 16093 1.5 0 21:20 13.02.2020
2632 Clear 18 1019 37 16093 2.02 227 20:43 13.02.2020
2633 Clear 17 1019 37 16093 0.88 153 20:23 13.02.2020
2634 Clear 17 1019 39 16093 0.88 153 19:58 13.02.2020
2635 Clear 16 1019 39 16093 0.88 153 19:40 13.02.2020
2636 Clear 16 1019 39 16093 0.88 153 19:21 13.02.2020
2637 Clear 15 1019 47 16093 0.88 153 18:59 13.02.2020
2638 Clear 14 1019 47 16093 0.88 153 18:41 13.02.2020
2639 Clear 14 1019 47 16093 0.88 153 18:22 13.02.2020
2640 Clear 13 1019 58 16093 0.88 153 17:58 13.02.2020
2641 Clear 12 1019 58 16093 0.88 153 17:37 13.02.2020
2642 Clear 10 1019 58 16093 0.25 187 17:19 13.02.2020
2643 Clear 8 1019 62 14484 0.25 187 16:56 13.02.2020
2644 Clear 8 1019 62 14484 0.25 187 16:36 13.02.2020
2645 Clear 7 1019 62 14484 0.25 187 16:36 13.02.2020
2646 Clear 7 1019 62 14484 0.25 187 16:18 13.02.2020
2647 Clear 7 1018 76 16093 0.25 187 15:55 13.02.2020
2648 Clear 7 1018 76 16093 0.25 187 15:37 13.02.2020
2649 Clear 7 1018 76 16093 0.25 187 15:18 13.02.2020
2650 Clouds 7 1018 93 11265 0.25 187 14:55 13.02.2020
2651 Clouds 7 1018 93 11265 0.25 187 14:37 13.02.2020
2652 Clouds 7 1018 93 11265 0.25 187 14:37 13.02.2020
2653 Clouds 7 1018 93 11265 1.12 256 14:19 13.02.2020
2654 Clear 7 1018 76 12874 1.12 256 13:42 13.02.2020
2655 Clear 7 1018 76 12874 1.12 256 13:18 13.02.2020
2656 Haze 7 1018 81 6437 0.63 231 12:54 13.02.2020
2657 Haze 8 1018 81 6437 0.63 231 12:36 13.02.2020
2658 Clear 8 1018 76 14484 0.63 231 12:18 13.02.2020
2659 Clouds 8 1019 57 16093 0.63 231 11:43 13.02.2020
2660 Clouds 8 1019 57 16093 0.55 254 11:19 13.02.2020
2661 Clouds 8 1019 87 12874 0.55 254 10:46 13.02.2020
2662 Clouds 8 1019 76 14484 0.55 254 10:27 13.02.2020
2663 Clouds 9 1019 76 14484 0.55 254 09:51 13.02.2020
2664 Clear 9 1019 81 12874 0.55 254 09:26 13.02.2020
2665 Clear 9 1019 57 16093 3.1 60 08:54 13.02.2020
2666 Clear 9 1019 57 16093 3.1 60 08:36 13.02.2020
2667 Clear 9 1018 57 16093 0.99 201 08:18 13.02.2020
2668 Clear 9 1019 53 16093 0.99 201 07:38 13.02.2020
2669 Clear 10 1019 76 16093 0.99 201 07:20 13.02.2020
2670 Clear 10 1019 71 16093 0.99 201 06:44 13.02.2020
2671 Clear 11 1019 71 16093 0.99 201 06:18 13.02.2020
2672 Clear 11 1018 71 16093 0.99 201 05:33 13.02.2020
2673 Clear 12 1018 76 16093 1.5 230 04:26 13.02.2020
2674 Clear 13 1018 55 16093 2.29 212 03:51 13.02.2020
2675 Clear 13 1018 55 16093 2.29 212 03:24 13.02.2020
2676 Clear 14 1018 41 16093 3.1 250 02:50 13.02.2020
2677 Clear 15 1017 48 16093 1.5 270 02:19 13.02.2020
2678 Clear 17 1017 55 16093 3.62 203 01:32 13.02.2020
2679 Clear 17 1018 59 16093 1.5 250 00:39 13.02.2020
2680 Clear 17 1018 59 16093 1.5 250 00:21 13.02.2020
2681 Clouds 18 1018 46 16093 3.64 200 23:40 12.02.2020
2682 Clouds 18 1018 46 16093 3.64 200 23:40 12.02.2020
2683 Clouds 18 1018 46 16093 3.13 211 23:21 12.02.2020
2684 Clear 18 1019 42 16093 3.13 211 22:45 12.02.2020
2685 Clear 18 1019 42 16093 3.13 211 22:26 12.02.2020
2686 Clear 18 1019 39 16093 3.13 211 21:59 12.02.2020
2687 Clear 18 1019 39 16093 3.13 211 21:40 12.02.2020
2688 Clear 18 1019 39 16093 3.13 211 21:19 12.02.2020
2689 Clear 17 1020 31 16093 2.6 240 20:58 12.02.2020
2690 Clear 17 1020 39 16093 3.13 211 20:39 12.02.2020
2691 Clear 16 1020 48 16093 2.1 110 20:20 12.02.2020
2692 Clear 16 1020 42 16093 2.1 0 19:55 12.02.2020
2693 Clear 16 1020 42 16093 2.1 0 19:55 12.02.2020
2694 Clear 16 1020 42 16093 2.1 0 19:36 12.02.2020
2695 Clear 16 1020 42 16093 2.1 0 19:36 12.02.2020
2696 Clear 15 1020 42 16093 2.1 0 19:18 12.02.2020
2697 Clouds 15 1020 48 16093 2.1 120 18:46 12.02.2020
2698 Clear 14 1020 30 16093 1.5 50 18:19 12.02.2020
2699 Clear 13 1019 35 16093 1.5 80 17:56 12.02.2020
2700 Clear 12 1019 35 16093 1.5 80 17:36 12.02.2020
2701 Clear 11 1019 35 16093 1.5 80 17:18 12.02.2020
2702 Clear 8 1018 40 16093 0.59 43 16:40 12.02.2020
2703 Clear 7 1019 43 16093 2.1 40 16:20 12.02.2020
2704 Clear 7 1018 36 16093 2.1 50 15:57 12.02.2020
2705 Clear 7 1018 50 16093 0.43 63 15:36 12.02.2020
2706 Clear 7 1018 50 16093 0.59 43 15:18 12.02.2020
2707 Clear 7 1018 57 16093 0.43 63 14:42 12.02.2020
2708 Clear 7 1018 57 16093 0.89 172 14:21 12.02.2020
2709 Clear 7 1018 57 16093 0.89 172 13:58 12.02.2020
2710 Clear 7 1018 57 16093 0.89 172 13:40 12.02.2020
2711 Clear 7 1018 57 16093 0.8 183 13:21 12.02.2020
2712 Clear 7 1018 26 16093 0.8 183 12:57 12.02.2020
2713 Clear 7 1018 54 16093 0.8 183 12:38 12.02.2020
2714 Clear 8 1018 54 16093 0.8 183 12:19 12.02.2020
2715 Clear 8 1018 29 16093 2.1 80 11:58 12.02.2020
2716 Clear 8 1018 29 16093 2.1 80 11:40 12.02.2020
2717 Clear 8 1018 57 16093 1.01 150 11:20 12.02.2020
2718 Clear 8 1018 57 16093 1.01 150 11:20 12.02.2020
2719 Clear 8 1018 25 16093 2.6 70 10:56 12.02.2020
2720 Clear 9 1018 25 16093 2.6 70 10:38 12.02.2020
2721 Clear 9 1018 58 16093 1.01 150 10:20 12.02.2020
2722 Clear 9 1018 54 16093 1.01 150 09:42 12.02.2020
2723 Clear 10 1018 54 16093 1.01 150 09:24 12.02.2020
2724 Clear 10 1018 54 16093 1.01 150 09:24 12.02.2020
2725 Clear 10 1018 50 16093 1.5 90 08:58 12.02.2020
2726 Clear 10 1018 50 16093 1.5 90 08:38 12.02.2020
2727 Clear 10 1018 50 16093 1.5 90 08:20 12.02.2020
2728 Clear 10 1018 27 16093 2.1 300 07:45 12.02.2020
2729 Clear 11 1018 58 16093 1.27 242 07:24 12.02.2020
2730 Clear 11 1017 58 16093 1.27 242 06:59 12.02.2020
2731 Clear 12 1017 58 16093 1.27 242 06:25 12.02.2020
2732 Clear 12 1018 26 16093 3.1 300 05:47 12.02.2020
2733 Clear 13 1017 51 16093 2.67 275 05:21 12.02.2020
2734 Clear 13 1017 42 16093 2.67 275 04:41 12.02.2020
2735 Clear 14 1016 36 14484 2.67 275 03:57 12.02.2020
2736 Clear 15 1016 36 14484 2.67 275 03:28 12.02.2020
2737 Clear 17 1016 30 16093 1.5 250 02:41 12.02.2020
2738 Clear 18 1016 30 16093 1.5 250 02:21 12.02.2020
2739 Clear 19 1015 17 16093 4.28 258 01:29 12.02.2020
2740 Clear 20 1015 14 16093 2.1 250 00:40 12.02.2020
2741 Clear 20 1015 14 16093 2.1 250 00:21 12.02.2020
2742 Clear 21 1015 16 16093 4.28 258 23:47 11.02.2020
2743 Clear 21 1015 16 16093 4.28 258 23:29 11.02.2020
2744 Clouds 21 1016 15 16093 5.7 220 22:57 11.02.2020
2745 Clear 21 1016 16 16093 1.5 0 22:39 11.02.2020
2746 Clear 21 1016 16 16093 1.5 0 22:20 11.02.2020
2747 Haze 21 1017 14 9656 3.6 210 21:57 11.02.2020
2748 Haze 21 1017 14 9656 3.6 210 21:38 11.02.2020
2749 Clear 21 1016 16 16093 2.51 246 21:18 11.02.2020
2750 Clear 20 1017 19 16093 2.51 246 20:58 11.02.2020
2751 Clear 20 1017 19 16093 2.51 246 20:38 11.02.2020
2752 Clear 19 1017 19 16093 0.57 228 20:19 11.02.2020
2753 Clear 19 1017 9 16093 1.5 0 19:57 11.02.2020
2754 Clear 19 1017 9 16093 1.5 0 19:39 11.02.2020
2755 Clear 18 1017 9 16093 1.5 0 19:20 11.02.2020
2756 Clear 18 1017 11 16093 1.5 0 18:45 11.02.2020
2757 Clear 18 1016 39 16093 0.57 228 18:26 11.02.2020
2758 Clear 17 1016 41 16093 0.57 228 17:57 11.02.2020
2759 Clear 16 1016 41 16093 0.57 228 17:38 11.02.2020
2760 Clear 14 1016 41 16093 1.86 33 17:19 11.02.2020
2761 Clear 14 1015 71 16093 1.86 33 16:58 11.02.2020
2762 Clear 13 1015 71 16093 1.86 33 16:39 11.02.2020
2763 Clear 13 1015 71 16093 1.86 33 16:21 11.02.2020
2764 Haze 13 1014 14 3219 11.3 20 15:57 11.02.2020
2765 Haze 13 1014 14 3219 11.3 20 15:39 11.02.2020
2766 Clear 13 1014 71 16093 1.86 33 15:20 11.02.2020
2767 Clear 13 1014 71 16093 1.86 33 14:41 11.02.2020
2768 Clear 12 1014 71 16093 1.67 21 14:19 11.02.2020
2769 Clear 12 1014 13 16093 4.6 320 13:56 11.02.2020
2770 Clear 12 1014 71 16093 1.67 21 13:38 11.02.2020
2771 Clear 12 1014 71 16093 2.94 38 13:19 11.02.2020
2772 Clear 12 1013 66 16093 2.94 38 12:55 11.02.2020
2773 Clear 12 1013 66 16093 2.94 38 12:36 11.02.2020
2774 Clear 12 1013 66 16093 2.94 38 12:18 11.02.2020
2775 Clear 12 1013 50 16093 2.94 38 11:41 11.02.2020
2776 Clear 12 1013 50 16093 1.31 33 11:19 11.02.2020
2777 Clear 12 1013 50 16093 1.31 33 11:19 11.02.2020
2778 Clear 12 1013 50 16093 1.31 33 10:54 11.02.2020
2779 Clear 12 1013 50 16093 1.31 33 10:36 11.02.2020
2780 Clear 13 1013 50 16093 1.31 33 10:18 11.02.2020
2781 Clear 13 1013 47 16093 1.31 33 09:43 11.02.2020
2782 Clear 13 1013 47 16093 1.31 33 09:22 11.02.2020
2783 Clear 13 1012 31 16093 1.31 33 08:56 11.02.2020
2784 Clear 13 1012 31 16093 1.31 33 08:38 11.02.2020
2785 Clear 14 1012 31 16093 1.03 51 08:19 11.02.2020
2786 Clear 14 1012 23 16093 1.03 51 07:45 11.02.2020
2787 Clear 14 1012 23 16093 1.03 51 07:24 11.02.2020
2788 Clear 15 1012 24 16093 1.03 51 06:42 11.02.2020
2789 Clear 15 1012 24 16093 1.03 51 06:20 11.02.2020
2790 Clear 15 1012 27 16093 2.6 350 05:47 11.02.2020
2791 Clear 15 1012 22 16093 1.1 249 05:22 11.02.2020
2792 Clear 16 1012 31 16093 3.1 190 04:36 11.02.2020
2793 Clear 18 1011 19 16093 4.1 250 02:44 11.02.2020
2794 Clear 19 1011 32 16093 3.1 250 02:23 11.02.2020
2795 Clear 20 1009 20 16093 3.1 0 01:35 11.02.2020
2796 Clear 21 1010 16 16093 4.6 40 00:38 11.02.2020
2797 Clouds 20 1010 31 16093 3.6 170 23:57 10.02.2020
2798 Clouds 20 1010 31 16093 3.6 170 23:38 10.02.2020
2799 Clear 20 1011 37 16093 3.6 220 22:58 10.02.2020
2800 Clear 20 1011 37 16093 3.6 220 22:39 10.02.2020
2801 Clear 20 1010 21 16093 0.67 261 22:20 10.02.2020
2802 Clear 19 1011 21 16093 0.67 261 21:45 10.02.2020
2803 Clear 19 1011 21 16093 0.67 261 21:25 10.02.2020
2804 Clear 19 1011 19 14484 0.67 261 20:58 10.02.2020
2805 Clear 19 1011 19 14484 0.67 261 20:58 10.02.2020
2806 Clear 18 1011 19 14484 0.67 261 20:39 10.02.2020
2807 Clear 17 1011 21 16093 2.6 0 20:20 10.02.2020
2808 Clear 17 1011 32 16093 1.5 90 19:58 10.02.2020
2809 Clear 17 1011 32 16093 1.5 90 19:38 10.02.2020
2810 Clear 16 1011 32 16093 1.5 90 19:19 10.02.2020
2811 Clear 16 1011 55 16093 1.43 181 18:59 10.02.2020
2812 Clear 15 1011 55 16093 1.43 181 18:40 10.02.2020
2813 Clear 15 1011 55 16093 1.43 181 18:21 10.02.2020
2814 Clear 14 1010 38 16093 2.1 110 17:58 10.02.2020
2815 Clear 14 1010 38 16093 2.1 110 17:38 10.02.2020
2816 Clear 13 1010 38 16093 2.1 110 17:20 10.02.2020
2817 Clear 12 1010 25 16093 3.1 0 16:59 10.02.2020
2818 Clear 12 1010 25 16093 3.1 0 16:40 10.02.2020
2819 Clear 11 1010 41 16093 0.27 85 16:20 10.02.2020
2820 Rain 11 1009 54 16093 0.27 85 15:56 10.02.2020
2821 Rain 12 1009 54 16093 0.27 85 15:38 10.02.2020
2822 Rain 12 1009 54 16093 0.27 85 15:20 10.02.2020
2823 Clouds 12 1009 29 16093 2.1 0 14:56 10.02.2020
2824 Clouds 12 1009 29 16093 2.1 0 14:37 10.02.2020
2825 -273 0 0 0 0 0 14:18 10.02.2020
2826 Clouds 12 1009 54 16093 1.5 0 13:42 10.02.2020
2827 Clouds 12 1009 54 16093 1.5 0 13:24 10.02.2020
2828 Clouds 12 1009 54 16093 1.5 0 13:24 10.02.2020
2829 Clouds 12 1009 62 16093 2.77 348 12:54 10.02.2020
2830 Clouds 12 1009 62 16093 2.77 348 12:36 10.02.2020
2831 Clouds 12 1009 62 16093 2.77 348 12:18 10.02.2020
2832 Clouds 12 1009 62 16093 2.77 348 11:43 10.02.2020
2833 Clouds 12 1009 62 16093 0.92 15 11:20 10.02.2020
2834 Clouds 12 1009 62 16093 0.92 15 11:20 10.02.2020
2835 Clouds 12 1009 62 16093 0.92 15 10:47 10.02.2020
2836 Clouds 11 1009 62 16093 0.92 15 10:28 10.02.2020
2837 Clouds 11 1009 71 16093 0.92 15 09:48 10.02.2020
2838 Clouds 12 1009 71 16093 0.92 15 09:27 10.02.2020
2839 Clouds 12 1009 66 16093 0.92 15 08:59 10.02.2020
2840 Clouds 12 1009 66 16093 0.92 15 08:59 10.02.2020
2841 Clouds 12 1009 66 16093 0.92 15 08:38 10.02.2020
2842 Clouds 12 1009 66 16093 1.19 87 08:19 10.02.2020
2843 Clouds 12 1009 66 16093 1.19 87 07:52 10.02.2020
2844 Clouds 12 1009 66 16093 1.19 87 07:32 10.02.2020
2845 Rain 12 1010 58 16093 1.19 87 06:44 10.02.2020
2846 Rain 12 1009 58 16093 5.11 95 04:51 10.02.2020
2847 Rain 12 1009 54 16093 5.11 95 03:53 10.02.2020
2848 Rain 12 1008 54 16093 1.5 120 02:58 10.02.2020
2849 Rain 12 1008 54 16093 1.5 120 02:40 10.02.2020
2850 Rain 13 1008 58 16093 1.5 0 01:21 10.02.2020
2851 Rain 13 1008 54 16093 2.6 250 00:37 10.02.2020
2852 Rain 13 1008 67 16093 3.1 120 00:19 10.02.2020
2853 Rain 12 1009 67 16093 2.6 80 23:41 09.02.2020
2854 Rain 13 1009 59 16093 6.98 127 23:23 09.02.2020
2855 Rain 13 1009 76 16093 2.6 150 22:44 09.02.2020
2856 Rain 13 1009 63 16093 6.98 127 22:22 09.02.2020
2857 Rain 13 1009 82 11265 2.1 120 21:55 09.02.2020
2858 Rain 13 1009 82 11265 2.1 120 21:36 09.02.2020
2859 Rain 13 1009 71 16093 5.1 120 21:18 09.02.2020
2860 Rain 13 1010 71 11265 2.1 120 20:44 09.02.2020
2861 Rain 13 1011 67 16093 2.6 0 20:21 09.02.2020
2862 Rain 13 1011 87 6437 3.6 120 19:55 09.02.2020
2863 Rain 13 1011 87 6437 3.6 120 19:37 09.02.2020
2864 Rain 13 1011 62 16093 7.2 120 19:18 09.02.2020
2865 Rain 13 1011 71 16093 1.5 0 18:42 09.02.2020
2866 Rain 12 1011 76 16093 6.2 110 18:23 09.02.2020
2867 Rain 12 1011 76 16093 6.2 110 18:23 09.02.2020
2868 Rain 12 1011 71 16093 6.7 90 17:58 09.02.2020
2869 Rain 12 1011 71 16093 6.7 90 17:39 09.02.2020
2870 Rain 11 1011 67 16093 3.6 100 17:20 09.02.2020
2871 Rain 11 1011 81 16093 3.6 120 16:41 09.02.2020
2872 Rain 11 1011 81 16093 3.6 120 16:22 09.02.2020
2873 Clouds 11 1011 71 16093 4.6 100 15:58 09.02.2020
2874 Clouds 11 1011 71 16093 4.6 100 15:40 09.02.2020
2875 Rain 11 1011 81 14484 4.1 130 15:21 09.02.2020
2876 Clouds 11 1011 81 16093 2.1 80 14:56 09.02.2020
2877 Clouds 11 1011 81 16093 2.1 80 14:37 09.02.2020
2878 Clouds 11 1011 67 16093 1.5 90 14:19 09.02.2020
2879 Clouds 11 1011 67 16093 1.5 90 13:43 09.02.2020
2880 Clouds 11 1011 67 16093 1.5 100 13:25 09.02.2020
2881 Clouds 12 1011 76 16093 3.1 110 12:55 09.02.2020
2882 Mist 11 1012 87 6437 3.08 125 12:37 09.02.2020
2883 Clouds 11 1012 67 12874 2.1 100 12:18 09.02.2020
2884 Mist 11 1012 87 6437 3.1 100 11:40 09.02.2020
2885 Clouds 11 1013 71 12874 1.5 0 11:20 09.02.2020
2886 Mist 11 1013 81 8047 4.1 240 10:57 09.02.2020
2887 Mist 11 1013 81 8047 4.1 240 10:38 09.02.2020
2888 Mist 11 1013 81 8047 4.1 240 10:38 09.02.2020
2889 Clouds 11 1013 71 11265 1.5 90 10:19 09.02.2020
2890 Clouds 11 1013 81 12874 1.84 184 09:41 09.02.2020
2891 Clouds 10 1013 71 11265 1.84 184 09:21 09.02.2020
2892 Clouds 10 1013 76 12874 1.84 184 08:45 09.02.2020
2893 Clear 10 1013 76 12874 1.7 189 08:26 09.02.2020
2894 Clouds 10 1014 76 14484 1.85 173 07:58 09.02.2020
2895 Clear 10 1014 76 12874 1.85 173 07:34 09.02.2020
2896 Clouds 11 1014 76 16093 1.5 240 06:46 09.02.2020
2897 Clear 11 1014 81 16093 1.85 173 05:59 09.02.2020
2898 Clear 11 1014 76 16093 2.1 270 05:37 09.02.2020
2899 Clear 11 1014 71 16093 2.58 213 05:18 09.02.2020
2900 Clouds 13 1014 71 16093 2.58 213 03:52 09.02.2020
2901 Clouds 14 1014 82 16093 4.1 230 02:44 09.02.2020
2902 Clear 15 1014 59 16093 2.6 250 02:25 09.02.2020
2903 Clear 17 1013 55 16093 2.1 270 01:35 09.02.2020
2904 Clear 18 1014 48 16093 3.1 270 00:44 09.02.2020
2905 Clear 18 1014 48 16093 3.1 270 00:24 09.02.2020
2906 Clear 19 1014 43 16093 1.5 0 23:43 08.02.2020
2907 Clear 19 1014 43 16093 1.5 0 23:21 08.02.2020
2908 Clear 20 1014 40 14484 2.67 214 22:43 08.02.2020
2909 Clear 19 1014 40 14484 2.67 214 22:22 08.02.2020
2910 Clear 19 1016 40 11265 2.67 214 21:59 08.02.2020
2911 Clear 20 1016 40 11265 2.67 214 21:40 08.02.2020
2912 Clear 19 1016 40 11265 2.67 214 21:21 08.02.2020
2913 Haze 18 1017 52 9656 2.67 214 20:57 08.02.2020
2914 Haze 18 1017 52 9656 2.67 214 20:38 08.02.2020
2915 Haze 17 1017 52 9656 1.07 222 20:19 08.02.2020
2916 Haze 16 1017 76 4828 1.07 222 19:55 08.02.2020
2917 Haze 16 1017 76 4828 1.07 222 19:37 08.02.2020
2918 Haze 15 1017 59 8047 1.07 222 19:19 08.02.2020
2919 Mist 14 1018 93 1609 1.5 230 18:43 08.02.2020
2920 Mist 14 1018 93 1609 1.5 230 18:43 08.02.2020
2921 Clear 13 1017 66 11265 1.07 222 18:24 08.02.2020
2922 Mist 12 1018 93 1207 2.1 300 17:44 08.02.2020
2923 Mist 10 1018 100 3219 0.65 143 17:22 08.02.2020
2924 Fog 10 1018 93 402 0.65 143 16:59 08.02.2020
2925 Fog 9 1018 93 402 0.65 143 16:40 08.02.2020
2926 Fog 8 1017 93 402 2.1 310 16:21 08.02.2020
2927 Mist 8 1017 87 2816 2.1 100 15:56 08.02.2020
2928 Mist 8 1017 81 4828 0.65 143 15:38 08.02.2020
2929 Clouds 8 1017 87 12874 1.5 90 15:18 08.02.2020
2930 Clouds 8 1017 87 12874 1.5 90 15:18 08.02.2020
2931 Clouds 8 1017 87 12874 0.65 143 14:41 08.02.2020
2932 Mist 8 1017 87 2816 0.78 218 14:19 08.02.2020
2933 Mist 8 1017 87 2816 0.78 218 14:19 08.02.2020
2934 Clouds 8 1018 81 11265 0.78 218 13:55 08.02.2020
2935 Clouds 8 1018 81 11265 0.78 218 13:37 08.02.2020
2936 Mist 8 1018 87 6437 1.06 239 13:18 08.02.2020
2937 Mist 8 1018 87 8047 1.06 239 12:39 08.02.2020
2938 Mist 8 1018 87 8047 1.06 239 12:20 08.02.2020
2939 Clouds 8 1018 76 11265 1.06 239 11:47 08.02.2020
2940 Haze 9 1018 81 9656 0.37 241 11:22 08.02.2020
2941 Clouds 9 1018 81 12874 0.37 241 10:59 08.02.2020
2942 Clouds 9 1018 81 11265 0.37 241 10:40 08.02.2020
2943 Clouds 9 1018 81 11265 0.37 241 10:20 08.02.2020
2944 Clear 9 1018 81 11265 0.37 241 09:51 08.02.2020
2945 Clear 10 1018 81 11265 0.37 241 09:26 08.02.2020
2946 Clear 10 1018 76 11265 0.37 241 08:48 08.02.2020
2947 Clear 10 1018 76 11265 0.37 241 08:29 08.02.2020
2948 Clear 10 1018 76 14484 0.96 242 07:59 08.02.2020
2949 Clear 11 1018 76 14484 0.96 242 07:39 08.02.2020
2950 Clear 11 1018 71 16093 0.96 242 06:56 08.02.2020
2951 Clear 11 1018 71 16093 0.96 242 06:23 08.02.2020
2952 Clear 12 1017 71 16093 0.96 242 05:40 08.02.2020
2953 Clear 12 1017 71 16093 1.62 250 05:21 08.02.2020
2954 Clear 13 1017 71 16093 1.5 290 04:31 08.02.2020
2955 Clear 14 1017 55 16093 1.5 250 03:41 08.02.2020
2956 Clear 16 1017 48 16093 1.5 0 02:43 08.02.2020
2957 Clear 18 1017 45 16093 1.5 0 01:37 08.02.2020
2958 Clear 18 1017 45 16093 1.5 0 01:19 08.02.2020
2959 Clear 19 1017 40 16093 2.1 250 00:38 08.02.2020
2960 Clear 19 1017 40 16093 2.1 250 00:20 08.02.2020
2961 Clear 19 1017 37 16093 2.1 0 23:42 07.02.2020
2962 Clear 19 1017 37 16093 2.1 0 23:20 07.02.2020
2963 Clear 19 1018 34 16093 2.6 260 22:56 07.02.2020
2964 Clear 19 1018 34 16093 2.6 260 22:37 07.02.2020
2965 Clear 19 1018 34 16093 2.6 260 22:19 07.02.2020
2966 Clear 18 1019 45 16093 1.5 250 21:42 07.02.2020
2967 Clear 18 1019 45 16093 1.5 250 21:22 07.02.2020
2968 Clear 17 1020 45 16093 2.56 239 20:54 07.02.2020
2969 Clear 17 1020 45 16093 2.56 239 20:36 07.02.2020
2970 Clear 17 1020 45 16093 1.36 241 20:18 07.02.2020
2971 Clear 15 1020 48 16093 1.54 254 19:40 07.02.2020
2972 Clear 15 1020 48 16093 1.54 254 19:19 07.02.2020
2973 Clear 15 1020 47 16093 1.5 90 18:55 07.02.2020
2974 Clear 14 1020 47 16093 1.5 90 18:37 07.02.2020
2975 Clear 13 1020 47 16093 1.5 90 18:18 07.02.2020
2976 Clear 12 1020 61 16093 2.6 0 17:42 07.02.2020
2977 Clear 10 1019 62 16093 0.18 195 17:21 07.02.2020
2978 Clear 8 1019 66 16093 0.18 195 16:54 07.02.2020
2979 Clear 7 1019 66 16093 0.18 195 16:25 07.02.2020
2980 Clear 6 1019 66 16093 0.18 195 15:57 07.02.2020
2981 Clear 6 1019 66 16093 0.18 195 15:39 07.02.2020
2982 Clear 7 1019 66 16093 0.18 195 15:20 07.02.2020
2983 Clear 7 1019 66 16093 0.18 195 14:43 07.02.2020
2984 Clear 6 1019 66 16093 0.13 48 14:24 07.02.2020
2985 Clear 7 1018 66 16093 0.13 48 13:58 07.02.2020
2986 Clear 7 1018 66 16093 0.13 48 13:39 07.02.2020
2987 Clear 7 1018 66 16093 0.13 48 13:39 07.02.2020
2988 Clear 7 1018 66 16093 0.12 230 13:21 07.02.2020
2989 Clear 7 1018 66 16093 0.12 230 12:55 07.02.2020
2990 Clear 7 1018 66 16093 0.12 230 12:55 07.02.2020
2991 Clear 7 1018 66 16093 0.12 230 12:37 07.02.2020
2992 Clear 7 1018 66 16093 0.12 230 12:18 07.02.2020
2993 Clear 7 1018 55 16093 2.1 60 11:41 07.02.2020
2994 Clear 7 1019 81 14484 0.28 170 11:20 07.02.2020
2995 Clear 7 1018 57 16093 2.6 40 10:42 07.02.2020
2996 Clear 8 1019 76 16093 0.28 170 10:24 07.02.2020
2997 Clear 8 1019 57 16093 2.1 360 09:56 07.02.2020
2998 Clear 8 1019 57 16093 2.1 360 09:37 07.02.2020
2999 Clear 8 1019 76 16093 0.28 170 09:19 07.02.2020
3000 Clouds 8 1019 57 16093 2.1 350 08:42 07.02.2020
3001 Clear 8 1019 57 16093 1.5 270 08:21 07.02.2020
3002 Clear 9 1019 71 16093 2.16 248 07:45 07.02.2020
3003 Clear 9 1019 71 16093 2.16 248 07:26 07.02.2020
3004 Clouds 9 1019 50 16093 2.16 248 06:46 07.02.2020
3005 Clear 10 1019 57 16093 2.16 248 06:26 07.02.2020
3006 Clear 10 1019 66 16093 2.16 248 05:45 07.02.2020
3007 Clear 11 1018 54 16093 2.1 280 04:43 07.02.2020
3008 Clear 14 1018 36 16093 1.5 0 02:51 07.02.2020
3009 Clear 16 1018 30 16093 3.28 216 01:51 07.02.2020
3010 Clear 17 1018 29 16093 3.37 220 00:48 07.02.2020
3011 Clear 17 1018 29 16093 3.37 220 00:21 07.02.2020
3012 Clear 17 1018 34 16093 1.5 0 23:37 06.02.2020
3013 Clear 17 1018 34 16093 1.5 0 23:19 06.02.2020
3014 Clear 17 1019 27 16093 2.47 245 22:44 06.02.2020
3015 Clear 17 1019 27 16093 2.47 245 22:25 06.02.2020
3016 Clear 17 1020 20 16093 2.47 245 21:38 06.02.2020
3017 Clear 16 1020 20 16093 2.47 245 21:20 06.02.2020
3018 Clear 16 1021 29 16093 2.47 245 20:58 06.02.2020
3019 Clear 16 1021 29 16093 2.47 245 20:39 06.02.2020
3020 Clear 15 1021 29 16093 0.28 238 20:19 06.02.2020
3021 Clear 15 1022 31 16093 0.28 238 19:59 06.02.2020
3022 Clear 14 1022 31 16093 0.28 238 19:41 06.02.2020
3023 Clear 14 1022 31 16093 0.28 238 19:23 06.02.2020
3024 Clear 13 1022 41 16093 0.28 238 18:59 06.02.2020
3025 Clear 13 1022 41 16093 0.28 238 18:40 06.02.2020
3026 Clear 12 1022 41 16093 0.28 238 18:22 06.02.2020
3027 Clear 11 1022 43 16093 0.28 238 17:46 06.02.2020
3028 Clear 9 1022 43 16093 0.27 45 17:22 06.02.2020
3029 Clear 7 1022 61 16093 0.27 45 16:59 06.02.2020
3030 Clear 6 1022 61 16093 0.27 45 16:41 06.02.2020
3031 Clear 5 1022 61 16093 0.27 45 16:22 06.02.2020
3032 Clear 5 1021 48 16093 2.1 60 15:43 06.02.2020
3033 Clear 5 1021 48 16093 2.1 60 15:43 06.02.2020
3034 Clear 5 1021 60 16093 0.27 45 15:22 06.02.2020
3035 Clear 5 1021 52 16093 2.1 50 14:51 06.02.2020
3036 Clear 5 1021 64 16093 0.27 45 14:28 06.02.2020
3037 Clear 5 1021 56 16093 2.6 50 13:59 06.02.2020
3038 Clear 5 1021 56 16093 2.6 50 13:41 06.02.2020
3039 Clear 5 1022 45 16093 0.69 131 13:20 06.02.2020
3040 Clear 6 1021 45 16093 0.69 131 12:44 06.02.2020
3041 Clear 6 1021 45 16093 0.69 131 12:19 06.02.2020
3042 Clear 6 1021 60 16093 0.69 131 12:19 06.02.2020
3043 Clear 6 1021 48 16093 2.1 50 11:57 06.02.2020
3044 Clear 6 1021 48 16093 2.1 50 11:39 06.02.2020
3045 Clear 6 1022 57 16093 0.73 125 11:19 06.02.2020
3046 Clear 6 1021 48 16093 2.1 60 10:56 06.02.2020
3047 Clear 6 1021 48 16093 2.1 60 10:38 06.02.2020
3048 Clear 6 1021 56 16093 0.73 125 10:20 06.02.2020
3049 Clear 7 1021 52 16093 0.73 125 09:56 06.02.2020
3050 Clear 7 1021 52 16093 0.73 125 09:37 06.02.2020
3051 Clear 7 1022 61 16093 0.73 125 09:18 06.02.2020
3052 Clear 7 1021 52 16093 0.73 125 08:41 06.02.2020
3053 Clear 7 1021 52 16093 1.01 134 08:22 06.02.2020
3054 Clear 7 1021 45 16093 2.6 320 07:48 06.02.2020
3055 Clear 8 1021 49 16093 1.5 100 07:27 06.02.2020
3056 Clear 8 1021 40 16093 1.55 208 06:37 06.02.2020
3057 Clear 9 1021 40 16093 1.55 208 06:18 06.02.2020
3058 Clear 10 1020 43 16093 1.5 250 04:53 06.02.2020
3059 Clear 12 1020 30 16093 2.16 216 03:21 06.02.2020
3060 Clear 13 1020 31 16093 2.1 260 02:37 06.02.2020
3061 Clear 15 1020 29 16093 3.1 270 01:37 06.02.2020
3062 Clear 15 1020 29 16093 3.6 260 00:59 06.02.2020
3063 Clear 15 1020 29 16093 3.6 260 00:26 06.02.2020
3064 Clear 16 1020 21 16093 3.95 237 23:48 05.02.2020
3065 Clear 16 1020 21 16093 3.95 237 23:29 05.02.2020
3066 Clear 16 1020 22 16093 3.6 250 22:59 05.02.2020
3067 Clouds 16 1020 17 16093 4.1 200 22:40 05.02.2020
3068 Clear 16 1021 25 16093 2.9 247 22:22 05.02.2020
3069 Clear 16 1022 13 16093 2.9 247 21:55 05.02.2020
3070 Clear 16 1022 13 16093 2.9 247 21:55 05.02.2020
3071 Clear 16 1022 13 16093 2.9 247 21:55 05.02.2020
3072 Clear 15 1022 13 16093 2.9 247 21:36 05.02.2020
3073 Clear 15 1022 13 16093 2.9 247 21:36 05.02.2020
3074 Clear 15 1022 13 16093 2.9 247 21:18 05.02.2020
3075 Clear 15 1022 13 16093 2.9 247 21:18 05.02.2020
3076 Clear 15 1023 17 16093 1.5 140 20:39 05.02.2020
3077 Clear 15 1023 17 16093 1.5 140 20:39 05.02.2020
3078 Clear 15 1023 17 16093 1.5 140 20:39 05.02.2020
3079 Clear 14 1023 17 16093 1.5 140 20:20 05.02.2020
3080 Clear 14 1023 16 16093 0.91 214 19:58 05.02.2020
3081 Clear 13 1023 16 16093 0.91 214 19:40 05.02.2020
3082 Clear 13 1023 16 16093 0.91 214 19:19 05.02.2020
3083 Clear 12 1023 18 16093 0.91 214 18:56 05.02.2020
3084 Clear 11 1023 18 16093 0.91 214 18:38 05.02.2020
3085 Clear 11 1023 18 16093 0.91 214 18:18 05.02.2020
3086 Clear 9 1023 31 16093 0.91 214 17:38 05.02.2020
3087 Clear 8 1023 31 16093 0.91 214 17:38 05.02.2020
3088 Clear 7 1023 31 16093 0.98 117 17:20 05.02.2020
3089 Clear 6 1023 51 16093 0.98 117 16:57 05.02.2020
3090 Clear 4 1022 26 16093 0.98 117 16:39 05.02.2020
3091 Clear 4 1022 26 16093 0.98 117 16:20 05.02.2020
3092 Clear 4 1022 22 16093 0.98 117 15:46 05.02.2020
3093 Clear 4 1022 22 16093 0.98 117 15:20 05.02.2020
3094 Clear 4 1021 22 0 0.98 117 14:58 05.02.2020
3095 Clear 4 1021 22 0 0.98 117 14:39 05.02.2020
3096 Clear 4 1021 22 0 0.64 37 14:21 05.02.2020
3097 Clear 4 1021 22 16093 0.64 37 13:43 05.02.2020
3098 Clear 5 1021 22 16093 0.58 312 13:22 05.02.2020
3099 Clear 5 1022 21 16093 0.58 312 12:58 05.02.2020
3100 Clear 5 1022 21 16093 0.58 312 12:36 05.02.2020
3101 Clear 5 1022 21 16093 0.58 312 12:18 05.02.2020
3102 Clear 6 1022 31 16093 0.58 312 11:41 05.02.2020
3103 Clear 6 1022 31 16093 0.52 12 11:23 05.02.2020
3104 Clear 6 1022 31 16093 0.52 12 10:57 05.02.2020
3105 Clear 6 1022 31 16093 0.52 12 10:39 05.02.2020
3106 Clear 6 1022 31 16093 0.52 12 10:18 05.02.2020
3107 Clear 7 1022 23 16093 2.1 20 09:40 05.02.2020
3108 Clear 7 1022 23 16093 2.1 20 09:22 05.02.2020
3109 Clear 7 1022 18 16093 2.1 80 08:56 05.02.2020
3110 Clear 7 1022 18 16093 2.1 80 08:37 05.02.2020
3111 Clear 7 1022 18 16093 2.1 80 08:19 05.02.2020
3112 Clear 8 1022 22 16093 0.54 341 07:42 05.02.2020
3113 Clear 8 1022 22 16093 0.54 341 07:19 05.02.2020
3114 Clear 8 1021 27 16093 1.5 10 06:39 05.02.2020
3115 Clear 9 1021 29 16093 0.54 341 06:21 05.02.2020
3116 Clear 9 1021 41 16093 0.54 341 05:47 05.02.2020
3117 Clear 9 1020 11 16093 1.62 289 05:18 05.02.2020
3118 Clear 10 1020 28 16093 1.62 289 04:27 05.02.2020
3119 Clear 12 1019 19 16093 1.62 289 02:53 05.02.2020
3120 Clear 12 1019 19 16093 3.54 272 02:22 05.02.2020
3121 Clear 13 1019 15 16093 1.5 0 01:34 05.02.2020
3122 Clear 14 1019 14 16093 2.52 282 00:25 05.02.2020
3123 Clear 14 1019 13 16093 2.52 282 23:42 04.02.2020
3124 Clear 14 1019 13 16093 2.52 282 23:42 04.02.2020
3125 Clear 14 1019 13 16093 2.66 264 23:22 04.02.2020
3126 Clear 14 1019 11 16093 4.6 180 22:58 04.02.2020
3127 Clear 14 1020 12 16093 1.5 240 22:40 04.02.2020
3128 Clear 14 1020 12 16093 1.5 240 22:20 04.02.2020
3129 Clear 14 1019 4 16093 6.2 50 21:57 04.02.2020
3130 Clear 14 1019 4 16093 6.2 50 21:38 04.02.2020
3131 Clear 14 1020 11 16093 2.66 264 21:19 04.02.2020
3132 Clear 13 1021 11 16093 2.66 264 20:55 04.02.2020
3133 Clear 13 1021 11 16093 2.66 264 20:37 04.02.2020
3134 Clear 13 1021 11 16093 0.78 291 20:18 04.02.2020
3135 Clear 12 1021 15 16093 0.78 291 19:43 04.02.2020
3136 Clear 12 1021 15 16093 0.78 291 19:25 04.02.2020
3137 Clear 11 1021 21 16093 0.78 291 18:59 04.02.2020
3138 Clear 11 1021 18 16093 0.78 291 18:40 04.02.2020
3139 Clear 10 1021 18 16093 0.78 291 18:21 04.02.2020
3140 Clear 9 1021 18 16093 2.6 140 17:58 04.02.2020
3141 Clear 9 1021 18 16093 2.6 140 17:40 04.02.2020
3142 Clear 8 1020 26 0 1.85 18 17:19 04.02.2020
3143 Clear 7 1020 20 0 1.85 18 16:39 04.02.2020
3144 Clear 7 1020 20 0 1.85 18 16:21 04.02.2020
3145 Clear 7 1019 22 16093 1.85 18 15:57 04.02.2020
3146 Clear 7 1019 22 16093 1.85 18 15:39 04.02.2020
3147 Clear 7 1019 22 16093 1.85 18 15:20 04.02.2020
3148 Clear 7 1018 33 16093 1.85 18 14:56 04.02.2020
3149 Clear 7 1018 33 16093 1.85 18 14:37 04.02.2020
3150 Clear 7 1018 33 16093 2.58 25 14:19 04.02.2020
3151 Clear 7 1018 35 16093 2.58 25 13:41 04.02.2020
3152 Clear 7 1018 35 16093 2.58 25 13:23 04.02.2020
3153 Clear 7 1018 33 0 2.72 2 12:58 04.02.2020
3154 Clear 7 1018 33 0 2.72 2 12:39 04.02.2020
3155 Clear 7 1018 33 0 2.72 2 12:20 04.02.2020
3156 Clear 8 1017 36 0 2.72 2 11:56 04.02.2020
3157 Clear 8 1017 36 0 2.72 2 11:37 04.02.2020
3158 Clear 8 1017 36 0 2.72 2 11:37 04.02.2020
3159 Clear 8 1017 36 0 3.43 43 11:19 04.02.2020
3160 Clear 8 1017 31 16093 3.43 43 10:46 04.02.2020
3161 Clear 8 1017 31 16093 3.43 43 10:26 04.02.2020
3162 Haze 9 1017 16 4828 6.2 50 09:57 04.02.2020
3163 Haze 9 1017 16 4828 6.2 50 09:39 04.02.2020
3164 Clear 9 1016 29 16093 3.43 43 09:20 04.02.2020
3165 Haze 9 1016 14 4828 7.7 50 08:46 04.02.2020
3166 Clear 9 1016 20 16093 3.74 49 08:27 04.02.2020
3167 Clear 10 1015 17 16093 3.74 49 07:52 04.02.2020
3168 Clear 10 1015 17 16093 3.74 49 07:25 04.02.2020
3169 Clear 10 1015 18 16093 3.74 49 06:54 04.02.2020
3170 Clear 10 1015 18 16093 3.74 49 06:36 04.02.2020
3171 Clear 10 1014 20 16093 3.74 49 05:34 04.02.2020
3172 Clear 11 1014 15 16093 2.1 0 04:27 04.02.2020
3173 Clear 11 1012 12 16093 3.6 340 03:47 04.02.2020
3174 Clear 12 1012 12 16093 3.6 340 03:29 04.02.2020
3175 Clear 12 1012 11 16093 3.6 330 02:38 04.02.2020
3176 Clear 12 1012 11 16093 3.6 330 02:18 04.02.2020
3177 Clear 13 1011 11 16093 5.1 320 01:44 04.02.2020
3178 Clear 14 1011 10 16093 1.83 243 00:56 04.02.2020
3179 Clear 15 1011 10 16093 1.83 243 00:23 04.02.2020
3180 Clouds 15 1011 11 16093 4.6 320 23:49 03.02.2020
3181 Clear 15 1011 10 16093 3.6 350 23:30 03.02.2020
3182 Clear 15 1012 9 16093 5.7 350 22:58 03.02.2020
3183 Clear 15 1012 9 16093 5.7 350 22:38 03.02.2020
3184 Clear 14 1012 11 16093 4.6 340 22:19 03.02.2020
3185 Clear 14 1012 12 16093 3.6 320 21:41 03.02.2020
3186 Clear 14 1012 12 16093 3.6 320 21:20 03.02.2020
3187 Clear 14 1012 12 16093 3.6 320 21:20 03.02.2020
3188 Clear 14 1013 12 16093 2.6 0 20:56 03.02.2020
3189 Clear 13 1013 12 16093 2.6 0 20:38 03.02.2020
3190 Clear 13 1013 12 16093 2.6 0 20:38 03.02.2020
3191 Clear 13 1013 12 16093 2.6 0 20:18 03.02.2020
3192 Clear 12 1013 22 16093 3.1 0 19:42 03.02.2020
3193 Clear 12 1013 22 16093 3.1 0 19:23 03.02.2020
3194 Clear 11 1013 27 16093 2.18 2 18:59 03.02.2020
3195 Clear 11 1013 27 16093 2.18 2 18:40 03.02.2020
3196 Clear 10 1013 27 16093 2.18 2 18:21 03.02.2020
3197 Clear 10 1013 32 16093 4.6 310 17:57 03.02.2020
3198 Clear 10 1013 32 16093 4.6 310 17:39 03.02.2020
3199 Clear 9 1013 32 16093 4.6 310 17:19 03.02.2020
3200 Clear 9 1012 29 16093 2.6 0 16:40 03.02.2020
3201 Clear 9 1012 29 16093 2.6 0 16:22 03.02.2020
3202 Clouds 8 1010 46 16093 2.6 35 15:59 03.02.2020
3203 Clear 8 1012 27 16093 2.6 0 15:39 03.02.2020
3204 Clear 8 1012 27 16093 2.6 0 15:20 03.02.2020
3205 Clear 9 1011 23 16093 3.1 0 14:58 03.02.2020
3206 Clear 8 1011 23 16093 3.1 0 14:58 03.02.2020
3207 Clear 8 1011 23 16093 3.1 0 14:58 03.02.2020
3208 Clear 9 1011 23 16093 3.1 0 14:39 03.02.2020
3209 Clear 9 1011 23 16093 3.1 0 14:21 03.02.2020
3210 Clear 9 1010 25 16093 3.6 320 13:54 03.02.2020
3211 Clear 9 1010 25 16093 3.6 320 13:36 03.02.2020
3212 Clear 9 1010 25 16093 3.6 320 13:18 03.02.2020
3213 Clear 10 1010 24 16093 3.6 340 12:40 03.02.2020
3214 Clear 10 1010 24 16093 3.6 340 12:21 03.02.2020
3215 Clouds 10 1010 71 16093 3.6 90 11:57 03.02.2020
3216 Clouds 11 1010 24 16093 3.6 320 11:37 03.02.2020
3217 Clouds 11 1010 24 16093 3.6 320 11:18 03.02.2020
3218 Clouds 11 1010 24 16093 3.6 320 11:18 03.02.2020
3219 Rain 12 1010 82 16093 2.25 318 10:41 03.02.2020
3220 Rain 12 1011 22 16093 3.1 0 10:23 03.02.2020
3221 Rain 12 1011 22 16093 3.1 0 10:23 03.02.2020
3222 Clouds 12 1011 19 16093 2.6 0 09:49 03.02.2020
3223 Clouds 12 1011 19 16093 2.6 0 09:27 03.02.2020
3224 Clouds 13 1011 82 16093 2.25 318 08:58 03.02.2020
3225 Clear 13 1011 21 16093 2.6 340 08:40 03.02.2020
3226 Clear 13 1011 21 16093 2.6 340 08:21 03.02.2020
3227 Clouds 13 1011 82 16093 2.32 159 07:41 03.02.2020
3228 Clouds 13 1011 63 16093 2.32 159 07:22 03.02.2020
3229 Clouds 13 1011 63 16093 2.32 159 07:22 03.02.2020
3230 Clear 13 1011 35 16093 4.1 340 06:55 03.02.2020
3231 Clouds 13 1010 67 16093 2.1 170 06:30 03.02.2020
3232 Clouds 13 1011 63 16093 2.32 159 05:51 03.02.2020
3233 Clouds 13 1011 72 16093 2.32 159 05:31 03.02.2020
3234 Clouds 13 1011 72 16093 1.5 140 04:35 03.02.2020
3235 Clouds 14 1011 72 16093 3.6 220 02:38 03.02.2020
3236 Clouds 15 1011 67 16093 2.6 260 02:20 03.02.2020
3237 Clouds 17 1011 77 16093 3.6 190 00:49 03.02.2020
3238 Clear 17 1012 59 16093 2.6 260 00:26 03.02.2020
3239 Clouds 18 1013 67 16093 6.2 250 23:55 02.02.2020
3240 Clear 19 1012 56 16093 3.99 170 23:36 02.02.2020
3241 Clear 19 1012 56 16093 3.45 185 23:18 02.02.2020
3242 Clear 20 1013 52 16093 2.1 0 22:39 02.02.2020
3243 Clear 20 1013 52 16093 2.1 0 22:21 02.02.2020
3244 Clear 20 1014 40 14484 2.1 90 21:57 02.02.2020
3245 Clear 20 1014 40 14484 2.1 90 21:38 02.02.2020
3246 Clear 20 1014 40 14484 2.1 90 21:38 02.02.2020
3247 Clear 20 1014 40 14484 2.1 90 21:20 02.02.2020
3248 Clear 20 1015 43 16093 1.5 0 20:57 02.02.2020
3249 Clear 20 1015 43 16093 1.5 0 20:39 02.02.2020
3250 Clear 19 1015 43 16093 1.5 0 20:20 02.02.2020
3251 Clear 19 1015 43 16093 1.5 0 20:20 02.02.2020
3252 Clear 19 1016 52 16093 2.1 0 19:57 02.02.2020
3253 Clear 19 1016 52 16093 2.1 0 19:38 02.02.2020
3254 Clear 18 1016 52 16093 2.1 0 19:20 02.02.2020
3255 Mist 18 1016 93 2414 1.5 130 18:55 02.02.2020
3256 Clear 18 1016 39 16093 2.52 178 18:37 02.02.2020
3257 Clear 17 1016 39 16093 2.52 178 18:18 02.02.2020
3258 Fog 16 1015 93 402 2.1 110 17:57 02.02.2020
3259 Mist 15 1016 81 3219 1.5 140 17:37 02.02.2020
3260 Mist 13 1016 81 3219 1.5 140 17:18 02.02.2020
3261 Clear 12 1015 50 16093 1.06 127 16:56 02.02.2020
3262 Clear 12 1015 50 16093 1.06 127 16:37 02.02.2020
3263 Clear 11 1015 50 16093 1.06 127 16:18 02.02.2020
3264 Clear 10 1015 47 16093 1.06 127 15:54 02.02.2020
3265 Clear 11 1015 47 16093 1.06 127 15:36 02.02.2020
3266 Clear 11 1015 47 16093 1.06 127 15:18 02.02.2020
3267 Clear 11 1014 38 16093 1.5 20 14:41 02.02.2020
3268 Clear 12 1014 38 16093 1.5 20 14:19 02.02.2020
3269 Clear 12 1015 44 16093 1.5 360 13:58 02.02.2020
3270 Clear 12 1015 44 16093 1.5 360 13:39 02.02.2020
3271 Clear 12 1015 44 16093 1.5 360 13:20 02.02.2020
3272 Clear 12 1015 36 16093 0.09 334 12:56 02.02.2020
3273 Clear 12 1015 36 16093 0.09 334 12:37 02.02.2020
3274 Clear 12 1015 36 16093 0.37 125 12:18 02.02.2020
3275 Clear 13 1017 26 16093 2.6 10 11:42 02.02.2020
3276 Clear 13 1016 34 16093 1.5 30 11:19 02.02.2020
3277 Clear 13 1017 36 16093 1.5 360 10:57 02.02.2020
3278 Clear 13 1017 36 16093 1.5 360 10:38 02.02.2020
3279 Clear 13 1017 36 16093 1.5 360 10:20 02.02.2020
3280 Clear 14 1017 39 16093 1.5 10 09:57 02.02.2020
3281 Clear 14 1017 39 16093 1.5 10 09:39 02.02.2020
3282 Clear 14 1017 39 16093 1.5 10 09:20 02.02.2020
3283 Clear 14 1018 51 16093 0.23 308 08:44 02.02.2020
3284 Clear 15 1018 51 16093 0.23 308 08:26 02.02.2020
3285 Clear 15 1018 59 16093 0.45 54 07:47 02.02.2020
3286 Clear 15 1018 59 16093 0.45 54 07:29 02.02.2020
3287 Clear 16 1018 52 16093 0.45 54 06:46 02.02.2020
3288 Clear 16 1018 52 16093 0.45 54 06:28 02.02.2020
3289 Clear 17 1019 42 16093 0.45 54 05:52 02.02.2020
3290 Clear 17 1019 34 16093 1.01 290 04:58 02.02.2020
3291 Clear 19 1019 67 16093 2.1 200 03:41 02.02.2020
3292 Clear 21 1019 20 16093 1.5 280 02:42 02.02.2020
3293 Clear 25 1019 21 16093 3.6 260 01:57 02.02.2020
3294 Clear 25 1019 21 16093 3.6 260 01:36 02.02.2020
3295 Clear 26 1019 23 16093 2.6 280 00:49 02.02.2020
3296 Clear 26 1019 23 16093 2.6 280 00:24 02.02.2020
3297 Clear 26 1020 13 16093 2.56 249 23:55 01.02.2020
3298 Clear 26 1020 13 16093 2.56 249 23:37 01.02.2020
3299 Clear 27 1020 13 16093 1.2 256 23:18 01.02.2020
3300 Haze 27 1021 26 2414 2.6 290 22:42 01.02.2020
3301 Clear 27 1021 13 16093 1.2 256 22:18 01.02.2020
3302 Clear 27 1021 13 16093 1.2 256 22:18 01.02.2020
3303 Clear 27 1022 15 16093 1.2 256 21:40 01.02.2020
3304 Clear 26 1022 15 16093 1.2 256 21:19 01.02.2020
3305 Clear 25 1023 13 16093 1.2 256 20:55 01.02.2020
3306 Clear 25 1023 13 16093 1.2 256 20:36 01.02.2020
3307 Clear 24 1023 17 16093 0.63 163 20:18 01.02.2020
3308 Clear 23 1024 22 16093 1.5 20 19:54 01.02.2020
3309 Clear 23 1024 22 16093 1.5 20 19:36 01.02.2020
3310 Clear 22 1024 17 16093 0.63 163 19:18 01.02.2020
3311 Clear 21 1024 26 16093 0.63 163 18:55 01.02.2020
3312 Clear 20 1024 26 16093 0.63 163 18:36 01.02.2020
3313 Clear 19 1024 26 16093 0.63 163 18:18 01.02.2020
3314 Clear 17 1024 17 16093 1.5 10 17:45 01.02.2020
3315 Clear 15 1024 22 16093 1.5 10 17:21 01.02.2020
3316 Clear 14 1025 53 16093 0.74 21 16:59 01.02.2020
3317 Clear 12 1024 31 16093 2.1 20 16:39 01.02.2020
3318 Clear 12 1024 31 16093 2.1 20 16:20 01.02.2020
3319 Clear 12 1023 29 16093 1.5 20 15:45 01.02.2020
3320 Clear 12 1023 29 16093 1.5 20 15:27 01.02.2020
3321 Clear 12 1023 41 16093 1.5 360 14:58 01.02.2020
3322 Clear 12 1023 41 16093 1.5 360 14:39 01.02.2020
3323 Clear 12 1023 41 16093 1.5 360 14:20 01.02.2020
3324 Clear 13 1023 50 16093 0.94 27 13:45 01.02.2020
3325 Clear 12 1023 50 16093 0.94 27 13:21 01.02.2020
3326 Clear 12 1023 44 16093 1.01 27 12:44 01.02.2020
3327 Clear 13 1023 44 16093 1.01 27 12:26 01.02.2020
3328 Clear 13 1023 38 16093 1.01 27 11:58 01.02.2020
3329 Clear 13 1023 38 16093 1.01 27 11:38 01.02.2020
3330 Clear 13 1023 38 16093 1.15 35 11:19 01.02.2020
3331 Clear 14 1023 34 16093 1.15 35 10:56 01.02.2020
3332 Clear 13 1023 34 16093 1.15 35 10:38 01.02.2020
3333 Clear 13 1023 34 16093 1.15 35 10:20 01.02.2020
3334 Clear 14 1023 34 16093 1.5 10 09:54 01.02.2020
3335 Clear 14 1023 34 16093 1.5 10 09:36 01.02.2020
3336 Clear 14 1023 34 16093 1.5 10 09:18 01.02.2020
3337 Clear 15 1024 42 16093 1.15 35 08:40 01.02.2020
3338 Clear 15 1023 36 16093 0.92 95 07:48 01.02.2020
3339 Clear 15 1023 36 16093 0.92 95 07:25 01.02.2020
3340 Clear 16 1023 39 16093 0.92 95 06:54 01.02.2020
3341 Clear 16 1023 39 16093 0.92 95 06:54 01.02.2020
3342 Clear 16 1023 39 16093 0.92 95 06:31 01.02.2020
3343 Clear 17 1023 34 16093 0.92 95 05:51 01.02.2020
3344 Clear 19 1022 24 16093 1.46 275 03:48 01.02.2020
3345 Clear 19 1022 24 16093 1.46 275 03:21 01.02.2020
3346 Clear 21 1022 23 16093 1.46 275 02:44 01.02.2020
3347 Clear 21 1022 23 16093 1.46 275 02:25 01.02.2020
3348 Clear 23 1022 19 16093 2.6 260 01:50 01.02.2020
3349 Clear 24 1022 19 16093 2.6 260 01:30 01.02.2020
3350 Clear 25 1022 19 16093 2.1 250 00:29 01.02.2020
3351 Clear 25 1023 22 16093 2.6 270 23:43 31.01.2020
3352 Clear 26 1022 18 16093 2.1 0 23:20 31.01.2020
3353 Clear 25 1024 16 16093 2.6 220 22:59 31.01.2020
3354 Clear 25 1024 16 16093 2.6 220 22:40 31.01.2020
3355 Clear 25 1022 18 16093 0.32 178 22:22 31.01.2020
3356 Clear 25 1023 14 16093 0.32 178 21:56 31.01.2020
3357 Clear 25 1023 14 16093 0.32 178 21:38 31.01.2020
3358 Clear 25 1023 14 16093 0.32 178 21:19 31.01.2020
3359 Clear 24 1024 22 16093 0.32 178 20:56 31.01.2020
3360 Clear 24 1024 22 16093 0.32 178 20:37 31.01.2020
3361 Clear 23 1024 19 16093 1.5 0 20:19 31.01.2020
3362 Clear 22 1024 20 16093 1.5 0 19:56 31.01.2020
3363 Clear 22 1024 20 16093 1.5 0 19:37 31.01.2020
3364 Clear 21 1024 20 16093 1.5 0 19:18 31.01.2020
3365 Clear 19 1024 29 16093 0.57 81 18:42 31.01.2020
3366 Clear 18 1024 29 16093 0.57 81 18:23 31.01.2020
3367 Clear 17 1025 38 16093 2.1 0 17:55 31.01.2020
3368 Clear 16 1024 41 16093 0.57 81 17:36 31.01.2020
3369 Clear 13 1024 41 16093 1.22 52 17:18 31.01.2020
3370 Clear 12 1023 53 16093 1.22 52 16:55 31.01.2020
3371 Clear 11 1023 53 16093 1.22 52 16:37 31.01.2020
3372 Clear 11 1023 53 16093 1.22 52 16:18 31.01.2020
3373 Clear 11 1022 57 16093 1.22 52 15:41 31.01.2020
3374 Clear 11 1022 57 16093 1.22 52 15:21 31.01.2020
3375 Clear 11 1021 53 16093 1.22 52 14:58 31.01.2020
3376 Clear 11 1021 53 16093 1.22 52 14:39 31.01.2020
3377 Clear 11 1021 53 16093 1.58 21 14:20 31.01.2020
3378 Clear 11 1021 57 16093 1.58 21 13:43 31.01.2020
3379 Clear 11 1021 57 16093 1.58 21 13:25 31.01.2020
3380 Clear 11 1020 54 16093 1.82 17 12:45 31.01.2020
3381 Clear 12 1020 54 16093 1.82 17 12:26 31.01.2020
3382 Clear 11 1020 47 16093 1.82 17 11:56 31.01.2020
3383 Clear 12 1020 47 16093 1.4 8 11:38 31.01.2020
3384 Clear 12 1020 47 16093 0.87 11 11:20 31.01.2020
3385 Clear 12 1020 50 16093 0.87 11 10:57 31.01.2020
3386 Clear 12 1020 50 16093 0.87 11 10:37 31.01.2020
3387 Clear 12 1020 50 16093 0.87 11 10:19 31.01.2020
3388 Clear 12 1020 50 16093 0.8 11 09:42 31.01.2020
3389 Clear 12 1020 50 16093 0.87 11 09:22 31.01.2020
3390 Clear 13 1020 47 16093 0.87 11 08:57 31.01.2020
3391 Clear 13 1020 47 16093 0.8 11 08:39 31.01.2020
3392 Clear 14 1020 47 16093 0.94 23 08:20 31.01.2020
3393 Clear 14 1020 38 16093 0.94 23 07:49 31.01.2020
3394 Clear 14 1020 38 16093 0.94 23 07:19 31.01.2020
3395 Clear 14 1020 31 16093 0.94 23 06:37 31.01.2020
3396 Clear 14 1019 29 16093 0.94 23 05:56 31.01.2020
3397 Clear 14 1019 29 16093 0.94 23 05:26 31.01.2020
3398 Clear 15 1019 27 16093 0.66 210 04:36 31.01.2020
3399 Clear 17 1018 26 16093 0.66 210 02:50 31.01.2020
3400 Clear 20 1018 26 16093 1.5 280 01:31 31.01.2020
3401 Clear 21 1018 21 16093 4.1 150 00:40 31.01.2020
3402 Clear 21 1018 18 16093 1.5 0 00:22 31.01.2020
3403 Clear 21 1018 10 16093 2.6 260 23:42 30.01.2020
3404 Clear 22 1018 10 16093 2.6 260 23:23 30.01.2020
3405 Clear 22 1018 20 16093 1.29 191 22:39 30.01.2020
3406 Clear 22 1018 20 16093 1.29 191 22:21 30.01.2020
3407 Clear 21 1019 14 16093 1.29 191 21:59 30.01.2020
3408 Clear 22 1019 13 16093 1.29 191 21:40 30.01.2020
3409 Clear 22 1019 13 16093 1.29 191 21:19 30.01.2020
3410 Clear 21 1020 19 16093 1.29 191 20:57 30.01.2020
3411 Clear 21 1020 15 16093 1.29 191 20:38 30.01.2020
3412 Clear 20 1020 15 16093 1.02 94 20:20 30.01.2020
3413 Clear 19 1020 18 16093 1.02 94 19:44 30.01.2020
3414 Clear 19 1020 18 16093 1.02 94 19:19 30.01.2020
3415 Clear 18 1020 18 16093 1.02 94 19:19 30.01.2020
3416 Clear 18 1019 22 16093 1.02 94 18:59 30.01.2020
3417 Clear 18 1019 22 16093 1.02 94 18:38 30.01.2020
3418 Clear 16 1019 22 16093 1.02 94 18:19 30.01.2020
3419 Clouds 15 1019 47 16093 1.02 94 17:54 30.01.2020
3420 Clouds 15 1019 47 16093 1.02 94 17:36 30.01.2020
3421 Clear 12 1019 28 16093 1.5 30 17:18 30.01.2020
3422 Clear 11 1019 30 16093 1.5 20 16:40 30.01.2020
3423 Clear 10 1019 30 16093 1.5 20 16:21 30.01.2020
3424 Clear 10 1019 37 16093 1.42 38 15:58 30.01.2020
3425 Clear 10 1019 37 16093 1.42 38 15:40 30.01.2020
3426 Clear 10 1019 37 16093 1.42 38 15:19 30.01.2020
3427 Clear 10 1019 30 16093 1.42 38 14:43 30.01.2020
3428 Clear 11 1019 30 16093 1.1 40 14:25 30.01.2020
3429 Clear 11 1018 37 16093 1.1 40 13:43 30.01.2020
3430 Clear 11 1018 37 16093 1.2 1 13:24 30.01.2020
3431 Clear 11 1019 32 16093 1.2 1 12:58 30.01.2020
3432 Clear 11 1019 32 16093 1.2 1 12:39 30.01.2020
3433 Clear 11 1019 32 16093 1.2 1 12:21 30.01.2020
3434 Clear 12 1018 30 16093 1.2 1 11:41 30.01.2020
3435 Clear 12 1018 30 16093 1.2 1 11:23 30.01.2020
3436 Clear 12 1019 35 16093 1.53 19 10:59 30.01.2020
3437 Clear 13 1019 35 16093 1.53 19 10:41 30.01.2020
3438 Clear 13 1019 35 16093 1.53 19 10:21 30.01.2020
3439 Clear 13 1019 35 16093 1.53 19 09:47 30.01.2020
3440 Clear 13 1019 35 16093 1.53 19 09:28 30.01.2020
3441 Clear 14 1018 31 16093 1.53 19 08:57 30.01.2020
3442 Clear 14 1018 31 16093 1.53 19 08:37 30.01.2020
3443 Clear 14 1018 31 16093 2.21 359 08:18 30.01.2020
3444 Clear 15 1018 27 16093 2.21 359 07:48 30.01.2020
3445 Clear 15 1018 27 16093 2.21 359 07:20 30.01.2020
3446 Clear 16 1018 27 16093 2.21 359 06:47 30.01.2020
3447 Clear 16 1018 27 16093 2.21 359 06:27 30.01.2020
3448 Clear 16 1017 20 16093 2.21 359 05:43 30.01.2020
3449 Clear 17 1017 20 16093 1.5 32 05:19 30.01.2020
3450 Clear 18 1015 21 16093 1.5 32 03:53 30.01.2020
3451 Clear 18 1015 21 16093 1.5 32 03:35 30.01.2020
3452 Clear 19 1014 18 16093 1.5 70 02:19 30.01.2020
3453 Clear 21 1013 9 16093 2.1 0 00:42 30.01.2020
3454 Clear 22 1013 9 16093 2.1 0 00:20 30.01.2020
3455 Clouds 22 1014 13 16093 4.1 300 23:46 29.01.2020
3456 Clear 22 1014 9 16093 4.1 340 23:21 29.01.2020
3457 Clear 22 1014 14 16093 2.1 0 22:57 29.01.2020
3458 Clear 22 1014 14 16093 2.1 0 22:38 29.01.2020
3459 Clear 21 1014 14 16093 2.1 0 22:19 29.01.2020
3460 Clear 21 1015 12 16093 4.6 350 21:57 29.01.2020
3461 Clear 21 1015 12 16093 4.6 350 21:38 29.01.2020
3462 Clear 21 1016 12 16093 3.6 330 21:19 29.01.2020
3463 Clear 21 1016 12 16093 3.6 330 21:19 29.01.2020
3464 Clear 20 1017 15 16093 3.6 340 20:58 29.01.2020
3465 Clear 20 1017 15 16093 3.6 340 20:58 29.01.2020
3466 Clear 20 1017 15 16093 3.6 340 20:38 29.01.2020
3467 Clear 20 1017 15 16093 3.6 340 20:38 29.01.2020
3468 Clear 19 1018 21 16093 3.6 350 20:19 29.01.2020
3469 Clear 18 1017 21 16093 2.1 0 19:56 29.01.2020
3470 Clear 18 1017 28 16093 4.6 260 19:37 29.01.2020
3471 Clear 18 1018 51 16093 2.1 110 19:37 29.01.2020
3472 Clear 17 1018 51 16093 2.1 110 19:18 29.01.2020
3473 Clear 16 1017 42 16093 1.5 150 18:46 29.01.2020
3474 Clear 15 1017 42 16093 1.5 150 18:19 29.01.2020
3475 Clear 14 1017 28 16093 2.1 0 17:58 29.01.2020
3476 Clear 14 1017 28 16093 2.1 0 17:39 29.01.2020
3477 Clear 12 1017 43 16093 2.1 0 17:20 29.01.2020
3478 Clear 11 1016 36 16093 1.5 0 16:41 29.01.2020
3479 Clear 11 1016 36 16093 1.5 0 16:23 29.01.2020
3480 Clear 10 1016 43 16093 0.51 87 15:56 29.01.2020
3481 Clear 10 1016 43 16093 0.51 87 15:37 29.01.2020
3482 Clear 10 1016 43 16093 0.51 87 15:18 29.01.2020
3483 Clear 11 1016 43 16093 2.1 300 14:43 29.01.2020
3484 Clear 11 1016 40 16093 2.1 300 14:20 29.01.2020
3485 Clear 10 1016 40 16093 0.23 33 13:55 29.01.2020
3486 Clear 10 1016 40 16093 0.23 33 13:36 29.01.2020
3487 Clear 10 1016 76 16093 2.6 110 13:18 29.01.2020
3488 Clear 10 1016 27 16093 0.57 173 12:55 29.01.2020
3489 Clear 11 1016 27 16093 0.57 173 12:37 29.01.2020
3490 Clear 11 1017 76 16093 1.5 80 12:18 29.01.2020
3491 Clouds 11 1017 25 16093 6.2 320 11:44 29.01.2020
3492 Clear 12 1016 25 16093 0.86 137 11:20 29.01.2020
3493 Clear 11 1017 40 16093 0.86 137 10:46 29.01.2020
3494 Clear 11 1016 45 16093 5.1 310 10:25 29.01.2020
3495 Clear 12 1017 25 16093 3.6 250 09:58 29.01.2020
3496 Clear 12 1017 25 16093 3.6 250 09:40 29.01.2020
3497 Clear 12 1017 25 16093 3.1 0 09:20 29.01.2020
3498 Clear 12 1017 45 16093 0.86 137 08:56 29.01.2020
3499 Clear 12 1017 45 16093 0.86 137 08:37 29.01.2020
3500 Clear 13 1017 27 16093 1.5 40 08:18 29.01.2020
3501 Clear 13 1018 29 16093 3.6 60 07:43 29.01.2020
3502 Clear 13 1017 51 16093 0.83 217 07:21 29.01.2020
3503 Clear 14 1017 23 16093 0.83 217 06:38 29.01.2020
3504 Clear 14 1017 23 16093 0.83 217 06:19 29.01.2020
3505 Clear 14 1017 22 16093 1.5 0 05:52 29.01.2020
3506 Clear 14 1017 22 16093 1.5 0 05:33 29.01.2020
3507 Clear 15 1019 17 16093 10.3 280 04:39 29.01.2020
3508 Clear 15 1018 55 16093 0.79 232 03:59 29.01.2020
3509 Clear 17 1018 28 16093 3.1 250 02:39 29.01.2020
3510 Clear 20 1018 28 16093 2.6 260 01:27 29.01.2020
3511 Clear 21 1018 27 16093 2.1 0 00:39 29.01.2020
3512 Clear 21 1018 27 16093 2.1 0 00:21 29.01.2020
3513 Clear 22 1018 27 16093 2.83 235 23:41 28.01.2020
3514 Clear 22 1018 27 16093 1.74 243 23:20 28.01.2020
3515 Clear 22 1019 29 16093 1.74 243 22:56 28.01.2020
3516 Clear 22 1019 29 16093 1.74 243 22:56 28.01.2020
3517 Clear 22 1019 29 16093 1.74 243 22:36 28.01.2020
3518 Clear 22 1019 29 16093 1.74 243 22:18 28.01.2020
3519 Clear 22 1019 29 16093 1.74 243 22:18 28.01.2020
3520 Clear 22 1021 25 16093 1.5 250 21:39 28.01.2020
3521 Clear 22 1021 25 16093 1.5 250 21:20 28.01.2020
3522 Clear 21 1022 24 16093 1.74 243 20:46 28.01.2020
3523 Clear 20 1022 24 16093 2.06 246 20:28 28.01.2020
3524 Clear 19 1022 30 16093 0.81 242 19:58 28.01.2020
3525 Clear 19 1022 30 16093 0.81 242 19:38 28.01.2020
3526 Clear 18 1022 30 16093 0.81 242 19:19 28.01.2020
3527 Clear 18 1022 36 16093 0.81 242 18:57 28.01.2020
3528 Clear 17 1022 36 16093 0.81 242 18:38 28.01.2020
3529 Clear 17 1022 36 16093 0.81 242 18:20 28.01.2020
3530 Clear 15 1022 38 12874 2.1 30 17:55 28.01.2020
3531 Clear 15 1022 38 12874 2.1 30 17:36 28.01.2020
3532 Clear 12 1022 38 12874 2.1 30 17:18 28.01.2020
3533 Clear 11 1022 33 16093 0.66 32 16:45 28.01.2020
3534 Clear 11 1022 33 16093 0.66 32 16:27 28.01.2020
3535 Mist 10 1022 87 1609 0.66 32 15:59 28.01.2020
3536 Clear 10 1021 50 16093 0.66 32 15:40 28.01.2020
3537 Clear 10 1021 50 16093 0.66 32 15:18 28.01.2020
3538 Clouds 11 1021 76 12874 0.66 32 14:45 28.01.2020
3539 Clear 11 1021 38 16093 1.5 30 14:20 28.01.2020
3540 Clear 11 1021 50 16093 1.5 10 13:57 28.01.2020
3541 Clear 11 1021 50 16093 1.5 10 13:38 28.01.2020
3542 Clear 11 1021 50 16093 1.5 10 13:19 28.01.2020
3543 Clear 11 1021 50 16093 0.75 21 12:42 28.01.2020
3544 Clear 12 1021 50 16093 0.75 21 12:22 28.01.2020
3545 Clear 12 1022 38 16093 1.5 100 11:48 28.01.2020
3546 Clear 12 1022 38 16093 1.5 100 11:23 28.01.2020
3547 Clear 12 1022 36 16093 1.21 13 10:58 28.01.2020
3548 Clear 13 1022 36 16093 1.21 13 10:39 28.01.2020
3549 Clear 13 1022 36 16093 1.21 13 10:20 28.01.2020
3550 Clear 13 1022 33 16093 1.21 13 09:43 28.01.2020
3551 Clear 13 1022 33 16093 1.21 13 09:21 28.01.2020
3552 Clear 13 1022 34 16093 1.5 340 08:58 28.01.2020
3553 Clear 13 1022 34 16093 1.5 340 08:39 28.01.2020
3554 Clear 13 1022 34 16093 1.5 340 08:19 28.01.2020
3555 Clear 13 1023 31 16093 2.6 20 07:37 28.01.2020
3556 Clear 14 1022 36 16093 1.5 80 06:50 28.01.2020
3557 Clear 14 1022 36 16093 1.5 80 06:26 28.01.2020
3558 Clear 15 1022 32 16093 1.5 360 05:54 28.01.2020
3559 Clear 15 1022 32 16093 1.5 360 05:27 28.01.2020
3560 Clear 16 1022 59 16093 1.5 110 04:30 28.01.2020
3561 Clear 17 1021 52 16093 0.44 299 02:58 28.01.2020
3562 Clear 18 1021 52 16093 1.39 226 02:25 28.01.2020
3563 Clear 18 1021 52 16093 0.44 299 02:25 28.01.2020
3564 Clear 19 1021 49 16093 1.39 226 01:57 28.01.2020
3565 Clear 19 1021 49 16093 1.39 226 01:32 28.01.2020
3566 Clear 20 1021 43 16093 1.66 227 00:51 28.01.2020
3567 Clear 20 1021 43 16093 1.66 227 00:29 28.01.2020
3568 Clear 21 1021 46 16093 2.6 260 23:51 27.01.2020
3569 Clear 21 1021 46 16093 2.6 260 23:30 27.01.2020
3570 Clear 20 1021 23 16093 4.1 350 22:59 27.01.2020
3571 Clear 20 1022 40 11265 1.52 232 22:40 27.01.2020
3572 Clear 20 1022 40 11265 1.52 232 22:20 27.01.2020
3573 Haze 20 1022 45 8047 1.52 232 21:56 27.01.2020
3574 Haze 19 1022 45 8047 1.52 232 21:37 27.01.2020
3575 Haze 19 1022 45 8047 1.52 232 21:18 27.01.2020
3576 Haze 18 1024 63 12874 2.1 260 20:54 27.01.2020
3577 Haze 18 1024 63 12874 2.1 260 20:36 27.01.2020
3578 Haze 17 1023 55 6437 0.84 175 20:18 27.01.2020
3579 Haze 16 1023 59 6437 0.65 185 19:41 27.01.2020
3580 Haze 16 1023 59 6437 0.65 185 19:23 27.01.2020
3581 Haze 15 1024 81 4828 2.1 180 18:56 27.01.2020
3582 Haze 14 1023 71 4828 1.5 90 18:38 27.01.2020
3583 Haze 13 1023 71 4828 1.5 90 18:20 27.01.2020
3584 Haze 12 1023 76 4828 0.65 185 17:40 27.01.2020
3585 Haze 10 1023 81 4828 0.19 142 17:21 27.01.2020
3586 Mist 9 1023 87 3219 0.19 142 16:59 27.01.2020
3587 Mist 9 1023 87 3219 0.19 142 16:41 27.01.2020
3588 Mist 9 1023 87 3219 0.19 142 16:41 27.01.2020
3589 Haze 9 1023 76 6437 0.19 142 16:23 27.01.2020
3590 Rain 8 1023 93 2414 0.19 142 15:55 27.01.2020
3591 Rain 8 1023 93 402 0.19 142 15:37 27.01.2020
3592 Rain 8 1022 93 4828 3.1 110 15:19 27.01.2020
3593 Mist 9 1022 87 4828 0.19 142 14:54 27.01.2020
3594 Mist 9 1022 87 4828 0.19 142 14:36 27.01.2020
3595 Haze 9 1022 76 6437 1.5 70 14:18 27.01.2020
3596 Fog 9 1022 100 402 1.5 270 13:41 27.01.2020
3597 Haze 9 1021 81 4828 1.28 155 13:20 27.01.2020
3598 Haze 9 1022 81 4828 0.97 148 12:56 27.01.2020
3599 Haze 9 1022 81 6437 0.97 148 12:37 27.01.2020
3600 Haze 9 1022 82 6437 0.97 148 12:19 27.01.2020
3601 Mist 10 1021 93 4023 0.97 148 11:41 27.01.2020
3602 Mist 10 1022 81 4828 1.12 169 11:21 27.01.2020
3603 Mist 10 1022 81 4828 1.12 169 11:21 27.01.2020
3604 Mist 10 1022 87 6437 1.12 169 10:44 27.01.2020
3605 Mist 10 1022 87 4828 1.12 169 10:25 27.01.2020
3606 Mist 10 1022 100 4828 1.12 169 09:58 27.01.2020
3607 Mist 10 1022 93 4828 1.5 40 09:39 27.01.2020
3608 Mist 11 1022 93 4828 1.5 40 09:18 27.01.2020
3609 Haze 11 1022 82 9656 2.6 110 08:46 27.01.2020
3610 Haze 11 1022 82 8047 1.5 90 08:22 27.01.2020
3611 Haze 11 1021 82 8047 1.69 160 07:55 27.01.2020
3612 Haze 11 1022 81 3219 2.6 90 07:35 27.01.2020
3613 Haze 11 1021 76 8047 1.5 80 06:55 27.01.2020
3614 Haze 11 1021 82 9656 1.69 160 06:32 27.01.2020
3615 Mist 11 1021 93 8047 1.69 160 05:37 27.01.2020
3616 Haze 12 1021 82 8047 2.63 212 04:20 27.01.2020
3617 Clear 12 1020 76 12874 1.5 240 03:27 27.01.2020
3618 Clouds 14 1020 77 16093 1.5 0 01:42 27.01.2020
3619 Clouds 15 1020 63 12874 2.6 260 01:22 27.01.2020
3620 Haze 15 1020 59 6437 1.5 0 00:40 27.01.2020
3621 Haze 15 1019 63 8047 3.1 228 00:19 27.01.2020
3622 Haze 15 1020 72 9656 3.1 230 23:42 26.01.2020
3623 Haze 15 1020 59 4828 2.1 250 23:20 26.01.2020
3624 Haze 15 1020 59 4828 1.5 0 22:57 26.01.2020
3625 Haze 15 1020 59 4023 3.24 246 22:37 26.01.2020
3626 Haze 15 1020 59 4023 3.24 246 22:19 26.01.2020
3627 Haze 15 1020 59 4023 3.24 246 22:19 26.01.2020
3628 Haze 15 1020 71 9656 2.1 250 21:57 26.01.2020
3629 Haze 15 1020 71 9656 2.1 250 21:38 26.01.2020
3630 Haze 14 1021 76 9656 1.5 0 21:20 26.01.2020
3631 Haze 14 1022 71 4023 3.24 246 20:57 26.01.2020
3632 Haze 14 1022 71 4023 3.24 246 20:38 26.01.2020
3633 Haze 13 1022 76 4023 1.5 0 20:18 26.01.2020
3634 Haze 13 1022 72 4023 1.69 201 19:57 26.01.2020
3635 Haze 13 1022 72 4023 1.69 201 19:38 26.01.2020
3636 Haze 13 1022 72 4023 1.69 201 19:18 26.01.2020
3637 Haze 13 1021 76 4023 1.69 201 18:54 26.01.2020
3638 Haze 13 1022 67 3219 1.69 201 18:36 26.01.2020
3639 Haze 13 1022 71 4828 2.1 110 18:18 26.01.2020
3640 Haze 12 1022 71 3219 1.69 201 17:54 26.01.2020
3641 Haze 12 1021 81 4023 1.5 170 17:36 26.01.2020
3642 Haze 11 1021 76 3219 1.2 222 17:18 26.01.2020
3643 Haze 11 1021 71 3219 1.2 222 16:54 26.01.2020
3644 Haze 11 1021 76 4828 1.2 222 16:36 26.01.2020
3645 Haze 11 1021 76 4828 1.2 222 16:18 26.01.2020
3646 Haze 11 1021 76 6437 2.6 170 15:41 26.01.2020
3647 Haze 11 1020 76 8047 2.1 140 15:19 26.01.2020
3648 Haze 11 1020 71 8047 1.5 180 14:41 26.01.2020
3649 Fog 11 1020 100 0 1.5 300 14:23 26.01.2020
3650 Mist 11 1020 87 4023 2.1 170 13:59 26.01.2020
3651 Haze 11 1020 82 9656 1.5 220 13:38 26.01.2020
3652 Haze 11 1020 82 9656 1.5 220 13:18 26.01.2020
3653 Haze 11 1020 76 6437 1.5 90 12:43 26.01.2020
3654 Mist 11 1020 87 4023 1.5 190 12:43 26.01.2020
3655 Haze 11 1020 82 8047 0.9 240 12:25 26.01.2020
3656 Mist 11 1020 93 1609 1.5 250 11:59 26.01.2020
3657 Haze 11 1020 82 8047 0.9 240 11:40 26.01.2020
3658 Haze 11 1020 82 8047 0.94 180 11:19 26.01.2020
3659 Clear 12 1020 66 14484 0.94 180 10:59 26.01.2020
3660 Clear 12 1020 66 14484 0.94 180 10:39 26.01.2020
3661 Haze 12 1020 82 4023 0.94 180 10:21 26.01.2020
3662 Haze 12 1020 82 6437 0.94 180 09:59 26.01.2020
3663 Haze 12 1020 82 6437 0.94 180 09:41 26.01.2020
3664 Mist 12 1020 87 4023 1.5 170 09:22 26.01.2020
3665 Haze 12 1020 87 4023 0.94 180 08:55 26.01.2020
3666 Mist 12 1020 87 2414 3.6 120 08:37 26.01.2020
3667 Haze 12 1020 87 4023 1.24 204 08:18 26.01.2020
3668 Mist 12 1020 93 4828 2.6 110 07:45 26.01.2020
3669 Mist 12 1020 93 4828 2.6 110 07:45 26.01.2020
3670 Mist 12 1020 87 9656 1.24 204 07:22 26.01.2020
3671 Haze 12 1019 82 4023 1.24 204 06:34 26.01.2020
3672 Haze 13 1019 82 4828 1.24 204 05:52 26.01.2020
3673 Haze 13 1019 82 4828 1.54 223 05:22 26.01.2020
3674 Haze 15 1017 72 6437 1.54 223 03:22 26.01.2020
3675 Haze 16 1017 67 4828 1.5 0 02:23 26.01.2020
3676 Haze 18 1017 63 6437 1.5 260 01:40 26.01.2020
3677 Haze 18 1017 63 6437 1.5 260 01:20 26.01.2020
3678 Haze 19 1016 56 6437 2.6 260 00:40 26.01.2020
3679 Haze 19 1016 56 6437 2.6 260 00:20 26.01.2020
3680 Clear 20 1017 28 16093 2.6 248 23:38 25.01.2020
3681 Haze 20 1017 72 6437 3.1 210 23:20 25.01.2020
3682 Haze 20 1017 72 4828 2.6 220 22:44 25.01.2020
3683 Haze 20 1017 72 4828 2.6 220 22:21 25.01.2020
3684 Haze 20 1017 72 4828 2.6 220 21:59 25.01.2020
3685 Clear 19 1018 28 16093 2.6 240 21:41 25.01.2020
3686 Clear 19 1018 28 16093 2.6 240 21:22 25.01.2020
3687 Clear 22 1017 25 0 1.5 248 20:55 25.01.2020
3688 Haze 18 1019 82 4828 2.6 220 20:36 25.01.2020
3689 Clear 16 1018 32 16093 0.76 255 20:18 25.01.2020
3690 Clear 15 1017 38 0 0.45 298 19:42 25.01.2020
3691 Mist 15 1019 87 6437 0.76 255 19:20 25.01.2020
3692 Clear 14 1018 47 16093 1.5 150 18:57 25.01.2020
3693 Clear 14 1018 47 16093 1.5 150 18:57 25.01.2020
3694 Clear 15 1018 47 16093 1.5 150 18:38 25.01.2020
3695 Clear 13 1018 47 16093 1.5 150 18:20 25.01.2020
3696 Mist 13 1018 93 2012 1.5 280 17:40 25.01.2020
3697 Fog 11 1018 100 805 0.7 99 17:21 25.01.2020
3698 Fog 11 1018 100 805 0.57 85 16:58 25.01.2020
3699 Fog 10 1017 87 402 3.1 110 16:39 25.01.2020
3700 Mist 10 1017 87 2012 0.7 99 16:19 25.01.2020
3701 Clear 10 1017 50 16093 0.7 99 15:47 25.01.2020
3702 Clear 10 1017 50 16093 0.7 99 15:25 25.01.2020
3703 Fog 10 1017 93 805 0.7 99 14:59 25.01.2020
3704 Mist 10 1016 93 2816 0.7 99 14:40 25.01.2020
3705 Clouds 10 1016 43 16093 1.5 40 14:18 25.01.2020
3706 Fog 10 1017 100 805 2.1 300 13:42 25.01.2020
3707 Fog 10 1017 100 805 2.1 300 13:42 25.01.2020
3708 Fog 11 1017 100 805 2.1 300 13:23 25.01.2020
3709 Mist 11 1017 93 2012 0.58 340 12:46 25.01.2020
3710 Mist 11 1017 93 2012 0.58 340 12:26 25.01.2020
3711 Mist 11 1017 100 2414 0.58 340 11:46 25.01.2020
3712 Mist 11 1016 93 3219 1.5 110 11:22 25.01.2020
3713 Fog 11 1016 87 0 0.26 210 10:59 25.01.2020
3714 Fog 11 1016 87 0 0.26 210 10:40 25.01.2020
3715 Mist 11 1017 93 1609 0.26 210 10:21 25.01.2020
3716 Mist 11 1016 93 1207 0.26 210 09:57 25.01.2020
3717 Mist 11 1016 93 3219 2.1 120 09:37 25.01.2020
3718 Mist 11 1016 93 3219 2.1 120 09:18 25.01.2020
3719 Fog 12 1016 93 402 3.6 100 08:42 25.01.2020
3720 Mist 12 1017 87 1207 0.51 155 07:51 25.01.2020
3721 Mist 12 1016 87 1207 0.51 155 06:57 25.01.2020
3722 Mist 12 1016 87 1207 2.1 90 06:31 25.01.2020
3723 Fog 13 1016 87 805 2.1 140 05:50 25.01.2020
3724 Clear 14 1016 77 16093 1.15 204 05:28 25.01.2020
3725 Mist 15 1015 93 4023 1.15 204 03:55 25.01.2020
3726 Clear 15 1014 68 16093 1.15 204 03:34 25.01.2020
3727 Clear 18 1014 56 16093 2.84 214 02:24 25.01.2020
3728 Clear 19 1014 52 16093 2.84 214 01:54 25.01.2020
3729 Clear 20 1014 49 16093 1.5 0 00:59 25.01.2020
3730 Clear 20 1014 49 16093 1.5 0 00:37 25.01.2020
3731 Clear 21 1014 49 16093 1.5 0 00:18 25.01.2020
3732 Clear 21 1014 49 16093 1.5 0 00:18 25.01.2020
3733 Clear 21 1015 22 16093 6.7 260 23:41 24.01.2020
3734 Clear 21 1015 22 16093 6.7 260 23:41 24.01.2020
3735 Clear 21 1015 22 16093 6.7 260 23:41 24.01.2020
3736 Clear 21 1015 22 16093 6.7 260 23:23 24.01.2020
3737 Clear 21 1015 23 16093 2.1 100 22:46 24.01.2020
3738 Clear 21 1015 29 16093 1.5 250 22:27 24.01.2020
3739 Clear 21 1016 28 16093 1.5 250 21:57 24.01.2020
3740 Clear 21 1016 28 16093 1.5 250 21:39 24.01.2020
3741 Clear 21 1016 28 16093 1.5 250 21:18 24.01.2020
3742 Clear 20 1017 35 16093 1.97 206 20:43 24.01.2020
3743 Clear 20 1017 35 16093 1.03 171 20:22 24.01.2020
3744 Clear 19 1017 40 16093 0.75 197 19:58 24.01.2020
3745 Clear 19 1017 40 16093 0.75 197 19:40 24.01.2020
3746 Clear 18 1017 40 16093 0.75 197 19:22 24.01.2020
3747 Clear 17 1017 51 16093 0.75 197 18:54 24.01.2020
3748 Clear 17 1017 51 16093 0.75 197 18:36 24.01.2020
3749 Clear 16 1017 51 16093 0.75 197 18:18 24.01.2020
3750 Clear 14 1017 66 16093 0.75 197 17:42 24.01.2020
3751 Clear 12 1017 66 16093 0.75 73 17:21 24.01.2020
3752 Clear 10 1016 71 16093 0.75 73 16:43 24.01.2020
3753 Clear 10 1016 71 16093 0.75 73 16:22 24.01.2020
3754 Clear 10 1016 71 16093 0.75 73 16:22 24.01.2020
3755 Clear 10 1016 66 16093 0.75 73 15:57 24.01.2020
3756 Clear 10 1016 66 16093 0.75 73 15:39 24.01.2020
3757 Clear 10 1016 66 16093 0.75 73 15:20 24.01.2020
3758 Clear 10 1016 71 16093 0.75 73 14:41 24.01.2020
3759 Clear 10 1016 71 16093 0.41 211 14:23 24.01.2020
3760 Clear 10 1016 76 16093 0.41 211 13:57 24.01.2020
3761 Clear 10 1016 76 16093 0.41 211 13:39 24.01.2020
3762 Clear 11 1016 76 16093 0.16 257 13:19 24.01.2020
3763 Clear 11 1016 76 16093 0.16 257 12:41 24.01.2020
3764 Clear 11 1016 76 16093 0.16 257 12:18 24.01.2020
3765 Clear 11 1016 76 16093 0.16 257 11:43 24.01.2020
3766 Clear 11 1016 76 16093 0.32 80 11:19 24.01.2020
3767 Clear 12 1017 82 14484 0.32 80 10:43 24.01.2020
3768 Clear 12 1017 82 14484 0.32 80 10:23 24.01.2020
3769 Clear 12 1017 82 14484 0.32 80 10:23 24.01.2020
3770 Clear 12 1017 82 16093 0.32 80 09:57 24.01.2020
3771 Clear 12 1017 82 16093 0.32 80 09:39 24.01.2020
3772 Clear 12 1017 82 16093 0.32 80 09:21 24.01.2020
3773 Clear 13 1017 82 16093 0.32 80 08:41 24.01.2020
3774 Clear 13 1017 82 16093 0.83 91 08:20 24.01.2020
3775 Clear 13 1018 82 16093 0.83 91 07:53 24.01.2020
3776 Clear 13 1018 82 16093 0.83 91 07:35 24.01.2020
3777 Clear 13 1017 72 16093 0.83 91 06:48 24.01.2020
3778 Clear 13 1017 72 16093 0.83 91 06:29 24.01.2020
3779 Clear 14 1017 77 16093 0.83 91 05:59 24.01.2020
3780 Clear 14 1017 77 16093 0.07 141 05:18 24.01.2020
3781 Clear 17 1016 56 16093 0.07 141 02:54 24.01.2020
3782 Clear 18 1016 56 16093 0.07 141 02:26 24.01.2020
3783 Clear 20 1017 43 16093 3.6 270 01:49 24.01.2020
3784 Clear 20 1017 43 16093 3.6 270 01:31 24.01.2020
3785 Clear 21 1017 43 16093 1.5 0 00:31 24.01.2020
3786 Clear 21 1017 29 16093 3.6 200 23:56 23.01.2020
3787 Clear 21 1017 29 16093 3.6 200 23:37 23.01.2020
3788 Clear 21 1017 29 16093 3.6 200 23:18 23.01.2020
3789 Clear 22 1018 36 16093 1.5 0 22:39 23.01.2020
3790 Clear 22 1018 36 16093 1.5 0 22:19 23.01.2020
3791 Clear 22 1018 49 16093 2.6 260 21:58 23.01.2020
3792 Clear 22 1018 49 16093 2.6 260 21:39 23.01.2020
3793 Clear 21 1019 35 16093 1.5 250 21:21 23.01.2020
3794 Clear 21 1020 52 16093 3.1 270 20:59 23.01.2020
3795 Clear 21 1020 52 16093 3.1 270 20:39 23.01.2020
3796 Clear 19 1020 40 16093 0.3 169 20:21 23.01.2020
3797 Clear 19 1021 32 16093 4.6 340 19:56 23.01.2020
3798 Clear 19 1021 32 16093 4.6 340 19:38 23.01.2020
3799 Clear 18 1021 48 16093 0.3 169 19:20 23.01.2020
3800 Clear 17 1021 48 16093 0.3 169 18:56 23.01.2020
3801 Clear 16 1021 63 16093 0.3 169 18:37 23.01.2020
3802 Clear 15 1021 63 16093 0.3 169 18:19 23.01.2020
3803 Clear 14 1021 47 16093 2.1 290 17:43 23.01.2020
3804 Clear 12 1021 71 16093 0.75 354 17:20 23.01.2020
3805 Clear 11 1021 50 16093 0.75 354 16:58 23.01.2020
3806 Clear 10 1021 50 16093 0.75 354 16:38 23.01.2020
3807 Clear 10 1021 76 14484 1.5 270 16:19 23.01.2020
3808 Clear 10 1020 71 16093 1.5 270 15:57 23.01.2020
3809 Clear 10 1020 71 16093 1.5 270 15:38 23.01.2020
3810 Clear 10 1020 76 12874 0.75 354 15:19 23.01.2020
3811 Clear 10 1020 66 16093 0.75 354 14:57 23.01.2020
3812 Clear 10 1020 66 16093 0.75 354 14:39 23.01.2020
3813 Clear 10 1020 66 16093 0.86 55 14:21 23.01.2020
3814 Clear 10 1020 76 12874 0.86 55 13:46 23.01.2020
3815 Clear 10 1020 76 12874 0.73 34 13:21 23.01.2020
3816 Clear 10 1020 71 11265 1.5 10 12:57 23.01.2020
3817 Clear 9 1020 71 11265 1.5 10 12:39 23.01.2020
3818 Clear 10 1020 71 11265 1.5 10 12:20 23.01.2020
3819 Clear 10 1020 81 11265 1.01 40 11:45 23.01.2020
3820 Clear 10 1020 81 11265 1.01 40 11:25 23.01.2020
3821 Mist 10 1022 93 8047 0.46 356 10:59 23.01.2020
3822 Mist 10 1022 93 8047 0.46 356 10:41 23.01.2020
3823 Clear 10 1021 81 11265 0.72 350 10:19 23.01.2020
3824 Clear 10 1021 81 11265 0.72 350 10:19 23.01.2020
3825 Clear 10 1021 76 11265 0.72 350 09:41 23.01.2020
3826 Clear 10 1021 76 11265 0.72 350 09:22 23.01.2020
3827 Clear 10 1021 76 11265 0.72 350 08:57 23.01.2020
3828 Clear 10 1021 76 11265 0.46 356 08:38 23.01.2020
3829 Clear 10 1021 76 11265 0.69 279 08:19 23.01.2020
3830 Clear 11 1021 71 16093 3.1 30 07:42 23.01.2020
3831 Clear 11 1021 82 14484 0.69 279 07:21 23.01.2020
3832 Clear 11 1021 82 14484 0.69 279 07:21 23.01.2020
3833 Clear 11 1021 71 16093 2.1 30 06:44 23.01.2020
3834 Clear 11 1021 76 12874 0.69 279 06:19 23.01.2020
3835 Clear 12 1020 71 16093 2.6 360 04:44 23.01.2020
3836 Clear 13 1021 72 16093 2.6 260 04:21 23.01.2020
3837 Clear 16 1020 67 16093 2.63 217 01:58 23.01.2020
3838 Clear 17 1020 59 16093 1.5 0 00:56 23.01.2020
3839 Clear 17 1020 55 16093 3.05 208 00:26 23.01.2020
3840 Clear 17 1020 48 16093 3.05 208 23:47 22.01.2020
3841 Clear 17 1020 48 16093 3.05 208 23:29 22.01.2020
3842 Clouds 17 1020 72 16093 2.6 190 22:56 22.01.2020
3843 Clear 17 1020 52 16093 2.05 211 22:38 22.01.2020
3844 Clear 17 1020 52 16093 2.05 211 22:20 22.01.2020
3845 Clear 17 1021 62 14484 2.05 211 21:39 22.01.2020
3846 Clouds 16 1021 55 16093 1.5 0 21:21 22.01.2020
3847 Clouds 16 1022 67 16093 2.05 211 20:56 22.01.2020
3848 Clouds 16 1022 67 11265 2.1 250 20:37 22.01.2020
3849 Clear 15 1023 59 16093 1.77 192 20:18 22.01.2020
3850 Clouds 15 1022 67 16093 1.5 0 19:55 22.01.2020
3851 Clouds 15 1022 67 16093 1.5 0 19:37 22.01.2020
3852 Clear 14 1023 63 14484 1.5 100 19:18 22.01.2020
3853 Mist 14 1023 87 6437 1.77 192 18:56 22.01.2020
3854 Clear 13 1023 71 11265 1.77 192 18:37 22.01.2020
3855 Clear 12 1023 71 11265 1.77 192 18:19 22.01.2020
3856 Mist 11 1022 100 6437 1.77 192 17:40 22.01.2020
3857 Clear 10 1022 76 11265 1.27 131 17:21 22.01.2020
3858 Clear 9 1022 76 11265 1.27 131 16:58 22.01.2020
3859 Clear 9 1022 76 11265 1.27 131 16:40 22.01.2020
3860 Clear 9 1022 76 11265 1.27 131 16:21 22.01.2020
3861 Clouds 9 1022 81 16093 1.5 90 15:58 22.01.2020
3862 Clear 9 1022 71 12874 1.27 131 15:38 22.01.2020
3863 Clear 9 1022 71 12874 1.27 131 15:20 22.01.2020
3864 Clouds 9 1022 93 11265 1.27 131 14:40 22.01.2020
3865 Clouds 9 1022 93 11265 1.27 131 14:40 22.01.2020
3866 Clouds 9 1022 93 11265 1.27 131 14:40 22.01.2020
3867 Clear 9 1022 76 12874 0.9 144 14:21 22.01.2020
3868 Clouds 9 1022 76 16093 0.9 144 13:59 22.01.2020
3869 Clouds 9 1022 76 16093 0.9 144 13:38 22.01.2020
3870 Clouds 9 1022 93 11265 0.83 126 13:20 22.01.2020
3871 Clear 9 1022 76 16093 0.83 126 12:58 22.01.2020
3872 Clear 9 1022 76 16093 0.83 126 12:40 22.01.2020
3873 Clear 9 1022 76 16093 0.83 126 12:20 22.01.2020
3874 Clear 9 1022 76 16093 0.83 126 11:58 22.01.2020
3875 Clear 9 1022 76 16093 0.83 126 11:40 22.01.2020
3876 Clear 9 1022 76 16093 1.63 131 11:19 22.01.2020
3877 Clouds 9 1022 87 16093 2.1 100 10:59 22.01.2020
3878 Clouds 9 1022 87 16093 2.1 100 10:41 22.01.2020
3879 Clear 10 1022 71 16093 1.63 131 10:18 22.01.2020
3880 Clear 10 1022 71 16093 1.63 131 09:42 22.01.2020
3881 Clear 10 1022 71 16093 1.63 131 09:24 22.01.2020
3882 Clouds 10 1023 81 16093 1.63 131 08:57 22.01.2020
3883 Clouds 10 1023 81 16093 1.63 131 08:38 22.01.2020
3884 Clear 10 1023 71 16093 1.68 178 08:20 22.01.2020
3885 Haze 10 1022 76 8047 1.28 168 07:46 22.01.2020
3886 Clear 10 1022 71 16093 1.28 168 07:28 22.01.2020
3887 Clear 11 1022 71 16093 1.28 168 06:38 22.01.2020
3888 Clear 11 1022 71 16093 1.28 168 06:20 22.01.2020
3889 Clear 11 1022 67 16093 2.5 245 05:21 22.01.2020
3890 Clouds 12 1021 59 16093 2.5 245 03:30 22.01.2020
3891 Clouds 13 1021 67 16093 1.5 280 02:57 22.01.2020
3892 Clouds 14 1021 63 16093 4.1 250 01:42 22.01.2020
3893 Clear 15 1020 52 16093 4.14 247 00:44 22.01.2020
3894 Clear 15 1020 52 16093 4.14 247 00:26 22.01.2020
3895 Clouds 15 1021 63 16093 4.1 220 23:38 21.01.2020
3896 Clouds 15 1020 52 16093 2.1 250 23:20 21.01.2020
3897 Clouds 15 1020 55 16093 3.1 270 22:55 21.01.2020
3898 Clouds 15 1020 55 16093 1.5 0 22:36 21.01.2020
3899 Clouds 15 1020 55 16093 1.5 0 22:18 21.01.2020
3900 Clouds 15 1021 55 16093 2.5 234 21:55 21.01.2020
3901 Clouds 15 1021 55 16093 2.5 234 21:37 21.01.2020
3902 Clouds 15 1021 55 16093 2.5 234 21:18 21.01.2020
3903 Clouds 15 1021 63 16093 1.5 260 20:55 21.01.2020
3904 Clouds 14 1022 82 16093 2.6 210 20:36 21.01.2020
3905 Clouds 14 1021 59 16093 1.24 128 20:18 21.01.2020
3906 Rain 14 1021 72 16093 1.5 160 19:55 21.01.2020
3907 Rain 14 1021 72 16093 1.5 160 19:36 21.01.2020
3908 Rain 14 1021 67 16093 1.24 128 19:18 21.01.2020
3909 Clouds 13 1021 71 16093 1.5 230 18:54 21.01.2020
3910 Clear 13 1021 77 16093 1.24 128 18:36 21.01.2020
3911 Clear 13 1021 77 16093 1.24 128 18:18 21.01.2020
3912 Clouds 12 1021 82 16093 1.24 128 17:42 21.01.2020
3913 Clouds 12 1020 82 16093 0.79 118 17:19 21.01.2020
3914 Clouds 12 1020 82 16093 0.79 118 17:19 21.01.2020
3915 Clouds 11 1020 82 16093 0.79 118 16:56 21.01.2020
3916 Clouds 11 1020 82 16093 0.79 118 16:36 21.01.2020
3917 Clouds 11 1020 82 16093 0.79 118 16:18 21.01.2020
3918 Clouds 11 1020 82 16093 0.79 118 15:39 21.01.2020
3919 Clouds 12 1019 82 16093 0.79 118 15:20 21.01.2020
3920 Clouds 12 1020 93 16093 0.79 118 14:54 21.01.2020
3921 Rain 12 1020 82 16093 0.79 118 14:36 21.01.2020
3922 Rain 12 1020 82 16093 1.02 39 14:18 21.01.2020
3923 Rain 12 1019 82 16093 2.6 220 13:38 21.01.2020
3924 Rain 12 1019 82 16093 0.65 277 13:18 21.01.2020
3925 Rain 12 1019 93 4828 1.5 180 12:43 21.01.2020
3926 Rain 12 1019 87 9656 0.65 277 12:24 21.01.2020
3927 Rain 12 1019 81 16093 1.5 290 11:56 21.01.2020
3928 Rain 12 1019 81 16093 1.5 290 11:38 21.01.2020
3929 Rain 12 1019 87 16093 1.91 84 11:19 21.01.2020
3930 Rain 12 1019 82 16093 1.91 84 10:43 21.01.2020
3931 Rain 12 1019 82 16093 1.91 84 10:23 21.01.2020
3932 Rain 12 1019 72 16093 1.91 84 09:58 21.01.2020
3933 Rain 13 1019 72 16093 1.91 84 09:40 21.01.2020
3934 Rain 13 1019 72 16093 1.91 84 09:21 21.01.2020
3935 Clouds 13 1019 72 16093 2.6 240 08:47 21.01.2020
3936 Clouds 13 1019 72 16093 2.6 240 08:27 21.01.2020
3937 Clouds 13 1019 72 16093 2.31 163 07:56 21.01.2020
3938 Clouds 13 1019 76 16093 2.31 163 07:37 21.01.2020
3939 Clouds 13 1018 67 16093 2.31 163 07:19 21.01.2020
3940 Clouds 13 1018 63 16093 2.31 163 06:44 21.01.2020
3941 Clouds 13 1018 63 16093 2.31 163 06:23 21.01.2020
3942 Clouds 13 1018 63 16093 2.31 163 05:41 21.01.2020
3943 Clouds 13 1018 63 16093 1.5 260 04:39 21.01.2020
3944 Clouds 13 1018 63 16093 1.5 260 04:39 21.01.2020
3945 Clouds 14 1017 55 16093 1.5 120 02:34 21.01.2020
3946 Clouds 15 1018 67 16093 2.1 260 01:47 21.01.2020
3947 Clouds 15 1017 59 16093 3.98 217 00:52 21.01.2020
3948 Clouds 16 1017 59 16093 3.98 217 00:29 21.01.2020
3949 Clouds 16 1017 59 16093 3.98 217 23:57 20.01.2020
3950 Clouds 16 1017 59 16093 3.98 217 23:36 20.01.2020
3951 Clouds 16 1018 72 16093 2.1 220 23:18 20.01.2020
3952 Clouds 16 1018 63 16093 2.4 121 22:56 20.01.2020
3953 Clouds 16 1018 63 16093 2.4 121 22:36 20.01.2020
3954 Clouds 16 1018 63 16093 2.4 121 22:18 20.01.2020
3955 Clouds 16 1019 77 16093 2.1 260 21:55 20.01.2020
3956 Clear 16 1018 63 14484 2.4 121 21:36 20.01.2020
3957 Clear 16 1018 63 14484 2.4 121 21:18 20.01.2020
3958 Clouds 15 1018 82 16093 2.4 121 20:55 20.01.2020
3959 Clouds 15 1018 82 16093 2.4 121 20:36 20.01.2020
3960 Clear 15 1019 63 16093 1.19 261 20:18 20.01.2020
3961 Clear 15 1019 63 16093 2.12 133 20:18 20.01.2020
3962 Clear 15 1020 62 16093 4.1 40 19:56 20.01.2020
3963 Clear 14 1019 67 16093 1.5 0 19:37 20.01.2020
3964 Clear 14 1019 67 16093 1.5 0 19:18 20.01.2020
3965 Clear 14 1019 63 14484 2.12 133 18:42 20.01.2020
3966 Clear 13 1019 63 14484 2.12 133 18:21 20.01.2020
3967 Clear 13 1020 71 14484 2.12 133 17:39 20.01.2020
3968 Clear 12 1020 71 14484 1.74 156 17:19 20.01.2020
3969 Clear 12 1019 67 16093 1.74 156 16:58 20.01.2020
3970 Clear 12 1019 67 16093 1.74 156 16:37 20.01.2020
3971 Clear 12 1019 67 16093 1.74 156 16:18 20.01.2020
3972 Clear 12 1019 67 16093 1.74 156 16:18 20.01.2020
3973 Clouds 12 1018 82 16093 1.5 270 15:54 20.01.2020
3974 Clear 12 1018 67 16093 1.74 156 15:36 20.01.2020
3975 Clear 12 1018 67 16093 1.74 156 15:18 20.01.2020
3976 Clear 12 1016 67 16093 1.74 156 14:41 20.01.2020
3977 Clear 12 1016 67 16093 0.55 111 14:22 20.01.2020
3978 Clear 12 1017 67 16093 0.55 111 13:57 20.01.2020
3979 Clear 12 1017 67 16093 0.55 111 13:39 20.01.2020
3980 Clear 12 1017 67 16093 0.98 114 13:20 20.01.2020
3981 Clear 12 1018 33 16093 0.98 114 12:45 20.01.2020
3982 Clear 12 1018 67 16093 0.98 114 12:26 20.01.2020
3983 Clear 12 1018 33 16093 2.1 40 11:56 20.01.2020
3984 Clear 12 1018 33 16093 2.1 40 11:37 20.01.2020
3985 Clear 12 1018 71 16093 0.64 267 11:19 20.01.2020
3986 Clear 12 1018 62 16093 0.64 267 10:47 20.01.2020
3987 Clear 12 1018 82 12874 0.64 267 10:21 20.01.2020
3988 Clear 12 1018 62 16093 0.64 267 10:21 20.01.2020
3989 Clear 13 1018 58 16093 0.64 267 09:54 20.01.2020
3990 Clear 13 1018 58 16093 0.64 267 09:36 20.01.2020
3991 Clear 13 1018 58 16093 0.64 267 09:18 20.01.2020
3992 Clear 13 1019 55 16093 0.64 267 08:42 20.01.2020
3993 Clear 13 1019 55 16093 1.75 215 08:24 20.01.2020
3994 Clear 14 1018 26 16093 3.1 360 07:42 20.01.2020
3995 Clear 14 1018 26 16093 3.1 360 07:42 20.01.2020
3996 Clear 14 1018 48 16093 2.04 209 07:22 20.01.2020
3997 Clear 14 1018 51 16093 2.04 209 06:45 20.01.2020
3998 Clear 15 1018 51 16093 2.04 209 06:25 20.01.2020
3999 Clear 15 1018 38 16093 3.1 270 05:41 20.01.2020
4000 Clear 15 1018 55 16093 1.37 209 05:21 20.01.2020
4001 Clear 16 1019 16 16093 2.1 0 04:41 20.01.2020
4002 Clear 17 1016 45 16093 1.37 209 02:55 20.01.2020
4003 Clear 18 1017 40 16093 0.59 165 01:52 20.01.2020
4004 Clear 18 1017 40 16093 1.03 242 01:26 20.01.2020
4005 Clear 19 1017 33 16093 1.03 242 00:44 20.01.2020
4006 Clear 19 1017 33 16093 1.03 242 00:22 20.01.2020
4007 Clear 20 1018 28 16093 3.1 260 23:39 19.01.2020
4008 Clear 20 1018 28 16093 3.1 260 23:20 19.01.2020
4009 Clear 20 1018 28 16093 3.1 260 23:20 19.01.2020
4010 Clear 20 1018 28 16093 3.1 260 23:20 19.01.2020
4011 Clear 20 1018 16 16093 1.37 116 22:56 19.01.2020
4012 Clear 20 1018 16 16093 1.37 116 22:56 19.01.2020
4013 Clear 21 1018 16 16093 1.37 116 22:38 19.01.2020
4014 Clear 21 1018 16 16093 1.37 116 22:20 19.01.2020
4015 Clear 21 1019 16 16093 1.37 116 21:56 19.01.2020
4016 Clear 21 1019 16 16093 1.37 116 21:38 19.01.2020
4017 Haze 22 1019 15 9656 1.5 0 21:20 19.01.2020
4018 Clouds 21 1021 19 16093 4.1 280 20:57 19.01.2020
4019 Clear 21 1020 18 16093 1.5 0 20:39 19.01.2020
4020 Clear 19 1020 18 16093 1.5 0 20:20 19.01.2020
4021 Clear 19 1021 20 16093 2.1 230 19:57 19.01.2020
4022 Clear 18 1020 20 16093 2.6 40 19:39 19.01.2020
4023 Clear 18 1020 20 16093 2.6 40 19:20 19.01.2020
4024 Clear 17 1020 25 16093 1.5 360 18:57 19.01.2020
4025 Clear 17 1020 25 16093 1.5 360 18:38 19.01.2020
4026 Clear 17 1020 25 16093 1.5 360 18:38 19.01.2020
4027 Clear 16 1020 25 16093 1.5 360 18:20 19.01.2020
4028 Clear 15 1019 28 16093 2.1 10 17:58 19.01.2020
4029 Clear 14 1019 28 16093 2.1 10 17:40 19.01.2020
4030 Clear 14 1019 28 16093 2.1 10 17:40 19.01.2020
4031 Clear 12 1019 28 16093 2.1 10 17:21 19.01.2020
4032 Clear 11 1020 37 16093 2.1 310 16:59 19.01.2020
4033 Clear 11 1020 37 16093 2.1 310 16:59 19.01.2020
4034 Clear 11 1020 37 16093 2.1 310 16:39 19.01.2020
4035 Clear 10 1020 32 16093 1.5 40 16:21 19.01.2020
4036 Clear 10 1020 52 16093 1.43 52 15:58 19.01.2020
4037 Clear 11 1020 45 16093 2.1 300 15:39 19.01.2020
4038 Clear 11 1019 30 16093 1.43 52 15:20 19.01.2020
4039 Clear 11 1019 34 16093 1.5 340 14:58 19.01.2020
4040 Clear 11 1019 34 16093 1.5 340 14:39 19.01.2020
4041 Clear 11 1019 30 16093 1.5 30 14:18 19.01.2020
4042 Clear 11 1019 42 16093 2.6 350 13:58 19.01.2020
4043 Clear 11 1019 42 16093 2.6 350 13:38 19.01.2020
4044 Clear 11 1019 26 16093 2.1 0 13:20 19.01.2020
4045 Clear 11 1020 39 16093 0.86 335 12:56 19.01.2020
4046 Clear 11 1020 28 16093 1.5 0 12:37 19.01.2020
4047 Clear 11 1020 28 16093 1.5 0 12:19 19.01.2020
4048 Clear 11 1020 28 16093 1.5 30 11:43 19.01.2020
4049 Clear 12 1020 28 16093 1.5 30 11:21 19.01.2020
4050 Clear 11 1021 28 16093 2.1 20 10:57 19.01.2020
4051 Clear 11 1021 28 16093 2.1 20 10:39 19.01.2020
4052 Clear 11 1021 28 16093 2.1 20 10:19 19.01.2020
4053 Clear 12 1021 28 16093 2.1 20 09:56 19.01.2020
4054 Clear 12 1021 28 16093 2.1 20 09:56 19.01.2020
4055 Clear 12 1021 28 16093 2.1 20 09:56 19.01.2020
4056 Clear 12 1021 28 16093 2.1 20 09:37 19.01.2020
4057 Clear 12 1021 28 16093 2.1 20 09:19 19.01.2020
4058 Clear 12 1021 30 16093 1.43 46 08:54 19.01.2020
4059 Clear 12 1021 30 16093 1.43 46 08:30 19.01.2020
4060 Clear 13 1021 31 16093 1.5 30 07:46 19.01.2020
4061 Clear 13 1021 31 16093 1.5 30 07:27 19.01.2020
4062 Clear 13 1021 31 16093 1.12 30 06:54 19.01.2020
4063 Clear 13 1021 31 16093 1.12 30 06:21 19.01.2020
4064 Clear 14 1020 48 16093 0.92 324 03:52 19.01.2020
4065 Clear 16 1020 42 16093 0.92 324 02:32 19.01.2020
4066 Clear 18 1020 30 16093 1.5 260 01:39 19.01.2020
4067 Clear 18 1020 30 16093 1.5 260 01:18 19.01.2020
4068 Clear 19 1021 20 16093 2.1 0 00:44 19.01.2020
4069 Clear 19 1021 37 16093 4.1 270 00:19 19.01.2020
4070 Clear 19 1020 18 16093 2.1 270 23:45 18.01.2020
4071 Clear 19 1020 18 16093 2.1 270 23:25 18.01.2020
4072 Clear 19 1021 19 16093 0.81 255 22:58 18.01.2020
4073 Clear 19 1021 19 16093 0.81 255 22:40 18.01.2020
4074 Clear 19 1021 19 16093 0.81 255 22:21 18.01.2020
4075 Clear 18 1022 21 16093 1.5 0 21:58 18.01.2020
4076 Clear 19 1022 21 16093 1.5 0 21:58 18.01.2020
4077 Clear 19 1022 21 16093 1.5 0 21:38 18.01.2020
4078 Clear 19 1022 21 16093 1.5 0 21:20 18.01.2020
4079 Clear 18 1024 22 16093 3.6 310 20:55 18.01.2020
4080 Clear 18 1024 22 16093 3.6 310 20:36 18.01.2020
4081 Clear 17 1023 24 16093 1.5 30 20:18 18.01.2020
4082 Clear 16 1023 30 16093 1.06 120 19:42 18.01.2020
4083 Clear 16 1023 27 16093 1.06 120 19:24 18.01.2020
4084 Clear 15 1023 41 16093 1.06 120 18:43 18.01.2020
4085 Clear 14 1023 41 16093 1.06 120 18:24 18.01.2020
4086 Clear 12 1024 53 16093 1.06 120 17:58 18.01.2020
4087 Clear 11 1023 40 16093 1.06 120 17:40 18.01.2020
4088 Clear 10 1023 40 16093 0.65 45 17:20 18.01.2020
4089 Clear 9 1023 43 16093 1.5 30 16:56 18.01.2020
4090 Clear 8 1023 43 16093 1.5 30 16:38 18.01.2020
4091 Clear 7 1023 43 16093 1.5 30 16:19 18.01.2020
4092 Clear 8 1022 43 16093 1.5 30 15:44 18.01.2020
4093 Clear 8 1022 43 16093 1.5 30 15:25 18.01.2020
4094 Clear 7 1022 53 16093 0.65 45 14:59 18.01.2020
4095 Clear 8 1022 53 16093 0.65 45 14:40 18.01.2020
4096 Clear 8 1022 53 16093 0.9 354 14:19 18.01.2020
4097 Clear 8 1022 38 16093 2.1 300 13:56 18.01.2020
4098 Clear 8 1022 57 16093 0.9 354 13:36 18.01.2020
4099 Clear 8 1022 57 16093 0.99 350 13:18 18.01.2020
4100 Clear 8 1022 57 16093 0.99 350 13:18 18.01.2020
4101 Clear 8 1022 70 16093 0.99 350 12:41 18.01.2020
4102 Clear 8 1022 57 16093 1.5 0 12:21 18.01.2020
4103 Clear 8 1023 62 16093 0.99 350 11:56 18.01.2020
4104 Clear 8 1023 62 16093 0.99 350 11:38 18.01.2020
4105 Clear 8 1023 62 16093 0.59 27 11:19 18.01.2020
4106 Clear 8 1023 58 16093 0.59 27 10:42 18.01.2020
4107 Clear 8 1023 58 16093 0.59 27 10:21 18.01.2020
4108 Clear 8 1023 62 16093 1.5 30 09:55 18.01.2020
4109 Clear 8 1023 62 16093 1.5 30 09:37 18.01.2020
4110 Clear 8 1023 71 16093 0.59 27 08:59 18.01.2020
4111 Clear 8 1023 71 16093 0.59 27 08:41 18.01.2020
4112 Clear 9 1023 76 16093 0.83 157 08:20 18.01.2020
4113 Clear 9 1023 76 16093 0.83 157 08:20 18.01.2020
4114 Clear 9 1023 71 16093 0.83 157 07:56 18.01.2020
4115 Clear 9 1023 71 16093 0.83 157 07:37 18.01.2020
4116 Clear 9 1022 71 16093 0.83 157 06:49 18.01.2020
4117 Clear 10 1022 71 16093 0.83 157 06:22 18.01.2020
4118 Clear 10 1022 66 16093 0.83 157 05:45 18.01.2020
4119 Clear 11 1022 62 16093 1.48 240 04:19 18.01.2020
4120 Clear 13 1022 51 16093 2.1 260 02:33 18.01.2020
4121 Clear 14 1022 47 16093 2.18 226 01:36 18.01.2020
4122 Clear 15 1022 42 16093 3.53 198 00:39 18.01.2020
4123 Clear 15 1022 42 16093 3.53 198 00:19 18.01.2020
4124 Clouds 15 1022 50 16093 2.1 20 23:56 17.01.2020
4125 Clouds 15 1022 50 16093 2.1 20 23:38 17.01.2020
4126 Clear 15 1022 48 16093 2.6 0 23:18 17.01.2020
4127 Clouds 15 1022 54 16093 2.6 130 22:40 17.01.2020
4128 Clear 15 1022 48 16093 1.5 0 22:19 17.01.2020
4129 Clear 15 1022 48 16093 1.5 0 22:19 17.01.2020
4130 Clouds 15 1023 55 16093 1.87 122 21:54 17.01.2020
4131 Clouds 14 1023 62 16093 1.87 122 21:36 17.01.2020
4132 Clouds 14 1023 59 16093 1.87 122 21:18 17.01.2020
4133 Clouds 14 1023 62 16093 2.1 0 20:41 17.01.2020
4134 Clear 13 1024 62 16093 1.5 90 20:21 17.01.2020
4135 Clear 13 1024 62 16093 1.5 90 20:21 17.01.2020
4136 Clouds 13 1024 76 16093 1.5 0 19:58 17.01.2020
4137 Clouds 12 1024 76 16093 1.5 0 19:38 17.01.2020
4138 Clouds 12 1024 71 16093 1.5 80 19:20 17.01.2020
4139 Clouds 11 1024 71 16093 2.96 91 18:58 17.01.2020
4140 Clouds 11 1024 71 16093 2.96 91 18:58 17.01.2020
4141 Clouds 11 1024 76 16093 2.1 10 18:39 17.01.2020
4142 Clouds 10 1024 76 16093 2.1 10 18:21 17.01.2020
4143 Clouds 9 1023 81 16093 1.5 320 17:40 17.01.2020
4144 Clear 8 1023 81 16093 1.79 80 17:22 17.01.2020
4145 Clouds 7 1022 87 2816 1.5 60 16:57 17.01.2020
4146 Clouds 7 1022 87 2816 1.5 60 16:38 17.01.2020
4147 Clear 7 1022 87 16093 1.79 80 16:19 17.01.2020
4148 Rain 8 1022 100 8047 1.5 340 15:45 17.01.2020
4149 Rain 8 1021 100 2816 1.79 80 15:26 17.01.2020
4150 Rain 8 1021 93 1207 2.1 320 14:45 17.01.2020
4151 Rain 8 1021 87 16093 2.53 86 14:27 17.01.2020
4152 Rain 8 1020 93 12874 2.53 86 13:58 17.01.2020
4153 Rain 8 1020 93 12874 2.53 86 13:58 17.01.2020
4154 Rain 8 1020 93 12874 2.53 86 13:38 17.01.2020
4155 Rain 9 1021 87 16093 1.14 194 13:19 17.01.2020
4156 Rain 9 1020 87 16093 1.14 194 12:44 17.01.2020
4157 Rain 9 1021 93 16093 3.1 50 12:22 17.01.2020
4158 Rain 9 1020 87 16093 1.14 194 11:40 17.01.2020
4159 Rain 10 1021 93 6437 1.72 193 11:19 17.01.2020
4160 Rain 10 1020 81 11265 2.6 80 10:44 17.01.2020
4161 Rain 10 1019 93 16093 3.1 130 10:23 17.01.2020
4162 Rain 10 1020 87 3219 1.5 70 09:59 17.01.2020
4163 Rain 10 1020 87 3219 1.5 70 09:59 17.01.2020
4164 Rain 9 1020 93 16093 2.6 0 09:41 17.01.2020
4165 Rain 9 1020 93 2414 3.6 70 09:20 17.01.2020
4166 Rain 9 1021 87 2816 3.1 100 08:46 17.01.2020
4167 Rain 9 1021 87 4023 3.1 90 08:25 17.01.2020
4168 Rain 10 1021 81 4023 1.5 0 07:56 17.01.2020
4169 Rain 10 1020 100 3219 2.1 100 07:36 17.01.2020
4170 Rain 10 1021 76 4023 3.21 194 07:18 17.01.2020
4171 Rain 10 1020 66 12874 1.5 280 06:41 17.01.2020
4172 Rain 10 1019 62 14484 3.21 194 05:57 17.01.2020
4173 Clouds 11 1019 76 16093 2.6 240 03:44 17.01.2020
4174 Clouds 11 1018 58 16093 2.6 220 02:55 17.01.2020
4175 Clouds 11 1018 58 16093 3.6 230 02:28 17.01.2020
4176 Clouds 12 1018 58 16093 5.1 240 01:32 17.01.2020
4177 Clouds 13 1018 62 16093 3.6 230 00:55 17.01.2020
4178 Clouds 13 1017 71 16093 4.1 250 00:28 17.01.2020
4179 Clear 13 1016 62 14484 5.1 260 23:54 16.01.2020
4180 Clouds 14 1017 51 16093 3.86 202 23:36 16.01.2020
4181 Clouds 14 1017 51 16093 2.37 173 23:18 16.01.2020
4182 Clear 14 1016 58 14484 6.2 250 22:40 16.01.2020
4183 Haze 14 1017 55 8047 2.37 173 22:21 16.01.2020
4184 Haze 14 1017 55 8047 2.37 173 21:56 16.01.2020
4185 Haze 14 1017 55 8047 2.37 173 21:37 16.01.2020
4186 Haze 14 1017 55 8047 2.37 173 21:18 16.01.2020
4187 Haze 14 1018 62 9656 2.37 173 20:56 16.01.2020
4188 Haze 13 1018 62 8047 2.6 100 20:37 16.01.2020
4189 Haze 13 1018 62 8047 2.6 100 20:18 16.01.2020
4190 Haze 12 1018 71 4828 2.6 120 19:54 16.01.2020
4191 Haze 12 1018 67 4828 1.84 178 19:36 16.01.2020
4192 Haze 12 1018 67 4828 1.84 178 19:18 16.01.2020
4193 Haze 11 1018 67 4828 1.5 0 18:54 16.01.2020
4194 Haze 11 1017 81 4023 1.5 150 18:36 16.01.2020
4195 Haze 11 1017 81 4023 1.5 150 18:18 16.01.2020
4196 Haze 10 1017 76 4828 1.84 178 17:41 16.01.2020
4197 Haze 9 1017 76 4023 0.6 196 17:21 16.01.2020
4198 Haze 8 1016 81 4023 2.1 340 16:57 16.01.2020
4199 Mist 8 1017 93 3219 0.6 196 16:38 16.01.2020
4200 Haze 8 1016 76 6437 0.6 196 16:19 16.01.2020
4201 Haze 8 1016 81 4828 1.5 0 15:44 16.01.2020
4202 Mist 8 1016 76 4828 2.1 50 15:22 16.01.2020
4203 Mist 8 1017 81 4023 0.6 196 14:56 16.01.2020
4204 Mist 8 1017 81 4023 0.6 196 14:37 16.01.2020
4205 Haze 8 1017 81 4828 0.62 200 14:19 16.01.2020
4206 Haze 8 1017 81 4828 0.62 200 13:44 16.01.2020
4207 Mist 8 1016 93 4023 2.6 360 13:25 16.01.2020
4208 Mist 8 1016 81 6437 2.1 330 12:46 16.01.2020
4209 Haze 8 1016 81 6437 0.53 207 12:28 16.01.2020
4210 Haze 8 1017 76 6437 0.53 207 11:58 16.01.2020
4211 Haze 7 1017 76 6437 0.53 207 11:39 16.01.2020
4212 Haze 7 1017 76 6437 1.09 184 11:21 16.01.2020
4213 Mist 8 1017 87 4023 3.1 80 10:40 16.01.2020
4214 Mist 8 1016 87 4828 1.09 184 10:21 16.01.2020
4215 Haze 8 1016 81 4023 1.09 184 09:58 16.01.2020
4216 Haze 8 1016 81 4828 1.09 184 09:40 16.01.2020
4217 Haze 8 1016 81 4828 1.09 184 09:22 16.01.2020
4218 Mist 8 1016 93 4023 1.09 184 08:53 16.01.2020
4219 Haze 8 1016 87 9656 1.5 350 08:35 16.01.2020
4220 Haze 9 1016 81 4828 1.12 226 07:59 16.01.2020
4221 Haze 9 1016 81 4828 1.12 226 07:41 16.01.2020
4222 Haze 9 1016 81 4828 1.12 226 07:23 16.01.2020
4223 Mist 9 1017 100 3219 1.12 226 06:46 16.01.2020
4224 Haze 10 1016 76 6437 1.12 226 06:28 16.01.2020
4225 Clear 10 1015 50 16093 1.12 226 05:46 16.01.2020
4226 Haze 11 1015 71 8047 1.8 272 04:46 16.01.2020
4227 Haze 12 1015 67 9656 1.8 272 03:29 16.01.2020
4228 Haze 13 1015 59 9656 2.1 0 02:44 16.01.2020
4229 Haze 16 1015 55 9656 2.02 214 01:24 16.01.2020
4230 Haze 16 1014 52 8047 1.5 0 00:41 16.01.2020
4231 Haze 17 1014 52 8047 1.5 0 00:19 16.01.2020
4232 Haze 17 1014 45 8047 2.02 214 23:40 15.01.2020
4233 Haze 17 1014 45 8047 1.5 272 23:19 15.01.2020
4234 Haze 17 1014 51 4828 1.5 272 22:56 15.01.2020
4235 Haze 17 1015 52 3219 1.5 272 22:36 15.01.2020
4236 Haze 17 1015 52 3219 1.5 272 22:18 15.01.2020
4237 Haze 16 1015 55 2816 1.5 272 21:55 15.01.2020
4238 Haze 16 1016 48 6437 1.5 272 21:36 15.01.2020
4239 Haze 15 1016 48 6437 1.5 272 21:18 15.01.2020
4240 Haze 15 1017 55 6437 1.5 272 20:54 15.01.2020
4241 Haze 15 1017 55 6437 1.5 272 20:36 15.01.2020
4242 Haze 14 1017 55 6437 0.75 257 20:18 15.01.2020
4243 Haze 13 1018 93 1609 0.75 257 19:54 15.01.2020
4244 Haze 13 1018 93 1609 0.75 257 19:36 15.01.2020
4245 Haze 12 1018 58 6437 0.75 257 19:18 15.01.2020
4246 Haze 12 1018 58 6437 0.75 257 19:18 15.01.2020
4247 Mist 12 1018 100 3219 0.75 257 18:54 15.01.2020
4248 Haze 11 1017 62 9656 0.75 257 18:36 15.01.2020
4249 Haze 10 1017 62 9656 0.75 257 18:18 15.01.2020
4250 Haze 8 1017 81 3219 1.5 90 17:40 15.01.2020
4251 Haze 8 1017 81 3219 1.5 90 17:40 15.01.2020
4252 Haze 7 1017 81 6437 0.28 330 17:21 15.01.2020
4253 Fog 7 1017 93 402 2.6 90 16:57 15.01.2020
4254 Clear 6 1017 70 12874 0.28 330 16:38 15.01.2020
4255 Clear 6 1017 70 12874 0.28 330 16:20 15.01.2020
4256 Clear 6 1017 70 12874 0.28 330 16:20 15.01.2020
4257 Clear 6 1017 70 12874 0.28 330 16:20 15.01.2020
4258 Mist 7 1017 100 2012 1.5 80 15:43 15.01.2020
4259 Clear 7 1016 70 12874 0.28 330 15:21 15.01.2020
4260 Mist 7 1016 87 4023 2.1 80 14:56 15.01.2020
4261 Mist 7 1016 87 4023 2.1 80 14:37 15.01.2020
4262 Clear 7 1017 70 12874 0.29 189 14:18 15.01.2020
4263 Haze 7 1016 81 8047 2.1 20 13:44 15.01.2020
4264 Clear 7 1017 71 14484 0.48 242 13:23 15.01.2020
4265 Haze 7 1018 100 1609 0.48 242 12:56 15.01.2020
4266 Haze 7 1018 100 1609 0.48 242 12:37 15.01.2020
4267 Clear 7 1018 81 12874 0.48 242 12:19 15.01.2020
4268 Clear 7 1018 81 12874 0.48 242 12:19 15.01.2020
4269 Mist 7 1018 93 1609 0.48 242 11:55 15.01.2020
4270 Mist 7 1018 93 1609 0.48 242 11:36 15.01.2020
4271 Mist 7 1018 93 1609 0.48 242 11:36 15.01.2020
4272 Clear 7 1018 81 11265 0.57 311 11:18 15.01.2020
4273 Haze 7 1018 93 805 0.57 311 10:41 15.01.2020
4274 Clear 7 1018 76 16093 0.57 311 10:21 15.01.2020
4275 Haze 8 1018 100 2012 0.57 311 09:42 15.01.2020
4276 Clear 8 1018 81 16093 0.57 311 09:22 15.01.2020
4277 Haze 8 1019 93 3219 0.57 311 08:55 15.01.2020
4278 Haze 8 1019 93 3219 0.57 311 08:37 15.01.2020
4279 Clear 8 1019 76 16093 0.8 199 08:19 15.01.2020
4280 Haze 9 1019 87 9656 2.1 30 07:43 15.01.2020
4281 Clear 9 1019 76 16093 0.8 199 07:24 15.01.2020
4282 Haze 9 1019 81 9656 0.8 199 06:44 15.01.2020
4283 Clear 9 1018 71 16093 0.8 199 05:57 15.01.2020
4284 Clouds 11 1017 81 11265 2.6 270 03:56 15.01.2020
4285 Clear 12 1018 59 16093 1.5 0 02:30 15.01.2020
4286 Clear 15 1018 55 16093 2.1 250 01:25 15.01.2020
4287 Clouds 15 1018 52 16093 1.5 250 00:45 15.01.2020
4288 Clouds 16 1018 52 16093 1.5 250 00:26 15.01.2020
4289 Clear 16 1018 52 16093 2.69 217 23:48 14.01.2020
4290 Clear 16 1018 52 16093 1.62 238 23:29 14.01.2020
4291 Clouds 16 1018 52 14484 1.62 238 22:59 14.01.2020
4292 Clouds 16 1018 52 14484 1.62 238 22:40 14.01.2020
4293 Clouds 16 1018 52 12874 1.5 250 22:19 14.01.2020
4294 Clouds 16 1020 63 16093 2.6 0 21:58 14.01.2020
4295 Clear 16 1019 62 11265 2.6 260 21:39 14.01.2020
4296 Clear 15 1020 51 11265 1.62 238 21:21 14.01.2020
4297 Clouds 15 1021 62 12874 1.62 238 20:58 14.01.2020
4298 Clouds 15 1021 62 12874 1.62 238 20:40 14.01.2020
4299 Clear 14 1022 67 12874 3.6 200 20:19 14.01.2020
4300 Clouds 14 1022 55 12874 1.09 208 19:55 14.01.2020
4301 Clouds 13 1022 55 12874 1.09 208 19:37 14.01.2020
4302 Clouds 13 1022 55 12874 1.09 208 19:18 14.01.2020
4303 Haze 12 1021 81 4828 1.09 208 18:41 14.01.2020
4304 Clear 11 1021 66 11265 1.5 0 18:21 14.01.2020
4305 Haze 10 1020 81 6437 2.1 80 17:59 14.01.2020
4306 Haze 9 1020 81 6437 2.1 80 17:37 14.01.2020
4307 Clear 8 1020 62 12874 0.89 230 17:19 14.01.2020
4308 Clear 7 1020 81 11265 1.5 80 16:55 14.01.2020
4309 Clear 6 1020 81 11265 1.5 80 16:37 14.01.2020
4310 Clear 6 1020 76 12874 0.89 230 16:19 14.01.2020
4311 Clear 6 1020 93 11265 0.89 230 15:42 14.01.2020
4312 Clear 6 1019 81 11265 0.89 230 15:19 14.01.2020
4313 Clouds 6 1019 75 16093 2.1 10 14:47 14.01.2020
4314 Clear 6 1019 76 11265 0.52 172 14:23 14.01.2020
4315 Clouds 6 1019 75 16093 2.1 30 13:59 14.01.2020
4316 Clouds 6 1019 75 16093 2.1 30 13:41 14.01.2020
4317 Haze 7 1019 81 9656 0.32 181 13:19 14.01.2020
4318 Clouds 7 1019 75 16093 0.32 181 12:42 14.01.2020
4319 Haze 7 1020 87 8047 0.32 181 12:24 14.01.2020
4320 Clouds 7 1019 87 12874 2.6 40 11:58 14.01.2020
4321 Clouds 7 1019 87 12874 2.6 40 11:40 14.01.2020
4322 Haze 7 1019 81 9656 0.29 50 11:22 14.01.2020
4323 Clouds 7 1019 87 12874 2.6 70 10:56 14.01.2020
4324 Clouds 7 1019 87 12874 2.6 70 10:37 14.01.2020
4325 Haze 8 1019 76 9656 0.29 50 10:19 14.01.2020
4326 Clouds 8 1019 81 16093 2.1 70 09:43 14.01.2020
4327 Haze 8 1019 81 9656 0.29 50 09:24 14.01.2020
4328 Clouds 8 1019 75 16093 2.1 70 08:59 14.01.2020
4329 Clouds 8 1019 75 16093 2.1 70 08:39 14.01.2020
4330 Haze 8 1020 76 9656 0.86 289 08:21 14.01.2020
4331 Clouds 9 1019 76 16093 0.97 280 07:51 14.01.2020
4332 Clear 9 1020 76 11265 0.97 280 07:18 14.01.2020
4333 Clouds 9 1019 81 16093 0.97 280 06:42 14.01.2020
4334 Clear 10 1018 81 16093 2.1 330 05:58 14.01.2020
4335 Clouds 10 1019 81 16093 2.6 310 04:50 14.01.2020
4336 Clouds 11 1019 71 16093 2.6 240 03:46 14.01.2020
4337 Clouds 13 1018 62 16093 2.1 270 02:39 14.01.2020
4338 Clear 15 1018 51 16093 2.1 250 01:21 14.01.2020
4339 Clear 16 1018 51 16093 2.6 220 00:48 14.01.2020
4340 Clear 16 1018 48 16093 1.5 250 00:22 14.01.2020
4341 Clear 16 1018 51 14484 2.12 242 23:44 13.01.2020
4342 Clear 16 1018 48 16093 1.69 243 23:19 13.01.2020
4343 Clouds 16 1018 54 14484 1.5 100 22:58 13.01.2020
4344 Clouds 16 1019 45 16093 1.5 0 22:39 13.01.2020
4345 Clouds 15 1019 45 16093 1.5 0 22:20 13.01.2020
4346 Clouds 16 1019 62 14484 2.6 220 21:56 13.01.2020
4347 Clouds 16 1019 62 14484 2.6 220 21:56 13.01.2020
4348 Clouds 15 1019 62 14484 2.6 220 21:37 13.01.2020
4349 Clouds 15 1020 48 16093 1.69 243 21:18 13.01.2020
4350 Clouds 15 1020 62 12874 1.5 0 20:56 13.01.2020
4351 Clouds 15 1020 62 12874 1.5 0 20:38 13.01.2020
4352 Clear 14 1020 55 16093 1.57 223 20:19 13.01.2020
4353 Clouds 14 1020 62 14484 2.1 0 19:56 13.01.2020
4354 Clouds 14 1020 62 14484 2.1 0 19:37 13.01.2020
4355 Clear 13 1021 67 14484 2.1 120 19:18 13.01.2020
4356 Clouds 13 1020 71 14484 1.57 223 18:55 13.01.2020
4357 Clouds 12 1020 71 14484 1.57 223 18:36 13.01.2020
4358 Clouds 12 1020 62 12874 1.57 223 18:18 13.01.2020
4359 Haze 10 1020 81 6437 1.5 80 17:40 13.01.2020
4360 Haze 9 1020 66 9656 0.99 193 17:21 13.01.2020
4361 Clear 8 1020 70 16093 0.99 193 16:56 13.01.2020
4362 Mist 7 1019 87 4828 0.99 193 16:37 13.01.2020
4363 Clouds 7 1020 76 11265 0.99 193 16:19 13.01.2020
4364 Clouds 7 1018 81 11265 0.99 193 15:43 13.01.2020
4365 Clouds 8 1018 81 11265 0.99 193 15:23 13.01.2020
4366 Clouds 8 1018 81 11265 0.99 193 14:57 13.01.2020
4367 Clouds 8 1018 81 11265 0.99 193 14:37 13.01.2020
4368 Clouds 8 1018 81 11265 1.08 127 14:18 13.01.2020
4369 Mist 8 1019 87 9656 1.5 70 13:41 13.01.2020
4370 Mist 8 1019 87 9656 1.5 70 13:23 13.01.2020
4371 Clouds 8 1018 81 16093 0.36 164 12:59 13.01.2020
4372 Clouds 8 1018 81 16093 0.36 164 12:40 13.01.2020
4373 Clouds 8 1018 81 16093 0.36 164 12:22 13.01.2020
4374 Clouds 8 1018 81 16093 0.36 164 11:57 13.01.2020
4375 Clouds 8 1019 87 11265 2.1 90 11:37 13.01.2020
4376 Haze 7 1019 81 8047 0.28 163 11:19 13.01.2020
4377 Clouds 7 1019 87 12874 0.28 163 10:56 13.01.2020
4378 Haze 7 1018 81 8047 0.28 163 10:37 13.01.2020
4379 Haze 7 1018 81 8047 0.28 163 10:19 13.01.2020
4380 Clouds 8 1019 87 12874 1.5 20 09:43 13.01.2020
4381 Haze 8 1019 81 8047 0.28 163 09:24 13.01.2020
4382 Clear 8 1019 76 11265 0.28 163 08:57 13.01.2020
4383 Clear 8 1019 76 11265 0.28 163 08:37 13.01.2020
4384 Clear 8 1019 76 11265 0.56 196 08:18 13.01.2020
4385 Haze 8 1018 76 9656 0.56 196 07:43 13.01.2020
4386 Haze 8 1018 76 9656 0.56 196 07:24 13.01.2020
4387 Clear 9 1018 76 11265 0.56 196 06:37 13.01.2020
4388 Clouds 9 1018 76 12874 0.56 196 05:37 13.01.2020
4389 Clouds 9 1018 76 12874 2.48 259 05:18 13.01.2020
4390 Clear 11 1017 71 16093 2.48 259 03:41 13.01.2020
4391 Clear 12 1017 59 16093 1.5 250 02:50 13.01.2020
4392 Clear 13 1017 59 16093 1.5 250 02:30 13.01.2020
4393 Clear 14 1017 55 16093 3.6 260 01:33 13.01.2020
4394 Clear 15 1016 47 16093 2.6 220 00:48 13.01.2020
4395 Clear 16 1016 48 16093 3.1 270 00:26 13.01.2020
4396 Clear 16 1016 47 14484 2.6 0 23:59 12.01.2020
4397 Clear 16 1016 47 14484 2.6 0 23:40 12.01.2020
4398 Clear 16 1016 42 16093 1.5 240 23:22 12.01.2020
4399 Clear 16 1016 50 16093 2.1 190 22:57 12.01.2020
4400 Clear 16 1016 50 16093 2.1 190 22:39 12.01.2020
4401 Clear 16 1017 39 16093 1.5 0 22:19 12.01.2020
4402 Clear 16 1017 58 16093 1.5 230 21:54 12.01.2020
4403 Clear 15 1017 58 16093 1.5 230 21:36 12.01.2020
4404 Clear 15 1018 42 16093 2.53 254 21:18 12.01.2020
4405 Clear 15 1018 58 16093 2.53 254 20:54 12.01.2020
4406 Clear 15 1018 58 16093 2.53 254 20:36 12.01.2020
4407 Clear 14 1019 58 16093 1.48 265 20:18 12.01.2020
4408 Clear 14 1019 71 16093 1.48 265 19:54 12.01.2020
4409 Clear 14 1019 71 16093 1.48 265 19:54 12.01.2020
4410 Clear 13 1020 54 16093 1.48 265 19:36 12.01.2020
4411 Clear 13 1020 54 16093 1.48 265 19:18 12.01.2020
4412 Clear 12 1020 76 14484 1.48 265 18:56 12.01.2020
4413 Clear 12 1020 54 16093 1.5 40 18:38 12.01.2020
4414 Clear 11 1020 54 16093 1.5 40 18:19 12.01.2020
4415 Clear 10 1019 81 12874 1.48 265 17:42 12.01.2020
4416 Clear 8 1019 66 16093 0.59 263 17:21 12.01.2020
4417 Clouds 7 1019 93 11265 0.59 263 16:58 12.01.2020
4418 Clouds 6 1019 93 11265 0.59 263 16:38 12.01.2020
4419 Clear 6 1019 66 16093 0.59 263 16:20 12.01.2020
4420 Clouds 7 1019 76 16093 0.59 263 15:55 12.01.2020
4421 Clouds 7 1019 76 16093 0.59 263 15:37 12.01.2020
4422 Clear 7 1019 66 16093 0.59 263 15:19 12.01.2020
4423 Clouds 7 1019 81 16093 0.59 263 14:42 12.01.2020
4424 Clouds 7 1019 76 12874 0.52 298 14:23 12.01.2020
4425 Clouds 7 1019 65 16093 1.5 330 13:57 12.01.2020
4426 Clouds 8 1018 81 16093 0.52 298 13:39 12.01.2020
4427 Clouds 8 1019 76 14484 0.5 289 13:20 12.01.2020
4428 Clouds 8 1019 87 12874 2.6 240 12:56 12.01.2020
4429 Clouds 8 1018 87 12874 1.5 360 12:37 12.01.2020
4430 Clouds 8 1018 87 12874 1.5 360 12:18 12.01.2020
4431 Clouds 8 1019 76 12874 0.5 289 11:42 12.01.2020
4432 Clouds 8 1019 76 12874 0.52 266 11:22 12.01.2020
4433 Clouds 8 1019 75 16093 1.5 20 10:57 12.01.2020
4434 Clouds 8 1019 75 16093 1.5 20 10:39 12.01.2020
4435 Clouds 8 1019 75 16093 1.5 20 10:39 12.01.2020
4436 Clear 8 1019 76 16093 0.52 266 10:20 12.01.2020
4437 Mist 8 1019 100 6437 0.52 266 09:42 12.01.2020
4438 Clear 8 1019 81 11265 0.52 266 09:23 12.01.2020
4439 Clouds 9 1020 93 11265 0.52 266 08:48 12.01.2020
4440 Clear 8 1019 76 12874 0.87 176 08:25 12.01.2020
4441 Clear 9 1019 71 14484 0.87 176 07:58 12.01.2020
4442 Clear 9 1019 71 14484 0.87 176 07:38 12.01.2020
4443 Clear 9 1019 71 14484 0.87 176 07:19 12.01.2020
4444 Clouds 10 1018 71 16093 0.87 176 06:40 12.01.2020
4445 Clear 10 1018 71 16093 0.87 176 05:58 12.01.2020
4446 Clear 10 1018 66 16093 2.21 193 05:20 12.01.2020
4447 Clouds 12 1017 66 16093 2.1 360 03:44 12.01.2020
4448 Clouds 12 1017 66 16093 2.6 290 02:55 12.01.2020
4449 Clear 13 1018 63 16093 2.1 260 02:30 12.01.2020
4450 Clouds 14 1018 63 16093 4.1 260 01:40 12.01.2020
4451 Clouds 15 1018 59 16093 2.85 202 01:21 12.01.2020
4452 Clouds 15 1018 63 16093 2.85 202 00:40 12.01.2020
4453 Clouds 16 1018 52 16093 2.85 202 00:18 12.01.2020
4454 Clouds 16 1018 72 16093 1.5 260 23:41 11.01.2020
4455 Clear 16 1018 52 16093 2.1 0 23:19 11.01.2020
4456 Clouds 16 1019 59 16093 2.1 290 22:57 11.01.2020
4457 Clouds 16 1019 59 16093 2.1 290 22:39 11.01.2020
4458 Clouds 16 1019 59 16093 2.1 290 22:20 11.01.2020
4459 Clouds 16 1019 59 16093 3.1 190 21:55 11.01.2020
4460 Clouds 15 1019 59 16093 3.1 190 21:37 11.01.2020
4461 Clouds 15 1020 59 16093 2.08 193 21:18 11.01.2020
4462 Clouds 15 1021 63 16093 2.6 0 20:40 11.01.2020
4463 Clouds 14 1021 63 16093 2.6 0 20:22 11.01.2020
4464 Clouds 14 1022 63 12874 2.1 90 19:58 11.01.2020
4465 Clouds 13 1023 67 11265 2.1 110 19:38 11.01.2020
4466 Clouds 13 1023 67 11265 2.1 110 19:38 11.01.2020
4467 Clouds 13 1022 54 16093 2.1 90 19:20 11.01.2020
4468 Clear 12 1023 66 16093 1.5 137 18:58 11.01.2020
4469 Clear 12 1022 54 16093 1.5 0 18:38 11.01.2020
4470 Clouds 11 1023 58 16093 2.1 100 18:19 11.01.2020
4471 Haze 10 1022 81 9656 2.1 80 17:57 11.01.2020
4472 Haze 10 1022 81 9656 2.1 80 17:57 11.01.2020
4473 Clouds 9 1022 61 0 1.5 137 17:39 11.01.2020
4474 Clouds 8 1022 61 0 0.42 121 17:19 11.01.2020
4475 Clouds 6 1022 70 16093 3.1 110 16:45 11.01.2020
4476 Clear 6 1022 75 16093 0.42 121 16:27 11.01.2020
4477 Clear 6 1022 75 16093 0.42 121 15:58 11.01.2020
4478 Clear 6 1022 75 16093 0.42 121 15:40 11.01.2020
4479 Clear 6 1022 75 16093 0.42 121 15:22 11.01.2020
4480 Clear 6 1022 56 16093 0.42 121 14:57 11.01.2020
4481 Clear 6 1022 56 16093 0.42 121 14:38 11.01.2020
4482 Clear 6 1022 81 14484 0.56 114 14:20 11.01.2020
4483 Clear 6 1022 80 16093 0.56 114 13:40 11.01.2020
4484 Clear 6 1022 76 12874 0.38 84 13:20 11.01.2020
4485 Fog 6 1023 93 805 0.38 84 12:58 11.01.2020
4486 Fog 7 1023 93 805 0.38 84 12:40 11.01.2020
4487 Clear 7 1022 81 16093 0.38 84 12:21 11.01.2020
4488 Mist 7 1023 87 4828 0.38 84 11:48 11.01.2020
4489 Clear 7 1023 76 16093 0.78 237 11:26 11.01.2020
4490 Clear 7 1023 76 12874 0.78 237 10:51 11.01.2020
4491 Clear 7 1023 76 12874 0.78 237 10:30 11.01.2020
4492 Clear 7 1023 76 12874 0.78 237 09:58 11.01.2020
4493 Clear 8 1023 76 12874 0.78 237 09:38 11.01.2020
4494 Clear 8 1023 76 12874 0.78 237 09:20 11.01.2020
4495 Clear 8 1023 61 16093 2.1 50 08:42 11.01.2020
4496 Clear 8 1024 76 16093 1.09 237 08:22 11.01.2020
4497 Clear 9 1024 61 16093 2.1 50 07:44 11.01.2020
4498 Clear 9 1024 76 16093 0.91 239 07:25 11.01.2020
4499 Clear 10 1024 61 16093 2.6 30 06:51 11.01.2020
4500 Clear 10 1023 66 16093 1.5 310 05:50 11.01.2020
4501 Clear 11 1024 54 16093 2.3 229 04:47 11.01.2020
4502 Clear 12 1023 67 16093 2.3 229 04:29 11.01.2020
4503 Clear 13 1023 50 14484 1.5 310 02:58 11.01.2020
4504 Clear 13 1023 50 14484 1.5 310 02:38 11.01.2020
4505 Clear 15 1023 44 16093 3.1 260 01:43 11.01.2020
4506 Clear 16 1023 52 16093 2.6 270 01:20 11.01.2020
4507 Clear 17 1023 31 16093 2.1 0 00:43 11.01.2020
4508 Clear 17 1023 52 16093 2.6 250 00:18 11.01.2020
4509 Clear 17 1022 41 16093 2.6 250 23:40 10.01.2020
4510 Clear 17 1022 41 16093 2.6 250 23:40 10.01.2020
4511 Clear 17 1022 39 16093 1.74 233 23:22 10.01.2020
4512 Clear 17 1023 27 16093 1.74 233 22:59 10.01.2020
4513 Clear 17 1023 27 16093 1.74 233 22:40 10.01.2020
4514 Clear 17 1022 42 16093 2.1 0 22:20 10.01.2020
4515 Clear 17 1023 31 16093 1.5 0 21:57 10.01.2020
4516 Clear 17 1023 31 16093 1.5 0 21:37 10.01.2020
4517 Clear 17 1023 39 16093 1.74 233 21:19 10.01.2020
4518 Clear 16 1023 35 16093 1.74 233 20:43 10.01.2020
4519 Clear 15 1024 42 16093 1.5 80 20:25 10.01.2020
4520 Clear 15 1024 42 16093 1.5 80 20:25 10.01.2020
4521 Clear 15 1024 54 16093 3.1 230 19:59 10.01.2020
4522 Clear 14 1024 54 16093 3.1 230 19:38 10.01.2020
4523 Clear 14 1025 51 16093 1.22 132 19:20 10.01.2020
4524 Clear 12 1024 66 16093 2.1 230 18:44 10.01.2020
4525 Clear 11 1024 66 16093 1.22 132 18:20 10.01.2020
4526 Clear 10 1023 46 16093 1.22 132 17:58 10.01.2020
4527 Clear 10 1023 81 14484 1.22 132 17:39 10.01.2020
4528 Clear 9 1023 81 14484 0.43 42 17:21 10.01.2020
4529 Mist 8 1023 87 9656 0.43 42 16:59 10.01.2020
4530 Clear 7 1022 46 16093 3.1 10 16:40 10.01.2020
4531 Clear 7 1022 76 16093 0.43 42 16:21 10.01.2020
4532 Clear 7 1022 76 16093 0.43 42 16:21 10.01.2020
4533 Clear 7 1022 70 16093 2.6 10 15:56 10.01.2020
4534 Clear 7 1022 70 16093 2.6 10 15:37 10.01.2020
4535 Clear 7 1022 76 16093 0.43 42 15:19 10.01.2020
4536 Clouds 7 1022 87 16093 0.43 42 14:56 10.01.2020
4537 Clouds 7 1022 87 16093 0.43 42 14:38 10.01.2020
4538 Clear 7 1021 81 14484 0.69 218 14:19 10.01.2020
4539 Clouds 7 1020 76 16093 0.69 218 13:45 10.01.2020
4540 Clear 7 1020 71 16093 1.5 0 13:27 10.01.2020
4541 Clear 7 1020 65 16093 4.1 50 12:59 10.01.2020
4542 Clear 8 1020 65 16093 4.1 50 12:40 10.01.2020
4543 Clear 8 1020 66 16093 1.5 100 12:21 10.01.2020
4544 Clear 8 1020 66 16093 0.28 199 11:58 10.01.2020
4545 Clear 8 1020 66 16093 0.28 199 11:40 10.01.2020
4546 Clear 8 1020 66 16093 0.86 322 11:19 10.01.2020
4547 Clear 8 1019 61 16093 0.86 322 10:59 10.01.2020
4548 Clear 8 1019 61 16093 0.86 322 10:38 10.01.2020
4549 Clear 9 1019 57 16093 0.86 322 10:19 10.01.2020
4550 Clear 9 1018 87 16093 2.1 360 09:46 10.01.2020
4551 Clear 9 1018 57 16093 0.86 322 09:26 10.01.2020
4552 Clear 9 1018 81 16093 3.1 300 08:58 10.01.2020
4553 Clear 8 1018 81 16093 3.1 300 08:38 10.01.2020
4554 Clear 8 1018 71 16093 1.17 360 08:20 10.01.2020
4555 Clear 9 1017 66 16093 1.17 360 07:41 10.01.2020
4556 Clear 9 1017 66 16093 1.17 360 07:41 10.01.2020
4557 -273 0 0 0 0 0 07:22 10.01.2020
4558 Clear 9 1016 76 16093 2.6 360 06:43 10.01.2020
4559 Clear 10 1016 47 16093 1.17 360 06:24 10.01.2020
4560 Clear 10 1015 44 16093 1.5 360 05:33 10.01.2020
4561 Clear 11 1014 44 16093 2.86 99 03:34 10.01.2020
4562 Clear 12 1014 44 16093 2.86 99 03:34 10.01.2020
4563 Clear 12 1013 44 16093 3.6 350 02:57 10.01.2020
4564 Clear 12 1013 44 16093 3.6 350 02:36 10.01.2020
4565 Clouds 13 1012 54 16093 4.1 230 01:38 10.01.2020
4566 Clouds 14 1012 58 16093 5.1 240 00:57 10.01.2020
4567 Clouds 14 1012 58 16093 5.1 240 00:38 10.01.2020
4568 Clouds 14 1012 54 16093 3.1 240 23:57 09.01.2020
4569 Clouds 14 1012 58 16093 5.1 260 23:38 09.01.2020
4570 Clouds 14 1012 58 16093 5.1 260 23:38 09.01.2020
4571 Clouds 14 1012 58 16093 5.1 260 23:38 09.01.2020
4572 Clouds 14 1012 58 16093 5.1 260 23:38 09.01.2020
4573 Clouds 14 1012 48 16093 3.1 250 23:19 09.01.2020
4574 Clouds 14 1013 47 16093 2.1 220 22:57 09.01.2020
4575 Clouds 15 1013 47 16093 2.1 220 22:37 09.01.2020
4576 Clouds 15 1013 48 16093 2.1 0 22:18 09.01.2020
4577 Clouds 14 1013 62 16093 3.94 267 21:56 09.01.2020
4578 Clouds 15 1013 62 16093 3.94 267 21:37 09.01.2020
4579 Clouds 15 1014 51 16093 2.6 260 21:37 09.01.2020
4580 Clouds 15 1013 62 16093 3.94 267 21:37 09.01.2020
4581 Clouds 15 1014 51 16093 2.6 260 21:18 09.01.2020
4582 Clear 14 1012 41 1200 2.6 0 20:56 09.01.2020
4583 Clear 14 1012 41 1200 2.6 0 20:38 09.01.2020
4584 Clear 14 1012 41 1200 2.6 0 20:19 09.01.2020
4585 Clear 14 1016 65 16093 1.69 215 19:55 09.01.2020
4586 Clouds 13 1016 54 16093 1.5 0 19:36 09.01.2020
4587 Clouds 13 1016 62 16093 1.69 215 19:18 09.01.2020
4588 Clouds 12 1016 62 16093 1.69 215 18:54 09.01.2020
4589 Clear 13 1016 65 16093 1.69 215 18:54 09.01.2020
4590 Clouds 12 1015 81 16093 1.69 215 18:36 09.01.2020
4591 Clouds 12 1016 62 16093 1.69 215 18:18 09.01.2020
4592 Clouds 12 1016 62 16093 1.69 215 18:18 09.01.2020
4593 Haze 11 1016 58 6437 1.69 215 17:40 09.01.2020
4594 Haze 10 1016 58 6437 0.91 183 17:18 09.01.2020
4595 Clouds 9 1016 53 16093 1.5 20 16:47 09.01.2020
4596 Clouds 9 1016 53 16093 1.5 10 16:23 09.01.2020
4597 Clouds 8 1016 53 16093 1.5 10 16:23 09.01.2020
4598 Clouds 8 1015 53 16093 1.5 360 15:56 09.01.2020
4599 Clouds 8 1015 61 16093 0.91 183 15:56 09.01.2020
4600 Clouds 9 1015 53 16093 1.5 360 15:38 09.01.2020
4601 Clouds 8 1015 58 16093 0.91 183 15:18 09.01.2020
4602 Clouds 9 1015 50 16093 1.5 350 14:41 09.01.2020
4603 Clouds 8 1015 50 16093 1.5 350 14:21 09.01.2020
4604 Clouds 8 1015 66 16093 2.06 183 13:57 09.01.2020
4605 Clouds 9 1014 87 16093 1.5 260 13:39 09.01.2020
4606 Clouds 9 1015 62 16093 1.94 184 13:20 09.01.2020
4607 Clouds 9 1015 81 16093 2.6 270 12:58 09.01.2020
4608 Clouds 9 1015 81 16093 2.6 270 12:38 09.01.2020
4609 Clouds 9 1016 76 16093 1.94 184 12:19 09.01.2020
4610 Clouds 9 1015 61 16093 1.94 184 11:55 09.01.2020
4611 Clouds 9 1015 76 16093 2.1 90 11:37 09.01.2020
4612 Clouds 9 1015 71 16093 2.15 174 11:19 09.01.2020
4613 Clouds 9 1016 76 16093 2.15 174 10:42 09.01.2020
4614 Clouds 10 1016 87 14484 1.5 70 10:22 09.01.2020
4615 Clouds 10 1016 57 16093 2.1 350 09:55 09.01.2020
4616 Clouds 10 1015 81 16093 4.1 290 09:37 09.01.2020
4617 Clouds 9 1016 76 14484 2.15 174 09:18 09.01.2020
4618 Clouds 10 1015 66 16093 2.15 174 08:54 09.01.2020
4619 Clouds 9 1015 87 16093 3.1 260 08:36 09.01.2020
4620 Clear 9 1016 76 16093 2.45 175 08:18 09.01.2020
4621 Clouds 9 1016 87 16093 3.1 250 07:41 09.01.2020
4622 Clear 9 1016 76 16093 2.45 175 07:23 09.01.2020
4623 Clouds 10 1016 93 12874 2.1 250 06:38 09.01.2020
4624 Clear 10 1015 76 16093 2.45 175 06:18 09.01.2020
4625 Clouds 11 1015 87 16093 2.6 260 05:43 09.01.2020
4626 Clouds 11 1015 81 16093 3.6 260 04:42 09.01.2020
4627 Clear 12 1015 67 16093 2.77 193 03:30 09.01.2020
4628 Clear 13 1015 63 16093 2.6 270 02:48 09.01.2020
4629 Clear 13 1015 63 16093 2.6 270 02:23 09.01.2020
4630 Clouds 14 1014 59 16093 2.1 260 01:35 09.01.2020
4631 Clear 15 1014 58 16093 4.1 250 00:40 09.01.2020
4632 Clear 15 1014 59 16093 1.5 260 00:20 09.01.2020
4633 Clouds 16 1014 67 16093 3.1 220 23:42 08.01.2020
4634 Clear 16 1014 48 16093 2.3 188 23:24 08.01.2020
4635 Clear 16 1014 51 16093 3.6 130 22:58 08.01.2020
4636 Clear 16 1014 51 16093 2.1 240 22:38 08.01.2020
4637 Clear 16 1015 48 16093 2.3 188 22:20 08.01.2020
4638 Clear 16 1014 51 16093 2.1 0 21:57 08.01.2020
4639 Clear 16 1014 50 16093 3.1 200 21:38 08.01.2020
4640 Clear 16 1015 48 16093 1.5 0 21:19 08.01.2020
4641 Clear 16 1015 48 16093 1.5 0 20:58 08.01.2020
4642 Clouds 16 1016 63 16093 2.6 180 20:38 08.01.2020
4643 Clear 15 1016 55 16093 1.5 100 20:20 08.01.2020
4644 Clear 14 1016 58 16093 1.5 0 19:56 08.01.2020
4645 Clear 14 1016 58 16093 1.5 0 19:56 08.01.2020
4646 Clear 14 1017 50 16093 2.6 190 19:56 08.01.2020
4647 Clouds 14 1017 66 14484 3.1 70 19:37 08.01.2020
4648 Clouds 13 1017 59 16093 1.5 0 19:18 08.01.2020
4649 Clear 13 1017 62 16093 0.91 145 18:55 08.01.2020
4650 Haze 13 1017 67 9656 1.5 0 18:37 08.01.2020
4651 Haze 12 1017 67 9656 1.5 0 18:18 08.01.2020
4652 Clouds 11 1017 67 11265 0.91 145 17:47 08.01.2020
4653 Clouds 10 1016 66 16093 2.1 360 17:24 08.01.2020
4654 Clouds 10 1016 66 16093 2.1 360 17:24 08.01.2020
4655 Clouds 8 1016 66 16093 2.6 330 16:57 08.01.2020
4656 Clouds 8 1016 81 11265 2.1 90 16:39 08.01.2020
4657 Clear 8 1016 62 16093 2.6 40 16:39 08.01.2020
4658 Clouds 8 1016 81 11265 2.1 90 16:19 08.01.2020
4659 Clouds 8 1016 66 16093 0.55 89 15:59 08.01.2020
4660 Mist 8 1016 81 9656 2.1 90 15:40 08.01.2020
4661 Fog 8 1016 87 402 0.55 89 15:20 08.01.2020
4662 Fog 8 1016 87 402 2.1 0 14:56 08.01.2020
4663 Clouds 8 1016 87 11265 1.5 80 14:38 08.01.2020
4664 Mist 8 1016 87 9656 1.5 130 14:19 08.01.2020
4665 Clouds 8 1017 76 11265 2.1 90 13:39 08.01.2020
4666 Clouds 9 1016 62 16093 2.6 60 13:19 08.01.2020
4667 Clouds 9 1016 70 16093 1.5 350 12:42 08.01.2020
4668 Clouds 9 1017 76 16093 1.5 90 12:19 08.01.2020
4669 Clouds 9 1017 76 16093 1.09 116 11:55 08.01.2020
4670 Clear 9 1017 61 16093 2.1 310 11:37 08.01.2020
4671 Clear 9 1017 71 16093 2.1 90 11:19 08.01.2020
4672 Clouds 9 1017 66 16093 2.1 10 10:55 08.01.2020
4673 Clouds 9 1017 62 16093 1.75 121 10:37 08.01.2020
4674 Clouds 9 1017 62 16093 1.75 121 10:18 08.01.2020
4675 Clear 10 1017 34 16093 2.1 10 09:41 08.01.2020
4676 Clear 10 1017 62 16093 1.5 0 09:19 08.01.2020
4677 Clear 11 1017 43 16093 1.75 121 08:56 08.01.2020
4678 Clear 11 1017 62 16093 1.75 121 08:37 08.01.2020
4679 Clear 10 1017 62 16093 1.68 124 08:19 08.01.2020
4680 Clouds 11 1018 34 16093 2.6 40 07:48 08.01.2020
4681 Clear 11 1018 67 16093 1.68 124 07:29 08.01.2020
4682 Clear 12 1018 34 16093 1.68 124 06:45 08.01.2020
4683 Clear 12 1017 59 16093 1.68 124 06:19 08.01.2020
4684 Clear 13 1018 35 14484 2.1 320 05:41 08.01.2020
4685 Clear 13 1018 35 14484 2.1 320 05:41 08.01.2020
4686 Clear 14 1017 35 16093 1.21 209 04:56 08.01.2020
4687 Clear 14 1017 63 16093 1.21 209 04:24 08.01.2020
4688 Clouds 17 1017 27 16093 6.2 250 02:45 08.01.2020
4689 Clear 17 1017 30 16093 1.5 270 02:22 08.01.2020
4690 Clouds 19 1018 18 16093 3.1 270 01:48 08.01.2020
4691 Clear 20 1017 27 16093 1.5 260 01:19 08.01.2020
4692 Clear 21 1016 10 16093 2.37 232 00:28 08.01.2020
4693 Clear 21 1016 10 16093 2.37 232 00:28 08.01.2020
4694 Clear 22 1018 11 14484 2.37 232 23:57 07.01.2020
4695 Clear 22 1018 11 14484 2.37 232 23:39 07.01.2020
4696 Clear 23 1017 11 16093 0.6 183 23:20 07.01.2020
4697 Clear 23 1017 11 16093 0.6 183 23:20 07.01.2020
4698 Clear 23 1018 12 16093 0.6 183 22:40 07.01.2020
4699 Clear 23 1017 13 16093 1.5 30 22:20 07.01.2020
4700 Clear 23 1017 13 16093 1.5 30 21:57 07.01.2020
4701 Clear 23 1019 11 16093 0.6 183 21:38 07.01.2020
4702 Clear 23 1019 13 16093 2.1 0 21:20 07.01.2020
4703 Clear 22 1020 14 16093 0.6 183 20:55 07.01.2020
4704 Clear 22 1021 20 16093 2.1 30 20:37 07.01.2020
4705 Clear 20 1021 20 16093 2.1 30 20:19 07.01.2020
4706 Clear 19 1021 20 16093 3.6 70 19:38 07.01.2020
4707 Clear 19 1021 18 16093 2.1 360 19:20 07.01.2020
4708 Clear 18 1022 25 16093 0.42 111 18:58 07.01.2020
4709 Clear 18 1022 18 16093 0.42 111 18:40 07.01.2020
4710 Clear 17 1021 22 16093 0.42 111 18:19 07.01.2020
4711 Clear 15 1021 28 16093 0.42 111 18:00 07.01.2020
4712 Clear 14 1021 28 16093 2.1 30 17:39 07.01.2020
4713 Clear 13 1021 28 16093 2.1 30 17:21 07.01.2020
4714 Clear 12 1021 34 16093 3.6 320 16:57 07.01.2020
4715 Clear 11 1022 27 16093 1.14 48 16:38 07.01.2020
4716 Clear 11 1021 30 16093 1.5 40 16:19 07.01.2020
4717 Clear 11 1021 30 16093 1.5 40 15:58 07.01.2020
4718 Clear 11 1021 27 16093 1.14 48 15:40 07.01.2020
4719 Clear 11 1021 26 16093 1.5 10 15:22 07.01.2020
4720 Clear 12 1021 34 16093 2.1 10 14:55 07.01.2020
4721 Clear 11 1021 31 16093 1.14 48 14:37 07.01.2020
4722 Clear 12 1021 26 16093 1.5 30 14:18 07.01.2020
4723 Clear 12 1022 26 16093 2.1 20 13:39 07.01.2020
4724 Clear 12 1022 26 16093 2.1 20 13:19 07.01.2020
4725 Clear 12 1022 29 16093 1.37 36 12:41 07.01.2020
4726 Clear 12 1022 24 16093 2.1 0 12:20 07.01.2020
4727 Clear 12 1022 24 16093 2.1 0 11:58 07.01.2020
4728 Clear 12 1022 26 16093 2.1 30 11:38 07.01.2020
4729 Clear 12 1022 26 16093 2.1 30 11:20 07.01.2020
4730 Clear 13 1023 29 16093 2.1 310 10:42 07.01.2020
4731 Clear 13 1023 29 16093 2.1 310 10:42 07.01.2020
4732 Clear 13 1023 26 16093 1.5 40 10:24 07.01.2020
4733 Clear 13 1023 26 16093 1.5 40 09:59 07.01.2020
4734 Clear 13 1024 32 16093 2.1 320 09:38 07.01.2020
4735 Clear 13 1023 25 16093 2.1 50 09:20 07.01.2020
4736 Clear 13 1024 30 16093 1.04 35 08:46 07.01.2020
4737 Clear 14 1023 23 16093 1.5 20 08:26 07.01.2020
4738 Clear 14 1024 32 16093 1.3 29 07:54 07.01.2020
4739 Clear 14 1024 25 16093 1.5 0 07:29 07.01.2020
4740 Clear 15 1024 24 16093 2.1 320 06:54 07.01.2020
4741 Clear 15 1025 30 16093 1.3 29 06:54 07.01.2020
4742 Clear 15 1024 23 16093 2.1 20 06:35 07.01.2020
4743 Clear 15 1024 23 16093 2.1 20 05:57 07.01.2020
4744 Clear 16 1023 25 16093 1.3 29 05:38 07.01.2020
4745 Clear 18 1025 21 16093 2.6 10 03:44 07.01.2020
4746 Clear 20 1023 21 16093 1.57 21 02:25 07.01.2020
4747 Clear 21 1024 14 16093 2.1 300 01:57 07.01.2020
4748 Clear 22 1023 13 16093 0.71 14 01:34 07.01.2020
4749 Clear 23 1025 12 16093 3.1 250 00:51 07.01.2020
4750 Clear 23 1023 11 16093 0.7 77 00:20 07.01.2020
4751 Clear 24 1024 15 16093 2.1 130 23:56 06.01.2020
4752 Clear 23 1024 11 16093 0.7 77 23:37 06.01.2020
4753 Clear 23 1024 11 16093 0.48 149 23:19 06.01.2020
4754 Clear 23 1025 9 16093 2.1 260 22:43 06.01.2020
4755 Clear 23 1024 13 16093 1.5 0 22:24 06.01.2020
4756 Clear 23 1024 13 16093 1.5 0 22:24 06.01.2020
4757 Clear 23 1024 13 16093 1.5 0 21:58 06.01.2020
4758 Clear 23 1024 13 16093 1.5 0 21:58 06.01.2020
4759 Clear 23 1025 8 16093 2.6 290 21:39 06.01.2020
4760 Clear 23 1025 17 16093 0.48 149 21:20 06.01.2020
4761 Clear 23 1025 17 16093 0.48 149 21:20 06.01.2020
4762 Clear 22 1025 15 16093 2.6 150 20:57 06.01.2020
4763 Clear 22 1026 11 16093 2.6 270 20:38 06.01.2020
4764 Clear 22 1026 11 16093 2.6 270 20:38 06.01.2020
4765 Clear 20 1026 21 16093 0.71 120 20:20 06.01.2020
4766 Clear 20 1028 22 16093 2.6 110 19:56 06.01.2020
4767 Clear 20 1026 28 16093 0.8 108 19:38 06.01.2020
4768 Clear 19 1026 28 16093 0.8 108 19:20 06.01.2020
4769 Clear 18 1028 21 16093 0.8 108 18:48 06.01.2020
4770 Clear 17 1026 38 16093 0.8 108 18:23 06.01.2020
4771 Clear 16 1026 33 16093 1.5 30 17:59 06.01.2020
4772 Clear 15 1026 24 14484 2.1 300 17:38 06.01.2020
4773 Clear 12 1025 53 16093 1.38 44 17:18 06.01.2020
4774 Clear 12 1026 26 16093 1.38 44 16:46 06.01.2020
4775 Clear 11 1027 34 16093 1.38 44 16:46 06.01.2020
4776 Clear 11 1025 57 16093 1.38 44 16:27 06.01.2020
4777 Clear 11 1025 57 16093 1.38 44 15:59 06.01.2020
4778 Clear 11 1025 26 16093 2.6 360 15:41 06.01.2020
4779 Clear 11 1024 53 16093 1.38 44 15:20 06.01.2020
4780 Clear 11 1024 52 16093 1.38 44 14:58 06.01.2020
4781 Clear 12 1024 32 16093 2.6 350 14:40 06.01.2020
4782 Clear 12 1024 50 16093 1.34 19 14:20 06.01.2020
4783 Clear 13 1024 49 16093 1.34 19 13:57 06.01.2020
4784 Clear 12 1024 37 16093 3.6 340 13:37 06.01.2020
4785 Clear 12 1024 50 16093 1.74 21 13:19 06.01.2020
4786 Clear 12 1024 34 16093 2.6 320 12:43 06.01.2020
4787 Clear 12 1024 50 16093 1.74 21 12:21 06.01.2020
4788 Clear 12 1024 50 16093 1.74 21 11:58 06.01.2020
4789 Clear 12 1024 62 16093 1.74 21 11:39 06.01.2020
4790 Clear 12 1024 62 16093 1.6 7 11:20 06.01.2020
4791 Clear 12 1024 81 11265 3.1 310 10:54 06.01.2020
4792 Clear 12 1024 62 16093 1.6 7 10:36 06.01.2020
4793 Clear 12 1024 62 16093 1.6 7 10:18 06.01.2020
4794 Clear 12 1024 32 16093 2.1 340 09:38 06.01.2020
4795 Clear 12 1024 50 16093 1.6 7 09:19 06.01.2020
4796 Clear 12 1024 37 16093 4.1 360 08:46 06.01.2020
4797 Clear 13 1024 58 16093 1.27 342 08:26 06.01.2020
4798 Clear 13 1025 33 16093 2.6 350 07:53 06.01.2020
4799 Clear 12 1024 62 16093 1.02 17 07:32 06.01.2020
4800 Clear 13 1024 27 16093 2.1 200 06:45 06.01.2020
4801 Clear 13 1024 62 16093 1.02 17 06:23 06.01.2020
4802 Clear 12 1024 47 16093 2.6 30 05:45 06.01.2020
4803 Clear 13 1023 41 16093 2.6 340 04:38 06.01.2020
4804 Clear 14 1023 62 16093 1.69 13 04:19 06.01.2020
4805 Clear 15 1023 51 16093 1.5 10 02:56 06.01.2020
4806 Clear 16 1022 51 16093 1.67 163 02:24 06.01.2020
4807 Clear 17 1023 31 14484 2.1 270 01:45 06.01.2020
4808 Clear 17 1022 45 16093 1.43 177 01:26 06.01.2020
4809 Clear 18 1023 28 16093 3.1 250 00:42 06.01.2020
4810 Clear 19 1023 42 16093 1.5 250 00:23 06.01.2020
4811 Clear 19 1023 24 16093 2.6 250 23:42 05.01.2020
4812 Clear 20 1023 37 16093 2.1 260 23:23 05.01.2020
4813 Clear 20 1023 17 16093 5.1 300 22:57 05.01.2020
4814 Clear 20 1023 29 16093 2.1 230 22:38 05.01.2020
4815 Clear 19 1023 30 16093 1.02 238 22:20 05.01.2020
4816 Clear 19 1024 34 14484 2.6 220 21:55 05.01.2020
4817 Clear 19 1024 34 14484 2.6 220 21:37 05.01.2020
4818 Clear 19 1024 28 16093 1.5 0 21:37 05.01.2020
4819 Clear 19 1024 28 16093 1.5 0 21:19 05.01.2020
4820 Clear 18 1025 29 16093 3.6 280 20:55 05.01.2020
4821 Clear 18 1025 31 12874 2.1 220 20:37 05.01.2020
4822 Clear 17 1025 32 16093 0.28 211 20:19 05.01.2020
4823 Clear 17 1025 32 16093 0.28 211 19:56 05.01.2020
4824 Clear 16 1026 36 14484 0.28 211 19:37 05.01.2020
4825 Clear 16 1026 39 16093 1.5 100 19:19 05.01.2020
4826 Clear 15 1026 47 16093 1.5 100 18:55 05.01.2020
4827 Clear 14 1027 38 14484 0.28 211 18:36 05.01.2020
4828 Clear 13 1026 58 16093 0.28 211 18:18 05.01.2020
4829 Clear 12 1026 57 16093 0.28 211 17:57 05.01.2020
4830 Clear 11 1026 58 16093 0.28 211 17:37 05.01.2020
4831 Clear 9 1026 58 16093 0.14 99 17:19 05.01.2020
4832 Clear 8 1025 55 16093 0.14 99 16:55 05.01.2020
4833 Clear 8 1025 55 16093 0.14 99 16:37 05.01.2020
4834 Clear 7 1025 57 16093 0.14 99 16:18 05.01.2020
4835 Clear 7 1025 61 16093 2.1 50 15:37 05.01.2020
4836 Clear 8 1025 76 16093 0.14 99 15:18 05.01.2020
4837 Clear 8 1025 65 16093 0.14 99 14:55 05.01.2020
4838 Mist 8 1025 93 4828 0.14 99 14:36 05.01.2020
4839 Clear 8 1025 76 16093 0.72 270 14:18 05.01.2020
4840 Fog 8 1025 100 402 0.72 270 13:40 05.01.2020
4841 Fog 8 1025 100 402 0.37 290 13:21 05.01.2020
4842 Clear 9 1025 70 16093 0.37 290 12:58 05.01.2020
4843 Clear 8 1025 57 16093 1.5 40 12:39 05.01.2020
4844 Clear 8 1025 81 14484 0.37 290 12:39 05.01.2020
4845 Clear 9 1025 81 14484 0.37 290 12:21 05.01.2020
4846 Clear 9 1025 75 16093 0.37 290 11:58 05.01.2020
4847 Clear 9 1025 46 16093 0.37 290 11:39 05.01.2020
4848 Fog 9 1025 100 0 0.37 290 11:39 05.01.2020
4849 Fog 9 1025 100 0 0.3 244 11:19 05.01.2020
4850 Fog 9 1025 100 0 0.3 244 11:19 05.01.2020
4851 Clear 9 1025 75 16093 0.3 244 10:56 05.01.2020
4852 Mist 9 1025 93 1207 0.3 244 10:36 05.01.2020
4853 Haze 9 1025 81 8047 0.3 244 10:18 05.01.2020
4854 Clear 9 1025 50 16093 2.6 70 09:41 05.01.2020
4855 Mist 10 1025 93 1207 0.3 244 09:21 05.01.2020
4856 Clear 10 1026 54 16093 2.6 50 08:49 05.01.2020
4857 Mist 10 1026 87 8047 0.3 244 08:30 05.01.2020
4858 Clear 10 1026 66 16093 1.5 250 07:56 05.01.2020
4859 Clear 10 1026 44 16093 1.5 20 07:37 05.01.2020
4860 Haze 10 1026 87 6437 0.48 278 07:19 05.01.2020
4861 Clear 11 1026 58 16093 1.5 360 05:59 05.01.2020
4862 Haze 12 1026 82 9656 0.48 278 05:32 05.01.2020
4863 Clear 12 1026 58 16093 1.16 263 04:43 05.01.2020
4864 Clear 13 1026 87 12874 2.1 290 04:18 05.01.2020
4865 Clear 13 1026 87 12874 2.1 290 04:18 05.01.2020
4866 Clear 13 1026 87 12874 2.1 290 04:18 05.01.2020
4867 Clouds 15 1025 48 16093 2.6 330 02:46 05.01.2020
4868 Clear 15 1025 55 16093 1.16 263 02:24 05.01.2020
4869 Clear 17 1026 34 16093 1.5 220 01:48 05.01.2020
4870 Clear 18 1025 45 16093 1.5 0 01:19 05.01.2020
4871 Clear 19 1025 36 16093 4.1 250 00:42 05.01.2020
4872 Clear 19 1025 43 16093 1.5 0 00:23 05.01.2020
4873 Clear 19 1025 43 16093 1.5 0 23:59 04.01.2020
4874 Clear 19 1025 28 16093 3.1 230 23:40 04.01.2020
4875 Clear 19 1025 43 16093 1.5 0 23:19 04.01.2020
4876 Clear 19 1025 43 16093 1.5 0 23:19 04.01.2020
4877 Clear 19 1025 34 14484 2.1 0 22:40 04.01.2020
4878 Clear 19 1025 37 12874 1.33 200 22:22 04.01.2020
4879 Clouds 19 1026 63 16093 3.1 280 21:58 04.01.2020
4880 Clear 19 1026 36 16093 1.33 200 21:40 04.01.2020
4881 Clear 19 1026 37 14484 1.33 200 21:20 04.01.2020
4882 Clear 18 1026 39 16093 1.33 200 20:59 04.01.2020
4883 Clear 18 1027 34 16093 1.5 130 20:40 04.01.2020
4884 Clear 17 1027 42 16093 1.15 149 20:22 04.01.2020
4885 Clear 17 1027 42 16093 1.15 149 19:57 04.01.2020
4886 Clear 16 1028 44 16093 1.15 149 19:38 04.01.2020
4887 Clear 16 1028 39 16093 1.5 140 19:20 04.01.2020
4888 Clear 15 1029 38 16093 1.15 149 18:56 04.01.2020
4889 Clear 15 1028 44 16093 2.1 120 18:37 04.01.2020
4890 Clear 14 1028 48 16093 1.15 149 18:19 04.01.2020
4891 Clear 12 1028 44 16093 1.15 149 17:41 04.01.2020
4892 Clear 10 1027 66 16093 0.37 107 17:23 04.01.2020
4893 Clear 9 1027 66 16093 0.37 107 16:59 04.01.2020
4894 Clear 8 1027 50 16093 2.6 360 16:40 04.01.2020
4895 Clear 8 1027 66 16093 0.37 107 16:21 04.01.2020
4896 Clear 8 1027 75 16093 0.37 107 15:56 04.01.2020
4897 Clear 8 1027 53 16093 0.37 107 15:38 04.01.2020
4898 Clear 8 1026 71 16093 0.37 107 15:18 04.01.2020
4899 Clear 8 1026 53 16093 2.1 50 14:42 04.01.2020
4900 Clear 8 1026 71 16093 0.34 222 14:20 04.01.2020
4901 Clear 8 1025 75 16093 0.34 222 13:59 04.01.2020
4902 Clear 8 1026 53 16093 2.6 40 13:39 04.01.2020
4903 Clear 8 1026 71 16093 0.28 276 13:20 04.01.2020
4904 Clear 9 1026 71 16093 0.28 276 12:59 04.01.2020
4905 Clear 9 1026 50 16093 0.28 276 12:40 04.01.2020
4906 Clear 9 1026 50 16093 0.28 276 12:40 04.01.2020
4907 Clear 9 1026 71 16093 0.28 276 12:19 04.01.2020
4908 Clear 9 1026 70 16093 0.28 276 11:57 04.01.2020
4909 Clear 9 1026 46 16093 2.1 40 11:38 04.01.2020
4910 Clear 9 1026 76 12874 0.31 224 11:19 04.01.2020
4911 Clear 10 1026 46 16093 2.1 30 10:41 04.01.2020
4912 Clear 10 1026 71 12874 0.31 224 10:22 04.01.2020
4913 Clear 10 1026 70 16093 0.31 224 09:57 04.01.2020
4914 Clear 10 1026 46 16093 0.31 224 09:39 04.01.2020
4915 Clear 10 1026 76 12874 0.31 224 09:20 04.01.2020
4916 Clear 10 1026 46 16093 2.1 30 08:40 04.01.2020
4917 Clear 11 1026 66 14484 0.53 183 08:20 04.01.2020
4918 Clear 11 1027 43 16093 2.1 50 07:42 04.01.2020
4919 Clear 11 1026 67 16093 0.53 183 07:20 04.01.2020
4920 Clear 12 1026 62 16093 0.53 183 06:33 04.01.2020
4921 Clear 13 1025 55 16093 0.95 236 05:20 04.01.2020
4922 Clear 14 1025 48 16093 0.95 236 04:42 04.01.2020
4923 Clear 14 1025 48 16093 0.95 236 04:24 04.01.2020
4924 Clear 15 1024 45 16093 0.95 236 03:18 04.01.2020
4925 Clear 17 1024 42 16093 1.5 270 02:21 04.01.2020
4926 Clear 19 1025 30 16093 2.6 150 01:55 04.01.2020
4927 Clear 19 1023 35 16093 1.5 260 01:32 04.01.2020
4928 Clear 20 1024 26 16093 3.1 260 00:46 04.01.2020
4929 Clear 20 1023 33 16093 2.1 260 00:26 04.01.2020
4930 Clear 21 1024 26 16093 3.6 230 23:48 03.01.2020
4931 Clear 21 1023 30 16093 2.29 205 23:25 03.01.2020
4932 Clear 21 1024 23 16093 2.6 120 22:54 03.01.2020
4933 Clear 21 1023 25 16093 2.2 205 22:36 03.01.2020
4934 Clear 21 1023 25 16093 2.2 205 22:18 03.01.2020
4935 Clear 21 1024 19 16093 2.2 205 21:54 03.01.2020
4936 Clear 21 1024 19 16093 2.2 205 21:36 03.01.2020
4937 Clear 21 1023 25 16093 2.2 205 21:18 03.01.2020
4938 Clear 20 1024 19 16093 2.6 220 20:43 03.01.2020
4939 Clear 19 1024 28 16093 0.7 167 20:19 03.01.2020
4940 Clear 19 1024 29 16093 1.5 200 19:59 03.01.2020
4941 Clear 18 1025 22 16093 0.7 167 19:40 03.01.2020
4942 Clear 18 1024 34 16093 0.7 167 19:22 03.01.2020
4943 Clear 16 1025 29 16093 1.5 180 18:46 03.01.2020
4944 Clear 15 1023 39 16093 1.5 350 18:26 03.01.2020
4945 Clear 15 1023 39 16093 1.5 350 18:26 03.01.2020
4946 Clear 14 1023 39 16093 1.5 350 17:58 03.01.2020
4947 Clear 13 1024 25 16093 2.6 270 17:39 03.01.2020
4948 Clear 11 1023 50 16093 2.1 20 17:21 03.01.2020
4949 Clear 10 1023 31 16093 1.13 50 16:44 03.01.2020
4950 Clear 9 1022 62 16093 1.13 50 16:24 03.01.2020
4951 Clear 9 1022 62 16093 1.13 50 15:59 03.01.2020
4952 Clear 10 1022 43 16093 1.13 50 15:41 03.01.2020
4953 Clear 9 1021 66 16093 1.13 50 15:19 03.01.2020
4954 Clear 10 1021 40 16093 1.13 50 14:40 03.01.2020
4955 Clear 9 1020 71 16093 1.17 62 14:20 03.01.2020
4956 Clear 10 1021 65 16093 2.1 360 13:57 03.01.2020
4957 Clear 10 1021 33 16093 3.1 10 13:39 03.01.2020
4958 Clear 10 1020 71 16093 0.97 48 13:20 03.01.2020
4959 Clear 10 1021 40 16093 2.6 20 12:41 03.01.2020
4960 Clear 10 1020 71 16093 0.97 48 12:22 03.01.2020
4961 Clear 10 1020 40 16093 1.5 10 11:53 03.01.2020
4962 Clear 11 1020 76 16093 0.97 48 11:34 03.01.2020
4963 Clear 10 1020 40 16093 2.1 20 10:58 03.01.2020
4964 Clear 11 1019 71 16093 0.71 37 10:39 03.01.2020
4965 Clear 10 1019 71 16093 0.71 37 10:21 03.01.2020
4966 Clear 11 1020 35 16093 2.1 10 09:55 03.01.2020
4967 Clear 11 1020 35 16093 2.1 10 09:37 03.01.2020
4968 Clear 11 1019 76 14484 0.71 37 09:19 03.01.2020
4969 Clear 11 1019 33 16093 1.5 340 08:45 03.01.2020
4970 Clear 11 1019 76 11265 0.71 37 08:23 03.01.2020
4971 Clear 11 1019 76 11265 0.95 16 07:56 03.01.2020
4972 Clear 11 1019 42 16093 3.1 360 07:37 03.01.2020
4973 Clear 11 1018 76 11265 0.95 16 07:18 03.01.2020
4974 Clear 11 1019 43 16093 2.1 10 06:42 03.01.2020
4975 Clear 12 1018 82 11265 0.95 16 06:22 03.01.2020
4976 Clear 13 1017 82 11265 0.62 296 04:59 03.01.2020
4977 Clear 14 1016 72 16093 0.62 296 03:38 03.01.2020
4978 Clear 15 1016 51 16093 0.62 296 02:53 03.01.2020
4979 Clear 15 1016 51 16093 0.62 296 02:53 03.01.2020
4980 Clear 16 1017 48 16093 1.73 252 01:51 03.01.2020
4981 Clear 16 1015 63 16093 3.1 270 01:33 03.01.2020
4982 Clear 17 1015 36 16093 3.1 270 00:43 03.01.2020
4983 Clear 18 1014 56 16093 1.45 264 00:24 03.01.2020
4984 Clear 18 1014 34 16093 2.6 0 23:39 02.01.2020
4985 Clear 18 1014 49 16093 2.1 260 23:21 02.01.2020
4986 Clear 18 1014 49 16093 2.1 260 22:59 02.01.2020
4987 Clear 18 1015 34 16093 2.1 120 22:41 02.01.2020
4988 Clear 18 1014 40 16093 0.63 160 22:20 02.01.2020
4989 Clear 18 1014 40 16093 0.63 160 22:20 02.01.2020
4990 Clear 18 1014 37 16093 0.63 160 21:57 02.01.2020
4991 Clear 18 1015 45 16093 0.63 160 21:38 02.01.2020
4992 Clear 18 1015 45 16093 0.63 160 21:20 02.01.2020
4993 Clear 18 1015 45 16093 0.63 160 20:56 02.01.2020
4994 Clear 17 1015 44 16093 4.6 270 20:38 02.01.2020
4995 Clear 17 1016 55 16093 0.59 262 20:20 02.01.2020
4996 Clear 16 1017 39 16093 5.1 120 19:55 02.01.2020
4997 Clear 15 1016 59 16093 2.6 90 19:36 02.01.2020
4998 Clear 15 1016 59 16093 2.6 90 19:18 02.01.2020
4999 Clear 15 1015 62 16093 3.1 140 18:54 02.01.2020
5000 Clear 14 1016 66 16093 0.59 262 18:36 02.01.2020
5001 Clear 13 1015 62 16093 2.6 90 18:18 02.01.2020
5002 Clear 12 1015 76 16093 4.1 150 17:55 02.01.2020
5003 Clear 12 1015 76 14484 3.1 100 17:36 02.01.2020
5004 Clear 10 1015 76 14484 3.1 100 17:18 02.01.2020
5005 Clear 9 1014 87 16093 0.83 131 16:42 02.01.2020
5006 Clear 9 1014 87 16093 0.83 131 16:42 02.01.2020
5007 Clear 9 1013 76 12874 0.83 131 16:22 02.01.2020
5008 Clear 9 1013 76 12874 0.83 131 15:59 02.01.2020
5009 Clear 8 1013 87 16093 2.6 330 15:41 02.01.2020
5010 Clouds 8 1013 81 12874 0.83 131 15:23 02.01.2020
5011 Clouds 8 1013 76 14484 2.6 70 14:57 02.01.2020
5012 Clear 9 1013 87 16093 2.1 300 14:37 02.01.2020
5013 Clear 9 1013 76 14484 0.88 171 14:19 02.01.2020
5014 Clouds 9 1013 81 11265 1.5 80 13:58 02.01.2020
5015 Clouds 9 1013 87 11265 1.5 60 13:38 02.01.2020
5016 Clouds 9 1013 81 12874 2.1 60 12:59 02.01.2020
5017 Clouds 9 1013 81 12874 0.66 234 12:40 02.01.2020
5018 Clouds 9 1013 87 16093 1.5 80 12:20 02.01.2020
5019 Clouds 9 1013 87 11265 0.66 234 11:41 02.01.2020
5020 Clouds 9 1013 76 12874 1.5 90 11:21 02.01.2020
5021 Clouds 9 1013 81 11265 1.23 224 10:46 02.01.2020
5022 Mist 9 1013 93 4828 1.23 224 10:27 02.01.2020
5023 Mist 10 1013 93 8047 1.23 224 09:56 02.01.2020
5024 Clouds 10 1013 76 11265 1.23 224 09:35 02.01.2020
5025 Clear 10 1013 76 12874 1.23 224 08:58 02.01.2020
5026 Clear 10 1013 71 16093 2.1 310 08:39 02.01.2020
5027 Clear 10 1013 82 12874 1.5 80 08:19 02.01.2020
5028 Clear 11 1014 76 16093 2.6 310 07:47 02.01.2020
5029 Clear 11 1013 72 11265 1.5 100 07:26 02.01.2020
5030 Clear 11 1013 76 16093 2.1 310 06:41 02.01.2020
5031 Clear 11 1013 76 16093 2.1 310 06:41 02.01.2020
5032 Clear 12 1014 76 16093 1.63 132 05:40 02.01.2020
5033 Clear 13 1013 76 16093 2.1 290 04:34 02.01.2020
5034 Clear 14 1013 59 16093 2.73 227 03:29 02.01.2020
5035 Clear 14 1013 59 16093 2.73 227 03:29 02.01.2020
5036 Clear 15 1014 55 16093 2.79 205 02:21 02.01.2020
5037 Clear 16 1013 45 16093 4.1 160 01:53 02.01.2020
5038 Clear 17 1014 52 16093 3.1 260 01:25 02.01.2020
5039 Clear 17 1014 29 16093 2.1 270 00:45 02.01.2020
5040 Clear 17 1014 37 16093 2.55 221 00:26 02.01.2020
5041 Clear 18 1014 25 16093 4.1 230 23:43 01.01.2020
5042 Clear 18 1015 28 16093 2.06 231 23:23 01.01.2020
5043 Clear 18 1015 23 16093 3.6 240 22:39 01.01.2020
5044 Clear 18 1015 23 16093 3.6 240 22:39 01.01.2020
5045 Clear 18 1015 30 16093 1.5 0 22:20 01.01.2020
5046 Clear 18 1015 25 16093 1.5 150 21:58 01.01.2020
5047 Clear 18 1015 25 16093 1.5 150 21:58 01.01.2020
5048 Clear 18 1016 26 16093 2.1 210 21:40 01.01.2020
5049 Clear 18 1017 24 16093 2.06 231 21:20 01.01.2020
5050 Clear 18 1017 24 16093 2.06 231 21:20 01.01.2020
5051 Clear 17 1017 24 16093 2.06 231 20:58 01.01.2020
5052 Clear 17 1017 30 16093 2.6 230 20:38 01.01.2020
5053 Clear 17 1018 25 16093 0.86 94 20:20 01.01.2020
5054 Clear 17 1018 25 16093 0.86 94 20:20 01.01.2020
5055 Clear 16 1018 25 16093 0.86 94 19:57 01.01.2020
5056 Clear 16 1018 26 16093 0.86 94 19:38 01.01.2020
5057 Clear 15 1019 27 16093 1.5 100 19:20 01.01.2020
5058 Clear 15 1019 27 16093 1.5 100 18:57 01.01.2020
5059 Clear 14 1019 33 16093 0.86 94 18:38 01.01.2020
5060 Clear 13 1019 47 16093 0.86 94 18:20 01.01.2020
5061 Clear 12 1019 40 16093 2.6 240 17:58 01.01.2020
5062 Clear 11 1018 35 16093 0.86 94 17:39 01.01.2020
5063 Clear 10 1018 37 16093 1.5 0 17:19 01.01.2020
5064 Clear 8 1019 42 16093 2.1 0 16:57 01.01.2020
5065 Clear 8 1018 45 16093 2.6 60 16:38 01.01.2020
5066 Clear 7 1018 24 16093 1.06 78 16:19 01.01.2020
5067 Clear 7 1018 56 16093 1.5 240 15:56 01.01.2020
5068 Clear 8 1018 53 16093 1.06 78 15:37 01.01.2020
5069 Clear 8 1018 53 16093 1.06 78 15:19 01.01.2020
5070 Clear 8 1018 56 16093 1.06 78 14:55 01.01.2020
5071 Clear 8 1018 45 16093 1.06 78 14:37 01.01.2020
5072 Clear 8 1018 24 16093 1.5 0 14:19 01.01.2020
5073 Clear 9 1018 56 16093 1.35 70 13:55 01.01.2020
5074 Clear 9 1018 43 16093 1.35 70 13:36 01.01.2020
5075 Clear 9 1017 37 16093 1.5 80 13:18 01.01.2020
5076 Clear 9 1018 61 16093 2.6 100 12:40 01.01.2020
5077 Clear 9 1018 23 16093 1.34 78 12:19 01.01.2020
5078 Clear 9 1018 42 16093 1.34 78 11:56 01.01.2020
5079 Clouds 10 1019 46 16093 1.34 78 11:38 01.01.2020
5080 Clear 10 1018 46 16093 1.5 360 11:19 01.01.2020
5081 Haze 10 1018 61 9656 1.5 320 10:55 01.01.2020
5082 Clear 10 1017 46 16093 1.51 32 10:36 01.01.2020
5083 Clear 10 1017 46 16093 1.51 32 10:18 01.01.2020
5084 Clear 10 1018 23 16093 1.51 32 09:40 01.01.2020
5085 Clear 11 1018 41 16093 1.5 10 09:20 01.01.2020
5086 Clear 11 1018 49 16093 1.51 32 08:57 01.01.2020
5087 Clear 11 1019 43 16093 1.51 32 08:37 01.01.2020
5088 Clear 11 1019 23 16093 1.5 360 08:19 01.01.2020
5089 Clear 11 1019 23 16093 2.1 340 07:57 01.01.2020
5090 Clear 11 1019 23 16093 2.1 340 07:38 01.01.2020
5091 Clear 12 1019 40 16093 3.6 310 06:50 01.01.2020
5092 Clear 12 1018 36 16093 1.24 62 06:32 01.01.2020
5093 Clear 13 1018 40 16093 2.6 320 05:48 01.01.2020
5094 Clear 14 1017 33 16093 1.15 329 04:20 01.01.2020
5095 Clear 15 1016 28 16093 1.15 329 03:39 01.01.2020
5096 Clear 15 1016 28 16093 1.15 329 03:21 01.01.2020
5097 Clear 16 1017 36 16093 2.1 320 02:41 01.01.2020
5098 -273 0 0 0 0 0 02:22 01.01.2020
5099 Clear 18 1017 27 16093 2.1 250 01:41 01.01.2020
5100 Clear 19 1015 25 16093 1.32 211 01:22 01.01.2020
5101 Clear 20 1017 22 16093 5.1 320 00:45 01.01.2020
5102 Clear 20 1017 22 16093 5.1 320 00:45 01.01.2020
5103 Clear 20 1015 23 16093 1.32 211 00:26 01.01.2020
5104 Clear 20 1016 20 16093 2.1 330 23:56 31.12.2019
5105 Clear 20 1016 20 16093 2.1 330 23:36 31.12.2019
5106 Clear 20 1015 23 16093 1.68 277 23:18 31.12.2019
5107 Clear 20 1016 19 16093 2.1 280 22:55 31.12.2019
5108 Clear 20 1015 26 16093 1.68 277 22:36 31.12.2019
5109 Clear 20 1015 26 16093 1.68 277 22:18 31.12.2019
5110 Clear 20 1016 25 16093 2.1 260 21:43 31.12.2019
5111 Clear 20 1016 24 16093 1.5 280 21:25 31.12.2019
5112 Clear 19 1016 24 16093 1.5 280 20:57 31.12.2019
5113 Clear 19 1017 25 16093 3.1 250 20:39 31.12.2019
5114 Clear 18 1017 26 16093 1.38 295 20:21 31.12.2019
5115 Clear 18 1017 26 16093 1.38 295 19:58 31.12.2019
5116 Clear 18 1017 31 16093 4.1 230 19:40 31.12.2019
5117 Clear 17 1017 29 16093 1.38 295 19:21 31.12.2019
5118 Clear 17 1017 22 16093 1.5 0 18:57 31.12.2019
5119 Clear 17 1017 29 16093 2.6 210 18:38 31.12.2019
5120 Clear 17 1017 29 16093 2.6 210 18:38 31.12.2019
5121 Clear 17 1017 38 16093 1.38 295 18:19 31.12.2019
5122 Clear 16 1016 23 16093 2.6 10 17:56 31.12.2019
5123 Clear 15 1016 33 16093 2.6 290 17:37 31.12.2019
5124 Clear 13 1016 57 16093 1.35 22 17:18 31.12.2019
5125 Clear 13 1016 57 16093 1.35 22 17:18 31.12.2019
5126 Clear 13 1015 23 16093 1.35 22 16:56 31.12.2019
5127 Clear 13 1015 32 16093 3.1 250 16:37 31.12.2019
5128 Clear 13 1015 61 16093 1.35 22 16:19 31.12.2019
5129 Clear 13 1015 23 16093 13.4 40 15:56 31.12.2019
5130 Clear 13 1015 30 16093 3.1 260 15:38 31.12.2019
5131 Clear 13 1015 61 16093 1.35 22 15:20 31.12.2019
5132 Clouds 13 1015 23 16093 10.8 40 14:56 31.12.2019
5133 Clouds 13 1015 26 16093 4.1 360 14:37 31.12.2019
5134 Clear 13 1015 62 16093 1.5 260 14:19 31.12.2019
5135 Clouds 13 1014 25 16093 12.9 40 13:56 31.12.2019
5136 Clouds 13 1015 26 16093 6.2 360 13:38 31.12.2019
5137 Clear 13 1014 66 16093 1.44 8 13:20 31.12.2019
5138 Clouds 13 1014 33 16093 1.44 8 12:56 31.12.2019
5139 Clouds 13 1014 33 16093 1.44 8 12:38 31.12.2019
5140 Clear 13 1015 66 16093 1.44 8 12:19 31.12.2019
5141 Clouds 13 1015 25 16093 9.8 40 11:56 31.12.2019
5142 Clouds 13 1015 37 16093 3.1 310 11:37 31.12.2019
5143 Clouds 13 1015 57 16093 1.46 24 11:19 31.12.2019
5144 Clouds 13 1014 37 16093 3.1 40 10:56 31.12.2019
5145 Clouds 13 1014 37 16093 3.1 40 10:37 31.12.2019
5146 Clear 13 1015 58 16093 1.46 24 10:19 31.12.2019
5147 Clear 13 1015 58 16093 1.46 24 09:58 31.12.2019
5148 Clear 13 1015 58 16093 1.46 24 09:38 31.12.2019
5149 Clear 13 1015 58 16093 1.46 24 09:19 31.12.2019
5150 Clear 13 1015 58 16093 1.46 24 08:57 31.12.2019
5151 Clouds 13 1015 28 16093 7.2 20 08:37 31.12.2019
5152 Clear 13 1015 50 16093 1.55 12 08:18 31.12.2019
5153 Clouds 13 1015 37 16093 2.6 0 07:41 31.12.2019
5154 Clear 13 1015 47 16093 1.55 12 07:19 31.12.2019
5155 Clouds 13 1015 35 16093 2.1 230 06:48 31.12.2019
5156 Clouds 13 1015 26 16093 6.7 30 05:55 31.12.2019
5157 Clear 13 1014 44 16093 2.45 345 04:27 31.12.2019
5158 Clear 13 1014 38 16093 2.45 345 03:27 31.12.2019
5159 Clear 14 1016 28 16093 3.1 340 02:49 31.12.2019
5160 Clouds 14 1014 23 16093 4.1 50 01:55 31.12.2019
5161 Clear 15 1014 31 16093 1.13 255 01:34 31.12.2019
5162 Clouds 15 1014 23 16093 5.7 80 00:59 31.12.2019
5163 Clouds 15 1014 34 16093 4.6 260 00:41 31.12.2019
5164 Clear 15 1014 31 16093 1.5 250 00:21 31.12.2019
5165 Clouds 15 1014 36 16093 2.1 0 23:56 30.12.2019
5166 Clouds 15 1014 34 16093 3.1 260 23:38 30.12.2019
5167 Clear 15 1014 31 16093 1.92 351 23:19 30.12.2019
5168 Clouds 15 1015 30 16093 7.2 330 22:57 30.12.2019
5169 Clouds 15 1014 34 16093 3.1 230 22:37 30.12.2019
5170 Clouds 15 1014 31 16093 1.92 351 22:19 30.12.2019
5171 Clear 15 1014 36 16093 1.5 260 21:56 30.12.2019
5172 Clear 15 1014 43 16093 2.6 230 21:38 30.12.2019
5173 Clouds 14 1015 36 16093 1.92 351 21:18 30.12.2019
5174 Clouds 14 1015 36 16093 1.92 351 21:18 30.12.2019
5175 Clouds 14 1015 50 16093 2.6 260 20:56 30.12.2019
5176 Clouds 14 1015 50 16093 2.6 260 20:38 30.12.2019
5177 Clear 13 1016 36 16093 2.1 20 20:19 30.12.2019
5178 Clouds 13 1016 50 16093 2.1 110 19:56 30.12.2019
5179 Clouds 13 1016 34 16093 4.6 260 19:37 30.12.2019
5180 Clear 13 1017 36 16093 1.5 0 19:37 30.12.2019
5181 Clear 12 1017 36 16093 1.5 0 19:19 30.12.2019
5182 Clouds 12 1017 57 16093 2.1 0 18:56 30.12.2019
5183 Clear 12 1017 41 16093 1.5 0 18:37 30.12.2019
5184 Clear 11 1017 41 16093 1.5 0 18:19 30.12.2019
5185 Clouds 11 1016 34 16093 1.5 350 17:54 30.12.2019
5186 Clouds 11 1016 34 16093 1.5 350 17:36 30.12.2019
5187 Clouds 10 1016 41 16093 1.5 0 17:18 30.12.2019
5188 Clouds 10 1016 76 16093 1.5 71 16:55 30.12.2019
5189 Clouds 10 1016 43 16093 1.5 71 16:36 30.12.2019
5190 Clear 10 1016 41 16093 2.1 0 16:18 30.12.2019
5191 Clouds 10 1015 52 16093 2.1 310 15:54 30.12.2019
5192 Clear 10 1015 43 16093 2.1 70 15:36 30.12.2019
5193 Clear 10 1015 43 16093 2.1 70 15:18 30.12.2019
5194 Clouds 10 1016 43 16093 1.5 71 14:42 30.12.2019
5195 Clear 10 1016 43 16093 2.6 60 14:19 30.12.2019
5196 Clouds 9 1016 70 16093 1.5 310 13:55 30.12.2019
5197 Clouds 9 1015 57 16093 1.66 84 13:37 30.12.2019
5198 Clouds 10 1016 47 16093 2.6 70 13:18 30.12.2019
5199 Clouds 10 1016 59 16093 1.5 110 12:42 30.12.2019
5200 Clouds 10 1016 62 16093 2.1 60 12:20 30.12.2019
5201 Clouds 10 1016 81 16093 1.59 83 11:59 30.12.2019
5202 Clouds 10 1017 66 16093 1.59 83 11:40 30.12.2019
5203 Clouds 10 1017 66 16093 1.5 0 11:19 30.12.2019
5204 Clouds 9 1017 66 16093 0.06 82 10:44 30.12.2019
5205 Clouds 9 1017 71 16093 0.06 82 10:22 30.12.2019
5206 Clouds 9 1017 71 16093 0.06 82 10:22 30.12.2019
5207 Clouds 9 1017 81 16093 0.06 82 09:58 30.12.2019
5208 Clouds 9 1017 57 16093 0.06 82 09:40 30.12.2019
5209 Clouds 9 1017 76 14484 0.06 82 09:20 30.12.2019
5210 Clouds 9 1018 70 16093 1.5 80 08:54 30.12.2019
5211 Clouds 9 1018 70 16093 1.5 80 08:36 30.12.2019
5212 Clear 9 1018 76 16093 1.13 244 08:18 30.12.2019
5213 Clear 9 1018 71 16093 1.13 244 07:39 30.12.2019
5214 Clear 10 1018 71 16093 1.13 244 06:52 30.12.2019
5215 Clear 10 1018 71 16093 1.55 217 04:58 30.12.2019
5216 Clear 11 1018 62 16093 1.55 217 03:58 30.12.2019
5217 Clear 12 1019 62 16093 1.55 217 03:19 30.12.2019
5218 Clouds 12 1019 62 16093 1.55 217 02:40 30.12.2019
5219 Clear 13 1019 54 16093 2.6 220 01:55 30.12.2019
5220 Clear 14 1019 55 16093 2.66 210 01:23 30.12.2019
5221 Clear 14 1020 47 16093 1.5 130 00:45 30.12.2019
5222 Clear 14 1019 48 16093 2.66 210 00:23 30.12.2019
5223 Clear 15 1020 53 16093 2.66 210 23:40 29.12.2019
5224 Clear 15 1020 48 16093 2.05 219 23:21 29.12.2019
5225 Clear 15 1021 47 16093 2.1 130 22:56 29.12.2019
5226 Clear 15 1020 37 16093 2.05 219 22:37 29.12.2019
5227 Clear 15 1020 48 16093 2.05 219 22:18 29.12.2019
5228 Clear 15 1020 40 16093 2.05 219 21:43 29.12.2019
5229 Clear 14 1021 44 16093 2.05 219 21:21 29.12.2019
5230 Clear 14 1021 44 16093 2.05 219 21:21 29.12.2019
5231 Clear 14 1021 54 16093 2.1 110 20:59 29.12.2019
5232 Clear 14 1021 40 16093 2.05 219 20:39 29.12.2019
5233 Clear 14 1021 40 16093 2.05 219 20:39 29.12.2019
5234 Clear 13 1023 44 16093 1.5 0 20:21 29.12.2019
5235 Clear 13 1023 44 16093 1.5 0 19:59 29.12.2019
5236 Clear 12 1022 37 16093 2.6 120 19:40 29.12.2019
5237 Clear 11 1023 50 16093 2.6 50 19:21 29.12.2019
5238 Clear 11 1023 50 16093 2.6 50 18:59 29.12.2019
5239 Clear 10 1023 37 16093 2.6 100 18:40 29.12.2019
5240 Clear 10 1023 54 16093 2.04 109 18:21 29.12.2019
5241 Clear 9 1023 75 16093 1.5 240 17:58 29.12.2019
5242 Clear 8 1022 37 16093 2.1 80 17:39 29.12.2019
5243 Clear 8 1022 70 16093 0.48 52 17:20 29.12.2019
5244 Clear 6 1023 64 16093 1.5 50 16:57 29.12.2019
5245 Clear 6 1022 65 16093 2.1 70 16:39 29.12.2019
5246 Clear 6 1022 65 16093 2.1 70 16:39 29.12.2019
5247 Clear 6 1022 70 16093 0.48 52 16:21 29.12.2019
5248 Clear 6 1022 70 16093 0.48 52 15:59 29.12.2019
5249 Clouds 6 1022 65 16093 2.1 30 15:40 29.12.2019
5250 Clear 6 1022 75 16093 0.48 52 15:20 29.12.2019
5251 Clear 6 1022 75 16093 0.48 52 14:59 29.12.2019
5252 Clear 6 1021 75 16093 2.6 20 14:41 29.12.2019
5253 Clear 6 1022 70 16093 1.5 360 14:19 29.12.2019
5254 Clear 6 1022 70 16093 1.5 360 13:59 29.12.2019
5255 Clear 6 1021 75 16093 2.1 40 13:40 29.12.2019
5256 Clear 6 1022 76 16093 0.25 279 13:22 29.12.2019
5257 Clear 6 1022 76 16093 0.25 279 12:57 29.12.2019
5258 Clear 7 1021 70 16093 1.5 50 12:38 29.12.2019
5259 Clear 7 1022 76 14484 1.5 20 12:20 29.12.2019
5260 Clear 7 1021 75 16093 2.1 60 11:41 29.12.2019
5261 Clear 7 1021 87 12874 0.33 97 11:22 29.12.2019
5262 Clear 7 1021 81 16093 0.33 97 10:57 29.12.2019
5263 Clear 7 1021 81 16093 2.1 60 10:39 29.12.2019
5264 Clear 7 1021 81 12874 0.33 97 10:18 29.12.2019
5265 Clear 7 1021 81 16093 2.6 360 09:47 29.12.2019
5266 Clear 8 1021 81 14484 0.33 97 09:28 29.12.2019
5267 Clear 8 1021 81 14484 0.33 97 09:28 29.12.2019
5268 Clear 8 1021 81 14484 0.33 97 08:59 29.12.2019
5269 Clear 8 1021 75 16093 2.1 50 08:40 29.12.2019
5270 Clear 8 1021 75 16093 2.1 50 08:40 29.12.2019
5271 Clear 8 1021 76 16093 0.67 181 08:21 29.12.2019
5272 Clear 8 1021 75 16093 0.71 215 07:45 29.12.2019
5273 Clear 8 1021 76 16093 0.71 215 07:26 29.12.2019
5274 Clouds 9 1020 81 16093 0.71 215 06:52 29.12.2019
5275 Clear 9 1020 76 16093 0.71 215 06:22 29.12.2019
5276 Clear 9 1020 81 16093 0.71 215 05:45 29.12.2019
5277 Clear 10 1019 71 16093 2.31 206 04:33 29.12.2019
5278 Clear 11 1019 71 16093 2.31 206 03:39 29.12.2019
5279 Clouds 12 1018 59 16093 2.31 206 02:36 29.12.2019
5280 Clouds 12 1018 59 16093 2.41 200 02:18 29.12.2019
5281 Clear 14 1018 51 16093 2.41 200 01:31 29.12.2019
5282 Clouds 15 1018 63 16093 2.6 210 00:51 29.12.2019
5283 Clear 15 1017 45 16093 2.15 206 00:25 29.12.2019
5284 Clear 15 1017 47 16093 2.1 140 23:56 28.12.2019
5285 Clear 15 1017 50 16093 2.15 206 23:37 28.12.2019
5286 Clear 15 1017 51 16093 1.39 188 23:18 28.12.2019
5287 Clear 15 1017 50 16093 1.39 188 22:39 28.12.2019
5288 Clear 15 1018 48 16093 1.39 188 22:19 28.12.2019
5289 Clear 15 1018 47 16093 2.1 0 21:57 28.12.2019
5290 Clear 15 1018 58 16093 3.1 250 21:38 28.12.2019
5291 Clear 15 1019 51 16093 1.5 0 21:20 28.12.2019
5292 Clear 14 1018 58 16093 1.39 188 20:55 28.12.2019
5293 Clear 14 1020 51 16093 1.53 186 20:37 28.12.2019
5294 Clear 13 1020 51 16093 1.43 102 20:18 28.12.2019
5295 Clear 13 1019 58 16093 1.43 102 19:55 28.12.2019
5296 Clouds 13 1020 50 16093 2.1 0 19:36 28.12.2019
5297 Clouds 12 1020 44 16093 1.43 102 19:18 28.12.2019
5298 Clouds 11 1020 57 16093 1.43 102 18:56 28.12.2019
5299 Clear 11 1020 57 16093 1.43 102 18:38 28.12.2019
5300 Clear 10 1020 54 16093 1.43 102 18:18 28.12.2019
5301 Clouds 8 1019 70 16093 1.43 102 17:42 28.12.2019
5302 Clouds 8 1019 70 16093 1.43 102 17:42 28.12.2019
5303 Clouds 7 1020 57 16093 2.1 0 17:21 28.12.2019
5304 Clear 6 1020 56 16093 0.7 72 16:58 28.12.2019
5305 Clear 5 1019 40 16093 2.1 10 16:40 28.12.2019
5306 Clear 5 1019 61 0 0.7 72 16:21 28.12.2019
5307 Clear 5 1018 65 16093 0.7 72 15:43 28.12.2019
5308 Clear 5 1018 65 16093 0.7 72 15:23 28.12.2019
5309 Clear 5 1018 74 16093 0.7 72 14:56 28.12.2019
5310 Clouds 5 1018 65 16093 2.1 360 14:37 28.12.2019
5311 Clear 5 1018 61 16093 1.17 68 14:19 28.12.2019
5312 Clear 5 1017 60 16093 1.17 68 13:42 28.12.2019
5313 Clear 5 1018 61 16093 1.33 63 13:21 28.12.2019
5314 Clear 5 1018 61 16093 1.33 63 12:59 28.12.2019
5315 Clear 5 1017 60 16093 2.1 20 12:40 28.12.2019
5316 Clear 6 1018 65 16093 1.33 63 12:21 28.12.2019
5317 Clear 6 1017 80 16093 1.33 63 11:54 28.12.2019
5318 Clear 6 1017 60 16093 2.1 80 11:36 28.12.2019
5319 Clear 6 1017 57 16093 0.47 35 11:18 28.12.2019
5320 Clear 7 1017 56 16093 0.47 35 10:41 28.12.2019
5321 Clear 7 1017 53 16093 1.5 20 10:20 28.12.2019
5322 Clear 7 1016 52 16093 2.1 360 09:56 28.12.2019
5323 Clear 7 1016 52 16093 2.1 360 09:38 28.12.2019
5324 Clear 7 1017 57 16093 0.47 35 09:18 28.12.2019
5325 Clear 8 1016 61 16093 2.1 340 08:43 28.12.2019
5326 Clear 8 1017 50 16093 0.18 68 08:25 28.12.2019
5327 Clear 8 1016 57 16093 2.6 10 07:49 28.12.2019
5328 Clear 8 1016 50 16093 0.23 36 07:27 28.12.2019
5329 Clear 9 1015 65 16093 2.6 20 05:53 28.12.2019
5330 Clear 10 1015 43 16093 1.5 340 03:59 28.12.2019
5331 Clear 11 1015 61 16093 2.1 300 03:38 28.12.2019
5332 Clear 12 1014 53 16093 1.5 340 02:48 28.12.2019
5333 Clear 13 1013 48 16093 3 197 01:59 28.12.2019
5334 Clear 14 1013 39 16093 1.5 0 01:29 28.12.2019
5335 Clear 15 1013 26 16093 2.6 0 00:55 28.12.2019
5336 Clear 15 1013 34 16093 2.6 240 00:37 28.12.2019
5337 Clear 15 1013 34 16093 2.1 260 00:19 28.12.2019
5338 Clear 15 1013 34 16093 2.1 210 23:43 27.12.2019
5339 Clear 15 1012 36 16093 1.5 250 23:19 27.12.2019
5340 Clear 15 1012 36 16093 1.5 250 23:19 27.12.2019
5341 Clear 15 1014 33 16093 5.7 320 22:57 27.12.2019
5342 Clouds 15 1013 34 16093 3.1 240 22:38 27.12.2019
5343 Clear 15 1013 39 16093 1.76 210 22:20 27.12.2019
5344 Clear 15 1012 29 16093 1.5 120 21:55 27.12.2019
5345 Clear 15 1014 58 16093 2.1 220 21:37 27.12.2019
5346 Clear 14 1014 58 16093 2.1 220 21:18 27.12.2019
5347 Clear 14 1014 38 16093 1.76 210 20:41 27.12.2019
5348 Clear 14 1014 38 16093 1.18 115 20:22 27.12.2019
5349 Clear 13 1015 38 16093 1.25 125 19:43 27.12.2019
5350 Clear 12 1015 38 16093 1.25 125 19:21 27.12.2019
5351 Clear 12 1015 38 16093 1.25 125 19:21 27.12.2019
5352 Clear 12 1014 37 16093 3.1 320 18:59 27.12.2019
5353 Clear 11 1014 50 16093 1.25 125 18:40 27.12.2019
5354 Clear 11 1014 50 16093 1.25 125 18:21 27.12.2019
5355 Clear 9 1014 47 16093 2.1 350 17:58 27.12.2019
5356 Clear 8 1014 57 16093 1.25 125 17:40 27.12.2019
5357 Clear 7 1014 70 16093 0.82 293 17:19 27.12.2019
5358 Clear 6 1015 57 16093 4.1 240 16:59 27.12.2019
5359 Clear 5 1013 70 16093 0.82 293 16:39 27.12.2019
5360 Clear 5 1014 70 16093 0.82 293 16:20 27.12.2019
5361 Clear 5 1013 57 16093 2.1 0 15:45 27.12.2019
5362 Clear 5 1013 81 0 0.82 293 15:23 27.12.2019
5363 Clear 5 1013 81 0 0.82 293 14:58 27.12.2019
5364 Clear 6 1012 65 16093 2.1 360 14:40 27.12.2019
5365 Clear 5 1013 81 16093 0.36 317 14:21 27.12.2019
5366 Clear 6 1013 65 16093 1.5 300 13:57 27.12.2019
5367 Clear 6 1012 70 16093 2.6 360 13:39 27.12.2019
5368 Clear 6 1012 70 16093 2.6 360 13:39 27.12.2019
5369 Clear 6 1012 70 16093 2.6 360 13:39 27.12.2019
5370 Clear 6 1013 75 16093 0.36 317 13:21 27.12.2019
5371 Clear 6 1012 80 16093 2.1 300 12:44 27.12.2019
5372 Clear 6 1013 70 16093 1.5 100 12:25 27.12.2019
5373 Clear 7 1012 61 16093 5.7 350 11:55 27.12.2019
5374 Clear 7 1012 75 16093 0.2 277 11:37 27.12.2019
5375 Clear 7 1012 66 16093 1.5 90 11:18 27.12.2019
5376 Clouds 7 1012 81 16093 2.1 10 10:41 27.12.2019
5377 Clear 7 1012 53 16093 2.1 0 10:23 27.12.2019
5378 Clouds 7 1012 81 16093 0.45 74 09:49 27.12.2019
5379 Clear 7 1012 70 16093 0.45 74 09:22 27.12.2019
5380 Clear 7 1012 70 16093 0.45 74 09:22 27.12.2019
5381 Clear 7 1012 70 16093 0.45 74 08:59 27.12.2019
5382 Clouds 7 1011 70 16093 2.6 310 08:40 27.12.2019
5383 Clouds 8 1012 66 16093 1.45 294 08:18 27.12.2019
5384 Clouds 8 1011 81 16093 3.6 310 07:38 27.12.2019
5385 Clear 7 1012 70 16093 1.45 294 06:59 27.12.2019
5386 Clear 8 1011 66 16093 1.45 294 06:23 27.12.2019
5387 Clear 8 1009 81 16093 1.4 42 04:37 27.12.2019
5388 Clear 9 1009 58 16093 1.4 42 02:28 27.12.2019
5389 Clouds 10 1011 56 16093 5.1 320 01:44 27.12.2019
5390 Clouds 10 1009 54 16093 1.5 100 01:21 27.12.2019
5391 Clouds 11 1009 58 16093 1.67 35 00:47 27.12.2019
5392 Clouds 11 1009 54 16093 1.5 30 00:25 27.12.2019
5393 Rain 11 1008 66 16093 4.1 100 23:56 26.12.2019
5394 Rain 11 1008 81 16093 3.6 90 23:37 26.12.2019
5395 Rain 11 1008 54 16093 0.43 110 23:19 26.12.2019
5396 Rain 10 1008 81 16093 3.6 90 22:40 26.12.2019
5397 Rain 10 1009 54 16093 2.1 40 22:18 26.12.2019
5398 Rain 10 1008 62 16093 3.6 360 21:40 26.12.2019
5399 Rain 10 1009 62 16093 2.6 0 21:21 26.12.2019
5400 Rain 10 1009 50 16093 1.5 0 20:59 26.12.2019
5401 Rain 10 1009 93 8047 3.6 90 20:40 26.12.2019
5402 Rain 9 1010 54 16093 2.6 0 20:22 26.12.2019
5403 Clouds 9 1009 75 16093 2.6 330 19:57 26.12.2019
5404 Clouds 9 1010 70 16093 2.6 340 19:38 26.12.2019
5405 Clouds 9 1010 57 16093 4.1 80 19:20 26.12.2019
5406 Rain 8 1010 75 16093 2.1 290 18:57 26.12.2019
5407 Rain 8 1009 87 16093 4.6 80 18:37 26.12.2019
5408 Rain 8 1010 61 16093 4.6 80 18:19 26.12.2019
5409 Rain 7 1009 81 16093 1.5 290 17:42 26.12.2019
5410 Rain 7 1009 66 16093 3.6 80 17:22 26.12.2019
5411 Rain 6 1009 81 16093 2.1 350 16:58 26.12.2019
5412 Rain 6 1009 86 8047 5.1 80 16:39 26.12.2019
5413 Rain 6 1009 66 16093 4.6 90 16:20 26.12.2019
5414 Rain 6 1008 93 11265 8.7 60 15:41 26.12.2019
5415 Rain 6 1008 93 11265 8.7 60 15:41 26.12.2019
5416 Rain 6 1008 70 16093 5.7 70 15:20 26.12.2019
5417 Rain 6 1008 81 16093 2.6 80 14:58 26.12.2019
5418 Rain 6 1010 100 8047 4.6 60 14:38 26.12.2019
5419 Rain 6 1008 70 16093 3.6 80 14:20 26.12.2019
5420 Rain 6 1009 93 4023 6.2 70 13:43 26.12.2019
5421 Rain 6 1007 70 12874 5.7 90 13:21 26.12.2019
5422 Rain 7 1009 93 4828 4.1 90 12:58 26.12.2019
5423 Rain 7 1009 93 4828 4.1 90 12:38 26.12.2019
5424 Rain 7 1009 87 4828 4.6 320 12:19 26.12.2019
5425 Rain 7 1008 75 9656 5.1 80 11:57 26.12.2019
5426 Rain 8 1009 81 4828 3.6 90 11:38 26.12.2019
5427 Rain 8 1009 93 6437 5.7 10 11:19 26.12.2019
5428 Rain 8 1009 87 4023 2.6 110 10:42 26.12.2019
5429 Rain 8 1009 81 9656 1.5 0 10:19 26.12.2019
5430 Rain 9 1009 87 4828 1.5 100 09:50 26.12.2019
5431 Rain 9 1009 87 4828 1.5 100 09:31 26.12.2019
5432 Rain 9 1009 81 4828 5.1 80 08:43 26.12.2019
5433 Thunderstorm 9 1009 87 4828 3.6 80 08:24 26.12.2019
5434 Rain 9 1010 87 4828 2.6 0 07:53 26.12.2019
5435 Rain 9 1010 76 4023 3.6 90 07:28 26.12.2019
5436 Rain 10 1009 87 4828 7.2 120 06:54 26.12.2019
5437 Rain 10 1011 81 11265 5.7 120 06:32 26.12.2019
5438 Rain 10 1010 81 6437 6.2 120 05:46 26.12.2019
5439 Clouds 11 1012 81 16093 7.7 100 04:59 26.12.2019
5440 Clouds 11 1012 62 16093 2.6 0 04:30 26.12.2019
5441 Clouds 11 1012 62 16093 3.6 130 03:18 26.12.2019
5442 Clouds 11 1013 81 16093 4.63 137 02:40 26.12.2019
5443 Clouds 11 1012 58 16093 3.97 186 02:19 26.12.2019
5444 Clouds 11 1013 76 16093 3.1 120 01:41 26.12.2019
5445 Clouds 12 1013 58 16093 1.5 160 01:22 26.12.2019
5446 Rain 12 1013 66 16093 3.6 160 00:41 26.12.2019
5447 Rain 12 1013 54 16093 1.5 250 00:22 26.12.2019
5448 Rain 12 1013 62 16093 3.1 230 23:42 25.12.2019
5449 Rain 12 1014 48 16093 2.1 270 23:21 25.12.2019
5450 Rain 13 1013 66 16093 3.6 120 22:59 25.12.2019
5451 Rain 13 1014 76 16093 3.08 243 22:40 25.12.2019
5452 Rain 12 1014 54 16093 2.6 0 22:22 25.12.2019
5453 Rain 12 1014 71 14484 4.1 150 21:59 25.12.2019
5454 Rain 12 1014 66 16093 3.1 230 21:40 25.12.2019
5455 Rain 12 1015 51 16093 1.5 0 21:21 25.12.2019
5456 Clouds 12 1014 71 16093 3.6 120 20:57 25.12.2019
5457 Clouds 12 1015 58 16093 3.08 243 20:39 25.12.2019
5458 Clouds 12 1015 58 16093 1.78 185 20:18 25.12.2019
5459 Clouds 12 1015 71 16093 3.1 170 19:44 25.12.2019
5460 Clouds 12 1016 62 16093 1.5 80 19:25 25.12.2019
5461 Clouds 11 1016 62 16093 1.5 80 18:59 25.12.2019
5462 Clouds 11 1015 62 16093 2.6 100 18:39 25.12.2019
5463 Clouds 10 1015 62 16093 2.1 100 18:20 25.12.2019
5464 Clouds 9 1015 76 16093 2.1 70 17:43 25.12.2019
5465 Clouds 9 1015 66 16093 1.5 80 17:21 25.12.2019
5466 Clouds 8 1014 81 16093 1.5 340 16:59 25.12.2019
5467 Clouds 7 1014 71 16093 2.1 90 16:39 25.12.2019
5468 Clouds 7 1014 81 16093 1.74 153 16:19 25.12.2019
5469 Clouds 7 1014 87 16093 1.74 153 15:57 25.12.2019
5470 Clouds 7 1014 87 16093 1.74 153 15:57 25.12.2019
5471 Clouds 7 1014 87 16093 1.74 153 15:39 25.12.2019
5472 Clouds 7 1014 87 16093 1.74 153 15:39 25.12.2019
5473 Clear 7 1013 71 16093 2.1 90 15:21 25.12.2019
5474 Clear 7 1013 81 16093 1.74 153 14:58 25.12.2019
5475 Clouds 7 1013 93 16093 2.1 60 14:40 25.12.2019
5476 Rain 8 1013 71 16093 1.5 90 14:21 25.12.2019
5477 Rain 8 1013 71 16093 1.5 90 14:21 25.12.2019
5478 Rain 8 1013 71 16093 1.5 90 14:21 25.12.2019
5479 Rain 8 1013 71 16093 1.5 90 14:21 25.12.2019
5480 Rain 8 1013 71 16093 1.5 90 14:21 25.12.2019
5481 Clear 8 1013 71 16093 1.5 90 13:57 25.12.2019
5482 Rain 8 1013 93 14484 1.86 203 13:38 25.12.2019
5483 Clouds 8 1013 71 16093 1.5 80 13:19 25.12.2019
5484 Clouds 8 1012 87 12874 2.43 179 12:42 25.12.2019
5485 Clouds 9 1013 66 16093 2.1 90 12:20 25.12.2019
5486 Clear 9 1012 76 16093 3.6 140 11:56 25.12.2019
5487 Clear 9 1012 76 16093 3.6 140 11:56 25.12.2019
5488 Clouds 9 1013 87 16093 2.43 179 11:38 25.12.2019
5489 Clouds 9 1013 71 16093 2.1 100 11:18 25.12.2019
5490 Clouds 9 1013 100 16093 1.9 200 10:38 25.12.2019
5491 Clear 9 1012 71 16093 1.5 90 10:20 25.12.2019
5492 Rain 9 1012 81 16093 1.9 200 09:51 25.12.2019
5493 Rain 9 1012 71 16093 1.5 0 09:32 25.12.2019
5494 Rain 9 1012 75 16093 1.9 200 08:51 25.12.2019
5495 Rain 9 1012 71 16093 2.1 100 08:31 25.12.2019
5496 Clouds 9 1013 87 16093 2.36 186 07:53 25.12.2019
5497 Clear 9 1012 71 16093 1.5 100 07:34 25.12.2019
5498 Clouds 9 1012 87 16093 1.5 360 06:58 25.12.2019
5499 Clear 9 1012 71 16093 1.5 90 06:23 25.12.2019
5500 Clouds 10 1012 81 16093 2.36 186 05:43 25.12.2019
5501 Clouds 10 1012 87 16093 2.1 280 04:39 25.12.2019
5502 Clear 10 1011 62 16093 2.1 220 04:20 25.12.2019
5503 Clouds 11 1011 87 16093 1.5 240 03:43 25.12.2019
5504 Clear 11 1011 62 16093 2.6 160 02:57 25.12.2019
5505 Clear 11 1011 62 16093 2.1 220 02:28 25.12.2019
5506 Clouds 12 1011 71 16093 6.2 240 01:36 25.12.2019
5507 Clear 13 1011 58 16093 3.1 260 01:18 25.12.2019
5508 Clouds 13 1011 66 16093 4.6 230 00:40 25.12.2019
5509 Clear 13 1011 51 16093 1.5 250 00:22 25.12.2019
5510 Clear 13 1011 51 16093 1.5 250 00:22 25.12.2019
5511 Clouds 14 1010 50 16093 4.1 290 23:39 24.12.2019
5512 Clear 14 1011 59 16093 3.1 0 23:20 24.12.2019
5513 Clouds 14 1010 58 16093 4.6 240 22:42 24.12.2019
5514 Clouds 15 1010 51 16093 2.6 250 22:24 24.12.2019
5515 Clouds 15 1010 51 16093 2.6 250 21:59 24.12.2019
5516 Clouds 15 1011 62 16093 3.6 290 21:40 24.12.2019
5517 Clouds 14 1011 62 16093 3.6 290 21:19 24.12.2019
5518 Clouds 14 1011 71 16093 4.1 210 20:42 24.12.2019
5519 Clear 13 1012 51 16093 1.96 202 20:22 24.12.2019
5520 Clear 13 1012 47 16093 2.6 250 19:55 24.12.2019
5521 Clouds 13 1012 76 14484 3.1 200 19:37 24.12.2019
5522 Clear 12 1013 58 16093 1.96 202 19:18 24.12.2019
5523 Clear 11 1012 71 16093 1.96 202 18:42 24.12.2019
5524 Clear 11 1012 71 16093 1.96 202 18:18 24.12.2019
5525 Clear 9 1012 81 16093 2.1 80 17:44 24.12.2019
5526 Clear 8 1012 81 16093 1.96 202 17:22 24.12.2019
5527 Clear 8 1012 81 16093 0.41 233 17:22 24.12.2019
5528 Clear 7 1012 81 16093 0.41 233 16:58 24.12.2019
5529 Rain 7 1011 87 16093 0.41 233 16:40 24.12.2019
5530 Rain 6 1011 81 14484 0.41 233 16:21 24.12.2019
5531 Rain 6 1011 75 16093 3.1 300 15:57 24.12.2019
5532 Clear 7 1010 87 16093 1.5 30 15:37 24.12.2019
5533 Rain 7 1011 87 16093 0.41 233 15:19 24.12.2019
5534 Clear 7 1011 87 16093 0.41 233 14:58 24.12.2019
5535 Rain 7 1010 87 16093 2.1 350 14:40 24.12.2019
5536 Rain 7 1010 87 16093 2.1 350 14:40 24.12.2019
5537 Clear 7 1011 87 12874 1.36 282 14:21 24.12.2019
5538 Clear 7 1011 81 16093 1.5 260 13:56 24.12.2019
5539 Clear 7 1010 87 16093 2.1 20 13:38 24.12.2019
5540 Mist 7 1010 93 3219 0.56 268 13:20 24.12.2019
5541 Rain 7 1010 93 16093 2.6 10 12:56 24.12.2019
5542 Rain 7 1010 93 16093 2.6 10 12:38 24.12.2019
5543 Rain 7 1011 87 4023 0.56 268 12:19 24.12.2019
5544 Rain 8 1011 87 16093 0.56 268 11:56 24.12.2019
5545 Rain 8 1010 100 16093 2.1 20 11:37 24.12.2019
5546 Clear 8 1011 87 14484 0.66 23 11:19 24.12.2019
5547 Mist 8 1011 93 8047 1.5 310 10:56 24.12.2019
5548 Clear 8 1011 100 16093 2.1 40 10:38 24.12.2019
5549 Clear 8 1011 81 14484 0.66 23 10:20 24.12.2019
5550 Clear 8 1011 81 14484 0.66 23 10:20 24.12.2019
5551 Clouds 8 1011 87 16093 2.1 300 09:56 24.12.2019
5552 Clouds 8 1011 100 16093 2.6 40 09:38 24.12.2019
5553 Clear 8 1011 81 16093 0.66 23 09:20 24.12.2019
5554 Mist 9 1011 93 3219 0.66 23 08:47 24.12.2019
5555 Clear 9 1011 81 14484 0.83 3 08:24 24.12.2019
5556 Clear 9 1011 81 14484 1.2 41 07:59 24.12.2019
5557 Clouds 9 1011 100 16093 2.1 80 07:39 24.12.2019
5558 Clear 9 1011 81 16093 1.2 41 07:21 24.12.2019
5559 Clouds 10 1011 87 16093 1.2 41 06:40 24.12.2019
5560 Clear 10 1011 76 16093 1.2 41 06:19 24.12.2019
5561 Rain 10 1011 87 16093 1.2 41 05:51 24.12.2019
5562 Rain 10 1011 76 16093 2.09 40 05:19 24.12.2019
5563 Rain 10 1011 76 16093 2.09 40 05:19 24.12.2019
5564 Rain 10 1010 76 16093 2.09 40 04:21 24.12.2019
5565 Rain 10 1011 76 16093 2.09 40 03:48 24.12.2019
5566 Rain 11 1009 71 16093 2.6 0 02:29 24.12.2019
5567 Rain 11 1009 76 8047 1.78 351 01:55 24.12.2019
5568 Rain 11 1009 67 16093 2.6 100 01:26 24.12.2019
5569 Rain 12 1009 67 16093 2.6 100 00:58 24.12.2019
5570 Drizzle 12 1009 100 3219 2.6 60 00:39 24.12.2019
5571 Rain 12 1009 67 16093 2.6 140 00:20 24.12.2019
5572 Rain 12 1008 76 14484 3.1 100 23:43 23.12.2019
5573 Rain 12 1009 71 16093 2.1 0 23:24 23.12.2019
5574 Clouds 12 1008 58 16093 4.6 110 22:57 23.12.2019
5575 Clouds 12 1008 66 16093 2.6 90 22:38 23.12.2019
5576 Rain 12 1009 58 16093 2.1 0 22:20 23.12.2019
5577 Rain 12 1009 66 16093 2.6 0 21:57 23.12.2019
5578 Rain 12 1009 66 16093 2.6 0 21:57 23.12.2019
5579 Rain 12 1009 66 16093 3.6 80 21:37 23.12.2019
5580 Rain 12 1009 62 16093 5.1 100 21:19 23.12.2019
5581 Rain 12 1009 62 16093 5.1 100 20:59 23.12.2019
5582 Rain 12 1010 66 16093 6.2 70 20:41 23.12.2019
5583 Rain 12 1011 58 16093 2.6 0 20:19 23.12.2019
5584 Rain 12 1011 58 16093 2.6 0 20:19 23.12.2019
5585 Rain 11 1011 58 16093 2.6 0 19:59 23.12.2019
5586 Rain 11 1012 81 8047 4.1 100 19:40 23.12.2019
5587 Rain 11 1012 81 8047 4.1 100 19:40 23.12.2019
5588 Rain 11 1011 62 16093 3.1 90 19:21 23.12.2019
5589 Rain 11 1011 62 16093 3.1 90 18:58 23.12.2019
5590 Drizzle 11 1011 81 11265 6.7 80 18:39 23.12.2019
5591 Rain 11 1011 66 16093 4.1 90 18:21 23.12.2019
5592 Rain 10 1011 71 16093 2.6 110 17:59 23.12.2019
5593 Rain 10 1012 87 6437 2.6 80 17:40 23.12.2019
5594 Rain 10 1009 66 16093 5.7 70 17:19 23.12.2019
5595 Rain 10 1009 66 16093 5.7 70 17:19 23.12.2019
5596 Rain 10 1009 66 16093 5.7 70 16:58 23.12.2019
5597 Rain 10 1012 81 9656 6.2 70 16:40 23.12.2019
5598 Rain 9 1011 71 9656 5.1 90 16:19 23.12.2019
5599 Rain 9 1011 71 9656 5.1 90 15:58 23.12.2019
5600 Rain 10 1010 66 16093 5.1 80 15:37 23.12.2019
5601 Rain 10 1010 66 16093 5.1 80 15:19 23.12.2019
5602 Rain 9 1010 93 9656 2.6 360 14:57 23.12.2019
5603 Rain 9 1010 71 16093 6.2 90 14:39 23.12.2019
5604 Rain 9 1010 71 16093 6.2 90 14:19 23.12.2019
5605 Rain 9 1010 71 16093 6.2 90 14:19 23.12.2019
5606 Rain 9 1010 71 16093 6.2 90 13:57 23.12.2019
5607 Rain 9 1013 71 4828 1.5 0 13:39 23.12.2019
5608 Rain 9 1010 71 14484 3.6 90 13:39 23.12.2019
5609 Rain 9 1010 71 14484 3.6 90 13:20 23.12.2019
5610 Rain 9 1010 71 14484 3.6 90 13:20 23.12.2019
5611 Rain 9 1010 87 16093 4.6 40 12:55 23.12.2019
5612 Rain 10 1011 76 4828 6.2 90 12:37 23.12.2019
5613 Rain 10 1010 81 6437 5.1 80 12:18 23.12.2019
5614 Rain 10 1011 81 4828 3.6 80 11:42 23.12.2019
5615 Rain 10 1011 81 4828 3.6 70 11:24 23.12.2019
5616 Rain 10 1011 87 4828 2.6 330 10:56 23.12.2019
5617 Rain 10 1011 81 6437 4.1 80 10:38 23.12.2019
5618 Rain 10 1010 81 6437 5.7 80 10:20 23.12.2019
5619 Rain 10 1010 66 14484 4.6 90 09:58 23.12.2019
5620 Rain 10 1012 76 8047 4.1 50 09:39 23.12.2019
5621 Rain 11 1011 93 6437 6.7 50 09:20 23.12.2019
5622 Rain 11 1011 76 9656 7.7 90 08:55 23.12.2019
5623 Rain 12 1012 71 4828 4.1 70 08:37 23.12.2019
5624 Rain 12 1012 81 4023 4.28 128 08:18 23.12.2019
5625 Rain 13 1012 76 2816 2.6 0 07:43 23.12.2019
5626 Rain 13 1012 87 2414 2.6 70 07:19 23.12.2019
5627 Rain 13 1012 77 4023 3.1 90 06:50 23.12.2019
5628 Rain 13 1012 63 6437 1.5 0 06:23 23.12.2019
5629 Rain 14 1012 72 12874 4.1 100 05:49 23.12.2019
5630 Rain 14 1012 67 16093 3.1 130 05:22 23.12.2019
5631 Clouds 15 1011 52 16093 2.6 0 04:20 23.12.2019
5632 Clouds 15 1011 44 16093 5.1 130 02:55 23.12.2019
5633 Clouds 15 1012 55 16093 2.1 120 02:25 23.12.2019
5634 Clouds 15 1011 38 16093 7.2 140 01:55 23.12.2019
5635 Clouds 16 1013 29 16093 4.01 152 01:36 23.12.2019
5636 Clear 16 1012 55 16093 2.6 0 01:18 23.12.2019
5637 Clouds 16 1013 67 16093 4.6 130 00:35 23.12.2019
5638 Clear 17 1012 45 16093 2.6 0 23:58 22.12.2019
5639 Clear 17 1013 22 16093 2.6 250 23:39 22.12.2019
5640 Clear 17 1012 42 16093 2.1 0 23:20 22.12.2019
5641 Clear 17 1012 42 16093 2.1 0 23:20 22.12.2019
5642 Clear 18 1012 42 16093 2.1 0 22:58 22.12.2019
5643 Clouds 18 1013 18 16093 3.1 220 22:39 22.12.2019
5644 Clouds 18 1013 55 16093 4.6 120 22:19 22.12.2019
5645 Clouds 18 1013 40 16093 4.86 152 21:57 22.12.2019
5646 Clouds 18 1014 14 16093 2.6 0 21:39 22.12.2019
5647 Clouds 18 1014 42 16093 2.1 0 21:20 22.12.2019
5648 Clouds 17 1014 42 16093 2.1 0 20:57 22.12.2019
5649 Clear 17 1015 37 16093 2.6 110 20:38 22.12.2019
5650 Clear 17 1015 37 16093 2.6 110 20:18 22.12.2019
5651 Clouds 17 1015 23 16093 4.1 200 19:55 22.12.2019
5652 Clear 16 1016 18 16093 3.6 70 19:37 22.12.2019
5653 Clear 16 1016 31 16093 2.6 0 19:19 22.12.2019
5654 Clear 15 1017 17 16093 2.6 80 18:40 22.12.2019
5655 Clear 14 1015 29 16093 2.49 132 18:22 22.12.2019
5656 Clear 14 1015 30 16093 3.1 140 17:55 22.12.2019
5657 Clear 13 1016 19 16093 3.1 70 17:37 22.12.2019
5658 Clear 12 1014 26 16093 2.6 0 17:18 22.12.2019
5659 Clear 12 1014 28 16093 4.1 140 16:56 22.12.2019
5660 Clear 12 1014 28 16093 4.1 140 16:56 22.12.2019
5661 Clear 11 1016 18 16093 3.6 60 16:38 22.12.2019
5662 Clear 11 1014 28 16093 2.6 90 16:19 22.12.2019
5663 Clear 12 1014 32 16093 2.1 80 15:56 22.12.2019
5664 Clear 11 1016 18 16093 2.6 60 15:37 22.12.2019
5665 Clear 11 1015 37 16093 0.34 134 15:19 22.12.2019
5666 Clear 11 1015 43 16093 1.5 360 14:54 22.12.2019
5667 Clear 11 1014 26 16093 2.6 90 14:36 22.12.2019
5668 Clear 11 1014 26 16093 2.6 90 14:18 22.12.2019
5669 Clear 11 1015 19 16093 2.6 50 13:55 22.12.2019
5670 Clear 11 1015 19 16093 2.6 50 13:36 22.12.2019
5671 Clear 11 1014 26 16093 2.1 90 13:18 22.12.2019
5672 Clear 11 1014 46 16093 1.5 40 12:55 22.12.2019
5673 Clear 11 1016 20 16093 2.1 40 12:37 22.12.2019
5674 Clear 10 1015 43 16093 1.76 78 12:18 22.12.2019
5675 Clear 11 1016 16 16093 1.76 78 11:54 22.12.2019
5676 Clear 11 1016 16 16093 1.76 78 11:36 22.12.2019
5677 Clear 11 1015 43 16093 1.25 176 11:18 22.12.2019
5678 Clear 11 1015 18 16093 3.1 60 10:54 22.12.2019
5679 Clear 11 1015 18 16093 3.1 60 10:36 22.12.2019
5680 Clear 11 1015 47 16093 1.25 176 10:18 22.12.2019
5681 Clear 12 1015 50 16093 1.25 176 09:41 22.12.2019
5682 Clear 12 1015 50 16093 1.25 176 09:22 22.12.2019
5683 Clear 12 1015 50 16093 1.25 176 08:59 22.12.2019
5684 Clear 12 1016 21 16093 2.1 50 08:38 22.12.2019
5685 Clear 12 1015 44 16093 0.95 190 08:20 22.12.2019
5686 Clear 12 1016 24 16093 2.1 30 07:39 22.12.2019
5687 Clear 12 1015 29 16093 0.95 190 07:20 22.12.2019
5688 Clear 13 1017 19 16093 1.5 70 06:41 22.12.2019
5689 Clear 13 1016 40 16093 0.95 190 05:54 22.12.2019
5690 Clear 13 1016 20 16093 0.4 138 05:23 22.12.2019
5691 Clear 14 1016 20 16093 0.4 138 04:30 22.12.2019
5692 Clear 14 1016 37 16093 1.5 350 03:56 22.12.2019
5693 Clear 16 1017 21 16093 3.1 50 02:42 22.12.2019
5694 Clear 17 1018 23 16093 1.55 219 01:54 22.12.2019
5695 Clear 18 1016 19 16093 1.55 219 01:30 22.12.2019
5696 Clear 20 1017 15 16093 2.1 120 00:48 22.12.2019
5697 Clear 20 1016 16 16093 1.53 227 00:26 22.12.2019
5698 Clear 21 1017 18 16093 1.5 190 23:57 21.12.2019
5699 Clear 21 1018 13 16093 2.1 110 23:39 21.12.2019
5700 Clear 21 1017 18 16093 1.5 130 23:20 21.12.2019
5701 Clear 21 1019 16 16093 1.5 160 22:46 21.12.2019
5702 Clear 21 1018 11 16093 1.5 0 22:46 21.12.2019
5703 Clear 21 1018 20 16093 1.62 175 22:20 21.12.2019
5704 Clear 21 1018 20 16093 1.62 175 21:58 21.12.2019
5705 Clear 21 1019 13 16093 1.62 175 21:40 21.12.2019
5706 Clear 20 1019 21 16093 1.62 175 21:21 21.12.2019
5707 Clear 20 1019 21 16093 1.62 175 20:59 21.12.2019
5708 Clear 19 1020 19 16093 1.34 155 20:41 21.12.2019
5709 Clear 18 1020 19 16093 2.1 90 20:22 21.12.2019
5710 Clear 17 1021 18 16093 2.6 110 19:59 21.12.2019
5711 Clear 17 1021 18 16093 2.6 110 19:41 21.12.2019
5712 Clear 16 1020 22 16093 0.82 114 19:20 21.12.2019
5713 Clear 15 1021 29 16093 0.82 114 18:56 21.12.2019
5714 Clear 15 1021 25 16093 3.1 100 18:38 21.12.2019
5715 Clear 14 1020 23 16093 1.5 0 18:20 21.12.2019
5716 Clear 13 1021 21 16093 2.6 80 17:55 21.12.2019
5717 Clear 13 1021 21 16093 2.6 80 17:37 21.12.2019
5718 Clear 11 1020 30 16093 1.5 30 17:18 21.12.2019
5719 Clear 10 1022 20 16093 3.1 50 16:54 21.12.2019
5720 Clear 10 1021 46 16093 0.71 61 16:36 21.12.2019
5721 Clear 10 1021 46 16093 0.71 61 16:36 21.12.2019
5722 Clear 10 1021 46 16093 0.71 61 16:18 21.12.2019
5723 Clear 10 1021 49 16093 0.71 61 15:54 21.12.2019
5724 Clear 10 1021 22 16093 3.1 70 15:36 21.12.2019
5725 Clear 10 1021 20 16093 0.71 61 15:18 21.12.2019
5726 Clear 10 1021 26 16093 2.1 70 14:40 21.12.2019
5727 Clear 10 1020 46 16093 0.46 335 14:22 21.12.2019
5728 Clear 11 1021 49 16093 2.6 340 13:58 21.12.2019
5729 Clear 11 1021 24 16093 2.1 60 13:39 21.12.2019
5730 Clear 11 1020 33 16093 0.26 7 13:19 21.12.2019
5731 Clear 11 1021 49 16093 0.26 7 12:56 21.12.2019
5732 Clear 11 1021 26 16093 2.6 80 12:38 21.12.2019
5733 Clear 11 1021 30 16093 1.5 20 12:19 21.12.2019
5734 Clear 11 1022 26 16093 2.6 50 11:46 21.12.2019
5735 Clear 12 1021 30 16093 1.26 71 11:27 21.12.2019
5736 Clear 12 1021 37 16093 4.1 330 10:59 21.12.2019
5737 Clear 12 1022 30 16093 2.1 90 10:40 21.12.2019
5738 Clear 12 1021 22 16093 1.26 71 10:21 21.12.2019
5739 Clear 13 1021 43 16093 3.1 320 09:57 21.12.2019
5740 Clear 13 1022 30 16093 2.6 60 09:39 21.12.2019
5741 Clear 13 1021 35 16093 1.26 71 09:19 21.12.2019
5742 Clear 13 1022 34 16093 1.26 71 08:47 21.12.2019
5743 Clear 13 1021 29 16093 0.76 54 08:27 21.12.2019
5744 Clear 13 1023 35 16093 0.76 54 07:47 21.12.2019
5745 Clear 14 1021 27 16093 0.76 54 07:23 21.12.2019
5746 Clear 14 1021 27 16093 0.76 54 06:58 21.12.2019
5747 Clear 14 1023 35 16093 2.6 70 06:40 21.12.2019
5748 Clear 14 1022 23 16093 2.1 10 06:21 21.12.2019
5749 Clear 15 1021 25 16093 0.76 54 05:25 21.12.2019
5750 Clear 15 1022 30 16093 0.69 13 04:34 21.12.2019
5751 Clear 16 1022 30 16093 1.5 10 03:56 21.12.2019
5752 Clear 18 1021 18 16093 0.69 13 02:25 21.12.2019
5753 Clear 18 1021 18 16093 0.69 13 02:25 21.12.2019
5754 Clear 19 1022 19 14484 2.6 300 01:48 21.12.2019
5755 Clear 20 1021 16 16093 0.92 356 01:25 21.12.2019
5756 Clear 20 1023 18 16093 5.1 320 00:45 21.12.2019
5757 Clear 21 1020 15 16093 1.5 30 00:26 21.12.2019
5758 Clear 22 1021 15 16093 1.5 250 23:39 20.12.2019
5759 Clear 22 1020 15 16093 1.5 95 23:21 20.12.2019
5760 Clear 22 1020 15 16093 1.5 95 22:59 20.12.2019
5761 Clear 22 1021 14 16093 1.5 0 22:39 20.12.2019
5762 Clear 22 1021 16 16093 1.5 0 22:19 20.12.2019
5763 Clear 22 1021 13 16093 1.5 0 21:54 20.12.2019
5764 Clear 22 1022 16 16093 1.5 95 21:36 20.12.2019
5765 Clear 22 1022 16 16093 1.5 95 21:18 20.12.2019
5766 Clear 22 1022 16 16093 1.5 95 21:18 20.12.2019
5767 Clear 21 1023 19 16093 1.5 95 20:38 20.12.2019
5768 Clear 20 1023 19 16093 2.6 90 20:19 20.12.2019
5769 Clear 19 1024 17 16093 1.5 0 19:57 20.12.2019
5770 Clear 19 1024 18 16093 2.1 0 19:38 20.12.2019
5771 Clear 18 1024 22 16093 2.1 100 19:19 20.12.2019
5772 Clear 17 1025 19 16093 1.5 0 18:42 20.12.2019
5773 Clear 16 1025 19 16093 1.5 0 18:42 20.12.2019
5774 Clear 16 1024 26 16093 1.33 95 18:23 20.12.2019
5775 Clear 14 1024 26 16093 1.33 95 17:58 20.12.2019
5776 Clear 13 1024 21 16093 1.33 95 17:40 20.12.2019
5777 Clear 11 1023 32 16093 0.83 11 17:21 20.12.2019
5778 Clear 10 1024 30 16093 2.6 360 16:59 20.12.2019
5779 Clear 11 1024 30 16093 2.6 360 16:59 20.12.2019
5780 Clear 9 1023 32 16093 1.5 360 16:38 20.12.2019
5781 Clear 9 1023 32 16093 1.5 360 16:20 20.12.2019
5782 Clear 9 1023 39 16093 3.6 10 15:56 20.12.2019
5783 Clear 9 1023 39 16093 3.6 10 15:38 20.12.2019
5784 Clear 9 1023 37 16093 0.83 11 15:19 20.12.2019
5785 Clear 9 1023 34 16093 2.1 320 14:43 20.12.2019
5786 Clear 9 1023 34 16093 1.02 51 14:25 20.12.2019
5787 Clear 9 1022 34 16093 3.1 360 13:59 20.12.2019
5788 Clear 9 1022 34 16093 3.1 360 13:41 20.12.2019
5789 Clear 9 1022 37 16093 0.84 43 13:20 20.12.2019
5790 Clear 9 1022 32 16093 1.5 280 12:57 20.12.2019
5791 Clear 9 1022 32 16093 1.5 280 12:38 20.12.2019
5792 Clear 9 1022 32 16093 1.5 20 12:19 20.12.2019
5793 Clear 9 1022 42 16093 2.6 310 11:58 20.12.2019
5794 Clear 9 1022 42 16093 2.6 310 11:39 20.12.2019
5795 Clear 9 1022 30 16093 1.5 20 11:19 20.12.2019
5796 Clear 9 1022 34 16093 3.1 360 10:57 20.12.2019
5797 Clear 9 1022 34 16093 3.1 360 10:39 20.12.2019
5798 Clear 9 1022 34 16093 3.1 360 10:39 20.12.2019
5799 Clear 9 1022 20 16093 1.23 66 10:20 20.12.2019
5800 Clear 9 1022 34 16093 2.6 330 09:54 20.12.2019
5801 Clear 9 1022 34 16093 2.6 330 09:36 20.12.2019
5802 Clear 10 1022 50 16093 1.23 66 09:18 20.12.2019
5803 Clear 10 1022 34 16093 3.1 340 08:42 20.12.2019
5804 Clear 10 1022 46 16093 0.87 31 08:22 20.12.2019
5805 Clear 10 1023 37 16093 2.6 330 07:58 20.12.2019
5806 Clear 10 1023 37 16093 2.6 330 07:40 20.12.2019
5807 Clear 10 1022 46 16093 0.87 31 07:19 20.12.2019
5808 Clear 10 1022 37 16093 1.5 320 06:50 20.12.2019
5809 Clear 11 1022 50 16093 0.87 31 06:31 20.12.2019
5810 Clear 11 1022 32 16093 2.1 350 05:52 20.12.2019
5811 Clear 11 1022 32 16093 2.1 350 05:34 20.12.2019
5812 Clear 11 1021 44 16093 1.21 306 04:30 20.12.2019
5813 Clear 13 1020 38 16093 1.21 306 03:30 20.12.2019
5814 Clear 14 1021 35 16093 2.1 350 02:42 20.12.2019
5815 Clear 16 1021 21 16093 1.19 235 01:47 20.12.2019
5816 Clear 16 1019 29 16093 2.6 270 01:29 20.12.2019
5817 Clear 18 1019 21 16093 2.6 260 00:42 20.12.2019
5818 Clear 18 1019 22 16093 0.96 242 00:20 20.12.2019
5819 Clear 18 1019 20 16093 2.1 280 23:43 19.12.2019
5820 Clear 18 1018 22 16093 0.9 244 23:24 19.12.2019
5821 Clear 18 1020 21 16093 0.9 244 22:59 19.12.2019
5822 Clear 18 1019 20 16093 0.9 244 22:36 19.12.2019
5823 Clear 18 1019 20 16093 0.9 244 22:18 19.12.2019
5824 Clear 18 1019 20 16093 0.9 244 22:18 19.12.2019
5825 Clear 17 1019 19 14484 3.1 230 21:55 19.12.2019
5826 Clear 17 1019 23 16093 0.9 244 21:37 19.12.2019
5827 Clear 17 1019 23 16093 0.9 244 21:18 19.12.2019
5828 Clear 16 1019 26 16093 2.6 260 20:55 19.12.2019
5829 Clear 16 1019 26 16093 2.6 260 20:36 19.12.2019
5830 Clear 16 1020 25 16093 1.5 0 20:18 19.12.2019
5831 Clear 15 1020 32 16093 2.6 220 19:54 19.12.2019
5832 Clear 14 1021 26 16093 0.53 122 19:36 19.12.2019
5833 Clear 14 1021 26 16093 0.53 122 19:18 19.12.2019
5834 Clear 13 1020 37 16093 2.6 210 18:41 19.12.2019
5835 Clear 12 1020 32 0 1.5 90 18:22 19.12.2019
5836 Clear 10 1020 34 16093 0.53 122 17:57 19.12.2019
5837 Clear 10 1020 34 16093 0.53 122 17:39 19.12.2019
5838 Clear 8 1019 46 16093 1.5 100 17:19 19.12.2019
5839 Clear 7 1019 33 16093 0.5 38 16:57 19.12.2019
5840 Clear 6 1019 33 16093 0.5 38 16:39 19.12.2019
5841 Clear 6 1019 36 16093 0.5 38 16:21 19.12.2019
5842 Clear 5 1019 36 16093 2.1 340 15:59 19.12.2019
5843 Clear 5 1019 36 16093 2.1 340 15:39 19.12.2019
5844 Clear 5 1019 56 16093 0.5 38 15:20 19.12.2019
5845 Clear 5 1019 56 16093 0.5 38 15:20 19.12.2019
5846 Clear 6 1018 33 16093 1.5 350 14:59 19.12.2019
5847 Clear 5 1018 33 16093 1.5 350 14:41 19.12.2019
5848 Clear 6 1018 49 16093 0.82 57 14:19 19.12.2019
5849 Clear 6 1018 29 16093 3.1 10 13:57 19.12.2019
5850 Clear 6 1018 29 16093 3.1 10 13:37 19.12.2019
5851 Clear 6 1018 49 16093 0.6 68 13:18 19.12.2019
5852 Clear 6 1018 33 16093 0.6 68 12:55 19.12.2019
5853 Clear 6 1018 33 16093 0.6 68 12:55 19.12.2019
5854 Clear 6 1019 45 16093 0.6 68 12:37 19.12.2019
5855 Clear 6 1019 45 16093 0.6 68 12:18 19.12.2019
5856 Clear 6 1018 28 16093 2.1 20 11:57 19.12.2019
5857 Clear 6 1018 28 16093 2.1 20 11:39 19.12.2019
5858 Clear 6 1019 42 16093 0.92 61 11:18 19.12.2019
5859 Clear 6 1018 33 16093 3.1 70 10:55 19.12.2019
5860 Clear 6 1018 45 16093 0.92 61 10:36 19.12.2019
5861 Clear 6 1018 45 16093 0.92 61 10:18 19.12.2019
5862 Clear 6 1018 45 16093 0.92 61 10:18 19.12.2019
5863 Clear 6 1018 45 16093 0.92 61 10:18 19.12.2019
5864 Clear 6 1018 30 16093 0.92 61 09:38 19.12.2019
5865 Clear 6 1018 30 16093 0.92 61 09:38 19.12.2019
5866 Clear 7 1018 40 16093 0.92 61 09:20 19.12.2019
5867 Clear 7 1018 40 16093 0.92 61 09:20 19.12.2019
5868 Clear 7 1018 40 16093 0.92 61 09:20 19.12.2019
5869 Clouds 7 1019 21 16093 3.1 10 08:58 19.12.2019
5870 Clouds 7 1019 21 16093 3.1 10 08:40 19.12.2019
5871 Clear 7 1018 37 16093 1.5 10 08:19 19.12.2019
5872 Clear 7 1018 24 16093 2.6 20 07:57 19.12.2019
5873 Clear 7 1018 24 16093 2.6 20 07:38 19.12.2019
5874 Clear 7 1018 40 16093 0.13 282 07:19 19.12.2019
5875 Clear 8 1018 26 16093 2.1 10 06:49 19.12.2019
5876 Clear 8 1018 62 16093 0.13 282 06:29 19.12.2019
5877 Clear 9 1018 29 16093 2.6 340 05:55 19.12.2019
5878 Clear 9 1017 62 16093 0.13 282 05:34 19.12.2019
5879 Clear 9 1018 39 16093 1.95 259 04:51 19.12.2019
5880 Clear 11 1016 50 16093 1.95 259 03:21 19.12.2019
5881 Clear 12 1016 38 16093 1.5 250 02:22 19.12.2019
5882 Clear 15 1016 23 16093 2.13 246 01:22 19.12.2019
5883 Clouds 16 1016 12 16093 4.6 280 00:43 19.12.2019
5884 Clouds 16 1016 27 16093 2.13 246 00:24 19.12.2019
5885 Clouds 16 1016 14 16093 4.6 260 23:57 18.12.2019
5886 Clouds 16 1016 14 16093 4.6 260 23:38 18.12.2019
5887 Clouds 16 1017 17 16093 2.1 0 23:18 18.12.2019
5888 Clouds 16 1018 11 16093 1.56 196 22:55 18.12.2019
5889 Clouds 16 1016 11 16093 2.1 210 22:37 18.12.2019
5890 Clouds 16 1017 15 16093 3.1 0 22:19 18.12.2019
5891 Clear 16 1016 10 16093 1.56 196 21:56 18.12.2019
5892 Clouds 16 1017 12 16093 1.56 196 21:38 18.12.2019
5893 Clouds 16 1017 12 16093 1.56 196 21:19 18.12.2019
5894 Clear 15 1017 17 16093 3.1 90 20:55 18.12.2019
5895 Clear 15 1017 17 16093 3.1 90 20:37 18.12.2019
5896 Clear 13 1018 17 16093 1.24 108 20:19 18.12.2019
5897 Clear 12 1019 16 16093 2.6 80 19:55 18.12.2019
5898 Clear 12 1019 16 16093 2.6 80 19:37 18.12.2019
5899 Clear 12 1019 19 16093 2.1 90 19:18 18.12.2019
5900 Clear 12 1019 19 16093 2.1 90 19:18 18.12.2019
5901 Clear 11 1019 23 0 1.5 10 18:44 18.12.2019
5902 Clear 10 1019 23 0 1.5 10 18:25 18.12.2019
5903 Clear 10 1019 18 16093 2.6 80 17:57 18.12.2019
5904 Clear 9 1019 18 16093 2.6 80 17:39 18.12.2019
5905 Clear 8 1019 25 0 2.1 10 17:20 18.12.2019
5906 Clear 8 1019 25 0 2.1 10 17:20 18.12.2019
5907 Clear 7 1018 16 16093 2.1 80 16:57 18.12.2019
5908 Clear 7 1018 16 16093 2.1 80 16:39 18.12.2019
5909 Clear 6 1018 29 16093 2.1 10 16:20 18.12.2019
5910 Clear 6 1019 48 16093 0.75 50 15:56 18.12.2019
5911 Clear 6 1018 19 16093 3.1 70 15:37 18.12.2019
5912 Clear 6 1018 31 16093 0.75 50 15:19 18.12.2019
5913 Clear 6 1018 15 16093 3.1 70 14:43 18.12.2019
5914 Clear 6 1018 33 14484 2.15 75 14:22 18.12.2019
5915 Clear 6 1018 44 16093 1.5 260 13:58 18.12.2019
5916 Clear 6 1018 14 16093 2.6 50 13:39 18.12.2019
5917 Clear 6 1018 27 16093 2.1 20 13:21 18.12.2019
5918 Clear 6 1018 27 16093 2.1 20 12:59 18.12.2019
5919 Clear 6 1018 17 16093 2.6 40 12:40 18.12.2019
5920 Clear 6 1019 27 16093 1.5 30 12:21 18.12.2019
5921 Clouds 7 1019 20 16093 3.1 50 11:57 18.12.2019
5922 Clear 7 1019 13 16093 2.6 60 11:39 18.12.2019
5923 Clear 7 1019 27 16093 1.28 64 11:20 18.12.2019
5924 Clouds 7 1019 18 16093 1.5 30 10:57 18.12.2019
5925 Clear 8 1019 13 16093 3.1 70 10:39 18.12.2019
5926 Clear 8 1020 25 16093 1.28 64 10:20 18.12.2019
5927 Clear 8 1020 25 16093 1.28 64 10:20 18.12.2019
5928 Clear 9 1019 12 16093 1.5 70 09:57 18.12.2019
5929 Clear 9 1019 13 16093 1.28 64 09:20 18.12.2019
5930 Clear 10 1020 5 16093 6.2 90 08:43 18.12.2019
5931 Clear 10 1020 14 16093 0.58 354 08:24 18.12.2019
5932 Clear 10 1020 14 16093 2.49 81 07:57 18.12.2019
5933 Clear 10 1021 8 16093 5.1 70 07:39 18.12.2019
5934 Clear 11 1020 17 16093 2.49 81 07:20 18.12.2019
5935 Clear 11 1020 18 16093 3.6 60 06:52 18.12.2019
5936 Clear 12 1020 13 16093 2.1 0 06:24 18.12.2019
5937 Clear 13 1021 21 16093 4.1 90 05:35 18.12.2019
5938 Clear 13 1020 12 16093 1.59 85 05:35 18.12.2019
5939 Clear 13 1020 11 16093 1.5 60 04:31 18.12.2019
5940 Clear 14 1021 24 16093 1.59 85 02:47 18.12.2019
5941 Clear 15 1020 11 16093 2.6 0 02:28 18.12.2019
5942 Clear 16 1022 15 16093 2.6 340 01:45 18.12.2019
5943 Clear 16 1021 9 16093 2.1 0 01:27 18.12.2019
5944 Clear 17 1021 10 16093 4.6 70 00:55 18.12.2019
5945 Clear 17 1021 8 16093 2.04 109 00:37 18.12.2019
5946 Clear 18 1021 8 16093 1.5 0 00:19 18.12.2019
5947 Clear 18 1021 10 16093 2.6 0 23:43 17.12.2019
5948 Clear 18 1021 9 16093 2.1 50 23:24 17.12.2019
5949 Clouds 18 1021 11 16093 3.1 60 22:57 17.12.2019
5950 Clear 18 1022 9 16093 2.23 115 22:39 17.12.2019
5951 Clear 17 1022 11 16093 1.5 0 22:20 17.12.2019
5952 Clear 17 1022 11 16093 2.23 115 21:57 17.12.2019
5953 Clear 18 1022 9 16093 2.23 115 21:39 17.12.2019
5954 Clear 17 1023 11 16093 2.6 0 21:20 17.12.2019
5955 Clear 17 1024 13 16093 2.1 0 20:59 17.12.2019
5956 Clear 16 1024 10 16093 2.1 0 20:40 17.12.2019
5957 Clear 16 1024 16 16093 2.45 97 20:19 17.12.2019
5958 Clear 15 1024 16 16093 2.45 97 19:59 17.12.2019
5959 Clear 15 1024 11 16093 2.6 0 19:41 17.12.2019
5960 Clear 14 1025 19 16093 2.1 40 19:20 17.12.2019
5961 Clouds 14 1025 14 16093 4.6 70 18:58 17.12.2019
5962 Clear 14 1025 16 16093 4.1 270 18:39 17.12.2019
5963 Clear 13 1025 24 0 2.45 97 18:21 17.12.2019
5964 Clouds 13 1025 18 16093 4.6 40 17:56 17.12.2019
5965 Clear 12 1025 39 16093 2.45 97 17:38 17.12.2019
5966 Clear 11 1025 39 16093 1.43 42 17:18 17.12.2019
5967 Clear 10 1025 13 16093 7.2 70 16:56 17.12.2019
5968 Clear 9 1024 24 16093 1.5 300 16:37 17.12.2019
5969 Clear 9 1024 24 16093 1.5 300 16:37 17.12.2019
5970 Clear 9 1025 48 16093 1.43 42 16:18 17.12.2019
5971 Clear 9 1025 44 16093 1.43 42 15:54 17.12.2019
5972 Clear 9 1024 22 16093 2.6 340 15:36 17.12.2019
5973 Clear 9 1025 48 16093 1.43 42 15:18 17.12.2019
5974 Clear 9 1024 28 16093 2.1 330 14:54 17.12.2019
5975 Clear 9 1024 48 16093 1.43 42 14:36 17.12.2019
5976 Clear 10 1024 48 16093 1.83 33 14:18 17.12.2019
5977 Clear 9 1024 33 16093 2.1 60 13:54 17.12.2019
5978 Clear 10 1024 24 16093 2.6 340 13:36 17.12.2019
5979 Clear 10 1024 39 16093 1.15 44 13:18 17.12.2019
5980 Clear 10 1024 20 16093 2.6 360 12:40 17.12.2019
5981 Clear 10 1025 42 16093 1.15 44 12:19 17.12.2019
5982 Clouds 10 1025 29 16093 3.1 40 11:59 17.12.2019
5983 Clear 10 1025 42 16093 1.15 44 11:37 17.12.2019
5984 Clear 10 1025 42 16093 1.15 44 11:37 17.12.2019
5985 Clear 10 1025 42 16093 2.41 39 11:19 17.12.2019
5986 Clouds 10 1025 31 16093 1.5 30 10:59 17.12.2019
5987 Clear 11 1025 42 16093 2.41 39 10:40 17.12.2019
5988 Clear 11 1025 42 16093 2.41 39 10:21 17.12.2019
5989 Clear 11 1025 42 16093 2.41 39 09:59 17.12.2019
5990 Clear 11 1024 20 16093 3.1 310 09:41 17.12.2019
5991 Clear 11 1025 42 16093 2.41 39 09:20 17.12.2019
5992 Clear 11 1025 15 16093 4.1 80 08:56 17.12.2019
5993 Clear 11 1025 24 16093 2.6 320 08:38 17.12.2019
5994 Clear 11 1025 31 16093 2.13 31 08:19 17.12.2019
5995 Clear 12 1025 26 16093 2.13 31 07:46 17.12.2019
5996 Clear 12 1025 25 16093 2.13 31 07:26 17.12.2019
5997 Clouds 12 1025 16 16093 2.1 210 06:56 17.12.2019
5998 Clear 12 1024 22 16093 2.13 31 06:35 17.12.2019
5999 Clouds 13 1024 11 16093 2.13 31 05:53 17.12.2019
6000 Clear 13 1024 19 16093 2.13 31 05:35 17.12.2019
6001 Clear 14 1023 18 16093 1.5 270 04:30 17.12.2019
6002 Clear 15 1022 22 16093 3.71 48 02:34 17.12.2019
6003 Clear 16 1023 7 16093 2.1 30 01:55 17.12.2019
6004 Clear 17 1022 12 16093 2.6 80 00:59 17.12.2019
6005 Clear 18 1023 17 16093 1.5 260 00:38 17.12.2019
6006 Clear 18 1022 18 16093 1.1 81 00:19 17.12.2019
6007 Clear 18 1022 18 16093 2.6 270 23:42 16.12.2019
6008 Clear 18 1022 19 16093 1.5 0 23:19 16.12.2019
6009 Clear 18 1022 19 16093 1.5 0 23:19 16.12.2019
6010 Clear 18 1022 19 16093 1.5 0 23:19 16.12.2019
6011 Clear 18 1022 19 16093 1.5 0 23:19 16.12.2019
6012 Clouds 18 1022 20 16093 4.1 240 22:58 16.12.2019
6013 Clear 18 1022 18 16093 4.1 240 22:37 16.12.2019
6014 Clear 18 1022 17 16093 1.41 323 22:19 16.12.2019
6015 Clear 18 1022 17 16093 1.41 323 22:19 16.12.2019
6016 Clear 18 1022 17 16093 1.41 323 22:19 16.12.2019
6017 Clear 18 1022 17 16093 1.5 210 21:55 16.12.2019
6018 Haze 18 1023 18 2816 1.41 323 21:37 16.12.2019
6019 Haze 18 1023 18 2816 1.41 323 21:19 16.12.2019
6020 Clear 17 1023 23 16093 1.41 323 20:57 16.12.2019
6021 Clear 17 1023 21 16093 1.5 0 20:38 16.12.2019
6022 Clear 17 1024 23 16093 1.6 307 20:38 16.12.2019
6023 Clear 16 1024 23 16093 1.44 80 20:19 16.12.2019
6024 Clear 16 1024 16 16093 6.7 70 19:56 16.12.2019
6025 Clear 16 1024 29 16093 1.44 80 19:37 16.12.2019
6026 Clear 15 1024 29 16093 1.44 80 19:19 16.12.2019
6027 Clear 15 1024 26 16093 1.44 80 18:56 16.12.2019
6028 Clear 15 1024 30 16093 1.5 320 18:38 16.12.2019
6029 Clear 14 1024 33 16093 1.5 100 18:19 16.12.2019
6030 Clouds 12 1024 30 16093 1.44 80 17:57 16.12.2019
6031 Clear 12 1024 34 16093 2.1 230 17:38 16.12.2019
6032 Clear 11 1024 40 14484 1.5 0 17:20 16.12.2019
6033 Clear 11 1024 40 14484 1.5 0 17:20 16.12.2019
6034 Clouds 9 1024 35 16093 2.6 30 16:57 16.12.2019
6035 Clear 9 1023 36 16093 2.1 350 16:38 16.12.2019
6036 Clear 8 1023 43 16093 1.48 22 16:19 16.12.2019
6037 Clear 8 1022 60 16093 1.48 22 15:58 16.12.2019
6038 Clear 8 1022 31 16093 1.48 22 15:38 16.12.2019
6039 Clear 8 1022 39 16093 2.1 10 15:20 16.12.2019
6040 Clear 8 1022 60 16093 1.5 20 14:55 16.12.2019
6041 Clear 8 1022 26 16093 3.1 20 14:37 16.12.2019
6042 Clear 8 1021 37 16093 1.5 20 14:19 16.12.2019
6043 Clear 8 1021 20 16093 1.01 44 13:56 16.12.2019
6044 Clear 8 1021 20 16093 1.01 44 13:56 16.12.2019
6045 Clear 8 1021 20 16093 1.01 44 13:56 16.12.2019
6046 Clear 8 1021 45 16093 2.6 340 13:37 16.12.2019
6047 Clear 8 1021 45 16093 2.6 340 13:37 16.12.2019
6048 Clear 8 1021 43 16093 1.5 0 13:19 16.12.2019
6049 Clear 8 1021 34 16093 2.6 20 12:57 16.12.2019
6050 Clear 8 1021 34 16093 2.6 20 12:39 16.12.2019
6051 Clear 8 1021 40 16093 1 54 12:19 16.12.2019
6052 Clouds 8 1021 43 16093 2.6 70 11:58 16.12.2019
6053 Clear 8 1021 49 16093 2.1 350 11:40 16.12.2019
6054 Clear 7 1021 40 16093 1.5 30 11:20 16.12.2019
6055 Clouds 7 1021 43 16093 1.5 80 10:56 16.12.2019
6056 Clear 8 1021 49 16093 2.1 320 10:38 16.12.2019
6057 Clear 8 1020 37 16093 1.5 30 10:19 16.12.2019
6058 Clear 8 1020 49 16093 1.5 310 09:45 16.12.2019
6059 Clear 8 1020 37 16093 1.5 30 09:27 16.12.2019
6060 Clear 8 1020 49 16093 0.77 55 08:55 16.12.2019
6061 Clear 9 1020 61 16093 1.5 310 08:37 16.12.2019
6062 Clear 9 1020 40 16093 1.35 359 08:18 16.12.2019
6063 Clear 9 1020 25 16093 2.6 310 07:42 16.12.2019
6064 Clear 9 1020 35 16093 1.5 20 07:21 16.12.2019
6065 Clear 10 1019 57 16093 1.35 359 06:45 16.12.2019
6066 Clear 10 1019 35 16093 1.35 359 06:22 16.12.2019
6067 Clear 11 1019 50 16093 2.6 360 05:49 16.12.2019
6068 Clear 11 1018 37 16093 1.35 359 05:30 16.12.2019
6069 Clear 11 1018 33 16093 1.5 0 04:21 16.12.2019
6070 Clear 13 1018 33 16093 1.4 207 01:59 16.12.2019
6071 Clear 14 1017 21 16093 1.4 207 01:40 16.12.2019
6072 Clear 16 1017 21 16093 4.1 320 00:42 16.12.2019
6073 Clear 16 1017 21 16093 4.1 320 00:24 16.12.2019
6074 Clouds 16 1017 23 16093 7.7 320 23:58 15.12.2019
6075 Clear 16 1016 41 16093 1.5 280 23:38 15.12.2019
6076 Clouds 16 1016 25 16093 7.7 320 23:20 15.12.2019
6077 Clouds 16 1016 25 16093 7.7 320 22:56 15.12.2019
6078 Clouds 16 1016 54 16093 2.03 206 22:37 15.12.2019
6079 Clear 16 1017 27 16093 3.1 0 22:18 15.12.2019
6080 Clear 16 1017 27 16093 3.1 0 22:18 15.12.2019
6081 Clear 16 1016 58 16093 3.6 280 21:56 15.12.2019
6082 Clear 16 1016 58 16093 3.6 280 21:37 15.12.2019
6083 Clear 16 1017 27 16093 4.6 310 21:19 15.12.2019
6084 Clear 15 1017 33 16093 8.7 320 20:56 15.12.2019
6085 Clouds 15 1017 62 16093 2.03 206 20:37 15.12.2019
6086 Clear 15 1018 32 16093 3.1 0 20:18 15.12.2019
6087 Clear 14 1018 33 16093 6.7 320 19:57 15.12.2019
6088 Clear 14 1018 33 16093 6.7 320 19:57 15.12.2019
6089 Clouds 14 1017 71 16093 0.94 26 19:38 15.12.2019
6090 Clear 14 1018 36 16093 1.5 0 19:18 15.12.2019
6091 Clear 13 1018 32 16093 8.7 320 18:56 15.12.2019
6092 Clear 13 1018 32 16093 8.7 320 18:56 15.12.2019
6093 Clouds 13 1017 87 12874 0.94 26 18:38 15.12.2019
6094 Clear 13 1017 41 16093 1.5 0 18:18 15.12.2019
6095 Clear 13 1017 41 16093 1.5 0 18:18 15.12.2019
6096 Clouds 12 1018 37 16093 4.6 340 17:56 15.12.2019
6097 Clouds 12 1016 81 16093 1.5 0 17:37 15.12.2019
6098 Clear 11 1016 41 16093 3.1 0 17:18 15.12.2019
6099 Clouds 10 1017 35 16093 5.7 330 16:55 15.12.2019
6100 Clouds 10 1017 35 16093 5.7 330 16:55 15.12.2019
6101 Clear 10 1016 76 16093 2.1 50 16:37 15.12.2019
6102 Clear 9 1016 37 16093 3.35 328 16:19 15.12.2019
6103 Clear 9 1016 40 16093 5.1 300 15:54 15.12.2019
6104 Clear 9 1015 40 16093 2.57 329 15:36 15.12.2019
6105 Clear 9 1015 40 16093 2.57 329 15:18 15.12.2019
6106 Clouds 9 1014 100 16093 2.6 90 14:55 15.12.2019
6107 Clouds 9 1014 100 16093 2.6 90 14:36 15.12.2019
6108 Clear 9 1014 41 16093 1.25 342 14:18 15.12.2019
6109 Clear 9 1014 40 16093 10.8 350 13:55 15.12.2019
6110 Clouds 9 1014 100 16093 3.6 260 13:36 15.12.2019
6111 Clear 9 1014 44 16093 0.66 295 13:18 15.12.2019
6112 Clear 9 1014 44 16093 0.66 295 13:18 15.12.2019
6113 Clouds 10 1014 41 16093 3.1 330 12:55 15.12.2019
6114 Clouds 10 1014 93 16093 1.5 320 12:37 15.12.2019
6115 Clouds 10 1014 93 16093 1.5 320 12:37 15.12.2019
6116 Clear 10 1014 41 16093 1.5 0 12:19 15.12.2019
6117 Clear 10 1014 100 16093 4.6 240 11:38 15.12.2019
6118 Clear 10 1014 54 16093 0.77 217 11:19 15.12.2019
6119 Clouds 10 1014 41 16093 3.1 350 10:58 15.12.2019
6120 Clouds 11 1014 100 16093 3.1 260 10:40 15.12.2019
6121 Clear 11 1014 50 16093 0.77 217 10:19 15.12.2019
6122 Clear 11 1014 40 16093 3.1 350 09:59 15.12.2019
6123 Clouds 11 1013 81 16093 0.77 217 09:38 15.12.2019
6124 Clear 11 1014 71 16093 0.77 217 09:20 15.12.2019
6125 Clouds 12 1014 87 11265 0.77 217 08:55 15.12.2019
6126 Clouds 12 1014 100 14484 3.1 280 08:37 15.12.2019
6127 Clear 11 1014 76 16093 2.01 135 08:19 15.12.2019
6128 Clear 11 1014 81 12874 2.01 135 07:53 15.12.2019
6129 Clear 12 1013 72 16093 2.01 135 07:31 15.12.2019
6130 Clear 12 1013 72 16093 2.01 135 06:30 15.12.2019
6131 Clouds 13 1013 100 12874 2.6 230 05:49 15.12.2019
6132 Clear 13 1012 77 16093 2.61 203 05:22 15.12.2019
6133 Clouds 13 1012 72 16093 2.61 203 04:24 15.12.2019
6134 Clear 14 1012 72 16093 2.61 203 02:59 15.12.2019
6135 Clouds 14 1012 72 16093 2.61 203 02:32 15.12.2019
6136 Rain 15 1013 100 8047 1.5 280 01:42 15.12.2019
6137 Rain 15 1012 68 16093 2.1 260 01:19 15.12.2019
6138 Rain 16 1012 63 16093 2.46 192 00:51 15.12.2019
6139 Rain 16 1013 63 14484 1.5 250 00:33 15.12.2019
6140 Rain 16 1013 68 16093 5.7 250 23:56 14.12.2019
6141 Rain 16 1013 60 14484 1.5 250 23:38 14.12.2019
6142 Rain 17 1013 60 14484 2.1 0 23:18 14.12.2019
6143 Clouds 17 1013 68 14484 5.1 240 22:56 14.12.2019
6144 Clouds 16 1013 63 12874 3.6 140 22:37 14.12.2019
6145 Haze 16 1013 59 9656 2.58 202 22:19 14.12.2019
6146 Clouds 17 1014 68 16093 2.6 210 21:55 14.12.2019
6147 Haze 17 1014 68 9656 2.58 202 21:37 14.12.2019
6148 Haze 16 1014 68 9656 2.58 202 21:18 14.12.2019
6149 Rain 16 1015 100 1207 1.5 0 20:42 14.12.2019
6150 Rain 15 1015 72 6437 1.31 196 20:21 14.12.2019
6151 Haze 15 1015 72 6437 1.31 196 19:59 14.12.2019
6152 Haze 15 1016 72 4828 1.31 196 19:40 14.12.2019
6153 Haze 15 1016 72 4828 1.31 196 19:21 14.12.2019
6154 Haze 15 1016 72 4828 1.31 196 19:21 14.12.2019
6155 Haze 14 1016 82 8047 1.31 196 18:57 14.12.2019
6156 Haze 14 1016 82 4828 1.31 196 18:39 14.12.2019
6157 Haze 14 1016 82 4023 1.31 196 18:21 14.12.2019
6158 Rain 14 1016 82 4023 2.6 90 17:59 14.12.2019
6159 Rain 14 1016 87 3219 1.5 110 17:41 14.12.2019
6160 Rain 13 1016 82 3219 1.5 110 17:22 14.12.2019
6161 Haze 13 1016 82 2816 1.19 157 16:41 14.12.2019
6162 Rain 13 1016 82 2816 1.19 157 16:19 14.12.2019
6163 Mist 13 1016 93 2816 1.19 157 15:57 14.12.2019
6164 Rain 13 1016 87 4828 2.1 30 15:38 14.12.2019
6165 Rain 13 1015 87 4828 2.1 90 15:19 14.12.2019
6166 Rain 13 1015 93 3219 1.5 160 14:57 14.12.2019
6167 Haze 13 1015 77 4828 1.19 157 14:38 14.12.2019
6168 Haze 13 1015 82 4828 0.7 184 14:18 14.12.2019
6169 Haze 13 1015 77 4828 0.7 184 13:44 14.12.2019
6170 Haze 13 1015 77 4828 0.56 238 13:20 14.12.2019
6171 Mist 13 1015 87 9656 0.56 238 12:58 14.12.2019
6172 Mist 13 1015 87 4828 2.1 90 12:40 14.12.2019
6173 Haze 13 1016 82 4828 0.56 238 12:40 14.12.2019
6174 Haze 13 1016 82 4828 0.56 238 12:20 14.12.2019
6175 Mist 13 1016 87 6437 1.5 90 11:58 14.12.2019
6176 Mist 13 1016 87 4828 0.56 238 11:58 14.12.2019
6177 Mist 13 1016 87 4828 0.56 238 11:39 14.12.2019
6178 Haze 13 1016 82 4828 0.85 204 11:19 14.12.2019
6179 Haze 13 1016 82 4828 0.85 204 11:19 14.12.2019
6180 Mist 13 1016 87 8047 1.5 130 10:57 14.12.2019
6181 Mist 13 1016 93 1609 0.85 204 10:39 14.12.2019
6182 Haze 13 1016 82 4023 0.85 204 10:20 14.12.2019
6183 Fog 13 1016 100 805 2.1 170 09:55 14.12.2019
6184 Mist 13 1016 93 1207 1.5 150 09:37 14.12.2019
6185 Mist 13 1016 93 1609 0.85 204 09:18 14.12.2019
6186 Haze 13 1017 82 4023 1.5 100 08:42 14.12.2019
6187 Haze 13 1017 82 4023 1.5 100 08:42 14.12.2019
6188 Haze 13 1017 77 8047 1.06 199 08:19 14.12.2019
6189 Haze 13 1017 77 8047 1.06 199 07:44 14.12.2019
6190 Haze 13 1017 82 6437 1.06 199 07:23 14.12.2019
6191 Clouds 13 1017 82 11265 1.06 199 06:56 14.12.2019
6192 Clouds 13 1017 76 11265 1.06 199 06:37 14.12.2019
6193 Clouds 14 1017 82 11265 1.06 199 05:57 14.12.2019
6194 Mist 14 1017 82 6437 2.1 120 04:47 14.12.2019
6195 Haze 16 1017 77 4828 1.5 270 02:31 14.12.2019
6196 Haze 16 1017 72 8047 2.1 160 01:56 14.12.2019
6197 Haze 17 1018 63 8047 3.1 270 01:37 14.12.2019
6198 Haze 18 1018 49 9656 4.1 260 00:47 14.12.2019
6199 Haze 19 1018 77 8047 2.6 290 00:27 14.12.2019
6200 Haze 19 1018 77 9656 4.6 270 23:56 13.12.2019
6201 Haze 20 1018 56 8047 2.6 270 23:37 13.12.2019
6202 Haze 20 1018 56 8047 2.6 270 23:18 13.12.2019
6203 Clear 20 1018 43 11265 4.6 260 22:40 13.12.2019
6204 Haze 20 1018 60 6437 1.74 232 22:19 13.12.2019
6205 Haze 20 1019 72 4828 1.5 200 21:56 13.12.2019
6206 Haze 20 1019 56 8047 1.5 260 21:38 13.12.2019
6207 Haze 20 1019 56 8047 1.5 260 21:20 13.12.2019
6208 Haze 19 1020 77 4828 2.6 220 20:43 13.12.2019
6209 Mist 18 1020 82 4828 1.5 190 20:24 13.12.2019
6210 Clear 18 1021 42 12874 0.1 223 19:59 13.12.2019
6211 Clear 17 1021 42 12874 0.1 223 19:41 13.12.2019
6212 Haze 17 1021 63 8047 0.1 223 19:23 13.12.2019
6213 Fog 16 1021 93 402 0.1 223 18:59 13.12.2019
6214 Fog 16 1021 93 402 0.1 223 18:41 13.12.2019
6215 Haze 16 1021 67 9656 0.1 223 18:19 13.12.2019
6216 Clear 15 1022 66 16093 2.6 0 17:57 13.12.2019
6217 Clear 14 1021 55 16093 0.1 223 17:39 13.12.2019
6218 Haze 13 1021 76 8047 0.53 209 17:18 13.12.2019
6219 Clear 12 1021 81 16093 0.53 209 16:54 13.12.2019
6220 Mist 11 1021 93 4828 0.53 209 16:36 13.12.2019
6221 Haze 11 1021 81 9656 0.53 209 16:18 13.12.2019
6222 Haze 11 1020 81 8047 0.53 209 15:40 13.12.2019
6223 Haze 11 1020 81 8047 0.53 209 15:20 13.12.2019
6224 Mist 11 1021 93 6437 1.5 110 14:56 13.12.2019
6225 Mist 11 1021 93 4828 0.53 209 14:36 13.12.2019
6226 Mist 11 1021 93 4828 0.43 264 14:18 13.12.2019
6227 Mist 11 1021 93 4828 1.5 60 13:43 13.12.2019
6228 Mist 11 1021 93 3219 0.43 264 13:23 13.12.2019
6229 Fog 11 1021 93 805 1.5 80 12:54 13.12.2019
6230 Clear 11 1021 62 16093 0.49 279 12:36 13.12.2019
6231 Mist 11 1021 93 2414 1.5 90 12:18 13.12.2019
6232 Mist 11 1021 93 2414 1.5 90 12:18 13.12.2019
6233 Mist 12 1021 87 4023 2.1 90 11:42 13.12.2019
6234 Mist 12 1021 93 4828 0.64 167 11:24 13.12.2019
6235 Mist 12 1022 93 8047 0.64 167 10:56 13.12.2019
6236 Mist 12 1022 93 8047 0.64 167 10:38 13.12.2019
6237 Haze 12 1021 82 8047 0.64 167 10:19 13.12.2019
6238 Clear 13 1021 54 16093 2.6 50 09:42 13.12.2019
6239 Mist 13 1021 87 9656 0.64 167 09:21 13.12.2019
6240 Clear 13 1022 58 16093 2.1 40 08:45 13.12.2019
6241 Clear 13 1022 58 16093 2.1 40 08:45 13.12.2019
6242 Clear 13 1021 71 16093 0.64 167 08:26 13.12.2019
6243 Clear 13 1022 54 16093 2.6 60 07:50 13.12.2019
6244 Clear 13 1022 77 11265 2.1 100 07:26 13.12.2019
6245 Clear 13 1022 77 11265 0.22 353 06:57 13.12.2019
6246 Clear 13 1021 72 11265 0.22 353 06:32 13.12.2019
6247 Haze 14 1022 55 6437 1.5 40 05:52 13.12.2019
6248 Haze 14 1022 55 6437 1.5 40 05:33 13.12.2019
6249 Clear 14 1022 55 16093 1.5 360 04:54 13.12.2019
6250 Clear 15 1022 51 12874 1.5 320 03:52 13.12.2019
6251 Clear 16 1021 51 14484 1.5 330 02:35 13.12.2019
6252 Clear 18 1021 40 14484 1.5 250 01:54 13.12.2019
6253 Clear 19 1020 56 16093 1.56 211 01:27 13.12.2019
6254 Clear 20 1021 35 12874 2.1 220 00:47 13.12.2019
6255 Clear 20 1020 46 14484 1.56 211 00:26 13.12.2019
6256 Clear 21 1021 32 12874 1.56 211 23:42 12.12.2019
6257 Clear 21 1021 35 12874 1.56 211 23:24 12.12.2019
6258 Clear 21 1022 37 16093 1.41 204 22:56 12.12.2019
6259 Clear 21 1022 34 12874 1.41 204 22:38 12.12.2019
6260 Clear 21 1022 34 12874 1.41 204 22:38 12.12.2019
6261 Clear 20 1021 37 14484 1.41 204 22:20 12.12.2019
6262 Clear 21 1022 37 14484 1.41 204 21:56 12.12.2019
6263 Clear 20 1022 37 14484 1.41 204 21:37 12.12.2019
6264 Clear 20 1022 37 14484 1.41 204 21:19 12.12.2019
6265 Clear 20 1023 36 14484 2.1 0 20:59 12.12.2019
6266 Clear 19 1023 36 14484 2.1 0 20:40 12.12.2019
6267 Clear 19 1023 42 14484 0.66 104 20:21 12.12.2019
6268 Clear 18 1024 39 16093 2.1 190 19:56 12.12.2019
6269 Clear 18 1024 39 16093 2.1 190 19:37 12.12.2019
6270 Clear 17 1024 55 12874 1.5 90 19:18 12.12.2019
6271 Clear 16 1024 48 16093 2.6 130 18:56 12.12.2019
6272 Clear 16 1024 48 16093 2.6 130 18:37 12.12.2019
6273 Clear 16 1024 48 16093 2.6 130 18:37 12.12.2019
6274 Clear 15 1024 51 16093 0.66 104 18:19 12.12.2019
6275 Clear 14 1024 47 16093 0.66 104 17:56 12.12.2019
6276 Clear 13 1024 47 16093 0.66 104 17:38 12.12.2019
6277 Clear 12 1023 76 16093 0.42 138 17:19 12.12.2019
6278 Clear 11 1024 76 16093 0.42 138 16:55 12.12.2019
6279 Clear 10 1023 58 16093 0.42 138 16:36 12.12.2019
6280 Clear 10 1023 76 16093 0.42 138 16:18 12.12.2019
6281 Clear 10 1023 62 16093 2.6 60 15:54 12.12.2019
6282 Clear 10 1022 81 16093 0.42 138 15:36 12.12.2019
6283 Clear 10 1022 81 16093 0.42 138 15:18 12.12.2019
6284 Clear 10 1023 62 16093 0.42 138 14:38 12.12.2019
6285 Clear 10 1022 81 16093 0.86 125 14:19 12.12.2019
6286 Clear 10 1022 62 16093 2.1 20 13:57 12.12.2019
6287 Clear 10 1022 62 16093 2.1 20 13:38 12.12.2019
6288 Clear 10 1022 76 16093 0.05 246 13:20 12.12.2019
6289 Clear 10 1022 62 16093 0.05 246 12:57 12.12.2019
6290 Clear 11 1022 76 16093 0.05 246 12:38 12.12.2019
6291 Clear 11 1022 62 16093 0.05 246 12:38 12.12.2019
6292 Clear 11 1022 76 16093 0.05 246 12:19 12.12.2019
6293 Clear 11 1022 76 16093 0.05 246 12:19 12.12.2019
6294 Clear 11 1022 58 16093 0.05 246 11:55 12.12.2019
6295 Clear 11 1022 76 16093 0.05 246 11:37 12.12.2019
6296 Clear 11 1022 76 16093 0.31 99 11:19 12.12.2019
6297 Clear 11 1022 58 16093 0.31 99 10:42 12.12.2019
6298 Clear 11 1022 71 16093 0.31 99 10:24 12.12.2019
6299 Clear 11 1022 58 16093 0.31 99 09:59 12.12.2019
6300 Clear 11 1022 58 16093 0.31 99 09:41 12.12.2019
6301 Clear 11 1022 71 16093 0.31 99 09:23 12.12.2019
6302 Clear 11 1022 54 16093 2.1 10 08:56 12.12.2019
6303 Clear 12 1022 54 16093 2.1 10 08:38 12.12.2019
6304 Clear 12 1022 82 16093 0.79 114 08:20 12.12.2019
6305 Clear 12 1023 58 16093 0.79 114 07:43 12.12.2019
6306 Clouds 12 1022 82 16093 2.6 100 07:24 12.12.2019
6307 Clear 12 1022 50 16093 1.5 30 06:50 12.12.2019
6308 Clear 12 1022 77 16093 2.1 100 06:32 12.12.2019
6309 Clear 12 1022 58 16093 2.1 10 05:39 12.12.2019
6310 Clear 13 1022 58 16093 1.06 227 04:52 12.12.2019
6311 Clear 14 1021 67 16093 1.06 227 03:31 12.12.2019
6312 Clear 15 1021 54 16093 2.1 330 02:38 12.12.2019
6313 Clear 15 1021 67 16093 1.5 280 02:20 12.12.2019
6314 Clear 17 1021 41 16093 1.5 270 01:40 12.12.2019
6315 Clear 17 1021 55 16093 1.5 250 01:22 12.12.2019
6316 Clear 18 1021 39 16093 2.1 240 00:46 12.12.2019
6317 Clear 18 1020 45 16093 2.1 260 00:20 12.12.2019
6318 Clear 18 1021 39 16093 2.81 243 23:44 11.12.2019
6319 Clear 19 1020 45 16093 2.01 235 23:21 11.12.2019
6320 Clear 19 1021 36 16093 2.6 260 22:57 11.12.2019
6321 Clear 18 1021 45 16093 1.5 0 22:39 11.12.2019
6322 Clear 18 1022 52 16093 2.6 290 22:20 11.12.2019
6323 Clear 18 1022 39 16093 2.6 250 21:57 11.12.2019
6324 Clear 18 1022 36 16093 3.1 250 21:38 11.12.2019
6325 Clear 18 1022 52 16093 2.1 290 21:20 11.12.2019
6326 Clear 18 1022 41 16093 2.6 190 20:56 11.12.2019
6327 Clear 18 1023 45 16093 2.01 235 20:37 11.12.2019
6328 Clear 17 1023 45 16093 0.52 183 20:19 11.12.2019
6329 Clear 17 1023 38 16093 0.52 183 19:58 11.12.2019
6330 Clear 16 1023 45 16093 0.52 183 19:39 11.12.2019
6331 Clear 16 1023 45 16093 0.52 183 19:19 11.12.2019
6332 Clear 15 1023 44 16093 2.1 120 18:42 11.12.2019
6333 Clear 14 1023 62 16093 0.52 183 18:22 11.12.2019
6334 Clear 12 1023 43 16093 0.52 183 17:57 11.12.2019
6335 Clear 11 1023 43 16093 0.52 183 17:39 11.12.2019
6336 Clear 10 1023 66 16093 0.32 270 17:19 11.12.2019
6337 Clear 9 1022 53 16093 2.1 80 16:58 11.12.2019
6338 Clear 9 1022 53 16093 2.1 80 16:40 11.12.2019
6339 Clear 8 1022 71 16093 0.32 270 16:22 11.12.2019
6340 Clear 8 1022 52 16093 0.32 270 15:59 11.12.2019
6341 Clear 8 1022 52 16093 0.32 270 15:41 11.12.2019
6342 Clear 8 1022 71 16093 0.32 270 15:23 11.12.2019
6343 Clear 8 1022 49 16093 0.32 270 14:57 11.12.2019
6344 Clear 8 1022 71 16093 0.32 270 14:39 11.12.2019
6345 Clear 8 1022 71 16093 0.21 313 14:20 11.12.2019
6346 Clear 8 1022 43 16093 2.6 360 13:56 11.12.2019
6347 Clear 8 1022 43 16093 2.6 360 13:38 11.12.2019
6348 Clear 8 1022 76 16093 0.14 227 13:19 11.12.2019
6349 Clear 9 1022 37 16093 2.1 10 12:56 11.12.2019
6350 Clear 8 1022 37 16093 2.1 10 12:38 11.12.2019
6351 Mist 9 1022 93 6437 0.14 227 12:19 11.12.2019
6352 Mist 9 1022 93 6437 0.14 227 12:19 11.12.2019
6353 Fog 9 1022 100 402 0.14 227 11:57 11.12.2019
6354 Clear 9 1022 43 16093 3.1 10 11:38 11.12.2019
6355 Clear 9 1022 43 16093 3.1 10 11:38 11.12.2019
6356 Mist 9 1022 93 1207 0.55 296 11:18 11.12.2019
6357 Mist 9 1022 93 1207 0.55 296 11:18 11.12.2019
6358 Mist 9 1022 93 1207 0.55 296 10:55 11.12.2019
6359 Mist 9 1022 81 2816 0.55 296 10:37 11.12.2019
6360 Mist 9 1022 81 2816 0.55 296 10:19 11.12.2019
6361 Clear 9 1023 43 16093 1.5 50 09:40 11.12.2019
6362 Clear 10 1023 81 12874 0.55 296 09:21 11.12.2019
6363 Clear 10 1023 32 16093 3.6 10 08:58 11.12.2019
6364 Clear 10 1023 32 16093 3.6 10 08:38 11.12.2019
6365 Clear 10 1023 82 11265 1.35 282 08:19 11.12.2019
6366 Clear 10 1023 62 16093 2.6 30 07:56 11.12.2019
6367 Clear 10 1023 62 16093 2.6 30 07:38 11.12.2019
6368 Clear 10 1023 82 11265 0.84 295 07:19 11.12.2019
6369 Clear 11 1023 37 16093 2.6 200 06:44 11.12.2019
6370 Haze 11 1022 82 9656 0.84 295 06:22 11.12.2019
6371 Clear 12 1023 43 16093 2.6 40 05:41 11.12.2019
6372 Clear 12 1022 82 11265 1.45 249 05:21 11.12.2019
6373 Clear 13 1023 87 16093 1.45 249 04:38 11.12.2019
6374 Clear 14 1023 62 16093 1.45 249 02:49 11.12.2019
6375 Clear 16 1022 63 16093 2.1 270 01:26 11.12.2019
6376 Clear 17 1022 31 16093 1.4 251 00:49 11.12.2019
6377 Clear 18 1022 43 16093 1.4 251 00:23 11.12.2019
6378 Clear 18 1022 34 16093 1.4 251 23:58 10.12.2019
6379 Clear 18 1022 34 16093 1.4 251 23:39 10.12.2019
6380 Clear 18 1022 35 16093 1.11 202 23:21 10.12.2019
6381 Clear 18 1022 36 16093 1.11 202 22:41 10.12.2019
6382 Clear 18 1022 37 16093 1.11 202 22:22 10.12.2019
6383 Clear 18 1023 44 14484 1.11 202 21:57 10.12.2019
6384 Clear 18 1023 44 14484 1.11 202 21:39 10.12.2019
6385 Clear 18 1023 42 16093 1.5 100 21:21 10.12.2019
6386 Clear 17 1024 41 16093 1.11 202 20:57 10.12.2019
6387 Clear 17 1024 41 16093 1.25 238 20:38 10.12.2019
6388 Clear 16 1024 42 16093 1.5 0 20:19 10.12.2019
6389 Clear 16 1024 42 16093 1.5 0 20:19 10.12.2019
6390 Clear 16 1024 42 16093 1.5 0 20:19 10.12.2019
6391 Clear 16 1024 50 16093 2.1 170 19:55 10.12.2019
6392 Clear 15 1024 50 16093 2.1 170 19:37 10.12.2019
6393 Clear 15 1024 51 16093 0.35 72 19:19 10.12.2019
6394 Clear 14 1024 58 16093 0.35 72 18:42 10.12.2019
6395 Clear 13 1024 58 16093 0.35 72 18:21 10.12.2019
6396 Clear 13 1024 54 16093 2.1 90 17:59 10.12.2019
6397 Clear 13 1024 54 16093 2.1 90 17:41 10.12.2019
6398 Clear 11 1023 58 16093 0.72 69 17:22 10.12.2019
6399 Clear 10 1023 57 16093 0.72 69 16:57 10.12.2019
6400 Clear 9 1023 57 16093 0.72 69 16:39 10.12.2019
6401 Clouds 9 1023 71 16093 1.5 20 16:19 10.12.2019
6402 Clear 9 1022 61 16093 1.5 60 15:39 10.12.2019
6403 Clear 9 1022 71 16093 0.72 69 15:18 10.12.2019
6404 Clear 9 1022 61 16093 2.1 20 14:56 10.12.2019
6405 Clear 9 1022 61 16093 2.1 20 14:38 10.12.2019
6406 Clear 9 1022 66 16093 0.86 267 14:20 10.12.2019
6407 Clouds 9 1022 87 14484 0.86 267 13:58 10.12.2019
6408 Clouds 9 1022 87 14484 0.86 267 13:40 10.12.2019
6409 Clear 9 1022 71 16093 0.48 268 13:20 10.12.2019
6410 Clear 9 1022 71 16093 0.48 268 13:20 10.12.2019
6411 Clouds 9 1022 87 16093 0.48 268 12:49 10.12.2019
6412 Clouds 9 1022 87 16093 0.48 268 12:28 10.12.2019
6413 Clouds 9 1022 81 16093 0.48 268 11:59 10.12.2019
6414 Clouds 9 1022 81 16093 0.48 268 11:40 10.12.2019
6415 Clear 9 1021 71 16093 1.5 30 11:21 10.12.2019
6416 Clouds 10 1021 76 16093 0.4 212 10:43 10.12.2019
6417 Clouds 10 1021 76 16093 0.4 212 10:25 10.12.2019
6418 Clear 10 1021 62 16093 0.4 212 09:58 10.12.2019
6419 Clear 10 1021 62 16093 0.4 212 09:40 10.12.2019
6420 Clear 10 1021 76 16093 0.4 212 09:22 10.12.2019
6421 Clear 10 1021 62 16093 1.5 60 08:59 10.12.2019
6422 Clear 11 1021 62 16093 1.5 60 08:40 10.12.2019
6423 Clear 10 1021 82 16093 0.85 167 08:22 10.12.2019
6424 Clear 11 1021 66 16093 3.1 70 07:57 10.12.2019
6425 Clear 11 1021 66 16093 3.1 70 07:39 10.12.2019
6426 Clear 11 1020 82 16093 3.1 100 07:20 10.12.2019
6427 Clear 11 1020 62 16093 2.6 20 06:46 10.12.2019
6428 Clear 12 1020 71 16093 0.93 175 06:19 10.12.2019
6429 Clear 12 1020 71 16093 0.93 175 06:19 10.12.2019
6430 Clear 12 1020 66 16093 2.1 330 05:52 10.12.2019
6431 Clear 13 1019 66 16093 1.5 20 04:50 10.12.2019
6432 Clear 14 1018 67 16093 1.51 219 03:32 10.12.2019
6433 Clear 15 1018 71 16093 2.1 340 02:40 10.12.2019
6434 Clear 16 1018 63 16093 2.1 250 01:44 10.12.2019
6435 Clouds 17 1017 63 16093 6.7 260 01:20 10.12.2019
6436 Clear 18 1017 51 16093 2.66 210 00:40 10.12.2019
6437 Clouds 19 1017 59 16093 3.6 230 00:19 10.12.2019
6438 Clear 19 1017 51 16093 4.1 240 23:41 09.12.2019
6439 Clear 19 1017 51 16093 4.1 240 23:41 09.12.2019
6440 Clear 19 1017 49 16093 2.38 218 23:22 09.12.2019
6441 Clear 19 1018 59 16093 3.6 240 22:58 09.12.2019
6442 Clear 19 1018 59 16093 3.6 240 22:39 09.12.2019
6443 Clear 18 1017 52 16093 2.38 218 22:19 09.12.2019
6444 Clear 18 1018 63 16093 3.1 260 21:56 09.12.2019
6445 Clear 18 1018 63 16093 3.1 260 21:38 09.12.2019
6446 Clear 18 1018 59 14484 2.38 218 21:18 09.12.2019
6447 Clear 17 1019 63 16093 3.6 260 20:56 09.12.2019
6448 Clear 17 1019 67 12874 1.5 0 20:38 09.12.2019
6449 Clear 17 1019 67 12874 1.5 0 20:20 09.12.2019
6450 Clear 16 1019 62 16093 1.81 197 19:55 09.12.2019
6451 Clear 16 1019 62 16093 1.81 197 19:55 09.12.2019
6452 Clear 16 1019 62 16093 1.81 197 19:37 09.12.2019
6453 Clear 15 1019 63 16093 2.1 90 19:19 09.12.2019
6454 Mist 15 1019 93 6437 1.81 197 18:56 09.12.2019
6455 Mist 14 1019 100 6437 1.81 197 18:37 09.12.2019
6456 Clear 13 1019 71 16093 1.81 197 18:19 09.12.2019
6457 Fog 13 1019 100 402 1.81 197 17:57 09.12.2019
6458 Fog 12 1019 100 402 1.81 197 17:38 09.12.2019
6459 Clouds 11 1018 81 16093 0.54 230 17:20 09.12.2019
6460 Clouds 11 1018 76 16093 0.54 230 16:56 09.12.2019
6461 Clouds 10 1018 81 16093 0.54 230 16:37 09.12.2019
6462 Clouds 9 1018 81 16093 0.54 230 16:19 09.12.2019
6463 Mist 9 1017 100 6437 0.54 230 15:55 09.12.2019
6464 Mist 9 1017 100 6437 0.54 230 15:37 09.12.2019
6465 Clear 9 1017 76 16093 0.54 230 15:19 09.12.2019
6466 Mist 10 1017 100 4828 0.54 230 14:42 09.12.2019
6467 Clear 10 1017 81 16093 0.63 98 14:19 09.12.2019
6468 Mist 10 1016 81 8047 0.63 98 13:59 09.12.2019
6469 Mist 10 1016 81 8047 0.63 98 13:39 09.12.2019
6470 Rain 10 1017 93 8047 0.7 126 13:20 09.12.2019
6471 Rain 10 1016 87 16093 2.1 30 12:58 09.12.2019
6472 Rain 10 1016 87 16093 2.1 30 12:39 09.12.2019
6473 Rain 10 1016 81 16093 0.7 126 12:21 09.12.2019
6474 Rain 10 1017 76 16093 2.6 10 11:59 09.12.2019
6475 Rain 11 1017 76 16093 2.6 10 11:39 09.12.2019
6476 Rain 11 1017 76 16093 2.6 10 11:39 09.12.2019
6477 Clear 10 1017 82 16093 0.63 175 11:21 09.12.2019
6478 Clear 11 1016 81 16093 2.1 20 10:56 09.12.2019
6479 Clear 11 1016 81 16093 2.1 20 10:38 09.12.2019
6480 Clear 11 1016 87 16093 0.63 175 10:19 09.12.2019
6481 Rain 11 1017 76 16093 2.1 10 09:41 09.12.2019
6482 Clear 12 1017 82 16093 0.63 175 09:23 09.12.2019
6483 Clouds 12 1017 93 16093 0.63 175 08:55 09.12.2019
6484 Clouds 12 1017 93 16093 0.63 175 08:37 09.12.2019
6485 Rain 12 1017 87 16093 1.5 210 08:19 09.12.2019
6486 Clouds 12 1017 87 16093 1.62 239 07:48 09.12.2019
6487 Clouds 12 1016 81 16093 2.1 60 07:30 09.12.2019
6488 Rain 12 1016 100 11265 1.62 239 06:55 09.12.2019
6489 Rain 12 1016 82 16093 1.62 239 06:29 09.12.2019
6490 Rain 12 1016 82 16093 1.62 239 05:31 09.12.2019
6491 Clouds 13 1016 87 16093 3.77 251 04:58 09.12.2019
6492 Clouds 13 1016 77 16093 3.77 251 04:25 09.12.2019
6493 Rain 14 1015 72 16093 3.77 251 02:28 09.12.2019
6494 Rain 15 1016 100 16093 4.1 240 01:46 09.12.2019
6495 Rain 15 1016 93 16093 4.1 260 00:57 09.12.2019
6496 Rain 16 1015 72 16093 3.1 260 00:33 09.12.2019
6497 Rain 16 1015 72 16093 3.6 260 23:55 08.12.2019
6498 Rain 16 1016 100 16093 3.6 230 23:37 08.12.2019
6499 Rain 16 1016 82 16093 7.2 250 23:19 08.12.2019
6500 Rain 16 1016 82 8047 2.1 280 22:56 08.12.2019
6501 Rain 16 1016 87 8047 4.1 240 22:38 08.12.2019
6502 Rain 16 1016 82 2012 2.6 230 22:18 08.12.2019
6503 Rain 16 1016 77 9656 5.34 248 21:56 08.12.2019
6504 Rain 16 1016 82 16093 2.1 270 21:37 08.12.2019
6505 Rain 16 1016 87 4828 2.6 190 21:19 08.12.2019
6506 Rain 16 1016 87 4828 2.6 190 21:19 08.12.2019
6507 Rain 16 1018 77 16093 5.1 240 20:56 08.12.2019
6508 Rain 16 1018 77 16093 5.1 240 20:37 08.12.2019
6509 Rain 16 1018 72 12874 3 255 20:19 08.12.2019
6510 Rain 16 1018 72 16093 3 255 19:55 08.12.2019
6511 Rain 16 1018 93 6437 2.1 190 19:37 08.12.2019
6512 Clouds 16 1019 82 16093 3 255 19:18 08.12.2019
6513 Clouds 15 1019 82 16093 2.6 140 18:54 08.12.2019
6514 Clouds 15 1019 82 16093 3 255 18:36 08.12.2019
6515 Clouds 15 1019 82 16093 3 255 18:36 08.12.2019
6516 Clouds 15 1019 82 16093 3 255 18:18 08.12.2019
6517 Clouds 15 1019 82 16093 3 255 17:55 08.12.2019
6518 Mist 14 1018 87 6437 3 255 17:36 08.12.2019
6519 Clouds 14 1018 93 11265 2.1 130 17:18 08.12.2019
6520 Clouds 14 1018 93 11265 2.1 150 16:55 08.12.2019
6521 Mist 14 1018 93 1609 0.44 180 16:37 08.12.2019
6522 Mist 14 1018 87 8047 0.44 180 16:18 08.12.2019
6523 Clouds 14 1018 93 11265 0.44 180 15:38 08.12.2019
6524 Clouds 14 1018 93 11265 0.44 180 15:19 08.12.2019
6525 Clouds 14 1018 93 11265 0.44 180 15:19 08.12.2019
6526 Rain 14 1018 87 11265 0.44 180 14:58 08.12.2019
6527 Rain 14 1018 87 11265 0.44 180 14:39 08.12.2019
6528 Rain 14 1018 87 11265 0.44 180 14:39 08.12.2019
6529 Rain 14 1018 87 11265 0.98 194 14:21 08.12.2019
6530 Rain 14 1018 87 8047 0.98 194 13:56 08.12.2019
6531 Rain 14 1018 87 8047 0.98 194 13:56 08.12.2019
6532 Rain 14 1017 93 16093 1.5 130 13:38 08.12.2019
6533 Rain 14 1018 87 9656 0.22 198 13:19 08.12.2019
6534 Rain 14 1018 87 4828 0.22 198 12:54 08.12.2019
6535 Rain 14 1018 93 11265 0.22 198 12:36 08.12.2019
6536 Rain 14 1018 93 11265 0.22 198 12:18 08.12.2019
6537 Rain 14 1018 93 9656 0.22 198 11:38 08.12.2019
6538 Rain 14 1018 82 12874 1.93 212 11:20 08.12.2019
6539 Rain 14 1018 82 4828 1.93 212 10:58 08.12.2019
6540 Rain 14 1019 100 8047 1.93 212 10:38 08.12.2019
6541 Rain 14 1019 82 6437 1.93 212 10:20 08.12.2019
6542 Rain 14 1019 93 16093 2.6 230 09:56 08.12.2019
6543 Rain 14 1019 93 4828 2.1 150 09:37 08.12.2019
6544 Rain 14 1019 93 4828 2.1 150 09:19 08.12.2019
6545 Rain 15 1019 87 16093 3.1 200 08:57 08.12.2019
6546 Rain 15 1019 87 16093 3.1 200 08:37 08.12.2019
6547 Rain 15 1019 87 16093 1.09 180 08:19 08.12.2019
6548 Rain 15 1019 100 4828 2.1 280 07:43 08.12.2019
6549 Clouds 15 1019 87 16093 1.09 180 07:20 08.12.2019
6550 Clouds 15 1019 77 16093 1.09 180 06:50 08.12.2019
6551 Rain 15 1019 82 16093 1.09 180 06:22 08.12.2019
6552 Rain 15 1019 82 9656 2.6 180 05:48 08.12.2019
6553 Rain 15 1019 77 16093 2.1 210 05:18 08.12.2019
6554 Clouds 15 1018 82 16093 2.6 140 03:50 08.12.2019
6555 Clouds 15 1018 72 16093 1.23 185 03:23 08.12.2019
6556 Clouds 15 1019 100 14484 2.1 280 02:39 08.12.2019
6557 Mist 16 1019 100 6437 2.1 230 01:56 08.12.2019
6558 Clouds 16 1018 72 16093 1.5 290 01:27 08.12.2019
6559 Clouds 16 1018 82 16093 2.17 198 00:40 08.12.2019
6560 Rain 16 1019 68 16093 1.5 0 00:21 08.12.2019
6561 Rain 16 1019 82 12874 2.1 260 23:42 07.12.2019
6562 Rain 16 1019 77 16093 1.5 160 23:21 07.12.2019
6563 Rain 17 1019 100 14484 2.51 184 22:58 07.12.2019
6564 Rain 17 1019 100 14484 2.51 184 22:40 07.12.2019
6565 Rain 17 1019 68 16093 2.51 184 22:22 07.12.2019
6566 Rain 17 1020 72 16093 3.1 230 21:56 07.12.2019
6567 Rain 17 1020 72 16093 3.1 230 21:38 07.12.2019
6568 Rain 17 1019 77 14484 5.7 130 21:20 07.12.2019
6569 Clouds 17 1021 100 11265 1.5 260 20:59 07.12.2019
6570 Clouds 17 1021 100 11265 1.5 260 20:37 07.12.2019
6571 Clouds 17 1021 68 16093 1.5 0 20:19 07.12.2019
6572 Clouds 17 1022 82 16093 1.63 86 19:57 07.12.2019
6573 Clouds 17 1022 82 16093 1.63 86 19:38 07.12.2019
6574 Clouds 17 1021 68 16093 1.5 60 19:20 07.12.2019
6575 Rain 16 1022 93 14484 1.63 86 18:55 07.12.2019
6576 Rain 16 1021 72 16093 1.5 90 18:36 07.12.2019
6577 Clouds 15 1021 82 16093 1.5 80 18:18 07.12.2019
6578 Rain 15 1021 93 14484 1.63 86 17:55 07.12.2019
6579 Rain 15 1021 93 14484 1.63 86 17:36 07.12.2019
6580 Rain 15 1021 93 6437 2.63 259 17:18 07.12.2019
6581 Rain 15 1021 100 14484 1.5 80 16:54 07.12.2019
6582 Rain 14 1020 77 16093 1.5 0 16:36 07.12.2019
6583 Rain 14 1020 77 16093 1.5 0 16:18 07.12.2019
6584 Rain 14 1020 87 4023 2.63 259 15:40 07.12.2019
6585 Rain 14 1020 93 4828 2.63 259 15:22 07.12.2019
6586 Rain 14 1020 93 3219 2.63 259 14:43 07.12.2019
6587 Rain 14 1020 93 8047 0.57 146 14:19 07.12.2019
6588 Rain 14 1020 100 6437 3.1 70 13:59 07.12.2019
6589 Rain 14 1020 100 6437 3.1 70 13:39 07.12.2019
6590 Rain 14 1019 77 16093 0.94 196 13:19 07.12.2019
6591 Drizzle 14 1020 100 11265 2.6 70 12:55 07.12.2019
6592 Drizzle 14 1020 100 11265 2.6 70 12:36 07.12.2019
6593 Rain 14 1020 77 16093 1.5 0 12:18 07.12.2019
6594 Rain 14 1021 100 9656 2.6 360 11:41 07.12.2019
6595 Rain 14 1021 100 9656 2.6 360 11:41 07.12.2019
6596 Rain 14 1020 72 16093 2.1 0 11:23 07.12.2019
6597 Rain 14 1021 77 16093 0.7 344 10:56 07.12.2019
6598 Rain 14 1021 77 16093 1.5 50 10:36 07.12.2019
6599 Rain 14 1021 77 16093 1.5 50 10:18 07.12.2019
6600 Rain 14 1021 82 14484 0.7 344 09:39 07.12.2019
6601 Rain 14 1020 77 9656 0.7 344 09:21 07.12.2019
6602 Clouds 14 1021 100 14484 0.7 344 08:46 07.12.2019
6603 Clouds 14 1021 100 14484 0.7 344 08:46 07.12.2019
6604 Clouds 14 1021 77 16093 1.15 246 08:25 07.12.2019
6605 Clouds 14 1021 77 16093 1.15 246 08:25 07.12.2019
6606 Clouds 14 1021 77 16093 1.15 246 08:25 07.12.2019
6607 Rain 14 1022 87 16093 2.1 70 07:53 07.12.2019
6608 Rain 14 1022 87 16093 2.1 70 07:53 07.12.2019
6609 Rain 14 1021 72 16093 1.15 246 07:29 07.12.2019
6610 Rain 14 1022 87 14484 1.15 246 06:53 07.12.2019
6611 Rain 14 1021 77 16093 1.15 246 06:28 07.12.2019
6612 Rain 14 1021 72 16093 1.5 0 05:50 07.12.2019
6613 Clouds 14 1021 100 16093 1.5 350 04:48 07.12.2019
6614 Rain 14 1021 100 16093 2.6 230 03:52 07.12.2019
6615 Rain 14 1021 87 16093 2.1 260 02:47 07.12.2019
6616 Rain 15 1021 77 16093 2.6 180 02:18 07.12.2019
6617 Rain 15 1020 72 16093 2.1 180 01:25 07.12.2019
6618 Rain 15 1021 87 8047 3.6 90 00:42 07.12.2019
6619 Rain 15 1020 72 16093 3.54 199 00:18 07.12.2019
6620 Rain 16 1020 87 16093 3.6 100 23:45 06.12.2019
6621 Rain 16 1020 72 8047 1.97 153 23:23 06.12.2019
6622 Clouds 17 1021 45 16093 4.1 260 22:58 06.12.2019
6623 Clouds 17 1021 45 16093 4.1 260 22:58 06.12.2019
6624 Clouds 17 1021 45 16093 4.1 260 22:37 06.12.2019
6625 Clouds 18 1021 52 16093 2.6 260 22:18 06.12.2019
6626 Clear 18 1021 45 16093 1.97 153 21:56 06.12.2019
6627 Clear 18 1021 49 16093 1.97 153 21:37 06.12.2019
6628 Clear 19 1021 49 16093 1.97 153 21:19 06.12.2019
6629 Clear 19 1021 42 16093 1.97 153 20:42 06.12.2019
6630 Clear 18 1021 49 16093 1.31 134 20:22 06.12.2019
6631 Clear 18 1021 52 16093 2.1 110 19:57 06.12.2019
6632 Clear 18 1021 52 16093 2.1 110 19:39 06.12.2019
6633 Clear 18 1020 48 16093 1.5 0 19:20 06.12.2019
6634 Clear 17 1021 45 16093 3.6 70 18:44 06.12.2019
6635 Clear 16 1020 52 16093 2.6 0 18:23 06.12.2019
6636 Clear 15 1021 51 16093 2.6 110 17:58 06.12.2019
6637 Clear 15 1021 51 16093 2.6 110 17:40 06.12.2019
6638 Clear 14 1020 59 16093 0.35 84 17:22 06.12.2019
6639 Clear 14 1020 59 16093 0.35 84 17:22 06.12.2019
6640 Clear 12 1021 71 16093 2.6 30 16:59 06.12.2019
6641 Clear 12 1021 71 16093 2.6 30 16:40 06.12.2019
6642 Clear 11 1020 71 16093 1.5 30 16:21 06.12.2019
6643 Clear 11 1020 81 16093 0.35 84 15:56 06.12.2019
6644 Clear 11 1019 67 16093 0.35 84 15:38 06.12.2019
6645 Clear 11 1019 67 16093 0.35 84 15:18 06.12.2019
6646 Clear 12 1019 58 16093 0.35 84 14:41 06.12.2019
6647 Clear 12 1019 71 16093 0.47 88 14:20 06.12.2019
6648 Clear 12 1019 71 16093 3.6 50 13:58 06.12.2019
6649 Clear 12 1019 71 16093 3.6 50 13:40 06.12.2019
6650 Clear 12 1018 71 16093 0.51 119 13:22 06.12.2019
6651 Clear 12 1020 71 16093 0.51 119 12:41 06.12.2019
6652 Clear 12 1019 71 16093 0.51 119 12:22 06.12.2019
6653 Clear 12 1020 71 16093 0.51 119 11:56 06.12.2019
6654 Clear 12 1020 71 16093 0.51 119 11:37 06.12.2019
6655 Clear 12 1020 76 16093 0.76 272 11:19 06.12.2019
6656 Clear 12 1020 66 16093 0.76 272 10:42 06.12.2019
6657 Clear 12 1019 72 16093 0.76 272 10:21 06.12.2019
6658 Clear 12 1020 76 16093 2.1 90 09:57 06.12.2019
6659 Clear 12 1020 76 16093 2.1 90 09:37 06.12.2019
6660 Clear 12 1019 67 16093 0.76 272 09:19 06.12.2019
6661 Clear 12 1020 76 16093 2.1 360 08:45 06.12.2019
6662 Clear 13 1020 87 16093 1.5 330 08:26 06.12.2019
6663 Clear 13 1020 66 16093 0.62 103 07:44 06.12.2019
6664 Clear 13 1019 82 16093 0.62 103 07:24 06.12.2019
6665 Clear 13 1020 71 16093 2.1 50 06:59 06.12.2019
6666 Clear 13 1019 76 16093 1.5 60 06:28 06.12.2019
6667 Clear 13 1020 67 16093 0.62 103 05:53 06.12.2019
6668 Clear 13 1019 77 16093 1.06 228 05:21 06.12.2019
6669 Clear 15 1019 68 16093 1.5 250 02:19 06.12.2019
6670 Clear 16 1019 59 16093 1.5 260 01:29 06.12.2019
6671 Clear 17 1019 55 16093 1.07 186 00:40 06.12.2019
6672 Clear 16 1019 49 16093 1.07 186 00:20 06.12.2019
6673 Clear 17 1019 55 16093 1.07 186 23:45 05.12.2019
6674 Clear 18 1018 45 16093 1.79 151 23:19 05.12.2019
6675 Clouds 18 1020 52 16093 1.79 151 22:57 05.12.2019
6676 Clouds 17 1020 52 16093 1.79 151 22:37 05.12.2019
6677 Clouds 18 1019 52 16093 1.79 151 22:18 05.12.2019
6678 Clouds 17 1020 67 16093 1.79 151 21:44 05.12.2019
6679 Clouds 17 1020 63 16093 1.5 110 21:25 05.12.2019
6680 Clouds 17 1021 63 16093 1.79 151 20:59 05.12.2019
6681 Clouds 17 1021 67 16093 1.54 142 20:40 05.12.2019
6682 Clear 16 1021 59 16093 1.5 170 20:21 05.12.2019
6683 Rain 16 1021 59 16093 1.5 170 19:58 05.12.2019
6684 Rain 16 1021 63 16093 2.6 160 19:58 05.12.2019
6685 Rain 16 1021 72 16093 2.1 0 19:40 05.12.2019
6686 Rain 15 1021 59 16093 2.1 80 19:20 05.12.2019
6687 Clear 15 1021 77 16093 2.1 170 18:57 05.12.2019
6688 Clear 15 1022 82 16093 2.1 100 18:38 05.12.2019
6689 Clear 14 1021 67 16093 1.5 100 18:20 05.12.2019
6690 Clouds 13 1021 87 16093 1.92 94 17:40 05.12.2019
6691